<?xml version="1.0" encoding="UTF-8" standalone="no" ?>
<gpx xmlns="http://www.topografix.com/GPX/1/1" xmlns:xsi="http://www.w3.org/2001/XMLSchema-instance" xsi:schemaLocation="http://www.topografix.com/GPX/1/1 http://www.topografix.com/GPX/1/1/gpx.xsd" version="1.1" creator="VisuGPX - https://www.visugpx.com">
  <metadata>
    <name>Randonnée de Chenôve</name>
    <desc><![CDATA[Très beau temps et très beau parcours.
]]></desc>
  </metadata>
  <trk>
    <name><![CDATA[2015-04-19 08:39]]></name>
    <desc><![CDATA[]]></desc>
    <trkseg>
      <trkpt lat="47.301" lon="4.98634">
        <ele>375</ele>
        <time>2015-04-19T06:39:25.351Z</time>
      </trkpt>
      <trkpt lat="47.301" lon="4.98633">
        <ele>375</ele>
        <time>2015-04-19T06:51:54.166Z</time>
      </trkpt>
      <trkpt lat="47.30099" lon="4.98634">
        <ele>375</ele>
        <time>2015-04-19T06:52:16.113Z</time>
      </trkpt>
      <trkpt lat="47.30097" lon="4.98639">
        <ele>375</ele>
        <time>2015-04-19T06:52:17.124Z</time>
      </trkpt>
      <trkpt lat="47.30098" lon="4.98647">
        <ele>375</ele>
        <time>2015-04-19T06:52:25.120Z</time>
      </trkpt>
      <trkpt lat="47.30098" lon="4.98647">
        <ele>375</ele>
        <time>2015-04-19T06:52:26.103Z</time>
      </trkpt>
      <trkpt lat="47.30098" lon="4.98648">
        <ele>375</ele>
        <time>2015-04-19T06:52:27.131Z</time>
      </trkpt>
      <trkpt lat="47.30099" lon="4.98649">
        <ele>375</ele>
        <time>2015-04-19T06:52:28.123Z</time>
      </trkpt>
      <trkpt lat="47.30099" lon="4.98649">
        <ele>375</ele>
        <time>2015-04-19T06:52:45.139Z</time>
      </trkpt>
      <trkpt lat="47.30099" lon="4.98648">
        <ele>375</ele>
        <time>2015-04-19T06:52:46.131Z</time>
      </trkpt>
      <trkpt lat="47.30099" lon="4.98648">
        <ele>375</ele>
        <time>2015-04-19T06:52:47.127Z</time>
      </trkpt>
      <trkpt lat="47.30097" lon="4.98647">
        <ele>375</ele>
        <time>2015-04-19T06:54:09.144Z</time>
      </trkpt>
      <trkpt lat="47.30096" lon="4.98645">
        <ele>375</ele>
        <time>2015-04-19T06:54:10.140Z</time>
      </trkpt>
      <trkpt lat="47.30096" lon="4.98631">
        <ele>375</ele>
        <time>2015-04-19T06:54:24.140Z</time>
      </trkpt>
      <trkpt lat="47.30096" lon="4.98631">
        <ele>375</ele>
        <time>2015-04-19T06:54:25.144Z</time>
      </trkpt>
      <trkpt lat="47.30095" lon="4.98627">
        <ele>375</ele>
        <time>2015-04-19T06:54:29.152Z</time>
      </trkpt>
      <trkpt lat="47.30095" lon="4.98628">
        <ele>375</ele>
        <time>2015-04-19T06:54:30.141Z</time>
      </trkpt>
      <trkpt lat="47.30095" lon="4.98628">
        <ele>375</ele>
        <time>2015-04-19T06:54:33.147Z</time>
      </trkpt>
      <trkpt lat="47.30095" lon="4.98629">
        <ele>375</ele>
        <time>2015-04-19T06:54:34.135Z</time>
      </trkpt>
      <trkpt lat="47.30098" lon="4.98633">
        <ele>375</ele>
        <time>2015-04-19T06:54:39.146Z</time>
      </trkpt>
      <trkpt lat="47.30098" lon="4.98633">
        <ele>375</ele>
        <time>2015-04-19T06:54:40.142Z</time>
      </trkpt>
      <trkpt lat="47.30098" lon="4.98633">
        <ele>375</ele>
        <time>2015-04-19T06:54:41.137Z</time>
      </trkpt>
      <trkpt lat="47.30098" lon="4.98633">
        <ele>375</ele>
        <time>2015-04-19T06:54:42.138Z</time>
      </trkpt>
      <trkpt lat="47.30098" lon="4.98633">
        <ele>375</ele>
        <time>2015-04-19T06:55:10.139Z</time>
      </trkpt>
      <trkpt lat="47.30097" lon="4.98633">
        <ele>375</ele>
        <time>2015-04-19T06:55:11.128Z</time>
      </trkpt>
      <trkpt lat="47.30096" lon="4.98633">
        <ele>375</ele>
        <time>2015-04-19T06:55:12.130Z</time>
      </trkpt>
      <trkpt lat="47.30096" lon="4.98634">
        <ele>375</ele>
        <time>2015-04-19T06:55:13.152Z</time>
      </trkpt>
      <trkpt lat="47.30096" lon="4.98634">
        <ele>375</ele>
        <time>2015-04-19T06:55:14.149Z</time>
      </trkpt>
      <trkpt lat="47.30096" lon="4.98634">
        <ele>375</ele>
        <time>2015-04-19T06:55:15.152Z</time>
      </trkpt>
      <trkpt lat="47.3009" lon="4.98626">
        <ele>375</ele>
        <time>2015-04-19T06:55:22.134Z</time>
      </trkpt>
      <trkpt lat="47.30088" lon="4.98625">
        <ele>375</ele>
        <time>2015-04-19T06:55:23.146Z</time>
      </trkpt>
      <trkpt lat="47.30083" lon="4.98615">
        <ele>375</ele>
        <time>2015-04-19T06:55:30.139Z</time>
      </trkpt>
      <trkpt lat="47.30083" lon="4.98613">
        <ele>377</ele>
        <time>2015-04-19T06:55:31.146Z</time>
      </trkpt>
      <trkpt lat="47.30079" lon="4.98601">
        <ele>377</ele>
        <time>2015-04-19T06:55:37.148Z</time>
      </trkpt>
      <trkpt lat="47.30079" lon="4.986">
        <ele>377</ele>
        <time>2015-04-19T06:55:38.137Z</time>
      </trkpt>
      <trkpt lat="47.30076" lon="4.98588">
        <ele>377</ele>
        <time>2015-04-19T06:55:45.155Z</time>
      </trkpt>
      <trkpt lat="47.30076" lon="4.98586">
        <ele>377</ele>
        <time>2015-04-19T06:55:46.142Z</time>
      </trkpt>
      <trkpt lat="47.3007" lon="4.98576">
        <ele>377</ele>
        <time>2015-04-19T06:55:57.148Z</time>
      </trkpt>
      <trkpt lat="47.30069" lon="4.98575">
        <ele>377</ele>
        <time>2015-04-19T06:55:58.154Z</time>
      </trkpt>
      <trkpt lat="47.30067" lon="4.98563">
        <ele>378</ele>
        <time>2015-04-19T06:56:05.131Z</time>
      </trkpt>
      <trkpt lat="47.30066" lon="4.98561">
        <ele>378</ele>
        <time>2015-04-19T06:56:06.146Z</time>
      </trkpt>
      <trkpt lat="47.30063" lon="4.98549">
        <ele>378</ele>
        <time>2015-04-19T06:56:12.163Z</time>
      </trkpt>
      <trkpt lat="47.30062" lon="4.98546">
        <ele>378</ele>
        <time>2015-04-19T06:56:13.145Z</time>
      </trkpt>
      <trkpt lat="47.30058" lon="4.98537">
        <ele>378</ele>
        <time>2015-04-19T06:56:19.146Z</time>
      </trkpt>
      <trkpt lat="47.30057" lon="4.98534">
        <ele>378</ele>
        <time>2015-04-19T06:56:20.153Z</time>
      </trkpt>
      <trkpt lat="47.30053" lon="4.98543">
        <ele>378</ele>
        <time>2015-04-19T06:56:32.166Z</time>
      </trkpt>
      <trkpt lat="47.30053" lon="4.98545">
        <ele>378</ele>
        <time>2015-04-19T06:56:33.141Z</time>
      </trkpt>
      <trkpt lat="47.30047" lon="4.98554">
        <ele>378</ele>
        <time>2015-04-19T06:56:39.139Z</time>
      </trkpt>
      <trkpt lat="47.30046" lon="4.98556">
        <ele>378</ele>
        <time>2015-04-19T06:56:40.141Z</time>
      </trkpt>
      <trkpt lat="47.30039" lon="4.98561">
        <ele>378</ele>
        <time>2015-04-19T06:56:45.153Z</time>
      </trkpt>
      <trkpt lat="47.30037" lon="4.98561">
        <ele>378</ele>
        <time>2015-04-19T06:56:46.145Z</time>
      </trkpt>
      <trkpt lat="47.3003" lon="4.98553">
        <ele>378</ele>
        <time>2015-04-19T06:56:52.126Z</time>
      </trkpt>
      <trkpt lat="47.3003" lon="4.9855">
        <ele>378</ele>
        <time>2015-04-19T06:56:53.158Z</time>
      </trkpt>
      <trkpt lat="47.30023" lon="4.98543">
        <ele>378</ele>
        <time>2015-04-19T06:56:58.154Z</time>
      </trkpt>
      <trkpt lat="47.30021" lon="4.98542">
        <ele>378</ele>
        <time>2015-04-19T06:56:59.156Z</time>
      </trkpt>
      <trkpt lat="47.30015" lon="4.98534">
        <ele>378</ele>
        <time>2015-04-19T06:57:05.123Z</time>
      </trkpt>
      <trkpt lat="47.30014" lon="4.98533">
        <ele>379</ele>
        <time>2015-04-19T06:57:06.158Z</time>
      </trkpt>
      <trkpt lat="47.30006" lon="4.98527">
        <ele>379</ele>
        <time>2015-04-19T06:57:12.141Z</time>
      </trkpt>
      <trkpt lat="47.30005" lon="4.98527">
        <ele>379</ele>
        <time>2015-04-19T06:57:13.147Z</time>
      </trkpt>
      <trkpt lat="47.29996" lon="4.98523">
        <ele>380</ele>
        <time>2015-04-19T06:57:19.156Z</time>
      </trkpt>
      <trkpt lat="47.29995" lon="4.98523">
        <ele>380</ele>
        <time>2015-04-19T06:57:20.135Z</time>
      </trkpt>
      <trkpt lat="47.29987" lon="4.98524">
        <ele>381</ele>
        <time>2015-04-19T06:57:25.156Z</time>
      </trkpt>
      <trkpt lat="47.29985" lon="4.98524">
        <ele>381</ele>
        <time>2015-04-19T06:57:26.152Z</time>
      </trkpt>
      <trkpt lat="47.29977" lon="4.98526">
        <ele>381</ele>
        <time>2015-04-19T06:57:31.133Z</time>
      </trkpt>
      <trkpt lat="47.29975" lon="4.98526">
        <ele>381</ele>
        <time>2015-04-19T06:57:32.147Z</time>
      </trkpt>
      <trkpt lat="47.29967" lon="4.98528">
        <ele>381</ele>
        <time>2015-04-19T06:57:37.162Z</time>
      </trkpt>
      <trkpt lat="47.29966" lon="4.98528">
        <ele>381</ele>
        <time>2015-04-19T06:57:38.155Z</time>
      </trkpt>
      <trkpt lat="47.29958" lon="4.9853">
        <ele>381</ele>
        <time>2015-04-19T06:57:43.164Z</time>
      </trkpt>
      <trkpt lat="47.29956" lon="4.98531">
        <ele>381</ele>
        <time>2015-04-19T06:57:44.156Z</time>
      </trkpt>
      <trkpt lat="47.29949" lon="4.98534">
        <ele>381</ele>
        <time>2015-04-19T06:57:49.129Z</time>
      </trkpt>
      <trkpt lat="47.29947" lon="4.98535">
        <ele>381</ele>
        <time>2015-04-19T06:57:50.148Z</time>
      </trkpt>
      <trkpt lat="47.2994" lon="4.98538">
        <ele>381</ele>
        <time>2015-04-19T06:57:55.158Z</time>
      </trkpt>
      <trkpt lat="47.29938" lon="4.98539">
        <ele>381</ele>
        <time>2015-04-19T06:57:56.162Z</time>
      </trkpt>
      <trkpt lat="47.2993" lon="4.98543">
        <ele>381</ele>
        <time>2015-04-19T06:58:02.131Z</time>
      </trkpt>
      <trkpt lat="47.29928" lon="4.98544">
        <ele>381</ele>
        <time>2015-04-19T06:58:03.141Z</time>
      </trkpt>
      <trkpt lat="47.2992" lon="4.98545">
        <ele>382</ele>
        <time>2015-04-19T06:58:09.155Z</time>
      </trkpt>
      <trkpt lat="47.29919" lon="4.98545">
        <ele>382</ele>
        <time>2015-04-19T06:58:10.143Z</time>
      </trkpt>
      <trkpt lat="47.29911" lon="4.98548">
        <ele>384</ele>
        <time>2015-04-19T06:58:17.151Z</time>
      </trkpt>
      <trkpt lat="47.2991" lon="4.98548">
        <ele>384</ele>
        <time>2015-04-19T06:58:18.146Z</time>
      </trkpt>
      <trkpt lat="47.29908" lon="4.98548">
        <ele>384</ele>
        <time>2015-04-19T06:58:22.149Z</time>
      </trkpt>
      <trkpt lat="47.29908" lon="4.98548">
        <ele>384</ele>
        <time>2015-04-19T06:58:23.152Z</time>
      </trkpt>
      <trkpt lat="47.29908" lon="4.98548">
        <ele>384</ele>
        <time>2015-04-19T06:58:25.174Z</time>
      </trkpt>
      <trkpt lat="47.29907" lon="4.98548">
        <ele>384</ele>
        <time>2015-04-19T06:58:26.149Z</time>
      </trkpt>
      <trkpt lat="47.299" lon="4.98554">
        <ele>384</ele>
        <time>2015-04-19T06:58:33.151Z</time>
      </trkpt>
      <trkpt lat="47.29899" lon="4.98555">
        <ele>384</ele>
        <time>2015-04-19T06:58:34.129Z</time>
      </trkpt>
      <trkpt lat="47.29891" lon="4.98556">
        <ele>384</ele>
        <time>2015-04-19T06:58:40.150Z</time>
      </trkpt>
      <trkpt lat="47.29889" lon="4.98556">
        <ele>384</ele>
        <time>2015-04-19T06:58:41.148Z</time>
      </trkpt>
      <trkpt lat="47.29881" lon="4.98556">
        <ele>384</ele>
        <time>2015-04-19T06:58:47.149Z</time>
      </trkpt>
      <trkpt lat="47.2988" lon="4.98557">
        <ele>384</ele>
        <time>2015-04-19T06:58:48.155Z</time>
      </trkpt>
      <trkpt lat="47.29871" lon="4.98557">
        <ele>384</ele>
        <time>2015-04-19T06:58:54.157Z</time>
      </trkpt>
      <trkpt lat="47.2987" lon="4.98557">
        <ele>384</ele>
        <time>2015-04-19T06:58:55.156Z</time>
      </trkpt>
      <trkpt lat="47.29861" lon="4.98555">
        <ele>384</ele>
        <time>2015-04-19T06:59:01.158Z</time>
      </trkpt>
      <trkpt lat="47.29859" lon="4.98555">
        <ele>384</ele>
        <time>2015-04-19T06:59:02.148Z</time>
      </trkpt>
      <trkpt lat="47.2985" lon="4.98554">
        <ele>384</ele>
        <time>2015-04-19T06:59:08.158Z</time>
      </trkpt>
      <trkpt lat="47.29849" lon="4.98553">
        <ele>384</ele>
        <time>2015-04-19T06:59:09.155Z</time>
      </trkpt>
      <trkpt lat="47.2984" lon="4.98553">
        <ele>384</ele>
        <time>2015-04-19T06:59:15.159Z</time>
      </trkpt>
      <trkpt lat="47.2984" lon="4.98553">
        <ele>384</ele>
        <time>2015-04-19T06:59:16.160Z</time>
      </trkpt>
      <trkpt lat="47.29831" lon="4.98547">
        <ele>386</ele>
        <time>2015-04-19T06:59:25.140Z</time>
      </trkpt>
      <trkpt lat="47.2983" lon="4.98546">
        <ele>386</ele>
        <time>2015-04-19T06:59:26.188Z</time>
      </trkpt>
      <trkpt lat="47.29822" lon="4.98541">
        <ele>386</ele>
        <time>2015-04-19T06:59:32.151Z</time>
      </trkpt>
      <trkpt lat="47.29821" lon="4.98541">
        <ele>386</ele>
        <time>2015-04-19T06:59:33.152Z</time>
      </trkpt>
      <trkpt lat="47.29813" lon="4.98539">
        <ele>386</ele>
        <time>2015-04-19T06:59:39.152Z</time>
      </trkpt>
      <trkpt lat="47.29811" lon="4.98539">
        <ele>386</ele>
        <time>2015-04-19T06:59:40.151Z</time>
      </trkpt>
      <trkpt lat="47.29803" lon="4.98541">
        <ele>386</ele>
        <time>2015-04-19T06:59:46.158Z</time>
      </trkpt>
      <trkpt lat="47.29802" lon="4.9854">
        <ele>386</ele>
        <time>2015-04-19T06:59:47.157Z</time>
      </trkpt>
      <trkpt lat="47.29794" lon="4.98538">
        <ele>386</ele>
        <time>2015-04-19T06:59:53.158Z</time>
      </trkpt>
      <trkpt lat="47.29793" lon="4.98537">
        <ele>386</ele>
        <time>2015-04-19T06:59:54.139Z</time>
      </trkpt>
      <trkpt lat="47.29785" lon="4.98533">
        <ele>386</ele>
        <time>2015-04-19T07:00:00.127Z</time>
      </trkpt>
      <trkpt lat="47.29783" lon="4.98532">
        <ele>386</ele>
        <time>2015-04-19T07:00:01.132Z</time>
      </trkpt>
      <trkpt lat="47.29776" lon="4.98526">
        <ele>386</ele>
        <time>2015-04-19T07:00:07.151Z</time>
      </trkpt>
      <trkpt lat="47.29775" lon="4.98524">
        <ele>386</ele>
        <time>2015-04-19T07:00:08.151Z</time>
      </trkpt>
      <trkpt lat="47.2977" lon="4.98514">
        <ele>386</ele>
        <time>2015-04-19T07:00:16.179Z</time>
      </trkpt>
      <trkpt lat="47.2977" lon="4.98513">
        <ele>386</ele>
        <time>2015-04-19T07:00:17.156Z</time>
      </trkpt>
      <trkpt lat="47.29769" lon="4.98513">
        <ele>386</ele>
        <time>2015-04-19T07:00:19.170Z</time>
      </trkpt>
      <trkpt lat="47.29769" lon="4.98513">
        <ele>386</ele>
        <time>2015-04-19T07:00:20.154Z</time>
      </trkpt>
      <trkpt lat="47.29769" lon="4.98513">
        <ele>386</ele>
        <time>2015-04-19T07:00:21.145Z</time>
      </trkpt>
      <trkpt lat="47.29762" lon="4.98504">
        <ele>386</ele>
        <time>2015-04-19T07:00:31.158Z</time>
      </trkpt>
      <trkpt lat="47.29761" lon="4.98503">
        <ele>386</ele>
        <time>2015-04-19T07:00:32.132Z</time>
      </trkpt>
      <trkpt lat="47.29757" lon="4.98495">
        <ele>386</ele>
        <time>2015-04-19T07:00:42.151Z</time>
      </trkpt>
      <trkpt lat="47.29757" lon="4.98495">
        <ele>386</ele>
        <time>2015-04-19T07:00:43.121Z</time>
      </trkpt>
      <trkpt lat="47.29756" lon="4.98494">
        <ele>386</ele>
        <time>2015-04-19T07:00:44.149Z</time>
      </trkpt>
      <trkpt lat="47.2975" lon="4.98484">
        <ele>386</ele>
        <time>2015-04-19T07:00:52.162Z</time>
      </trkpt>
      <trkpt lat="47.2975" lon="4.98482">
        <ele>386</ele>
        <time>2015-04-19T07:00:53.157Z</time>
      </trkpt>
      <trkpt lat="47.29745" lon="4.98471">
        <ele>386</ele>
        <time>2015-04-19T07:01:01.145Z</time>
      </trkpt>
      <trkpt lat="47.29745" lon="4.9847">
        <ele>386</ele>
        <time>2015-04-19T07:01:02.156Z</time>
      </trkpt>
      <trkpt lat="47.29739" lon="4.98461">
        <ele>386</ele>
        <time>2015-04-19T07:01:10.141Z</time>
      </trkpt>
      <trkpt lat="47.29738" lon="4.9846">
        <ele>386</ele>
        <time>2015-04-19T07:01:11.148Z</time>
      </trkpt>
      <trkpt lat="47.2973" lon="4.98457">
        <ele>386</ele>
        <time>2015-04-19T07:01:18.160Z</time>
      </trkpt>
      <trkpt lat="47.29728" lon="4.98457">
        <ele>386</ele>
        <time>2015-04-19T07:01:19.169Z</time>
      </trkpt>
      <trkpt lat="47.2972" lon="4.98454">
        <ele>386</ele>
        <time>2015-04-19T07:01:25.139Z</time>
      </trkpt>
      <trkpt lat="47.29719" lon="4.98453">
        <ele>386</ele>
        <time>2015-04-19T07:01:26.157Z</time>
      </trkpt>
      <trkpt lat="47.29711" lon="4.98453">
        <ele>386</ele>
        <time>2015-04-19T07:01:33.160Z</time>
      </trkpt>
      <trkpt lat="47.29709" lon="4.98453">
        <ele>386</ele>
        <time>2015-04-19T07:01:34.161Z</time>
      </trkpt>
      <trkpt lat="47.29703" lon="4.98459">
        <ele>386</ele>
        <time>2015-04-19T07:01:40.151Z</time>
      </trkpt>
      <trkpt lat="47.29701" lon="4.98461">
        <ele>386</ele>
        <time>2015-04-19T07:01:41.157Z</time>
      </trkpt>
      <trkpt lat="47.29695" lon="4.98468">
        <ele>386</ele>
        <time>2015-04-19T07:01:46.167Z</time>
      </trkpt>
      <trkpt lat="47.29694" lon="4.98469">
        <ele>386</ele>
        <time>2015-04-19T07:01:47.162Z</time>
      </trkpt>
      <trkpt lat="47.29686" lon="4.98474">
        <ele>386</ele>
        <time>2015-04-19T07:01:54.609Z</time>
      </trkpt>
      <trkpt lat="47.29685" lon="4.98474">
        <ele>386</ele>
        <time>2015-04-19T07:01:55.160Z</time>
      </trkpt>
      <trkpt lat="47.29677" lon="4.98476">
        <ele>386</ele>
        <time>2015-04-19T07:02:00.148Z</time>
      </trkpt>
      <trkpt lat="47.29675" lon="4.98476">
        <ele>386</ele>
        <time>2015-04-19T07:02:01.148Z</time>
      </trkpt>
      <trkpt lat="47.29667" lon="4.98478">
        <ele>385</ele>
        <time>2015-04-19T07:02:07.148Z</time>
      </trkpt>
      <trkpt lat="47.29666" lon="4.98479">
        <ele>385</ele>
        <time>2015-04-19T07:02:08.145Z</time>
      </trkpt>
      <trkpt lat="47.29657" lon="4.98482">
        <ele>385</ele>
        <time>2015-04-19T07:02:14.155Z</time>
      </trkpt>
      <trkpt lat="47.29655" lon="4.98483">
        <ele>385</ele>
        <time>2015-04-19T07:02:15.165Z</time>
      </trkpt>
      <trkpt lat="47.29647" lon="4.98486">
        <ele>385</ele>
        <time>2015-04-19T07:02:20.158Z</time>
      </trkpt>
      <trkpt lat="47.29646" lon="4.98487">
        <ele>385</ele>
        <time>2015-04-19T07:02:21.158Z</time>
      </trkpt>
      <trkpt lat="47.29638" lon="4.98488">
        <ele>385</ele>
        <time>2015-04-19T07:02:26.460Z</time>
      </trkpt>
      <trkpt lat="47.29636" lon="4.98488">
        <ele>385</ele>
        <time>2015-04-19T07:02:27.156Z</time>
      </trkpt>
      <trkpt lat="47.29628" lon="4.98488">
        <ele>385</ele>
        <time>2015-04-19T07:02:32.145Z</time>
      </trkpt>
      <trkpt lat="47.29627" lon="4.98487">
        <ele>385</ele>
        <time>2015-04-19T07:02:33.161Z</time>
      </trkpt>
      <trkpt lat="47.29619" lon="4.98485">
        <ele>385</ele>
        <time>2015-04-19T07:02:38.149Z</time>
      </trkpt>
      <trkpt lat="47.29618" lon="4.98484">
        <ele>385</ele>
        <time>2015-04-19T07:02:39.150Z</time>
      </trkpt>
      <trkpt lat="47.29611" lon="4.98477">
        <ele>385</ele>
        <time>2015-04-19T07:02:45.160Z</time>
      </trkpt>
      <trkpt lat="47.2961" lon="4.98475">
        <ele>385</ele>
        <time>2015-04-19T07:02:46.141Z</time>
      </trkpt>
      <trkpt lat="47.29604" lon="4.98464">
        <ele>385</ele>
        <time>2015-04-19T07:02:52.135Z</time>
      </trkpt>
      <trkpt lat="47.29603" lon="4.98463">
        <ele>385</ele>
        <time>2015-04-19T07:02:53.156Z</time>
      </trkpt>
      <trkpt lat="47.29597" lon="4.98457">
        <ele>386</ele>
        <time>2015-04-19T07:02:58.172Z</time>
      </trkpt>
      <trkpt lat="47.29595" lon="4.98456">
        <ele>386</ele>
        <time>2015-04-19T07:02:59.168Z</time>
      </trkpt>
      <trkpt lat="47.29588" lon="4.98449">
        <ele>386</ele>
        <time>2015-04-19T07:03:04.125Z</time>
      </trkpt>
      <trkpt lat="47.29587" lon="4.98448">
        <ele>386</ele>
        <time>2015-04-19T07:03:05.151Z</time>
      </trkpt>
      <trkpt lat="47.2958" lon="4.98439">
        <ele>385</ele>
        <time>2015-04-19T07:03:11.146Z</time>
      </trkpt>
      <trkpt lat="47.29579" lon="4.98438">
        <ele>385</ele>
        <time>2015-04-19T07:03:12.150Z</time>
      </trkpt>
      <trkpt lat="47.29571" lon="4.98431">
        <ele>385</ele>
        <time>2015-04-19T07:03:19.157Z</time>
      </trkpt>
      <trkpt lat="47.2957" lon="4.9843">
        <ele>385</ele>
        <time>2015-04-19T07:03:20.154Z</time>
      </trkpt>
      <trkpt lat="47.29562" lon="4.98427">
        <ele>385</ele>
        <time>2015-04-19T07:03:27.158Z</time>
      </trkpt>
      <trkpt lat="47.29561" lon="4.98427">
        <ele>384</ele>
        <time>2015-04-19T07:03:28.178Z</time>
      </trkpt>
      <trkpt lat="47.29553" lon="4.98423">
        <ele>384</ele>
        <time>2015-04-19T07:03:34.189Z</time>
      </trkpt>
      <trkpt lat="47.29552" lon="4.98422">
        <ele>384</ele>
        <time>2015-04-19T07:03:35.163Z</time>
      </trkpt>
      <trkpt lat="47.29549" lon="4.9841">
        <ele>384</ele>
        <time>2015-04-19T07:03:41.151Z</time>
      </trkpt>
      <trkpt lat="47.29549" lon="4.98408">
        <ele>384</ele>
        <time>2015-04-19T07:03:42.151Z</time>
      </trkpt>
      <trkpt lat="47.29548" lon="4.98395">
        <ele>384</ele>
        <time>2015-04-19T07:03:48.158Z</time>
      </trkpt>
      <trkpt lat="47.29548" lon="4.98393">
        <ele>384</ele>
        <time>2015-04-19T07:03:49.179Z</time>
      </trkpt>
      <trkpt lat="47.29543" lon="4.98382">
        <ele>384</ele>
        <time>2015-04-19T07:03:55.160Z</time>
      </trkpt>
      <trkpt lat="47.29542" lon="4.9838">
        <ele>384</ele>
        <time>2015-04-19T07:03:56.150Z</time>
      </trkpt>
      <trkpt lat="47.29536" lon="4.98373">
        <ele>384</ele>
        <time>2015-04-19T07:04:00.143Z</time>
      </trkpt>
      <trkpt lat="47.29535" lon="4.98371">
        <ele>384</ele>
        <time>2015-04-19T07:04:01.153Z</time>
      </trkpt>
      <trkpt lat="47.29528" lon="4.98364">
        <ele>384</ele>
        <time>2015-04-19T07:04:05.153Z</time>
      </trkpt>
      <trkpt lat="47.29526" lon="4.98363">
        <ele>384</ele>
        <time>2015-04-19T07:04:06.143Z</time>
      </trkpt>
      <trkpt lat="47.29518" lon="4.98358">
        <ele>384</ele>
        <time>2015-04-19T07:04:11.131Z</time>
      </trkpt>
      <trkpt lat="47.29516" lon="4.98357">
        <ele>384</ele>
        <time>2015-04-19T07:04:12.142Z</time>
      </trkpt>
      <trkpt lat="47.29509" lon="4.98354">
        <ele>384</ele>
        <time>2015-04-19T07:04:16.282Z</time>
      </trkpt>
      <trkpt lat="47.29507" lon="4.98354">
        <ele>384</ele>
        <time>2015-04-19T07:04:17.153Z</time>
      </trkpt>
      <trkpt lat="47.295" lon="4.9835">
        <ele>382</ele>
        <time>2015-04-19T07:04:21.141Z</time>
      </trkpt>
      <trkpt lat="47.29498" lon="4.98349">
        <ele>382</ele>
        <time>2015-04-19T07:04:22.152Z</time>
      </trkpt>
      <trkpt lat="47.29491" lon="4.98344">
        <ele>382</ele>
        <time>2015-04-19T07:04:27.135Z</time>
      </trkpt>
      <trkpt lat="47.2949" lon="4.98343">
        <ele>382</ele>
        <time>2015-04-19T07:04:28.140Z</time>
      </trkpt>
      <trkpt lat="47.29483" lon="4.98338">
        <ele>382</ele>
        <time>2015-04-19T07:04:31.132Z</time>
      </trkpt>
      <trkpt lat="47.29481" lon="4.98336">
        <ele>382</ele>
        <time>2015-04-19T07:04:32.133Z</time>
      </trkpt>
      <trkpt lat="47.29472" lon="4.98332">
        <ele>383</ele>
        <time>2015-04-19T07:04:36.135Z</time>
      </trkpt>
      <trkpt lat="47.29471" lon="4.9833">
        <ele>383</ele>
        <time>2015-04-19T07:04:37.153Z</time>
      </trkpt>
      <trkpt lat="47.29465" lon="4.98321">
        <ele>383</ele>
        <time>2015-04-19T07:04:42.126Z</time>
      </trkpt>
      <trkpt lat="47.29464" lon="4.98319">
        <ele>383</ele>
        <time>2015-04-19T07:04:43.143Z</time>
      </trkpt>
      <trkpt lat="47.29458" lon="4.98312">
        <ele>383</ele>
        <time>2015-04-19T07:04:47.140Z</time>
      </trkpt>
      <trkpt lat="47.29457" lon="4.98311">
        <ele>383</ele>
        <time>2015-04-19T07:04:48.139Z</time>
      </trkpt>
      <trkpt lat="47.29451" lon="4.98303">
        <ele>383</ele>
        <time>2015-04-19T07:04:52.154Z</time>
      </trkpt>
      <trkpt lat="47.29449" lon="4.98301">
        <ele>383</ele>
        <time>2015-04-19T07:04:53.123Z</time>
      </trkpt>
      <trkpt lat="47.29442" lon="4.98296">
        <ele>382</ele>
        <time>2015-04-19T07:04:57.158Z</time>
      </trkpt>
      <trkpt lat="47.2944" lon="4.98296">
        <ele>382</ele>
        <time>2015-04-19T07:04:58.171Z</time>
      </trkpt>
      <trkpt lat="47.29432" lon="4.98294">
        <ele>382</ele>
        <time>2015-04-19T07:05:02.144Z</time>
      </trkpt>
      <trkpt lat="47.2943" lon="4.98293">
        <ele>382</ele>
        <time>2015-04-19T07:05:03.142Z</time>
      </trkpt>
      <trkpt lat="47.29422" lon="4.98287">
        <ele>382</ele>
        <time>2015-04-19T07:05:08.132Z</time>
      </trkpt>
      <trkpt lat="47.29421" lon="4.98285">
        <ele>382</ele>
        <time>2015-04-19T07:05:09.149Z</time>
      </trkpt>
      <trkpt lat="47.29418" lon="4.98274">
        <ele>382</ele>
        <time>2015-04-19T07:05:14.147Z</time>
      </trkpt>
      <trkpt lat="47.29418" lon="4.98272">
        <ele>382</ele>
        <time>2015-04-19T07:05:15.117Z</time>
      </trkpt>
      <trkpt lat="47.29415" lon="4.9826">
        <ele>381</ele>
        <time>2015-04-19T07:05:20.153Z</time>
      </trkpt>
      <trkpt lat="47.29414" lon="4.98259">
        <ele>381</ele>
        <time>2015-04-19T07:05:21.172Z</time>
      </trkpt>
      <trkpt lat="47.29408" lon="4.98251">
        <ele>381</ele>
        <time>2015-04-19T07:05:25.162Z</time>
      </trkpt>
      <trkpt lat="47.29407" lon="4.98249">
        <ele>381</ele>
        <time>2015-04-19T07:05:26.150Z</time>
      </trkpt>
      <trkpt lat="47.29402" lon="4.98242">
        <ele>380</ele>
        <time>2015-04-19T07:05:30.146Z</time>
      </trkpt>
      <trkpt lat="47.294" lon="4.98241">
        <ele>380</ele>
        <time>2015-04-19T07:05:31.154Z</time>
      </trkpt>
      <trkpt lat="47.29393" lon="4.98234">
        <ele>380</ele>
        <time>2015-04-19T07:05:36.145Z</time>
      </trkpt>
      <trkpt lat="47.29391" lon="4.98232">
        <ele>380</ele>
        <time>2015-04-19T07:05:37.123Z</time>
      </trkpt>
      <trkpt lat="47.29386" lon="4.98222">
        <ele>379</ele>
        <time>2015-04-19T07:05:42.124Z</time>
      </trkpt>
      <trkpt lat="47.29384" lon="4.98221">
        <ele>379</ele>
        <time>2015-04-19T07:05:43.136Z</time>
      </trkpt>
      <trkpt lat="47.29379" lon="4.98212">
        <ele>379</ele>
        <time>2015-04-19T07:05:48.138Z</time>
      </trkpt>
      <trkpt lat="47.29378" lon="4.98211">
        <ele>379</ele>
        <time>2015-04-19T07:05:49.141Z</time>
      </trkpt>
      <trkpt lat="47.29374" lon="4.98199">
        <ele>379</ele>
        <time>2015-04-19T07:05:55.175Z</time>
      </trkpt>
      <trkpt lat="47.29374" lon="4.98197">
        <ele>379</ele>
        <time>2015-04-19T07:05:56.162Z</time>
      </trkpt>
      <trkpt lat="47.29371" lon="4.98185">
        <ele>379</ele>
        <time>2015-04-19T07:06:02.154Z</time>
      </trkpt>
      <trkpt lat="47.2937" lon="4.98183">
        <ele>379</ele>
        <time>2015-04-19T07:06:03.139Z</time>
      </trkpt>
      <trkpt lat="47.29365" lon="4.98175">
        <ele>378</ele>
        <time>2015-04-19T07:06:08.137Z</time>
      </trkpt>
      <trkpt lat="47.29363" lon="4.98173">
        <ele>378</ele>
        <time>2015-04-19T07:06:09.153Z</time>
      </trkpt>
      <trkpt lat="47.29357" lon="4.98167">
        <ele>378</ele>
        <time>2015-04-19T07:06:13.165Z</time>
      </trkpt>
      <trkpt lat="47.29355" lon="4.98165">
        <ele>379</ele>
        <time>2015-04-19T07:06:14.143Z</time>
      </trkpt>
      <trkpt lat="47.29349" lon="4.98158">
        <ele>378</ele>
        <time>2015-04-19T07:06:19.166Z</time>
      </trkpt>
      <trkpt lat="47.29348" lon="4.98157">
        <ele>378</ele>
        <time>2015-04-19T07:06:20.157Z</time>
      </trkpt>
      <trkpt lat="47.29343" lon="4.98149">
        <ele>378</ele>
        <time>2015-04-19T07:06:24.161Z</time>
      </trkpt>
      <trkpt lat="47.29341" lon="4.98147">
        <ele>379</ele>
        <time>2015-04-19T07:06:25.182Z</time>
      </trkpt>
      <trkpt lat="47.29336" lon="4.98139">
        <ele>379</ele>
        <time>2015-04-19T07:06:29.160Z</time>
      </trkpt>
      <trkpt lat="47.29334" lon="4.98138">
        <ele>379</ele>
        <time>2015-04-19T07:06:30.147Z</time>
      </trkpt>
      <trkpt lat="47.29329" lon="4.9813">
        <ele>375</ele>
        <time>2015-04-19T07:06:34.154Z</time>
      </trkpt>
      <trkpt lat="47.29328" lon="4.98128">
        <ele>375</ele>
        <time>2015-04-19T07:06:35.150Z</time>
      </trkpt>
      <trkpt lat="47.29323" lon="4.98118">
        <ele>375</ele>
        <time>2015-04-19T07:06:40.149Z</time>
      </trkpt>
      <trkpt lat="47.29322" lon="4.98117">
        <ele>375</ele>
        <time>2015-04-19T07:06:41.152Z</time>
      </trkpt>
      <trkpt lat="47.29316" lon="4.98108">
        <ele>375</ele>
        <time>2015-04-19T07:06:47.155Z</time>
      </trkpt>
      <trkpt lat="47.29315" lon="4.98106">
        <ele>375</ele>
        <time>2015-04-19T07:06:48.160Z</time>
      </trkpt>
      <trkpt lat="47.29309" lon="4.98097">
        <ele>375</ele>
        <time>2015-04-19T07:06:54.176Z</time>
      </trkpt>
      <trkpt lat="47.29308" lon="4.98095">
        <ele>375</ele>
        <time>2015-04-19T07:06:55.175Z</time>
      </trkpt>
      <trkpt lat="47.293" lon="4.98089">
        <ele>374</ele>
        <time>2015-04-19T07:07:02.154Z</time>
      </trkpt>
      <trkpt lat="47.29299" lon="4.98088">
        <ele>374</ele>
        <time>2015-04-19T07:07:03.133Z</time>
      </trkpt>
      <trkpt lat="47.29292" lon="4.98084">
        <ele>373</ele>
        <time>2015-04-19T07:07:09.156Z</time>
      </trkpt>
      <trkpt lat="47.2929" lon="4.98083">
        <ele>376</ele>
        <time>2015-04-19T07:07:10.158Z</time>
      </trkpt>
      <trkpt lat="47.29283" lon="4.98078">
        <ele>375</ele>
        <time>2015-04-19T07:07:16.173Z</time>
      </trkpt>
      <trkpt lat="47.29281" lon="4.98078">
        <ele>375</ele>
        <time>2015-04-19T07:07:17.161Z</time>
      </trkpt>
      <trkpt lat="47.29273" lon="4.98073">
        <ele>374</ele>
        <time>2015-04-19T07:07:23.156Z</time>
      </trkpt>
      <trkpt lat="47.29272" lon="4.98073">
        <ele>374</ele>
        <time>2015-04-19T07:07:24.162Z</time>
      </trkpt>
      <trkpt lat="47.29265" lon="4.98068">
        <ele>373</ele>
        <time>2015-04-19T07:07:29.142Z</time>
      </trkpt>
      <trkpt lat="47.29263" lon="4.98067">
        <ele>373</ele>
        <time>2015-04-19T07:07:30.147Z</time>
      </trkpt>
      <trkpt lat="47.29256" lon="4.9806">
        <ele>373</ele>
        <time>2015-04-19T07:07:36.139Z</time>
      </trkpt>
      <trkpt lat="47.29255" lon="4.98059">
        <ele>373</ele>
        <time>2015-04-19T07:07:37.159Z</time>
      </trkpt>
      <trkpt lat="47.29249" lon="4.98052">
        <ele>366</ele>
        <time>2015-04-19T07:07:42.156Z</time>
      </trkpt>
      <trkpt lat="47.29248" lon="4.9805">
        <ele>366</ele>
        <time>2015-04-19T07:07:43.143Z</time>
      </trkpt>
      <trkpt lat="47.29242" lon="4.98043">
        <ele>366</ele>
        <time>2015-04-19T07:07:47.114Z</time>
      </trkpt>
      <trkpt lat="47.29241" lon="4.98041">
        <ele>367</ele>
        <time>2015-04-19T07:07:48.165Z</time>
      </trkpt>
      <trkpt lat="47.29236" lon="4.98033">
        <ele>367</ele>
        <time>2015-04-19T07:07:52.152Z</time>
      </trkpt>
      <trkpt lat="47.29235" lon="4.98031">
        <ele>367</ele>
        <time>2015-04-19T07:07:53.153Z</time>
      </trkpt>
      <trkpt lat="47.29229" lon="4.98024">
        <ele>367</ele>
        <time>2015-04-19T07:07:57.153Z</time>
      </trkpt>
      <trkpt lat="47.29228" lon="4.98023">
        <ele>367</ele>
        <time>2015-04-19T07:07:58.118Z</time>
      </trkpt>
      <trkpt lat="47.2922" lon="4.98017">
        <ele>366</ele>
        <time>2015-04-19T07:08:04.147Z</time>
      </trkpt>
      <trkpt lat="47.29219" lon="4.98015">
        <ele>366</ele>
        <time>2015-04-19T07:08:05.119Z</time>
      </trkpt>
      <trkpt lat="47.29215" lon="4.98004">
        <ele>366</ele>
        <time>2015-04-19T07:08:11.144Z</time>
      </trkpt>
      <trkpt lat="47.29214" lon="4.98002">
        <ele>366</ele>
        <time>2015-04-19T07:08:12.146Z</time>
      </trkpt>
      <trkpt lat="47.29209" lon="4.97993">
        <ele>369</ele>
        <time>2015-04-19T07:08:17.160Z</time>
      </trkpt>
      <trkpt lat="47.29208" lon="4.97991">
        <ele>369</ele>
        <time>2015-04-19T07:08:18.154Z</time>
      </trkpt>
      <trkpt lat="47.29203" lon="4.97981">
        <ele>368</ele>
        <time>2015-04-19T07:08:23.158Z</time>
      </trkpt>
      <trkpt lat="47.29202" lon="4.9798">
        <ele>368</ele>
        <time>2015-04-19T07:08:24.161Z</time>
      </trkpt>
      <trkpt lat="47.29197" lon="4.9797">
        <ele>368</ele>
        <time>2015-04-19T07:08:29.160Z</time>
      </trkpt>
      <trkpt lat="47.29196" lon="4.97968">
        <ele>368</ele>
        <time>2015-04-19T07:08:30.145Z</time>
      </trkpt>
      <trkpt lat="47.29192" lon="4.97959">
        <ele>368</ele>
        <time>2015-04-19T07:08:34.144Z</time>
      </trkpt>
      <trkpt lat="47.2919" lon="4.97957">
        <ele>368</ele>
        <time>2015-04-19T07:08:35.132Z</time>
      </trkpt>
      <trkpt lat="47.29185" lon="4.97947">
        <ele>368</ele>
        <time>2015-04-19T07:08:40.145Z</time>
      </trkpt>
      <trkpt lat="47.29184" lon="4.97945">
        <ele>368</ele>
        <time>2015-04-19T07:08:41.144Z</time>
      </trkpt>
      <trkpt lat="47.29179" lon="4.97934">
        <ele>368</ele>
        <time>2015-04-19T07:08:46.144Z</time>
      </trkpt>
      <trkpt lat="47.29178" lon="4.97931">
        <ele>368</ele>
        <time>2015-04-19T07:08:47.159Z</time>
      </trkpt>
      <trkpt lat="47.29174" lon="4.97922">
        <ele>367</ele>
        <time>2015-04-19T07:08:51.159Z</time>
      </trkpt>
      <trkpt lat="47.29174" lon="4.9792">
        <ele>367</ele>
        <time>2015-04-19T07:08:52.155Z</time>
      </trkpt>
      <trkpt lat="47.29169" lon="4.97909">
        <ele>368</ele>
        <time>2015-04-19T07:08:57.126Z</time>
      </trkpt>
      <trkpt lat="47.29168" lon="4.97906">
        <ele>368</ele>
        <time>2015-04-19T07:08:58.160Z</time>
      </trkpt>
      <trkpt lat="47.29165" lon="4.97896">
        <ele>363</ele>
        <time>2015-04-19T07:09:02.146Z</time>
      </trkpt>
      <trkpt lat="47.29165" lon="4.97894">
        <ele>363</ele>
        <time>2015-04-19T07:09:03.152Z</time>
      </trkpt>
      <trkpt lat="47.29165" lon="4.97883">
        <ele>363</ele>
        <time>2015-04-19T07:09:07.154Z</time>
      </trkpt>
      <trkpt lat="47.29165" lon="4.9788">
        <ele>363</ele>
        <time>2015-04-19T07:09:08.132Z</time>
      </trkpt>
      <trkpt lat="47.29167" lon="4.97869">
        <ele>371</ele>
        <time>2015-04-19T07:09:12.145Z</time>
      </trkpt>
      <trkpt lat="47.29168" lon="4.97866">
        <ele>371</ele>
        <time>2015-04-19T07:09:13.157Z</time>
      </trkpt>
      <trkpt lat="47.29174" lon="4.97856">
        <ele>371</ele>
        <time>2015-04-19T07:09:18.155Z</time>
      </trkpt>
      <trkpt lat="47.29175" lon="4.97854">
        <ele>371</ele>
        <time>2015-04-19T07:09:19.139Z</time>
      </trkpt>
      <trkpt lat="47.29181" lon="4.97848">
        <ele>371</ele>
        <time>2015-04-19T07:09:23.172Z</time>
      </trkpt>
      <trkpt lat="47.29182" lon="4.97846">
        <ele>371</ele>
        <time>2015-04-19T07:09:24.170Z</time>
      </trkpt>
      <trkpt lat="47.29191" lon="4.97842">
        <ele>371</ele>
        <time>2015-04-19T07:09:29.168Z</time>
      </trkpt>
      <trkpt lat="47.29192" lon="4.97842">
        <ele>371</ele>
        <time>2015-04-19T07:09:30.137Z</time>
      </trkpt>
      <trkpt lat="47.29201" lon="4.97842">
        <ele>372</ele>
        <time>2015-04-19T07:09:35.153Z</time>
      </trkpt>
      <trkpt lat="47.29203" lon="4.97842">
        <ele>372</ele>
        <time>2015-04-19T07:09:36.147Z</time>
      </trkpt>
      <trkpt lat="47.29212" lon="4.97842">
        <ele>372</ele>
        <time>2015-04-19T07:09:41.136Z</time>
      </trkpt>
      <trkpt lat="47.29213" lon="4.97842">
        <ele>372</ele>
        <time>2015-04-19T07:09:42.149Z</time>
      </trkpt>
      <trkpt lat="47.29222" lon="4.97843">
        <ele>373</ele>
        <time>2015-04-19T07:09:47.158Z</time>
      </trkpt>
      <trkpt lat="47.29224" lon="4.97843">
        <ele>373</ele>
        <time>2015-04-19T07:09:48.160Z</time>
      </trkpt>
      <trkpt lat="47.29232" lon="4.97844">
        <ele>373</ele>
        <time>2015-04-19T07:09:53.156Z</time>
      </trkpt>
      <trkpt lat="47.29234" lon="4.97844">
        <ele>373</ele>
        <time>2015-04-19T07:09:54.164Z</time>
      </trkpt>
      <trkpt lat="47.29241" lon="4.97844">
        <ele>373</ele>
        <time>2015-04-19T07:09:59.171Z</time>
      </trkpt>
      <trkpt lat="47.29242" lon="4.97844">
        <ele>373</ele>
        <time>2015-04-19T07:10:00.139Z</time>
      </trkpt>
      <trkpt lat="47.2925" lon="4.97841">
        <ele>375</ele>
        <time>2015-04-19T07:10:05.144Z</time>
      </trkpt>
      <trkpt lat="47.29252" lon="4.9784">
        <ele>375</ele>
        <time>2015-04-19T07:10:06.148Z</time>
      </trkpt>
      <trkpt lat="47.2926" lon="4.97838">
        <ele>375</ele>
        <time>2015-04-19T07:10:11.135Z</time>
      </trkpt>
      <trkpt lat="47.29261" lon="4.97838">
        <ele>375</ele>
        <time>2015-04-19T07:10:12.144Z</time>
      </trkpt>
      <trkpt lat="47.29269" lon="4.9784">
        <ele>376</ele>
        <time>2015-04-19T07:10:17.165Z</time>
      </trkpt>
      <trkpt lat="47.29271" lon="4.9784">
        <ele>376</ele>
        <time>2015-04-19T07:10:18.164Z</time>
      </trkpt>
      <trkpt lat="47.29278" lon="4.97846">
        <ele>377</ele>
        <time>2015-04-19T07:10:23.160Z</time>
      </trkpt>
      <trkpt lat="47.29279" lon="4.97848">
        <ele>377</ele>
        <time>2015-04-19T07:10:24.161Z</time>
      </trkpt>
      <trkpt lat="47.29285" lon="4.97857">
        <ele>378</ele>
        <time>2015-04-19T07:10:28.160Z</time>
      </trkpt>
      <trkpt lat="47.29286" lon="4.97859">
        <ele>378</ele>
        <time>2015-04-19T07:10:29.167Z</time>
      </trkpt>
      <trkpt lat="47.29291" lon="4.97868">
        <ele>379</ele>
        <time>2015-04-19T07:10:34.145Z</time>
      </trkpt>
      <trkpt lat="47.29293" lon="4.97868">
        <ele>379</ele>
        <time>2015-04-19T07:10:35.145Z</time>
      </trkpt>
      <trkpt lat="47.29301" lon="4.9787">
        <ele>379</ele>
        <time>2015-04-19T07:10:39.138Z</time>
      </trkpt>
      <trkpt lat="47.29303" lon="4.9787">
        <ele>379</ele>
        <time>2015-04-19T07:10:40.136Z</time>
      </trkpt>
      <trkpt lat="47.29311" lon="4.9787">
        <ele>379</ele>
        <time>2015-04-19T07:10:45.182Z</time>
      </trkpt>
      <trkpt lat="47.29312" lon="4.9787">
        <ele>379</ele>
        <time>2015-04-19T07:10:46.141Z</time>
      </trkpt>
      <trkpt lat="47.2932" lon="4.97871">
        <ele>379</ele>
        <time>2015-04-19T07:10:50.158Z</time>
      </trkpt>
      <trkpt lat="47.29322" lon="4.97871">
        <ele>379</ele>
        <time>2015-04-19T07:10:51.155Z</time>
      </trkpt>
      <trkpt lat="47.2933" lon="4.97871">
        <ele>379</ele>
        <time>2015-04-19T07:10:56.159Z</time>
      </trkpt>
      <trkpt lat="47.29332" lon="4.97871">
        <ele>379</ele>
        <time>2015-04-19T07:10:57.157Z</time>
      </trkpt>
      <trkpt lat="47.29341" lon="4.97872">
        <ele>382</ele>
        <time>2015-04-19T07:11:02.147Z</time>
      </trkpt>
      <trkpt lat="47.29342" lon="4.97871">
        <ele>382</ele>
        <time>2015-04-19T07:11:03.143Z</time>
      </trkpt>
      <trkpt lat="47.29351" lon="4.9787">
        <ele>382</ele>
        <time>2015-04-19T07:11:08.149Z</time>
      </trkpt>
      <trkpt lat="47.29352" lon="4.97869">
        <ele>382</ele>
        <time>2015-04-19T07:11:09.148Z</time>
      </trkpt>
      <trkpt lat="47.29359" lon="4.97864">
        <ele>382</ele>
        <time>2015-04-19T07:11:14.156Z</time>
      </trkpt>
      <trkpt lat="47.2936" lon="4.97862">
        <ele>382</ele>
        <time>2015-04-19T07:11:15.146Z</time>
      </trkpt>
      <trkpt lat="47.29363" lon="4.9785">
        <ele>381</ele>
        <time>2015-04-19T07:11:21.145Z</time>
      </trkpt>
      <trkpt lat="47.29363" lon="4.97848">
        <ele>381</ele>
        <time>2015-04-19T07:11:22.160Z</time>
      </trkpt>
      <trkpt lat="47.29366" lon="4.97835">
        <ele>381</ele>
        <time>2015-04-19T07:11:27.160Z</time>
      </trkpt>
      <trkpt lat="47.29367" lon="4.97833">
        <ele>379</ele>
        <time>2015-04-19T07:11:28.141Z</time>
      </trkpt>
      <trkpt lat="47.29367" lon="4.9782">
        <ele>380</ele>
        <time>2015-04-19T07:11:34.150Z</time>
      </trkpt>
      <trkpt lat="47.29367" lon="4.97818">
        <ele>380</ele>
        <time>2015-04-19T07:11:35.161Z</time>
      </trkpt>
      <trkpt lat="47.29364" lon="4.97807">
        <ele>379</ele>
        <time>2015-04-19T07:11:40.169Z</time>
      </trkpt>
      <trkpt lat="47.29364" lon="4.97804">
        <ele>379</ele>
        <time>2015-04-19T07:11:41.154Z</time>
      </trkpt>
      <trkpt lat="47.29357" lon="4.97796">
        <ele>379</ele>
        <time>2015-04-19T07:11:46.176Z</time>
      </trkpt>
      <trkpt lat="47.29356" lon="4.97795">
        <ele>379</ele>
        <time>2015-04-19T07:11:47.161Z</time>
      </trkpt>
      <trkpt lat="47.2935" lon="4.97804">
        <ele>379</ele>
        <time>2015-04-19T07:11:55.161Z</time>
      </trkpt>
      <trkpt lat="47.2935" lon="4.97805">
        <ele>379</ele>
        <time>2015-04-19T07:11:56.163Z</time>
      </trkpt>
      <trkpt lat="47.29346" lon="4.97816">
        <ele>378</ele>
        <time>2015-04-19T07:12:04.160Z</time>
      </trkpt>
      <trkpt lat="47.29345" lon="4.97817">
        <ele>378</ele>
        <time>2015-04-19T07:12:05.128Z</time>
      </trkpt>
      <trkpt lat="47.29337" lon="4.97816">
        <ele>378</ele>
        <time>2015-04-19T07:12:18.145Z</time>
      </trkpt>
      <trkpt lat="47.29336" lon="4.97816">
        <ele>378</ele>
        <time>2015-04-19T07:12:19.162Z</time>
      </trkpt>
      <trkpt lat="47.29328" lon="4.97812">
        <ele>374</ele>
        <time>2015-04-19T07:12:28.170Z</time>
      </trkpt>
      <trkpt lat="47.29327" lon="4.97811">
        <ele>374</ele>
        <time>2015-04-19T07:12:29.133Z</time>
      </trkpt>
      <trkpt lat="47.2932" lon="4.97804">
        <ele>374</ele>
        <time>2015-04-19T07:12:37.140Z</time>
      </trkpt>
      <trkpt lat="47.29319" lon="4.97803">
        <ele>374</ele>
        <time>2015-04-19T07:12:38.126Z</time>
      </trkpt>
      <trkpt lat="47.29311" lon="4.978">
        <ele>373</ele>
        <time>2015-04-19T07:12:43.154Z</time>
      </trkpt>
      <trkpt lat="47.2931" lon="4.978">
        <ele>373</ele>
        <time>2015-04-19T07:12:44.127Z</time>
      </trkpt>
      <trkpt lat="47.29302" lon="4.97797">
        <ele>373</ele>
        <time>2015-04-19T07:12:49.151Z</time>
      </trkpt>
      <trkpt lat="47.293" lon="4.97796">
        <ele>373</ele>
        <time>2015-04-19T07:12:50.135Z</time>
      </trkpt>
      <trkpt lat="47.29291" lon="4.97793">
        <ele>373</ele>
        <time>2015-04-19T07:12:55.154Z</time>
      </trkpt>
      <trkpt lat="47.2929" lon="4.97793">
        <ele>372</ele>
        <time>2015-04-19T07:12:56.135Z</time>
      </trkpt>
      <trkpt lat="47.29281" lon="4.9779">
        <ele>372</ele>
        <time>2015-04-19T07:13:01.137Z</time>
      </trkpt>
      <trkpt lat="47.2928" lon="4.9779">
        <ele>372</ele>
        <time>2015-04-19T07:13:02.136Z</time>
      </trkpt>
      <trkpt lat="47.29273" lon="4.97786">
        <ele>371</ele>
        <time>2015-04-19T07:13:07.136Z</time>
      </trkpt>
      <trkpt lat="47.29271" lon="4.97785">
        <ele>371</ele>
        <time>2015-04-19T07:13:08.121Z</time>
      </trkpt>
      <trkpt lat="47.29263" lon="4.97781">
        <ele>371</ele>
        <time>2015-04-19T07:13:13.128Z</time>
      </trkpt>
      <trkpt lat="47.29262" lon="4.9778">
        <ele>370</ele>
        <time>2015-04-19T07:13:14.137Z</time>
      </trkpt>
      <trkpt lat="47.29256" lon="4.97775">
        <ele>370</ele>
        <time>2015-04-19T07:13:18.138Z</time>
      </trkpt>
      <trkpt lat="47.29254" lon="4.97772">
        <ele>369</ele>
        <time>2015-04-19T07:13:19.156Z</time>
      </trkpt>
      <trkpt lat="47.29247" lon="4.97765">
        <ele>365</ele>
        <time>2015-04-19T07:13:23.143Z</time>
      </trkpt>
      <trkpt lat="47.29245" lon="4.97764">
        <ele>365</ele>
        <time>2015-04-19T07:13:24.162Z</time>
      </trkpt>
      <trkpt lat="47.29239" lon="4.97758">
        <ele>365</ele>
        <time>2015-04-19T07:13:28.130Z</time>
      </trkpt>
      <trkpt lat="47.29237" lon="4.97757">
        <ele>365</ele>
        <time>2015-04-19T07:13:29.142Z</time>
      </trkpt>
      <trkpt lat="47.29231" lon="4.97751">
        <ele>365</ele>
        <time>2015-04-19T07:13:33.128Z</time>
      </trkpt>
      <trkpt lat="47.29229" lon="4.9775">
        <ele>362</ele>
        <time>2015-04-19T07:13:34.142Z</time>
      </trkpt>
      <trkpt lat="47.29221" lon="4.97745">
        <ele>362</ele>
        <time>2015-04-19T07:13:38.113Z</time>
      </trkpt>
      <trkpt lat="47.2922" lon="4.97744">
        <ele>362</ele>
        <time>2015-04-19T07:13:39.129Z</time>
      </trkpt>
      <trkpt lat="47.29212" lon="4.97738">
        <ele>361</ele>
        <time>2015-04-19T07:13:43.127Z</time>
      </trkpt>
      <trkpt lat="47.2921" lon="4.97737">
        <ele>361</ele>
        <time>2015-04-19T07:13:44.129Z</time>
      </trkpt>
      <trkpt lat="47.29203" lon="4.97731">
        <ele>361</ele>
        <time>2015-04-19T07:13:48.134Z</time>
      </trkpt>
      <trkpt lat="47.29202" lon="4.97729">
        <ele>361</ele>
        <time>2015-04-19T07:13:49.136Z</time>
      </trkpt>
      <trkpt lat="47.29195" lon="4.97723">
        <ele>360</ele>
        <time>2015-04-19T07:13:53.142Z</time>
      </trkpt>
      <trkpt lat="47.29194" lon="4.97723">
        <ele>360</ele>
        <time>2015-04-19T07:13:54.135Z</time>
      </trkpt>
      <trkpt lat="47.29185" lon="4.9772">
        <ele>360</ele>
        <time>2015-04-19T07:13:59.136Z</time>
      </trkpt>
      <trkpt lat="47.29184" lon="4.9772">
        <ele>359</ele>
        <time>2015-04-19T07:14:00.112Z</time>
      </trkpt>
      <trkpt lat="47.29178" lon="4.97713">
        <ele>359</ele>
        <time>2015-04-19T07:14:04.128Z</time>
      </trkpt>
      <trkpt lat="47.29176" lon="4.97711">
        <ele>359</ele>
        <time>2015-04-19T07:14:05.127Z</time>
      </trkpt>
      <trkpt lat="47.29172" lon="4.97703">
        <ele>358</ele>
        <time>2015-04-19T07:14:09.135Z</time>
      </trkpt>
      <trkpt lat="47.29171" lon="4.977">
        <ele>358</ele>
        <time>2015-04-19T07:14:10.133Z</time>
      </trkpt>
      <trkpt lat="47.29168" lon="4.97689">
        <ele>356</ele>
        <time>2015-04-19T07:14:16.141Z</time>
      </trkpt>
      <trkpt lat="47.29167" lon="4.97687">
        <ele>356</ele>
        <time>2015-04-19T07:14:17.137Z</time>
      </trkpt>
      <trkpt lat="47.29161" lon="4.97679">
        <ele>350</ele>
        <time>2015-04-19T07:14:22.131Z</time>
      </trkpt>
      <trkpt lat="47.2916" lon="4.97676">
        <ele>350</ele>
        <time>2015-04-19T07:14:23.108Z</time>
      </trkpt>
      <trkpt lat="47.29156" lon="4.97666">
        <ele>347</ele>
        <time>2015-04-19T07:14:28.139Z</time>
      </trkpt>
      <trkpt lat="47.29155" lon="4.97663">
        <ele>347</ele>
        <time>2015-04-19T07:14:29.125Z</time>
      </trkpt>
      <trkpt lat="47.29152" lon="4.97652">
        <ele>346</ele>
        <time>2015-04-19T07:14:34.127Z</time>
      </trkpt>
      <trkpt lat="47.29151" lon="4.97649">
        <ele>346</ele>
        <time>2015-04-19T07:14:35.120Z</time>
      </trkpt>
      <trkpt lat="47.29143" lon="4.97642">
        <ele>345</ele>
        <time>2015-04-19T07:14:42.120Z</time>
      </trkpt>
      <trkpt lat="47.29142" lon="4.9764">
        <ele>345</ele>
        <time>2015-04-19T07:14:43.130Z</time>
      </trkpt>
      <trkpt lat="47.29136" lon="4.9763">
        <ele>345</ele>
        <time>2015-04-19T07:14:49.139Z</time>
      </trkpt>
      <trkpt lat="47.29135" lon="4.9763">
        <ele>345</ele>
        <time>2015-04-19T07:14:50.149Z</time>
      </trkpt>
      <trkpt lat="47.29128" lon="4.97625">
        <ele>344</ele>
        <time>2015-04-19T07:14:56.131Z</time>
      </trkpt>
      <trkpt lat="47.29127" lon="4.97623">
        <ele>344</ele>
        <time>2015-04-19T07:14:57.130Z</time>
      </trkpt>
      <trkpt lat="47.29121" lon="4.97617">
        <ele>343</ele>
        <time>2015-04-19T07:15:02.124Z</time>
      </trkpt>
      <trkpt lat="47.29119" lon="4.97616">
        <ele>343</ele>
        <time>2015-04-19T07:15:03.098Z</time>
      </trkpt>
      <trkpt lat="47.29112" lon="4.97612">
        <ele>342</ele>
        <time>2015-04-19T07:15:07.131Z</time>
      </trkpt>
      <trkpt lat="47.2911" lon="4.97611">
        <ele>342</ele>
        <time>2015-04-19T07:15:08.127Z</time>
      </trkpt>
      <trkpt lat="47.29105" lon="4.97603">
        <ele>340</ele>
        <time>2015-04-19T07:15:13.122Z</time>
      </trkpt>
      <trkpt lat="47.29104" lon="4.97601">
        <ele>340</ele>
        <time>2015-04-19T07:15:14.128Z</time>
      </trkpt>
      <trkpt lat="47.29099" lon="4.97592">
        <ele>338</ele>
        <time>2015-04-19T07:15:19.143Z</time>
      </trkpt>
      <trkpt lat="47.29098" lon="4.97591">
        <ele>337</ele>
        <time>2015-04-19T07:15:20.125Z</time>
      </trkpt>
      <trkpt lat="47.29091" lon="4.97584">
        <ele>335</ele>
        <time>2015-04-19T07:15:24.141Z</time>
      </trkpt>
      <trkpt lat="47.29089" lon="4.97583">
        <ele>333</ele>
        <time>2015-04-19T07:15:25.148Z</time>
      </trkpt>
      <trkpt lat="47.29083" lon="4.97578">
        <ele>331</ele>
        <time>2015-04-19T07:15:28.136Z</time>
      </trkpt>
      <trkpt lat="47.29081" lon="4.97577">
        <ele>331</ele>
        <time>2015-04-19T07:15:29.140Z</time>
      </trkpt>
      <trkpt lat="47.29073" lon="4.97573">
        <ele>331</ele>
        <time>2015-04-19T07:15:33.117Z</time>
      </trkpt>
      <trkpt lat="47.29071" lon="4.97573">
        <ele>331</ele>
        <time>2015-04-19T07:15:34.167Z</time>
      </trkpt>
      <trkpt lat="47.29063" lon="4.97568">
        <ele>331</ele>
        <time>2015-04-19T07:15:39.131Z</time>
      </trkpt>
      <trkpt lat="47.29062" lon="4.97568">
        <ele>331</ele>
        <time>2015-04-19T07:15:40.129Z</time>
      </trkpt>
      <trkpt lat="47.29054" lon="4.97565">
        <ele>331</ele>
        <time>2015-04-19T07:15:46.155Z</time>
      </trkpt>
      <trkpt lat="47.29053" lon="4.97565">
        <ele>331</ele>
        <time>2015-04-19T07:15:47.150Z</time>
      </trkpt>
      <trkpt lat="47.2905" lon="4.97564">
        <ele>331</ele>
        <time>2015-04-19T07:15:50.147Z</time>
      </trkpt>
      <trkpt lat="47.29049" lon="4.97563">
        <ele>332</ele>
        <time>2015-04-19T07:15:51.157Z</time>
      </trkpt>
      <trkpt lat="47.29049" lon="4.97563">
        <ele>332</ele>
        <time>2015-04-19T07:15:52.150Z</time>
      </trkpt>
      <trkpt lat="47.29049" lon="4.97563">
        <ele>332</ele>
        <time>2015-04-19T07:15:53.128Z</time>
      </trkpt>
      <trkpt lat="47.29049" lon="4.97563">
        <ele>332</ele>
        <time>2015-04-19T07:15:54.146Z</time>
      </trkpt>
      <trkpt lat="47.29049" lon="4.97563">
        <ele>332</ele>
        <time>2015-04-19T07:15:58.120Z</time>
      </trkpt>
      <trkpt lat="47.29049" lon="4.97563">
        <ele>332</ele>
        <time>2015-04-19T07:15:59.150Z</time>
      </trkpt>
      <trkpt lat="47.29048" lon="4.97552">
        <ele>332</ele>
        <time>2015-04-19T07:16:03.136Z</time>
      </trkpt>
      <trkpt lat="47.29049" lon="4.97549">
        <ele>332</ele>
        <time>2015-04-19T07:16:04.151Z</time>
      </trkpt>
      <trkpt lat="47.29053" lon="4.97539">
        <ele>332</ele>
        <time>2015-04-19T07:16:09.122Z</time>
      </trkpt>
      <trkpt lat="47.29053" lon="4.97537">
        <ele>332</ele>
        <time>2015-04-19T07:16:10.126Z</time>
      </trkpt>
      <trkpt lat="47.29057" lon="4.97527">
        <ele>332</ele>
        <time>2015-04-19T07:16:15.133Z</time>
      </trkpt>
      <trkpt lat="47.29058" lon="4.97525">
        <ele>332</ele>
        <time>2015-04-19T07:16:16.128Z</time>
      </trkpt>
      <trkpt lat="47.2906" lon="4.97515">
        <ele>332</ele>
        <time>2015-04-19T07:16:20.143Z</time>
      </trkpt>
      <trkpt lat="47.2906" lon="4.97512">
        <ele>332</ele>
        <time>2015-04-19T07:16:21.147Z</time>
      </trkpt>
      <trkpt lat="47.29061" lon="4.97501">
        <ele>332</ele>
        <time>2015-04-19T07:16:25.120Z</time>
      </trkpt>
      <trkpt lat="47.29062" lon="4.97499">
        <ele>334</ele>
        <time>2015-04-19T07:16:26.107Z</time>
      </trkpt>
      <trkpt lat="47.29066" lon="4.97488">
        <ele>334</ele>
        <time>2015-04-19T07:16:32.132Z</time>
      </trkpt>
      <trkpt lat="47.29067" lon="4.97486">
        <ele>334</ele>
        <time>2015-04-19T07:16:33.130Z</time>
      </trkpt>
      <trkpt lat="47.29072" lon="4.97475">
        <ele>335</ele>
        <time>2015-04-19T07:16:39.135Z</time>
      </trkpt>
      <trkpt lat="47.29072" lon="4.97473">
        <ele>335</ele>
        <time>2015-04-19T07:16:40.130Z</time>
      </trkpt>
      <trkpt lat="47.29077" lon="4.97463">
        <ele>336</ele>
        <time>2015-04-19T07:16:45.112Z</time>
      </trkpt>
      <trkpt lat="47.29077" lon="4.97462">
        <ele>336</ele>
        <time>2015-04-19T07:16:46.161Z</time>
      </trkpt>
      <trkpt lat="47.29082" lon="4.97451">
        <ele>336</ele>
        <time>2015-04-19T07:16:51.145Z</time>
      </trkpt>
      <trkpt lat="47.29083" lon="4.97448">
        <ele>336</ele>
        <time>2015-04-19T07:16:52.133Z</time>
      </trkpt>
      <trkpt lat="47.29088" lon="4.97438">
        <ele>336</ele>
        <time>2015-04-19T07:16:55.162Z</time>
      </trkpt>
      <trkpt lat="47.29089" lon="4.97434">
        <ele>336</ele>
        <time>2015-04-19T07:16:56.133Z</time>
      </trkpt>
      <trkpt lat="47.29093" lon="4.97425">
        <ele>336</ele>
        <time>2015-04-19T07:16:59.229Z</time>
      </trkpt>
      <trkpt lat="47.29093" lon="4.97422">
        <ele>335</ele>
        <time>2015-04-19T07:17:00.150Z</time>
      </trkpt>
      <trkpt lat="47.29097" lon="4.97412">
        <ele>336</ele>
        <time>2015-04-19T07:17:04.141Z</time>
      </trkpt>
      <trkpt lat="47.29098" lon="4.9741">
        <ele>336</ele>
        <time>2015-04-19T07:17:05.132Z</time>
      </trkpt>
      <trkpt lat="47.29101" lon="4.97399">
        <ele>337</ele>
        <time>2015-04-19T07:17:10.164Z</time>
      </trkpt>
      <trkpt lat="47.29102" lon="4.97397">
        <ele>338</ele>
        <time>2015-04-19T07:17:11.155Z</time>
      </trkpt>
      <trkpt lat="47.29107" lon="4.97387">
        <ele>338</ele>
        <time>2015-04-19T07:17:17.151Z</time>
      </trkpt>
      <trkpt lat="47.29107" lon="4.97386">
        <ele>339</ele>
        <time>2015-04-19T07:17:18.148Z</time>
      </trkpt>
      <trkpt lat="47.29113" lon="4.97376">
        <ele>339</ele>
        <time>2015-04-19T07:17:23.145Z</time>
      </trkpt>
      <trkpt lat="47.29114" lon="4.97374">
        <ele>339</ele>
        <time>2015-04-19T07:17:24.149Z</time>
      </trkpt>
      <trkpt lat="47.29119" lon="4.97364">
        <ele>339</ele>
        <time>2015-04-19T07:17:29.150Z</time>
      </trkpt>
      <trkpt lat="47.2912" lon="4.97362">
        <ele>340</ele>
        <time>2015-04-19T07:17:30.134Z</time>
      </trkpt>
      <trkpt lat="47.29124" lon="4.97353">
        <ele>340</ele>
        <time>2015-04-19T07:17:36.139Z</time>
      </trkpt>
      <trkpt lat="47.29125" lon="4.97351">
        <ele>340</ele>
        <time>2015-04-19T07:17:37.151Z</time>
      </trkpt>
      <trkpt lat="47.29129" lon="4.97341">
        <ele>339</ele>
        <time>2015-04-19T07:17:42.134Z</time>
      </trkpt>
      <trkpt lat="47.2913" lon="4.97339">
        <ele>339</ele>
        <time>2015-04-19T07:17:43.146Z</time>
      </trkpt>
      <trkpt lat="47.29135" lon="4.97329">
        <ele>344</ele>
        <time>2015-04-19T07:17:48.143Z</time>
      </trkpt>
      <trkpt lat="47.29136" lon="4.97327">
        <ele>344</ele>
        <time>2015-04-19T07:17:49.179Z</time>
      </trkpt>
      <trkpt lat="47.29141" lon="4.97318">
        <ele>344</ele>
        <time>2015-04-19T07:17:54.147Z</time>
      </trkpt>
      <trkpt lat="47.29143" lon="4.97316">
        <ele>344</ele>
        <time>2015-04-19T07:17:55.161Z</time>
      </trkpt>
      <trkpt lat="47.29149" lon="4.97307">
        <ele>344</ele>
        <time>2015-04-19T07:18:00.136Z</time>
      </trkpt>
      <trkpt lat="47.2915" lon="4.97305">
        <ele>344</ele>
        <time>2015-04-19T07:18:01.144Z</time>
      </trkpt>
      <trkpt lat="47.29156" lon="4.97297">
        <ele>344</ele>
        <time>2015-04-19T07:18:06.141Z</time>
      </trkpt>
      <trkpt lat="47.29158" lon="4.97296">
        <ele>344</ele>
        <time>2015-04-19T07:18:07.144Z</time>
      </trkpt>
      <trkpt lat="47.29165" lon="4.97287">
        <ele>345</ele>
        <time>2015-04-19T07:18:12.137Z</time>
      </trkpt>
      <trkpt lat="47.29166" lon="4.97285">
        <ele>345</ele>
        <time>2015-04-19T07:18:13.156Z</time>
      </trkpt>
      <trkpt lat="47.29172" lon="4.97277">
        <ele>344</ele>
        <time>2015-04-19T07:18:19.156Z</time>
      </trkpt>
      <trkpt lat="47.29173" lon="4.97276">
        <ele>344</ele>
        <time>2015-04-19T07:18:20.149Z</time>
      </trkpt>
      <trkpt lat="47.2918" lon="4.9727">
        <ele>344</ele>
        <time>2015-04-19T07:18:27.143Z</time>
      </trkpt>
      <trkpt lat="47.29182" lon="4.97269">
        <ele>344</ele>
        <time>2015-04-19T07:18:28.146Z</time>
      </trkpt>
      <trkpt lat="47.29189" lon="4.97264">
        <ele>344</ele>
        <time>2015-04-19T07:18:33.138Z</time>
      </trkpt>
      <trkpt lat="47.2919" lon="4.97263">
        <ele>344</ele>
        <time>2015-04-19T07:18:34.139Z</time>
      </trkpt>
      <trkpt lat="47.29197" lon="4.97255">
        <ele>344</ele>
        <time>2015-04-19T07:18:40.131Z</time>
      </trkpt>
      <trkpt lat="47.29198" lon="4.97253">
        <ele>344</ele>
        <time>2015-04-19T07:18:41.132Z</time>
      </trkpt>
      <trkpt lat="47.29202" lon="4.97244">
        <ele>346</ele>
        <time>2015-04-19T07:18:46.137Z</time>
      </trkpt>
      <trkpt lat="47.29203" lon="4.97242">
        <ele>346</ele>
        <time>2015-04-19T07:18:47.142Z</time>
      </trkpt>
      <trkpt lat="47.29207" lon="4.97233">
        <ele>346</ele>
        <time>2015-04-19T07:18:51.143Z</time>
      </trkpt>
      <trkpt lat="47.29209" lon="4.9723">
        <ele>346</ele>
        <time>2015-04-19T07:18:52.147Z</time>
      </trkpt>
      <trkpt lat="47.29216" lon="4.97223">
        <ele>346</ele>
        <time>2015-04-19T07:18:56.161Z</time>
      </trkpt>
      <trkpt lat="47.29218" lon="4.97223">
        <ele>346</ele>
        <time>2015-04-19T07:18:57.139Z</time>
      </trkpt>
      <trkpt lat="47.29226" lon="4.97217">
        <ele>346</ele>
        <time>2015-04-19T07:19:03.127Z</time>
      </trkpt>
      <trkpt lat="47.29227" lon="4.97216">
        <ele>346</ele>
        <time>2015-04-19T07:19:04.129Z</time>
      </trkpt>
      <trkpt lat="47.29233" lon="4.97211">
        <ele>346</ele>
        <time>2015-04-19T07:19:07.151Z</time>
      </trkpt>
      <trkpt lat="47.29235" lon="4.97208">
        <ele>346</ele>
        <time>2015-04-19T07:19:08.130Z</time>
      </trkpt>
      <trkpt lat="47.29242" lon="4.97204">
        <ele>345</ele>
        <time>2015-04-19T07:19:11.126Z</time>
      </trkpt>
      <trkpt lat="47.29244" lon="4.97202">
        <ele>345</ele>
        <time>2015-04-19T07:19:12.126Z</time>
      </trkpt>
      <trkpt lat="47.29252" lon="4.97196">
        <ele>345</ele>
        <time>2015-04-19T07:19:16.122Z</time>
      </trkpt>
      <trkpt lat="47.29253" lon="4.97195">
        <ele>345</ele>
        <time>2015-04-19T07:19:17.137Z</time>
      </trkpt>
      <trkpt lat="47.29259" lon="4.97187">
        <ele>345</ele>
        <time>2015-04-19T07:19:22.131Z</time>
      </trkpt>
      <trkpt lat="47.29261" lon="4.97185">
        <ele>345</ele>
        <time>2015-04-19T07:19:23.139Z</time>
      </trkpt>
      <trkpt lat="47.29268" lon="4.97178">
        <ele>345</ele>
        <time>2015-04-19T07:19:28.141Z</time>
      </trkpt>
      <trkpt lat="47.2927" lon="4.97177">
        <ele>345</ele>
        <time>2015-04-19T07:19:29.138Z</time>
      </trkpt>
      <trkpt lat="47.29277" lon="4.97171">
        <ele>345</ele>
        <time>2015-04-19T07:19:34.140Z</time>
      </trkpt>
      <trkpt lat="47.29279" lon="4.9717">
        <ele>345</ele>
        <time>2015-04-19T07:19:35.132Z</time>
      </trkpt>
      <trkpt lat="47.29285" lon="4.97164">
        <ele>345</ele>
        <time>2015-04-19T07:19:39.130Z</time>
      </trkpt>
      <trkpt lat="47.29287" lon="4.97162">
        <ele>345</ele>
        <time>2015-04-19T07:19:40.122Z</time>
      </trkpt>
      <trkpt lat="47.29292" lon="4.97154">
        <ele>345</ele>
        <time>2015-04-19T07:19:44.189Z</time>
      </trkpt>
      <trkpt lat="47.29293" lon="4.97153">
        <ele>345</ele>
        <time>2015-04-19T07:19:45.189Z</time>
      </trkpt>
      <trkpt lat="47.29298" lon="4.97145">
        <ele>345</ele>
        <time>2015-04-19T07:19:49.128Z</time>
      </trkpt>
      <trkpt lat="47.293" lon="4.97144">
        <ele>345</ele>
        <time>2015-04-19T07:19:50.113Z</time>
      </trkpt>
      <trkpt lat="47.29306" lon="4.97137">
        <ele>345</ele>
        <time>2015-04-19T07:19:53.117Z</time>
      </trkpt>
      <trkpt lat="47.29307" lon="4.97135">
        <ele>345</ele>
        <time>2015-04-19T07:19:54.149Z</time>
      </trkpt>
      <trkpt lat="47.29314" lon="4.97128">
        <ele>345</ele>
        <time>2015-04-19T07:19:58.175Z</time>
      </trkpt>
      <trkpt lat="47.29315" lon="4.97126">
        <ele>345</ele>
        <time>2015-04-19T07:19:59.143Z</time>
      </trkpt>
      <trkpt lat="47.29321" lon="4.97118">
        <ele>345</ele>
        <time>2015-04-19T07:20:03.167Z</time>
      </trkpt>
      <trkpt lat="47.29323" lon="4.97116">
        <ele>345</ele>
        <time>2015-04-19T07:20:04.130Z</time>
      </trkpt>
      <trkpt lat="47.29328" lon="4.97109">
        <ele>345</ele>
        <time>2015-04-19T07:20:07.143Z</time>
      </trkpt>
      <trkpt lat="47.29329" lon="4.97106">
        <ele>344</ele>
        <time>2015-04-19T07:20:08.130Z</time>
      </trkpt>
      <trkpt lat="47.29334" lon="4.97098">
        <ele>345</ele>
        <time>2015-04-19T07:20:12.127Z</time>
      </trkpt>
      <trkpt lat="47.29335" lon="4.97096">
        <ele>345</ele>
        <time>2015-04-19T07:20:13.135Z</time>
      </trkpt>
      <trkpt lat="47.29341" lon="4.97087">
        <ele>344</ele>
        <time>2015-04-19T07:20:18.134Z</time>
      </trkpt>
      <trkpt lat="47.29342" lon="4.97086">
        <ele>344</ele>
        <time>2015-04-19T07:20:19.144Z</time>
      </trkpt>
      <trkpt lat="47.29349" lon="4.9708">
        <ele>345</ele>
        <time>2015-04-19T07:20:25.126Z</time>
      </trkpt>
      <trkpt lat="47.29351" lon="4.97079">
        <ele>345</ele>
        <time>2015-04-19T07:20:26.126Z</time>
      </trkpt>
      <trkpt lat="47.29357" lon="4.97071">
        <ele>346</ele>
        <time>2015-04-19T07:20:31.126Z</time>
      </trkpt>
      <trkpt lat="47.29359" lon="4.97069">
        <ele>346</ele>
        <time>2015-04-19T07:20:32.127Z</time>
      </trkpt>
      <trkpt lat="47.29365" lon="4.97061">
        <ele>346</ele>
        <time>2015-04-19T07:20:36.109Z</time>
      </trkpt>
      <trkpt lat="47.29366" lon="4.9706">
        <ele>347</ele>
        <time>2015-04-19T07:20:37.142Z</time>
      </trkpt>
      <trkpt lat="47.29373" lon="4.97056">
        <ele>347</ele>
        <time>2015-04-19T07:20:41.132Z</time>
      </trkpt>
      <trkpt lat="47.29374" lon="4.97055">
        <ele>347</ele>
        <time>2015-04-19T07:20:42.123Z</time>
      </trkpt>
      <trkpt lat="47.29381" lon="4.97046">
        <ele>347</ele>
        <time>2015-04-19T07:20:47.112Z</time>
      </trkpt>
      <trkpt lat="47.29382" lon="4.97045">
        <ele>347</ele>
        <time>2015-04-19T07:20:48.136Z</time>
      </trkpt>
      <trkpt lat="47.29389" lon="4.97039">
        <ele>347</ele>
        <time>2015-04-19T07:20:54.140Z</time>
      </trkpt>
      <trkpt lat="47.2939" lon="4.97037">
        <ele>347</ele>
        <time>2015-04-19T07:20:55.150Z</time>
      </trkpt>
      <trkpt lat="47.29397" lon="4.97032">
        <ele>347</ele>
        <time>2015-04-19T07:20:59.147Z</time>
      </trkpt>
      <trkpt lat="47.29399" lon="4.97031">
        <ele>347</ele>
        <time>2015-04-19T07:21:00.134Z</time>
      </trkpt>
      <trkpt lat="47.29405" lon="4.97024">
        <ele>346</ele>
        <time>2015-04-19T07:21:03.125Z</time>
      </trkpt>
      <trkpt lat="47.29406" lon="4.97021">
        <ele>346</ele>
        <time>2015-04-19T07:21:04.122Z</time>
      </trkpt>
      <trkpt lat="47.29412" lon="4.97012">
        <ele>345</ele>
        <time>2015-04-19T07:21:06.107Z</time>
      </trkpt>
      <trkpt lat="47.29415" lon="4.97007">
        <ele>345</ele>
        <time>2015-04-19T07:21:07.126Z</time>
      </trkpt>
      <trkpt lat="47.29421" lon="4.97001">
        <ele>345</ele>
        <time>2015-04-19T07:21:10.124Z</time>
      </trkpt>
      <trkpt lat="47.29423" lon="4.96998">
        <ele>346</ele>
        <time>2015-04-19T07:21:11.135Z</time>
      </trkpt>
      <trkpt lat="47.29428" lon="4.96993">
        <ele>347</ele>
        <time>2015-04-19T07:21:14.111Z</time>
      </trkpt>
      <trkpt lat="47.2943" lon="4.9699">
        <ele>348</ele>
        <time>2015-04-19T07:21:15.150Z</time>
      </trkpt>
      <trkpt lat="47.29436" lon="4.96983">
        <ele>349</ele>
        <time>2015-04-19T07:21:18.142Z</time>
      </trkpt>
      <trkpt lat="47.29438" lon="4.96981">
        <ele>350</ele>
        <time>2015-04-19T07:21:19.170Z</time>
      </trkpt>
      <trkpt lat="47.29445" lon="4.96975">
        <ele>350</ele>
        <time>2015-04-19T07:21:23.133Z</time>
      </trkpt>
      <trkpt lat="47.29447" lon="4.96973">
        <ele>351</ele>
        <time>2015-04-19T07:21:24.152Z</time>
      </trkpt>
      <trkpt lat="47.29454" lon="4.96966">
        <ele>351</ele>
        <time>2015-04-19T07:21:29.133Z</time>
      </trkpt>
      <trkpt lat="47.29455" lon="4.96964">
        <ele>351</ele>
        <time>2015-04-19T07:21:30.126Z</time>
      </trkpt>
      <trkpt lat="47.29461" lon="4.96954">
        <ele>352</ele>
        <time>2015-04-19T07:21:35.120Z</time>
      </trkpt>
      <trkpt lat="47.29463" lon="4.96953">
        <ele>352</ele>
        <time>2015-04-19T07:21:36.071Z</time>
      </trkpt>
      <trkpt lat="47.29469" lon="4.96947">
        <ele>352</ele>
        <time>2015-04-19T07:21:42.042Z</time>
      </trkpt>
      <trkpt lat="47.2947" lon="4.96946">
        <ele>352</ele>
        <time>2015-04-19T07:21:43.052Z</time>
      </trkpt>
      <trkpt lat="47.29477" lon="4.96943">
        <ele>351</ele>
        <time>2015-04-19T07:21:48.052Z</time>
      </trkpt>
      <trkpt lat="47.29479" lon="4.96943">
        <ele>351</ele>
        <time>2015-04-19T07:21:49.069Z</time>
      </trkpt>
      <trkpt lat="47.29487" lon="4.96943">
        <ele>351</ele>
        <time>2015-04-19T07:21:54.051Z</time>
      </trkpt>
      <trkpt lat="47.29488" lon="4.96942">
        <ele>351</ele>
        <time>2015-04-19T07:21:55.063Z</time>
      </trkpt>
      <trkpt lat="47.29496" lon="4.96941">
        <ele>351</ele>
        <time>2015-04-19T07:22:00.095Z</time>
      </trkpt>
      <trkpt lat="47.29498" lon="4.9694">
        <ele>351</ele>
        <time>2015-04-19T07:22:01.075Z</time>
      </trkpt>
      <trkpt lat="47.29505" lon="4.96939">
        <ele>351</ele>
        <time>2015-04-19T07:22:06.085Z</time>
      </trkpt>
      <trkpt lat="47.29508" lon="4.96938">
        <ele>351</ele>
        <time>2015-04-19T07:22:07.066Z</time>
      </trkpt>
      <trkpt lat="47.29514" lon="4.96936">
        <ele>351</ele>
        <time>2015-04-19T07:22:10.062Z</time>
      </trkpt>
      <trkpt lat="47.29517" lon="4.96935">
        <ele>351</ele>
        <time>2015-04-19T07:22:11.065Z</time>
      </trkpt>
      <trkpt lat="47.29524" lon="4.96932">
        <ele>351</ele>
        <time>2015-04-19T07:22:14.062Z</time>
      </trkpt>
      <trkpt lat="47.29527" lon="4.9693">
        <ele>351</ele>
        <time>2015-04-19T07:22:15.074Z</time>
      </trkpt>
      <trkpt lat="47.29534" lon="4.96927">
        <ele>351</ele>
        <time>2015-04-19T07:22:18.088Z</time>
      </trkpt>
      <trkpt lat="47.29536" lon="4.96926">
        <ele>351</ele>
        <time>2015-04-19T07:22:19.114Z</time>
      </trkpt>
      <trkpt lat="47.29543" lon="4.96924">
        <ele>351</ele>
        <time>2015-04-19T07:22:22.079Z</time>
      </trkpt>
      <trkpt lat="47.29546" lon="4.96923">
        <ele>351</ele>
        <time>2015-04-19T07:22:23.098Z</time>
      </trkpt>
      <trkpt lat="47.29553" lon="4.96926">
        <ele>352</ele>
        <time>2015-04-19T07:22:27.069Z</time>
      </trkpt>
      <trkpt lat="47.29555" lon="4.96927">
        <ele>352</ele>
        <time>2015-04-19T07:22:28.078Z</time>
      </trkpt>
      <trkpt lat="47.29563" lon="4.96932">
        <ele>352</ele>
        <time>2015-04-19T07:22:33.062Z</time>
      </trkpt>
      <trkpt lat="47.29564" lon="4.96933">
        <ele>352</ele>
        <time>2015-04-19T07:22:34.057Z</time>
      </trkpt>
      <trkpt lat="47.29571" lon="4.96938">
        <ele>352</ele>
        <time>2015-04-19T07:22:38.050Z</time>
      </trkpt>
      <trkpt lat="47.29572" lon="4.9694">
        <ele>352</ele>
        <time>2015-04-19T07:22:39.076Z</time>
      </trkpt>
      <trkpt lat="47.29581" lon="4.96943">
        <ele>352</ele>
        <time>2015-04-19T07:22:44.091Z</time>
      </trkpt>
      <trkpt lat="47.29581" lon="4.96944">
        <ele>352</ele>
        <time>2015-04-19T07:22:45.093Z</time>
      </trkpt>
      <trkpt lat="47.29582" lon="4.96944">
        <ele>352</ele>
        <time>2015-04-19T07:22:46.106Z</time>
      </trkpt>
      <trkpt lat="47.29582" lon="4.96944">
        <ele>352</ele>
        <time>2015-04-19T07:22:47.076Z</time>
      </trkpt>
      <trkpt lat="47.29582" lon="4.96944">
        <ele>352</ele>
        <time>2015-04-19T07:22:48.089Z</time>
      </trkpt>
      <trkpt lat="47.29576" lon="4.96935">
        <ele>352</ele>
        <time>2015-04-19T07:23:02.059Z</time>
      </trkpt>
      <trkpt lat="47.29576" lon="4.96934">
        <ele>352</ele>
        <time>2015-04-19T07:23:03.078Z</time>
      </trkpt>
      <trkpt lat="47.2957" lon="4.96924">
        <ele>351</ele>
        <time>2015-04-19T07:23:13.081Z</time>
      </trkpt>
      <trkpt lat="47.29569" lon="4.96923">
        <ele>351</ele>
        <time>2015-04-19T07:23:14.077Z</time>
      </trkpt>
      <trkpt lat="47.29561" lon="4.96918">
        <ele>351</ele>
        <time>2015-04-19T07:23:22.084Z</time>
      </trkpt>
      <trkpt lat="47.2956" lon="4.96917">
        <ele>351</ele>
        <time>2015-04-19T07:23:23.055Z</time>
      </trkpt>
      <trkpt lat="47.29552" lon="4.96912">
        <ele>356</ele>
        <time>2015-04-19T07:23:29.078Z</time>
      </trkpt>
      <trkpt lat="47.29551" lon="4.96911">
        <ele>356</ele>
        <time>2015-04-19T07:23:30.055Z</time>
      </trkpt>
      <trkpt lat="47.29544" lon="4.96905">
        <ele>356</ele>
        <time>2015-04-19T07:23:38.079Z</time>
      </trkpt>
      <trkpt lat="47.29543" lon="4.96905">
        <ele>356</ele>
        <time>2015-04-19T07:23:39.069Z</time>
      </trkpt>
      <trkpt lat="47.29535" lon="4.96899">
        <ele>357</ele>
        <time>2015-04-19T07:23:48.077Z</time>
      </trkpt>
      <trkpt lat="47.29535" lon="4.96897">
        <ele>357</ele>
        <time>2015-04-19T07:23:49.098Z</time>
      </trkpt>
      <trkpt lat="47.29532" lon="4.96891">
        <ele>357</ele>
        <time>2015-04-19T07:23:54.079Z</time>
      </trkpt>
      <trkpt lat="47.29532" lon="4.96891">
        <ele>357</ele>
        <time>2015-04-19T07:23:55.095Z</time>
      </trkpt>
      <trkpt lat="47.29532" lon="4.96891">
        <ele>357</ele>
        <time>2015-04-19T07:23:57.074Z</time>
      </trkpt>
      <trkpt lat="47.29528" lon="4.96887">
        <ele>358</ele>
        <time>2015-04-19T07:23:58.077Z</time>
      </trkpt>
      <trkpt lat="47.29522" lon="4.96877">
        <ele>359</ele>
        <time>2015-04-19T07:24:07.080Z</time>
      </trkpt>
      <trkpt lat="47.29521" lon="4.96877">
        <ele>359</ele>
        <time>2015-04-19T07:24:08.064Z</time>
      </trkpt>
      <trkpt lat="47.29515" lon="4.96867">
        <ele>361</ele>
        <time>2015-04-19T07:24:17.065Z</time>
      </trkpt>
      <trkpt lat="47.29514" lon="4.96865">
        <ele>361</ele>
        <time>2015-04-19T07:24:18.076Z</time>
      </trkpt>
      <trkpt lat="47.29509" lon="4.96859">
        <ele>363</ele>
        <time>2015-04-19T07:24:22.067Z</time>
      </trkpt>
      <trkpt lat="47.29509" lon="4.96858">
        <ele>363</ele>
        <time>2015-04-19T07:24:23.074Z</time>
      </trkpt>
      <trkpt lat="47.29509" lon="4.96857">
        <ele>363</ele>
        <time>2015-04-19T07:24:28.074Z</time>
      </trkpt>
      <trkpt lat="47.29509" lon="4.96857">
        <ele>363</ele>
        <time>2015-04-19T07:24:29.076Z</time>
      </trkpt>
      <trkpt lat="47.29509" lon="4.96857">
        <ele>363</ele>
        <time>2015-04-19T07:24:30.085Z</time>
      </trkpt>
      <trkpt lat="47.29507" lon="4.96854">
        <ele>364</ele>
        <time>2015-04-19T07:24:31.076Z</time>
      </trkpt>
      <trkpt lat="47.295" lon="4.96849">
        <ele>368</ele>
        <time>2015-04-19T07:24:37.069Z</time>
      </trkpt>
      <trkpt lat="47.29498" lon="4.96847">
        <ele>368</ele>
        <time>2015-04-19T07:24:38.058Z</time>
      </trkpt>
      <trkpt lat="47.29492" lon="4.96841">
        <ele>369</ele>
        <time>2015-04-19T07:24:43.076Z</time>
      </trkpt>
      <trkpt lat="47.29491" lon="4.9684">
        <ele>369</ele>
        <time>2015-04-19T07:24:44.060Z</time>
      </trkpt>
      <trkpt lat="47.29482" lon="4.96841">
        <ele>368</ele>
        <time>2015-04-19T07:24:49.098Z</time>
      </trkpt>
      <trkpt lat="47.2948" lon="4.96841">
        <ele>368</ele>
        <time>2015-04-19T07:24:50.087Z</time>
      </trkpt>
      <trkpt lat="47.29473" lon="4.96835">
        <ele>368</ele>
        <time>2015-04-19T07:24:59.076Z</time>
      </trkpt>
      <trkpt lat="47.29472" lon="4.96834">
        <ele>368</ele>
        <time>2015-04-19T07:25:00.080Z</time>
      </trkpt>
      <trkpt lat="47.29465" lon="4.96832">
        <ele>381</ele>
        <time>2015-04-19T07:25:05.041Z</time>
      </trkpt>
      <trkpt lat="47.29462" lon="4.96831">
        <ele>381</ele>
        <time>2015-04-19T07:25:06.057Z</time>
      </trkpt>
      <trkpt lat="47.29455" lon="4.96829">
        <ele>381</ele>
        <time>2015-04-19T07:25:09.062Z</time>
      </trkpt>
      <trkpt lat="47.29453" lon="4.96828">
        <ele>382</ele>
        <time>2015-04-19T07:25:10.062Z</time>
      </trkpt>
      <trkpt lat="47.29445" lon="4.96824">
        <ele>382</ele>
        <time>2015-04-19T07:25:15.075Z</time>
      </trkpt>
      <trkpt lat="47.29444" lon="4.96822">
        <ele>382</ele>
        <time>2015-04-19T07:25:16.065Z</time>
      </trkpt>
      <trkpt lat="47.29436" lon="4.96817">
        <ele>382</ele>
        <time>2015-04-19T07:25:22.070Z</time>
      </trkpt>
      <trkpt lat="47.29435" lon="4.96816">
        <ele>382</ele>
        <time>2015-04-19T07:25:23.086Z</time>
      </trkpt>
      <trkpt lat="47.29427" lon="4.96816">
        <ele>382</ele>
        <time>2015-04-19T07:25:29.068Z</time>
      </trkpt>
      <trkpt lat="47.29426" lon="4.96816">
        <ele>382</ele>
        <time>2015-04-19T07:25:30.079Z</time>
      </trkpt>
      <trkpt lat="47.29418" lon="4.96814">
        <ele>382</ele>
        <time>2015-04-19T07:25:36.066Z</time>
      </trkpt>
      <trkpt lat="47.29416" lon="4.96814">
        <ele>386</ele>
        <time>2015-04-19T07:25:37.086Z</time>
      </trkpt>
      <trkpt lat="47.29408" lon="4.96818">
        <ele>386</ele>
        <time>2015-04-19T07:25:45.070Z</time>
      </trkpt>
      <trkpt lat="47.29408" lon="4.96819">
        <ele>386</ele>
        <time>2015-04-19T07:25:46.070Z</time>
      </trkpt>
      <trkpt lat="47.29402" lon="4.96828">
        <ele>385</ele>
        <time>2015-04-19T07:25:54.088Z</time>
      </trkpt>
      <trkpt lat="47.29401" lon="4.9683">
        <ele>386</ele>
        <time>2015-04-19T07:25:55.100Z</time>
      </trkpt>
      <trkpt lat="47.29395" lon="4.9684">
        <ele>379</ele>
        <time>2015-04-19T07:26:03.070Z</time>
      </trkpt>
      <trkpt lat="47.29395" lon="4.96841">
        <ele>379</ele>
        <time>2015-04-19T07:26:04.080Z</time>
      </trkpt>
      <trkpt lat="47.29391" lon="4.96851">
        <ele>379</ele>
        <time>2015-04-19T07:26:09.078Z</time>
      </trkpt>
      <trkpt lat="47.2939" lon="4.96853">
        <ele>379</ele>
        <time>2015-04-19T07:26:10.092Z</time>
      </trkpt>
      <trkpt lat="47.29383" lon="4.96859">
        <ele>379</ele>
        <time>2015-04-19T07:26:15.078Z</time>
      </trkpt>
      <trkpt lat="47.29382" lon="4.9686">
        <ele>379</ele>
        <time>2015-04-19T07:26:16.061Z</time>
      </trkpt>
      <trkpt lat="47.29375" lon="4.96868">
        <ele>379</ele>
        <time>2015-04-19T07:26:22.048Z</time>
      </trkpt>
      <trkpt lat="47.29374" lon="4.96869">
        <ele>379</ele>
        <time>2015-04-19T07:26:23.089Z</time>
      </trkpt>
      <trkpt lat="47.29367" lon="4.96875">
        <ele>379</ele>
        <time>2015-04-19T07:26:30.077Z</time>
      </trkpt>
      <trkpt lat="47.29365" lon="4.96875">
        <ele>379</ele>
        <time>2015-04-19T07:26:31.086Z</time>
      </trkpt>
      <trkpt lat="47.29359" lon="4.96874">
        <ele>379</ele>
        <time>2015-04-19T07:26:36.070Z</time>
      </trkpt>
      <trkpt lat="47.29356" lon="4.96874">
        <ele>380</ele>
        <time>2015-04-19T07:26:37.100Z</time>
      </trkpt>
      <trkpt lat="47.29348" lon="4.96874">
        <ele>380</ele>
        <time>2015-04-19T07:26:40.066Z</time>
      </trkpt>
      <trkpt lat="47.29346" lon="4.96873">
        <ele>380</ele>
        <time>2015-04-19T07:26:41.078Z</time>
      </trkpt>
      <trkpt lat="47.29338" lon="4.96874">
        <ele>381</ele>
        <time>2015-04-19T07:26:46.090Z</time>
      </trkpt>
      <trkpt lat="47.29337" lon="4.96874">
        <ele>381</ele>
        <time>2015-04-19T07:26:47.087Z</time>
      </trkpt>
      <trkpt lat="47.29329" lon="4.9687">
        <ele>386</ele>
        <time>2015-04-19T07:26:54.090Z</time>
      </trkpt>
      <trkpt lat="47.29327" lon="4.96869">
        <ele>386</ele>
        <time>2015-04-19T07:26:55.089Z</time>
      </trkpt>
      <trkpt lat="47.2932" lon="4.96867">
        <ele>386</ele>
        <time>2015-04-19T07:26:59.095Z</time>
      </trkpt>
      <trkpt lat="47.29318" lon="4.96866">
        <ele>386</ele>
        <time>2015-04-19T07:27:00.100Z</time>
      </trkpt>
      <trkpt lat="47.2931" lon="4.9686">
        <ele>387</ele>
        <time>2015-04-19T07:27:04.091Z</time>
      </trkpt>
      <trkpt lat="47.29309" lon="4.96859">
        <ele>387</ele>
        <time>2015-04-19T07:27:05.080Z</time>
      </trkpt>
      <trkpt lat="47.29302" lon="4.96854">
        <ele>387</ele>
        <time>2015-04-19T07:27:09.100Z</time>
      </trkpt>
      <trkpt lat="47.293" lon="4.96852">
        <ele>387</ele>
        <time>2015-04-19T07:27:10.080Z</time>
      </trkpt>
      <trkpt lat="47.29293" lon="4.96845">
        <ele>387</ele>
        <time>2015-04-19T07:27:16.088Z</time>
      </trkpt>
      <trkpt lat="47.29292" lon="4.96844">
        <ele>387</ele>
        <time>2015-04-19T07:27:17.084Z</time>
      </trkpt>
      <trkpt lat="47.29288" lon="4.96833">
        <ele>395</ele>
        <time>2015-04-19T07:27:24.076Z</time>
      </trkpt>
      <trkpt lat="47.29287" lon="4.96831">
        <ele>395</ele>
        <time>2015-04-19T07:27:25.096Z</time>
      </trkpt>
      <trkpt lat="47.2928" lon="4.96824">
        <ele>395</ele>
        <time>2015-04-19T07:27:30.078Z</time>
      </trkpt>
      <trkpt lat="47.29279" lon="4.96823">
        <ele>395</ele>
        <time>2015-04-19T07:27:31.067Z</time>
      </trkpt>
      <trkpt lat="47.29275" lon="4.96812">
        <ele>396</ele>
        <time>2015-04-19T07:27:38.079Z</time>
      </trkpt>
      <trkpt lat="47.29274" lon="4.96811">
        <ele>396</ele>
        <time>2015-04-19T07:27:39.080Z</time>
      </trkpt>
      <trkpt lat="47.29267" lon="4.96806">
        <ele>396</ele>
        <time>2015-04-19T07:27:45.088Z</time>
      </trkpt>
      <trkpt lat="47.29266" lon="4.96805">
        <ele>396</ele>
        <time>2015-04-19T07:27:46.068Z</time>
      </trkpt>
      <trkpt lat="47.29261" lon="4.96797">
        <ele>397</ele>
        <time>2015-04-19T07:27:51.083Z</time>
      </trkpt>
      <trkpt lat="47.2926" lon="4.96794">
        <ele>397</ele>
        <time>2015-04-19T07:27:52.086Z</time>
      </trkpt>
      <trkpt lat="47.29256" lon="4.96785">
        <ele>398</ele>
        <time>2015-04-19T07:27:57.070Z</time>
      </trkpt>
      <trkpt lat="47.29255" lon="4.96783">
        <ele>398</ele>
        <time>2015-04-19T07:27:58.088Z</time>
      </trkpt>
      <trkpt lat="47.2925" lon="4.96774">
        <ele>401</ele>
        <time>2015-04-19T07:28:04.079Z</time>
      </trkpt>
      <trkpt lat="47.29248" lon="4.96772">
        <ele>401</ele>
        <time>2015-04-19T07:28:05.093Z</time>
      </trkpt>
      <trkpt lat="47.29245" lon="4.9676">
        <ele>401</ele>
        <time>2015-04-19T07:28:11.060Z</time>
      </trkpt>
      <trkpt lat="47.29244" lon="4.96759">
        <ele>401</ele>
        <time>2015-04-19T07:28:12.071Z</time>
      </trkpt>
      <trkpt lat="47.29238" lon="4.96749">
        <ele>404</ele>
        <time>2015-04-19T07:28:18.092Z</time>
      </trkpt>
      <trkpt lat="47.29236" lon="4.96749">
        <ele>404</ele>
        <time>2015-04-19T07:28:19.094Z</time>
      </trkpt>
      <trkpt lat="47.29228" lon="4.96745">
        <ele>405</ele>
        <time>2015-04-19T07:28:24.098Z</time>
      </trkpt>
      <trkpt lat="47.29226" lon="4.96744">
        <ele>405</ele>
        <time>2015-04-19T07:28:25.092Z</time>
      </trkpt>
      <trkpt lat="47.29218" lon="4.9674">
        <ele>406</ele>
        <time>2015-04-19T07:28:31.089Z</time>
      </trkpt>
      <trkpt lat="47.29216" lon="4.96738">
        <ele>406</ele>
        <time>2015-04-19T07:28:32.078Z</time>
      </trkpt>
      <trkpt lat="47.29212" lon="4.96728">
        <ele>406</ele>
        <time>2015-04-19T07:28:37.092Z</time>
      </trkpt>
      <trkpt lat="47.29212" lon="4.96725">
        <ele>406</ele>
        <time>2015-04-19T07:28:38.071Z</time>
      </trkpt>
      <trkpt lat="47.29213" lon="4.96712">
        <ele>407</ele>
        <time>2015-04-19T07:28:42.073Z</time>
      </trkpt>
      <trkpt lat="47.29214" lon="4.96709">
        <ele>407</ele>
        <time>2015-04-19T07:28:43.091Z</time>
      </trkpt>
      <trkpt lat="47.29215" lon="4.96698">
        <ele>407</ele>
        <time>2015-04-19T07:28:47.083Z</time>
      </trkpt>
      <trkpt lat="47.29215" lon="4.96696">
        <ele>407</ele>
        <time>2015-04-19T07:28:48.088Z</time>
      </trkpt>
      <trkpt lat="47.29217" lon="4.96684">
        <ele>407</ele>
        <time>2015-04-19T07:28:53.091Z</time>
      </trkpt>
      <trkpt lat="47.29217" lon="4.96682">
        <ele>408</ele>
        <time>2015-04-19T07:28:54.085Z</time>
      </trkpt>
      <trkpt lat="47.29219" lon="4.96671">
        <ele>408</ele>
        <time>2015-04-19T07:28:58.070Z</time>
      </trkpt>
      <trkpt lat="47.2922" lon="4.96669">
        <ele>408</ele>
        <time>2015-04-19T07:28:59.081Z</time>
      </trkpt>
      <trkpt lat="47.29224" lon="4.96658">
        <ele>410</ele>
        <time>2015-04-19T07:29:04.079Z</time>
      </trkpt>
      <trkpt lat="47.29225" lon="4.96655">
        <ele>410</ele>
        <time>2015-04-19T07:29:05.070Z</time>
      </trkpt>
      <trkpt lat="47.29228" lon="4.96645">
        <ele>410</ele>
        <time>2015-04-19T07:29:09.083Z</time>
      </trkpt>
      <trkpt lat="47.29229" lon="4.96643">
        <ele>410</ele>
        <time>2015-04-19T07:29:10.080Z</time>
      </trkpt>
      <trkpt lat="47.29231" lon="4.96632">
        <ele>410</ele>
        <time>2015-04-19T07:29:15.083Z</time>
      </trkpt>
      <trkpt lat="47.2923" lon="4.9663">
        <ele>410</ele>
        <time>2015-04-19T07:29:16.082Z</time>
      </trkpt>
      <trkpt lat="47.2923" lon="4.96617">
        <ele>411</ele>
        <time>2015-04-19T07:29:21.090Z</time>
      </trkpt>
      <trkpt lat="47.29231" lon="4.96615">
        <ele>411</ele>
        <time>2015-04-19T07:29:22.073Z</time>
      </trkpt>
      <trkpt lat="47.29234" lon="4.96605">
        <ele>411</ele>
        <time>2015-04-19T07:29:27.088Z</time>
      </trkpt>
      <trkpt lat="47.29234" lon="4.96602">
        <ele>411</ele>
        <time>2015-04-19T07:29:28.077Z</time>
      </trkpt>
      <trkpt lat="47.29236" lon="4.96591">
        <ele>411</ele>
        <time>2015-04-19T07:29:33.081Z</time>
      </trkpt>
      <trkpt lat="47.29237" lon="4.96589">
        <ele>411</ele>
        <time>2015-04-19T07:29:34.081Z</time>
      </trkpt>
      <trkpt lat="47.29239" lon="4.96578">
        <ele>412</ele>
        <time>2015-04-19T07:29:38.081Z</time>
      </trkpt>
      <trkpt lat="47.29239" lon="4.96576">
        <ele>412</ele>
        <time>2015-04-19T07:29:39.087Z</time>
      </trkpt>
      <trkpt lat="47.29242" lon="4.96564">
        <ele>412</ele>
        <time>2015-04-19T07:29:44.076Z</time>
      </trkpt>
      <trkpt lat="47.29242" lon="4.96563">
        <ele>412</ele>
        <time>2015-04-19T07:29:45.085Z</time>
      </trkpt>
      <trkpt lat="47.29248" lon="4.96556">
        <ele>412</ele>
        <time>2015-04-19T07:29:50.060Z</time>
      </trkpt>
      <trkpt lat="47.2925" lon="4.96556">
        <ele>411</ele>
        <time>2015-04-19T07:29:51.130Z</time>
      </trkpt>
      <trkpt lat="47.29258" lon="4.96557">
        <ele>411</ele>
        <time>2015-04-19T07:29:56.083Z</time>
      </trkpt>
      <trkpt lat="47.2926" lon="4.96558">
        <ele>411</ele>
        <time>2015-04-19T07:29:57.052Z</time>
      </trkpt>
      <trkpt lat="47.29267" lon="4.9656">
        <ele>411</ele>
        <time>2015-04-19T07:30:02.078Z</time>
      </trkpt>
      <trkpt lat="47.29269" lon="4.9656">
        <ele>411</ele>
        <time>2015-04-19T07:30:03.078Z</time>
      </trkpt>
      <trkpt lat="47.29276" lon="4.96562">
        <ele>411</ele>
        <time>2015-04-19T07:30:08.043Z</time>
      </trkpt>
      <trkpt lat="47.29278" lon="4.96563">
        <ele>410</ele>
        <time>2015-04-19T07:30:09.045Z</time>
      </trkpt>
      <trkpt lat="47.29286" lon="4.96564">
        <ele>410</ele>
        <time>2015-04-19T07:30:14.082Z</time>
      </trkpt>
      <trkpt lat="47.29288" lon="4.96564">
        <ele>410</ele>
        <time>2015-04-19T07:30:15.064Z</time>
      </trkpt>
      <trkpt lat="47.29297" lon="4.96566">
        <ele>410</ele>
        <time>2015-04-19T07:30:20.087Z</time>
      </trkpt>
      <trkpt lat="47.29298" lon="4.96567">
        <ele>410</ele>
        <time>2015-04-19T07:30:21.080Z</time>
      </trkpt>
      <trkpt lat="47.29306" lon="4.96571">
        <ele>410</ele>
        <time>2015-04-19T07:30:26.052Z</time>
      </trkpt>
      <trkpt lat="47.29308" lon="4.96571">
        <ele>409</ele>
        <time>2015-04-19T07:30:27.092Z</time>
      </trkpt>
      <trkpt lat="47.29316" lon="4.96574">
        <ele>409</ele>
        <time>2015-04-19T07:30:32.080Z</time>
      </trkpt>
      <trkpt lat="47.29318" lon="4.96574">
        <ele>409</ele>
        <time>2015-04-19T07:30:33.085Z</time>
      </trkpt>
      <trkpt lat="47.29325" lon="4.96578">
        <ele>408</ele>
        <time>2015-04-19T07:30:38.072Z</time>
      </trkpt>
      <trkpt lat="47.29326" lon="4.96579">
        <ele>408</ele>
        <time>2015-04-19T07:30:39.074Z</time>
      </trkpt>
      <trkpt lat="47.29334" lon="4.96582">
        <ele>407</ele>
        <time>2015-04-19T07:30:43.089Z</time>
      </trkpt>
      <trkpt lat="47.29335" lon="4.96583">
        <ele>407</ele>
        <time>2015-04-19T07:30:44.079Z</time>
      </trkpt>
      <trkpt lat="47.29342" lon="4.96588">
        <ele>406</ele>
        <time>2015-04-19T07:30:48.090Z</time>
      </trkpt>
      <trkpt lat="47.29343" lon="4.96589">
        <ele>406</ele>
        <time>2015-04-19T07:30:49.092Z</time>
      </trkpt>
      <trkpt lat="47.29351" lon="4.96593">
        <ele>406</ele>
        <time>2015-04-19T07:30:54.081Z</time>
      </trkpt>
      <trkpt lat="47.29352" lon="4.96594">
        <ele>406</ele>
        <time>2015-04-19T07:30:55.093Z</time>
      </trkpt>
      <trkpt lat="47.2936" lon="4.96597">
        <ele>405</ele>
        <time>2015-04-19T07:31:00.060Z</time>
      </trkpt>
      <trkpt lat="47.29362" lon="4.96597">
        <ele>405</ele>
        <time>2015-04-19T07:31:01.059Z</time>
      </trkpt>
      <trkpt lat="47.2937" lon="4.966">
        <ele>405</ele>
        <time>2015-04-19T07:31:05.076Z</time>
      </trkpt>
      <trkpt lat="47.29372" lon="4.966">
        <ele>405</ele>
        <time>2015-04-19T07:31:06.083Z</time>
      </trkpt>
      <trkpt lat="47.2938" lon="4.96602">
        <ele>405</ele>
        <time>2015-04-19T07:31:10.066Z</time>
      </trkpt>
      <trkpt lat="47.29382" lon="4.96602">
        <ele>405</ele>
        <time>2015-04-19T07:31:11.082Z</time>
      </trkpt>
      <trkpt lat="47.2939" lon="4.96603">
        <ele>405</ele>
        <time>2015-04-19T07:31:15.069Z</time>
      </trkpt>
      <trkpt lat="47.29392" lon="4.96603">
        <ele>405</ele>
        <time>2015-04-19T07:31:16.088Z</time>
      </trkpt>
      <trkpt lat="47.294" lon="4.96606">
        <ele>405</ele>
        <time>2015-04-19T07:31:19.093Z</time>
      </trkpt>
      <trkpt lat="47.29402" lon="4.96606">
        <ele>405</ele>
        <time>2015-04-19T07:31:20.092Z</time>
      </trkpt>
      <trkpt lat="47.29409" lon="4.96608">
        <ele>405</ele>
        <time>2015-04-19T07:31:24.087Z</time>
      </trkpt>
      <trkpt lat="47.29411" lon="4.96608">
        <ele>405</ele>
        <time>2015-04-19T07:31:25.099Z</time>
      </trkpt>
      <trkpt lat="47.29419" lon="4.96608">
        <ele>404</ele>
        <time>2015-04-19T07:31:29.093Z</time>
      </trkpt>
      <trkpt lat="47.29421" lon="4.96609">
        <ele>404</ele>
        <time>2015-04-19T07:31:30.098Z</time>
      </trkpt>
      <trkpt lat="47.29429" lon="4.96611">
        <ele>403</ele>
        <time>2015-04-19T07:31:35.086Z</time>
      </trkpt>
      <trkpt lat="47.29431" lon="4.96611">
        <ele>403</ele>
        <time>2015-04-19T07:31:36.059Z</time>
      </trkpt>
      <trkpt lat="47.29438" lon="4.96614">
        <ele>403</ele>
        <time>2015-04-19T07:31:41.064Z</time>
      </trkpt>
      <trkpt lat="47.2944" lon="4.96615">
        <ele>403</ele>
        <time>2015-04-19T07:31:42.071Z</time>
      </trkpt>
      <trkpt lat="47.29448" lon="4.96619">
        <ele>403</ele>
        <time>2015-04-19T07:31:46.049Z</time>
      </trkpt>
      <trkpt lat="47.2945" lon="4.9662">
        <ele>403</ele>
        <time>2015-04-19T07:31:47.071Z</time>
      </trkpt>
      <trkpt lat="47.29457" lon="4.96623">
        <ele>403</ele>
        <time>2015-04-19T07:31:50.093Z</time>
      </trkpt>
      <trkpt lat="47.29459" lon="4.96623">
        <ele>403</ele>
        <time>2015-04-19T07:31:51.095Z</time>
      </trkpt>
      <trkpt lat="47.29467" lon="4.96625">
        <ele>403</ele>
        <time>2015-04-19T07:31:55.092Z</time>
      </trkpt>
      <trkpt lat="47.29469" lon="4.96625">
        <ele>403</ele>
        <time>2015-04-19T07:31:56.072Z</time>
      </trkpt>
      <trkpt lat="47.29478" lon="4.96628">
        <ele>403</ele>
        <time>2015-04-19T07:32:01.058Z</time>
      </trkpt>
      <trkpt lat="47.29479" lon="4.96629">
        <ele>403</ele>
        <time>2015-04-19T07:32:02.080Z</time>
      </trkpt>
      <trkpt lat="47.29487" lon="4.96633">
        <ele>402</ele>
        <time>2015-04-19T07:32:06.071Z</time>
      </trkpt>
      <trkpt lat="47.29489" lon="4.96634">
        <ele>402</ele>
        <time>2015-04-19T07:32:07.081Z</time>
      </trkpt>
      <trkpt lat="47.29497" lon="4.96636">
        <ele>402</ele>
        <time>2015-04-19T07:32:12.041Z</time>
      </trkpt>
      <trkpt lat="47.29499" lon="4.96636">
        <ele>402</ele>
        <time>2015-04-19T07:32:13.077Z</time>
      </trkpt>
      <trkpt lat="47.29508" lon="4.96638">
        <ele>400</ele>
        <time>2015-04-19T07:32:18.074Z</time>
      </trkpt>
      <trkpt lat="47.29509" lon="4.96638">
        <ele>400</ele>
        <time>2015-04-19T07:32:19.091Z</time>
      </trkpt>
      <trkpt lat="47.29517" lon="4.96639">
        <ele>400</ele>
        <time>2015-04-19T07:32:23.058Z</time>
      </trkpt>
      <trkpt lat="47.29519" lon="4.9664">
        <ele>400</ele>
        <time>2015-04-19T07:32:24.074Z</time>
      </trkpt>
      <trkpt lat="47.29526" lon="4.9664">
        <ele>399</ele>
        <time>2015-04-19T07:32:27.071Z</time>
      </trkpt>
      <trkpt lat="47.29529" lon="4.96641">
        <ele>399</ele>
        <time>2015-04-19T07:32:28.071Z</time>
      </trkpt>
      <trkpt lat="47.29535" lon="4.96642">
        <ele>399</ele>
        <time>2015-04-19T07:32:31.082Z</time>
      </trkpt>
      <trkpt lat="47.29538" lon="4.96643">
        <ele>399</ele>
        <time>2015-04-19T07:32:32.069Z</time>
      </trkpt>
      <trkpt lat="47.29545" lon="4.96645">
        <ele>398</ele>
        <time>2015-04-19T07:32:36.072Z</time>
      </trkpt>
      <trkpt lat="47.29547" lon="4.96645">
        <ele>398</ele>
        <time>2015-04-19T07:32:37.093Z</time>
      </trkpt>
      <trkpt lat="47.29555" lon="4.96648">
        <ele>398</ele>
        <time>2015-04-19T07:32:41.054Z</time>
      </trkpt>
      <trkpt lat="47.29557" lon="4.96649">
        <ele>398</ele>
        <time>2015-04-19T07:32:42.072Z</time>
      </trkpt>
      <trkpt lat="47.29563" lon="4.96653">
        <ele>397</ele>
        <time>2015-04-19T07:32:45.083Z</time>
      </trkpt>
      <trkpt lat="47.29565" lon="4.96654">
        <ele>397</ele>
        <time>2015-04-19T07:32:46.073Z</time>
      </trkpt>
      <trkpt lat="47.29572" lon="4.96659">
        <ele>396</ele>
        <time>2015-04-19T07:32:50.074Z</time>
      </trkpt>
      <trkpt lat="47.29574" lon="4.9666">
        <ele>396</ele>
        <time>2015-04-19T07:32:51.072Z</time>
      </trkpt>
      <trkpt lat="47.29582" lon="4.96662">
        <ele>395</ele>
        <time>2015-04-19T07:32:56.061Z</time>
      </trkpt>
      <trkpt lat="47.29584" lon="4.96661">
        <ele>392</ele>
        <time>2015-04-19T07:32:57.073Z</time>
      </trkpt>
      <trkpt lat="47.29591" lon="4.96655">
        <ele>391</ele>
        <time>2015-04-19T07:33:02.073Z</time>
      </trkpt>
      <trkpt lat="47.29592" lon="4.96653">
        <ele>391</ele>
        <time>2015-04-19T07:33:03.059Z</time>
      </trkpt>
      <trkpt lat="47.29597" lon="4.96646">
        <ele>389</ele>
        <time>2015-04-19T07:33:07.085Z</time>
      </trkpt>
      <trkpt lat="47.29599" lon="4.96644">
        <ele>389</ele>
        <time>2015-04-19T07:33:08.073Z</time>
      </trkpt>
      <trkpt lat="47.29605" lon="4.96634">
        <ele>389</ele>
        <time>2015-04-19T07:33:13.083Z</time>
      </trkpt>
      <trkpt lat="47.29606" lon="4.96632">
        <ele>388</ele>
        <time>2015-04-19T07:33:14.056Z</time>
      </trkpt>
      <trkpt lat="47.2961" lon="4.96621">
        <ele>388</ele>
        <time>2015-04-19T07:33:20.066Z</time>
      </trkpt>
      <trkpt lat="47.2961" lon="4.9662">
        <ele>388</ele>
        <time>2015-04-19T07:33:21.045Z</time>
      </trkpt>
      <trkpt lat="47.2961" lon="4.96608">
        <ele>389</ele>
        <time>2015-04-19T07:33:35.072Z</time>
      </trkpt>
      <trkpt lat="47.2961" lon="4.96606">
        <ele>389</ele>
        <time>2015-04-19T07:33:36.066Z</time>
      </trkpt>
      <trkpt lat="47.2961" lon="4.96593">
        <ele>390</ele>
        <time>2015-04-19T07:33:46.051Z</time>
      </trkpt>
      <trkpt lat="47.2961" lon="4.96592">
        <ele>390</ele>
        <time>2015-04-19T07:33:47.094Z</time>
      </trkpt>
      <trkpt lat="47.29611" lon="4.96579">
        <ele>392</ele>
        <time>2015-04-19T07:33:56.082Z</time>
      </trkpt>
      <trkpt lat="47.29611" lon="4.96577">
        <ele>392</ele>
        <time>2015-04-19T07:33:57.053Z</time>
      </trkpt>
      <trkpt lat="47.29614" lon="4.96564">
        <ele>391</ele>
        <time>2015-04-19T07:34:02.076Z</time>
      </trkpt>
      <trkpt lat="47.29614" lon="4.96562">
        <ele>391</ele>
        <time>2015-04-19T07:34:03.069Z</time>
      </trkpt>
      <trkpt lat="47.29615" lon="4.96561">
        <ele>391</ele>
        <time>2015-04-19T07:34:04.074Z</time>
      </trkpt>
      <trkpt lat="47.29616" lon="4.9656">
        <ele>391</ele>
        <time>2015-04-19T07:34:05.071Z</time>
      </trkpt>
      <trkpt lat="47.29616" lon="4.96558">
        <ele>391</ele>
        <time>2015-04-19T07:34:06.083Z</time>
      </trkpt>
      <trkpt lat="47.29616" lon="4.96558">
        <ele>391</ele>
        <time>2015-04-19T07:34:07.089Z</time>
      </trkpt>
      <trkpt lat="47.29616" lon="4.96558">
        <ele>391</ele>
        <time>2015-04-19T07:34:08.079Z</time>
      </trkpt>
      <trkpt lat="47.29616" lon="4.96558">
        <ele>391</ele>
        <time>2015-04-19T07:34:09.074Z</time>
      </trkpt>
      <trkpt lat="47.29621" lon="4.96551">
        <ele>390</ele>
        <time>2015-04-19T07:34:11.074Z</time>
      </trkpt>
      <trkpt lat="47.29622" lon="4.96547">
        <ele>390</ele>
        <time>2015-04-19T07:34:12.062Z</time>
      </trkpt>
      <trkpt lat="47.29627" lon="4.96536">
        <ele>390</ele>
        <time>2015-04-19T07:34:15.093Z</time>
      </trkpt>
      <trkpt lat="47.29627" lon="4.96535">
        <ele>390</ele>
        <time>2015-04-19T07:34:16.074Z</time>
      </trkpt>
      <trkpt lat="47.29629" lon="4.96523">
        <ele>390</ele>
        <time>2015-04-19T07:34:22.075Z</time>
      </trkpt>
      <trkpt lat="47.29629" lon="4.9652">
        <ele>390</ele>
        <time>2015-04-19T07:34:23.075Z</time>
      </trkpt>
      <trkpt lat="47.2963" lon="4.96513">
        <ele>389</ele>
        <time>2015-04-19T07:34:26.076Z</time>
      </trkpt>
      <trkpt lat="47.2963" lon="4.96513">
        <ele>389</ele>
        <time>2015-04-19T07:34:27.093Z</time>
      </trkpt>
      <trkpt lat="47.2963" lon="4.96513">
        <ele>389</ele>
        <time>2015-04-19T07:34:28.075Z</time>
      </trkpt>
      <trkpt lat="47.29631" lon="4.96507">
        <ele>389</ele>
        <time>2015-04-19T07:34:29.094Z</time>
      </trkpt>
      <trkpt lat="47.29632" lon="4.96494">
        <ele>390</ele>
        <time>2015-04-19T07:34:36.080Z</time>
      </trkpt>
      <trkpt lat="47.29632" lon="4.96493">
        <ele>390</ele>
        <time>2015-04-19T07:34:37.075Z</time>
      </trkpt>
      <trkpt lat="47.29632" lon="4.9648">
        <ele>390</ele>
        <time>2015-04-19T07:34:45.094Z</time>
      </trkpt>
      <trkpt lat="47.29632" lon="4.96479">
        <ele>390</ele>
        <time>2015-04-19T07:34:46.081Z</time>
      </trkpt>
      <trkpt lat="47.2963" lon="4.96467">
        <ele>390</ele>
        <time>2015-04-19T07:34:54.079Z</time>
      </trkpt>
      <trkpt lat="47.2963" lon="4.96465">
        <ele>390</ele>
        <time>2015-04-19T07:34:55.096Z</time>
      </trkpt>
      <trkpt lat="47.29626" lon="4.96455">
        <ele>390</ele>
        <time>2015-04-19T07:35:03.081Z</time>
      </trkpt>
      <trkpt lat="47.29625" lon="4.96453">
        <ele>390</ele>
        <time>2015-04-19T07:35:04.082Z</time>
      </trkpt>
      <trkpt lat="47.29621" lon="4.96441">
        <ele>391</ele>
        <time>2015-04-19T07:35:08.085Z</time>
      </trkpt>
      <trkpt lat="47.2962" lon="4.96438">
        <ele>391</ele>
        <time>2015-04-19T07:35:09.074Z</time>
      </trkpt>
      <trkpt lat="47.29617" lon="4.96428">
        <ele>391</ele>
        <time>2015-04-19T07:35:13.063Z</time>
      </trkpt>
      <trkpt lat="47.29616" lon="4.96425">
        <ele>392</ele>
        <time>2015-04-19T07:35:14.052Z</time>
      </trkpt>
      <trkpt lat="47.29611" lon="4.96416">
        <ele>391</ele>
        <time>2015-04-19T07:35:19.097Z</time>
      </trkpt>
      <trkpt lat="47.29611" lon="4.96414">
        <ele>391</ele>
        <time>2015-04-19T07:35:20.102Z</time>
      </trkpt>
      <trkpt lat="47.29607" lon="4.96402">
        <ele>391</ele>
        <time>2015-04-19T07:35:26.080Z</time>
      </trkpt>
      <trkpt lat="47.29606" lon="4.964">
        <ele>391</ele>
        <time>2015-04-19T07:35:27.076Z</time>
      </trkpt>
      <trkpt lat="47.29602" lon="4.9639">
        <ele>391</ele>
        <time>2015-04-19T07:35:34.076Z</time>
      </trkpt>
      <trkpt lat="47.296" lon="4.96388">
        <ele>391</ele>
        <time>2015-04-19T07:35:35.074Z</time>
      </trkpt>
      <trkpt lat="47.29597" lon="4.96378">
        <ele>391</ele>
        <time>2015-04-19T07:35:39.065Z</time>
      </trkpt>
      <trkpt lat="47.29597" lon="4.96375">
        <ele>391</ele>
        <time>2015-04-19T07:35:40.074Z</time>
      </trkpt>
      <trkpt lat="47.29594" lon="4.96364">
        <ele>391</ele>
        <time>2015-04-19T07:35:45.089Z</time>
      </trkpt>
      <trkpt lat="47.29593" lon="4.96362">
        <ele>391</ele>
        <time>2015-04-19T07:35:46.076Z</time>
      </trkpt>
      <trkpt lat="47.29591" lon="4.96351">
        <ele>392</ele>
        <time>2015-04-19T07:35:52.102Z</time>
      </trkpt>
      <trkpt lat="47.2959" lon="4.96349">
        <ele>392</ele>
        <time>2015-04-19T07:35:53.093Z</time>
      </trkpt>
      <trkpt lat="47.29587" lon="4.96337">
        <ele>395</ele>
        <time>2015-04-19T07:35:58.103Z</time>
      </trkpt>
      <trkpt lat="47.29586" lon="4.96334">
        <ele>395</ele>
        <time>2015-04-19T07:35:59.083Z</time>
      </trkpt>
      <trkpt lat="47.29581" lon="4.96324">
        <ele>397</ele>
        <time>2015-04-19T07:36:03.053Z</time>
      </trkpt>
      <trkpt lat="47.29579" lon="4.96323">
        <ele>397</ele>
        <time>2015-04-19T07:36:04.078Z</time>
      </trkpt>
      <trkpt lat="47.29572" lon="4.96314">
        <ele>398</ele>
        <time>2015-04-19T07:36:09.080Z</time>
      </trkpt>
      <trkpt lat="47.29571" lon="4.96311">
        <ele>398</ele>
        <time>2015-04-19T07:36:10.083Z</time>
      </trkpt>
      <trkpt lat="47.29567" lon="4.96302">
        <ele>398</ele>
        <time>2015-04-19T07:36:14.075Z</time>
      </trkpt>
      <trkpt lat="47.29566" lon="4.963">
        <ele>399</ele>
        <time>2015-04-19T07:36:15.104Z</time>
      </trkpt>
      <trkpt lat="47.29563" lon="4.96289">
        <ele>399</ele>
        <time>2015-04-19T07:36:19.097Z</time>
      </trkpt>
      <trkpt lat="47.29562" lon="4.96286">
        <ele>399</ele>
        <time>2015-04-19T07:36:20.076Z</time>
      </trkpt>
      <trkpt lat="47.29558" lon="4.96277">
        <ele>399</ele>
        <time>2015-04-19T07:36:24.083Z</time>
      </trkpt>
      <trkpt lat="47.29557" lon="4.96275">
        <ele>399</ele>
        <time>2015-04-19T07:36:25.100Z</time>
      </trkpt>
      <trkpt lat="47.29552" lon="4.96265">
        <ele>399</ele>
        <time>2015-04-19T07:36:29.074Z</time>
      </trkpt>
      <trkpt lat="47.29551" lon="4.96263">
        <ele>399</ele>
        <time>2015-04-19T07:36:30.069Z</time>
      </trkpt>
      <trkpt lat="47.29547" lon="4.96251">
        <ele>399</ele>
        <time>2015-04-19T07:36:35.076Z</time>
      </trkpt>
      <trkpt lat="47.29547" lon="4.96249">
        <ele>398</ele>
        <time>2015-04-19T07:36:36.072Z</time>
      </trkpt>
      <trkpt lat="47.29543" lon="4.96237">
        <ele>398</ele>
        <time>2015-04-19T07:36:42.077Z</time>
      </trkpt>
      <trkpt lat="47.29543" lon="4.96234">
        <ele>398</ele>
        <time>2015-04-19T07:36:43.091Z</time>
      </trkpt>
      <trkpt lat="47.29541" lon="4.96223">
        <ele>398</ele>
        <time>2015-04-19T07:36:48.076Z</time>
      </trkpt>
      <trkpt lat="47.2954" lon="4.96221">
        <ele>398</ele>
        <time>2015-04-19T07:36:49.097Z</time>
      </trkpt>
      <trkpt lat="47.29538" lon="4.96217">
        <ele>398</ele>
        <time>2015-04-19T07:36:51.063Z</time>
      </trkpt>
      <trkpt lat="47.29538" lon="4.96217">
        <ele>398</ele>
        <time>2015-04-19T07:36:52.078Z</time>
      </trkpt>
      <trkpt lat="47.29538" lon="4.96217">
        <ele>398</ele>
        <time>2015-04-19T07:36:53.099Z</time>
      </trkpt>
      <trkpt lat="47.29538" lon="4.96217">
        <ele>398</ele>
        <time>2015-04-19T07:36:54.092Z</time>
      </trkpt>
      <trkpt lat="47.29535" lon="4.96206">
        <ele>398</ele>
        <time>2015-04-19T07:36:56.079Z</time>
      </trkpt>
      <trkpt lat="47.29534" lon="4.96203">
        <ele>398</ele>
        <time>2015-04-19T07:36:57.070Z</time>
      </trkpt>
      <trkpt lat="47.29529" lon="4.96192">
        <ele>399</ele>
        <time>2015-04-19T07:37:01.105Z</time>
      </trkpt>
      <trkpt lat="47.29528" lon="4.9619">
        <ele>399</ele>
        <time>2015-04-19T07:37:02.073Z</time>
      </trkpt>
      <trkpt lat="47.29524" lon="4.96181">
        <ele>399</ele>
        <time>2015-04-19T07:37:07.083Z</time>
      </trkpt>
      <trkpt lat="47.29523" lon="4.96179">
        <ele>399</ele>
        <time>2015-04-19T07:37:08.075Z</time>
      </trkpt>
      <trkpt lat="47.29518" lon="4.9617">
        <ele>400</ele>
        <time>2015-04-19T07:37:12.077Z</time>
      </trkpt>
      <trkpt lat="47.29517" lon="4.96167">
        <ele>400</ele>
        <time>2015-04-19T07:37:13.071Z</time>
      </trkpt>
      <trkpt lat="47.29513" lon="4.96156">
        <ele>399</ele>
        <time>2015-04-19T07:37:17.071Z</time>
      </trkpt>
      <trkpt lat="47.29512" lon="4.96153">
        <ele>399</ele>
        <time>2015-04-19T07:37:18.089Z</time>
      </trkpt>
      <trkpt lat="47.29509" lon="4.96142">
        <ele>398</ele>
        <time>2015-04-19T07:37:23.079Z</time>
      </trkpt>
      <trkpt lat="47.29508" lon="4.9614">
        <ele>398</ele>
        <time>2015-04-19T07:37:24.062Z</time>
      </trkpt>
      <trkpt lat="47.29502" lon="4.96132">
        <ele>398</ele>
        <time>2015-04-19T07:37:29.079Z</time>
      </trkpt>
      <trkpt lat="47.29501" lon="4.9613">
        <ele>398</ele>
        <time>2015-04-19T07:37:30.067Z</time>
      </trkpt>
      <trkpt lat="47.29498" lon="4.96119">
        <ele>404</ele>
        <time>2015-04-19T07:37:34.076Z</time>
      </trkpt>
      <trkpt lat="47.29498" lon="4.96117">
        <ele>404</ele>
        <time>2015-04-19T07:37:35.073Z</time>
      </trkpt>
      <trkpt lat="47.29498" lon="4.96117">
        <ele>404</ele>
        <time>2015-04-19T07:37:36.051Z</time>
      </trkpt>
      <trkpt lat="47.29497" lon="4.96107">
        <ele>404</ele>
        <time>2015-04-19T07:37:37.074Z</time>
      </trkpt>
      <trkpt lat="47.29498" lon="4.96097">
        <ele>403</ele>
        <time>2015-04-19T07:37:41.074Z</time>
      </trkpt>
      <trkpt lat="47.29498" lon="4.96093">
        <ele>403</ele>
        <time>2015-04-19T07:37:42.063Z</time>
      </trkpt>
      <trkpt lat="47.29497" lon="4.9608">
        <ele>402</ele>
        <time>2015-04-19T07:37:48.080Z</time>
      </trkpt>
      <trkpt lat="47.29497" lon="4.96078">
        <ele>403</ele>
        <time>2015-04-19T07:37:49.066Z</time>
      </trkpt>
      <trkpt lat="47.29496" lon="4.96069">
        <ele>403</ele>
        <time>2015-04-19T07:37:55.099Z</time>
      </trkpt>
      <trkpt lat="47.29496" lon="4.96069">
        <ele>403</ele>
        <time>2015-04-19T07:37:56.076Z</time>
      </trkpt>
      <trkpt lat="47.29496" lon="4.96069">
        <ele>403</ele>
        <time>2015-04-19T07:37:58.078Z</time>
      </trkpt>
      <trkpt lat="47.29497" lon="4.96064">
        <ele>403</ele>
        <time>2015-04-19T07:37:59.084Z</time>
      </trkpt>
      <trkpt lat="47.29494" lon="4.96053">
        <ele>403</ele>
        <time>2015-04-19T07:38:05.073Z</time>
      </trkpt>
      <trkpt lat="47.29493" lon="4.96051">
        <ele>404</ele>
        <time>2015-04-19T07:38:06.057Z</time>
      </trkpt>
      <trkpt lat="47.29491" lon="4.96039">
        <ele>403</ele>
        <time>2015-04-19T07:38:11.134Z</time>
      </trkpt>
      <trkpt lat="47.2949" lon="4.96036">
        <ele>403</ele>
        <time>2015-04-19T07:38:12.072Z</time>
      </trkpt>
      <trkpt lat="47.29487" lon="4.96026">
        <ele>403</ele>
        <time>2015-04-19T07:38:16.096Z</time>
      </trkpt>
      <trkpt lat="47.29486" lon="4.96024">
        <ele>403</ele>
        <time>2015-04-19T07:38:17.077Z</time>
      </trkpt>
      <trkpt lat="47.29481" lon="4.96014">
        <ele>403</ele>
        <time>2015-04-19T07:38:22.101Z</time>
      </trkpt>
      <trkpt lat="47.2948" lon="4.96012">
        <ele>403</ele>
        <time>2015-04-19T07:38:23.078Z</time>
      </trkpt>
      <trkpt lat="47.29475" lon="4.96002">
        <ele>403</ele>
        <time>2015-04-19T07:38:28.082Z</time>
      </trkpt>
      <trkpt lat="47.29474" lon="4.96001">
        <ele>403</ele>
        <time>2015-04-19T07:38:29.077Z</time>
      </trkpt>
      <trkpt lat="47.29467" lon="4.95993">
        <ele>403</ele>
        <time>2015-04-19T07:38:35.075Z</time>
      </trkpt>
      <trkpt lat="47.29466" lon="4.95991">
        <ele>403</ele>
        <time>2015-04-19T07:38:36.078Z</time>
      </trkpt>
      <trkpt lat="47.29462" lon="4.95982">
        <ele>403</ele>
        <time>2015-04-19T07:38:41.082Z</time>
      </trkpt>
      <trkpt lat="47.29461" lon="4.9598">
        <ele>403</ele>
        <time>2015-04-19T07:38:42.095Z</time>
      </trkpt>
      <trkpt lat="47.29455" lon="4.95972">
        <ele>403</ele>
        <time>2015-04-19T07:38:47.083Z</time>
      </trkpt>
      <trkpt lat="47.29454" lon="4.9597">
        <ele>403</ele>
        <time>2015-04-19T07:38:48.078Z</time>
      </trkpt>
      <trkpt lat="47.29447" lon="4.95962">
        <ele>403</ele>
        <time>2015-04-19T07:38:53.086Z</time>
      </trkpt>
      <trkpt lat="47.29446" lon="4.9596">
        <ele>403</ele>
        <time>2015-04-19T07:38:54.079Z</time>
      </trkpt>
      <trkpt lat="47.2944" lon="4.95951">
        <ele>403</ele>
        <time>2015-04-19T07:39:00.095Z</time>
      </trkpt>
      <trkpt lat="47.29438" lon="4.9595">
        <ele>404</ele>
        <time>2015-04-19T07:39:01.089Z</time>
      </trkpt>
      <trkpt lat="47.29431" lon="4.95945">
        <ele>404</ele>
        <time>2015-04-19T07:39:06.082Z</time>
      </trkpt>
      <trkpt lat="47.29429" lon="4.95944">
        <ele>404</ele>
        <time>2015-04-19T07:39:07.090Z</time>
      </trkpt>
      <trkpt lat="47.29423" lon="4.95941">
        <ele>404</ele>
        <time>2015-04-19T07:39:10.069Z</time>
      </trkpt>
      <trkpt lat="47.2942" lon="4.95937">
        <ele>404</ele>
        <time>2015-04-19T07:39:11.081Z</time>
      </trkpt>
      <trkpt lat="47.29416" lon="4.95931">
        <ele>407</ele>
        <time>2015-04-19T07:39:13.089Z</time>
      </trkpt>
      <trkpt lat="47.29414" lon="4.95928">
        <ele>407</ele>
        <time>2015-04-19T07:39:14.063Z</time>
      </trkpt>
      <trkpt lat="47.29408" lon="4.95921">
        <ele>407</ele>
        <time>2015-04-19T07:39:17.078Z</time>
      </trkpt>
      <trkpt lat="47.29407" lon="4.95919">
        <ele>407</ele>
        <time>2015-04-19T07:39:18.079Z</time>
      </trkpt>
      <trkpt lat="47.29399" lon="4.95913">
        <ele>406</ele>
        <time>2015-04-19T07:39:27.076Z</time>
      </trkpt>
      <trkpt lat="47.29398" lon="4.95914">
        <ele>406</ele>
        <time>2015-04-19T07:39:28.082Z</time>
      </trkpt>
      <trkpt lat="47.29393" lon="4.95922">
        <ele>408</ele>
        <time>2015-04-19T07:39:33.078Z</time>
      </trkpt>
      <trkpt lat="47.29392" lon="4.95925">
        <ele>408</ele>
        <time>2015-04-19T07:39:34.077Z</time>
      </trkpt>
      <trkpt lat="47.29385" lon="4.9593">
        <ele>409</ele>
        <time>2015-04-19T07:39:39.080Z</time>
      </trkpt>
      <trkpt lat="47.29383" lon="4.9593">
        <ele>409</ele>
        <time>2015-04-19T07:39:40.086Z</time>
      </trkpt>
      <trkpt lat="47.29375" lon="4.95927">
        <ele>409</ele>
        <time>2015-04-19T07:39:46.064Z</time>
      </trkpt>
      <trkpt lat="47.29374" lon="4.95926">
        <ele>409</ele>
        <time>2015-04-19T07:39:47.079Z</time>
      </trkpt>
      <trkpt lat="47.29368" lon="4.95917">
        <ele>409</ele>
        <time>2015-04-19T07:39:52.054Z</time>
      </trkpt>
      <trkpt lat="47.29367" lon="4.95914">
        <ele>408</ele>
        <time>2015-04-19T07:39:53.076Z</time>
      </trkpt>
      <trkpt lat="47.2936" lon="4.95906">
        <ele>408</ele>
        <time>2015-04-19T07:39:58.082Z</time>
      </trkpt>
      <trkpt lat="47.29358" lon="4.95904">
        <ele>408</ele>
        <time>2015-04-19T07:39:59.106Z</time>
      </trkpt>
      <trkpt lat="47.29352" lon="4.95896">
        <ele>408</ele>
        <time>2015-04-19T07:40:04.073Z</time>
      </trkpt>
      <trkpt lat="47.29351" lon="4.95894">
        <ele>408</ele>
        <time>2015-04-19T07:40:05.077Z</time>
      </trkpt>
      <trkpt lat="47.29346" lon="4.95885">
        <ele>408</ele>
        <time>2015-04-19T07:40:10.078Z</time>
      </trkpt>
      <trkpt lat="47.29344" lon="4.95883">
        <ele>408</ele>
        <time>2015-04-19T07:40:11.065Z</time>
      </trkpt>
      <trkpt lat="47.29339" lon="4.95876">
        <ele>408</ele>
        <time>2015-04-19T07:40:14.972Z</time>
      </trkpt>
      <trkpt lat="47.29338" lon="4.95874">
        <ele>408</ele>
        <time>2015-04-19T07:40:15.973Z</time>
      </trkpt>
      <trkpt lat="47.29332" lon="4.95866">
        <ele>412</ele>
        <time>2015-04-19T07:40:20.070Z</time>
      </trkpt>
      <trkpt lat="47.2933" lon="4.95864">
        <ele>412</ele>
        <time>2015-04-19T07:40:21.056Z</time>
      </trkpt>
      <trkpt lat="47.29324" lon="4.95856">
        <ele>411</ele>
        <time>2015-04-19T07:40:25.102Z</time>
      </trkpt>
      <trkpt lat="47.29322" lon="4.95854">
        <ele>411</ele>
        <time>2015-04-19T07:40:26.075Z</time>
      </trkpt>
      <trkpt lat="47.29315" lon="4.95848">
        <ele>411</ele>
        <time>2015-04-19T07:40:30.069Z</time>
      </trkpt>
      <trkpt lat="47.29314" lon="4.95847">
        <ele>411</ele>
        <time>2015-04-19T07:40:31.077Z</time>
      </trkpt>
      <trkpt lat="47.29309" lon="4.95839">
        <ele>412</ele>
        <time>2015-04-19T07:40:36.075Z</time>
      </trkpt>
      <trkpt lat="47.29308" lon="4.95836">
        <ele>412</ele>
        <time>2015-04-19T07:40:37.078Z</time>
      </trkpt>
      <trkpt lat="47.29305" lon="4.95826">
        <ele>410</ele>
        <time>2015-04-19T07:40:42.073Z</time>
      </trkpt>
      <trkpt lat="47.29305" lon="4.95824">
        <ele>410</ele>
        <time>2015-04-19T07:40:43.085Z</time>
      </trkpt>
      <trkpt lat="47.29303" lon="4.95811">
        <ele>410</ele>
        <time>2015-04-19T07:40:48.072Z</time>
      </trkpt>
      <trkpt lat="47.29302" lon="4.95809">
        <ele>410</ele>
        <time>2015-04-19T07:40:49.085Z</time>
      </trkpt>
      <trkpt lat="47.29297" lon="4.95802">
        <ele>410</ele>
        <time>2015-04-19T07:40:52.979Z</time>
      </trkpt>
      <trkpt lat="47.29294" lon="4.95799">
        <ele>410</ele>
        <time>2015-04-19T07:40:54.087Z</time>
      </trkpt>
      <trkpt lat="47.29287" lon="4.95795">
        <ele>410</ele>
        <time>2015-04-19T07:40:55.969Z</time>
      </trkpt>
      <trkpt lat="47.29284" lon="4.95793">
        <ele>411</ele>
        <time>2015-04-19T07:40:57.082Z</time>
      </trkpt>
      <trkpt lat="47.29278" lon="4.95787">
        <ele>411</ele>
        <time>2015-04-19T07:40:59.078Z</time>
      </trkpt>
      <trkpt lat="47.29277" lon="4.95785">
        <ele>411</ele>
        <time>2015-04-19T07:41:00.082Z</time>
      </trkpt>
      <trkpt lat="47.29272" lon="4.95774">
        <ele>411</ele>
        <time>2015-04-19T07:41:04.078Z</time>
      </trkpt>
      <trkpt lat="47.29272" lon="4.95771">
        <ele>411</ele>
        <time>2015-04-19T07:41:05.080Z</time>
      </trkpt>
      <trkpt lat="47.29271" lon="4.95759">
        <ele>411</ele>
        <time>2015-04-19T07:41:08.977Z</time>
      </trkpt>
      <trkpt lat="47.29271" lon="4.95756">
        <ele>411</ele>
        <time>2015-04-19T07:41:09.978Z</time>
      </trkpt>
      <trkpt lat="47.29267" lon="4.95746">
        <ele>410</ele>
        <time>2015-04-19T07:41:14.079Z</time>
      </trkpt>
      <trkpt lat="47.29267" lon="4.95743">
        <ele>410</ele>
        <time>2015-04-19T07:41:15.081Z</time>
      </trkpt>
      <trkpt lat="47.29266" lon="4.95732">
        <ele>410</ele>
        <time>2015-04-19T07:41:18.981Z</time>
      </trkpt>
      <trkpt lat="47.29266" lon="4.95729">
        <ele>410</ele>
        <time>2015-04-19T07:41:19.994Z</time>
      </trkpt>
      <trkpt lat="47.29266" lon="4.95717">
        <ele>409</ele>
        <time>2015-04-19T07:41:23.974Z</time>
      </trkpt>
      <trkpt lat="47.29266" lon="4.95714">
        <ele>409</ele>
        <time>2015-04-19T07:41:24.980Z</time>
      </trkpt>
      <trkpt lat="47.29263" lon="4.95703">
        <ele>409</ele>
        <time>2015-04-19T07:41:30.069Z</time>
      </trkpt>
      <trkpt lat="47.29262" lon="4.957">
        <ele>409</ele>
        <time>2015-04-19T07:41:31.078Z</time>
      </trkpt>
      <trkpt lat="47.2926" lon="4.9569">
        <ele>410</ele>
        <time>2015-04-19T07:41:35.972Z</time>
      </trkpt>
      <trkpt lat="47.29259" lon="4.95688">
        <ele>410</ele>
        <time>2015-04-19T07:41:36.970Z</time>
      </trkpt>
      <trkpt lat="47.29256" lon="4.95678">
        <ele>410</ele>
        <time>2015-04-19T07:41:42.964Z</time>
      </trkpt>
      <trkpt lat="47.29255" lon="4.95675">
        <ele>410</ele>
        <time>2015-04-19T07:41:44.079Z</time>
      </trkpt>
      <trkpt lat="47.29253" lon="4.95664">
        <ele>410</ele>
        <time>2015-04-19T07:41:49.981Z</time>
      </trkpt>
      <trkpt lat="47.29252" lon="4.95662">
        <ele>410</ele>
        <time>2015-04-19T07:41:50.989Z</time>
      </trkpt>
      <trkpt lat="47.29247" lon="4.95653">
        <ele>412</ele>
        <time>2015-04-19T07:41:55.999Z</time>
      </trkpt>
      <trkpt lat="47.29247" lon="4.95651">
        <ele>412</ele>
        <time>2015-04-19T07:41:56.967Z</time>
      </trkpt>
      <trkpt lat="47.29244" lon="4.95642">
        <ele>412</ele>
        <time>2015-04-19T07:41:59.968Z</time>
      </trkpt>
      <trkpt lat="47.29243" lon="4.95638">
        <ele>412</ele>
        <time>2015-04-19T07:42:00.967Z</time>
      </trkpt>
      <trkpt lat="47.29239" lon="4.95627">
        <ele>412</ele>
        <time>2015-04-19T07:42:03.960Z</time>
      </trkpt>
      <trkpt lat="47.29238" lon="4.95622">
        <ele>412</ele>
        <time>2015-04-19T07:42:04.971Z</time>
      </trkpt>
      <trkpt lat="47.29235" lon="4.95613">
        <ele>412</ele>
        <time>2015-04-19T07:42:06.976Z</time>
      </trkpt>
      <trkpt lat="47.29234" lon="4.95609">
        <ele>412</ele>
        <time>2015-04-19T07:42:08.018Z</time>
      </trkpt>
      <trkpt lat="47.29229" lon="4.95601">
        <ele>412</ele>
        <time>2015-04-19T07:42:10.981Z</time>
      </trkpt>
      <trkpt lat="47.29228" lon="4.95598">
        <ele>412</ele>
        <time>2015-04-19T07:42:12.071Z</time>
      </trkpt>
      <trkpt lat="47.29224" lon="4.95587">
        <ele>412</ele>
        <time>2015-04-19T07:42:15.988Z</time>
      </trkpt>
      <trkpt lat="47.29223" lon="4.95584">
        <ele>412</ele>
        <time>2015-04-19T07:42:16.968Z</time>
      </trkpt>
      <trkpt lat="47.2922" lon="4.95573">
        <ele>412</ele>
        <time>2015-04-19T07:42:21.983Z</time>
      </trkpt>
      <trkpt lat="47.2922" lon="4.95571">
        <ele>413</ele>
        <time>2015-04-19T07:42:22.970Z</time>
      </trkpt>
      <trkpt lat="47.29215" lon="4.95559">
        <ele>413</ele>
        <time>2015-04-19T07:42:27.972Z</time>
      </trkpt>
      <trkpt lat="47.29215" lon="4.95557">
        <ele>413</ele>
        <time>2015-04-19T07:42:28.962Z</time>
      </trkpt>
      <trkpt lat="47.29209" lon="4.95547">
        <ele>414</ele>
        <time>2015-04-19T07:42:34.976Z</time>
      </trkpt>
      <trkpt lat="47.29208" lon="4.95545">
        <ele>414</ele>
        <time>2015-04-19T07:42:35.957Z</time>
      </trkpt>
      <trkpt lat="47.29206" lon="4.95536">
        <ele>414</ele>
        <time>2015-04-19T07:42:38.983Z</time>
      </trkpt>
      <trkpt lat="47.29205" lon="4.95532">
        <ele>414</ele>
        <time>2015-04-19T07:42:39.969Z</time>
      </trkpt>
      <trkpt lat="47.29203" lon="4.95522">
        <ele>414</ele>
        <time>2015-04-19T07:42:42.972Z</time>
      </trkpt>
      <trkpt lat="47.29202" lon="4.95519">
        <ele>414</ele>
        <time>2015-04-19T07:42:43.989Z</time>
      </trkpt>
      <trkpt lat="47.29201" lon="4.95508">
        <ele>415</ele>
        <time>2015-04-19T07:42:47.982Z</time>
      </trkpt>
      <trkpt lat="47.29201" lon="4.95505">
        <ele>415</ele>
        <time>2015-04-19T07:42:48.981Z</time>
      </trkpt>
      <trkpt lat="47.29198" lon="4.95494">
        <ele>416</ele>
        <time>2015-04-19T07:42:54.980Z</time>
      </trkpt>
      <trkpt lat="47.29197" lon="4.95492">
        <ele>416</ele>
        <time>2015-04-19T07:42:55.989Z</time>
      </trkpt>
      <trkpt lat="47.2919" lon="4.95486">
        <ele>417</ele>
        <time>2015-04-19T07:43:00.962Z</time>
      </trkpt>
      <trkpt lat="47.29188" lon="4.95485">
        <ele>417</ele>
        <time>2015-04-19T07:43:01.976Z</time>
      </trkpt>
      <trkpt lat="47.29183" lon="4.95478">
        <ele>417</ele>
        <time>2015-04-19T07:43:06.975Z</time>
      </trkpt>
      <trkpt lat="47.29181" lon="4.95476">
        <ele>417</ele>
        <time>2015-04-19T07:43:07.990Z</time>
      </trkpt>
      <trkpt lat="47.29176" lon="4.95466">
        <ele>417</ele>
        <time>2015-04-19T07:43:12.072Z</time>
      </trkpt>
      <trkpt lat="47.29174" lon="4.95463">
        <ele>417</ele>
        <time>2015-04-19T07:43:12.969Z</time>
      </trkpt>
      <trkpt lat="47.29167" lon="4.95459">
        <ele>417</ele>
        <time>2015-04-19T07:43:16.001Z</time>
      </trkpt>
      <trkpt lat="47.29165" lon="4.95458">
        <ele>420</ele>
        <time>2015-04-19T07:43:16.981Z</time>
      </trkpt>
      <trkpt lat="47.29157" lon="4.95454">
        <ele>420</ele>
        <time>2015-04-19T07:43:21.108Z</time>
      </trkpt>
      <trkpt lat="47.29155" lon="4.95452">
        <ele>420</ele>
        <time>2015-04-19T07:43:22.095Z</time>
      </trkpt>
      <trkpt lat="47.29148" lon="4.95447">
        <ele>421</ele>
        <time>2015-04-19T07:43:26.001Z</time>
      </trkpt>
      <trkpt lat="47.29145" lon="4.95446">
        <ele>421</ele>
        <time>2015-04-19T07:43:26.986Z</time>
      </trkpt>
      <trkpt lat="47.29139" lon="4.95442">
        <ele>421</ele>
        <time>2015-04-19T07:43:29.981Z</time>
      </trkpt>
      <trkpt lat="47.29137" lon="4.95441">
        <ele>421</ele>
        <time>2015-04-19T07:43:30.989Z</time>
      </trkpt>
      <trkpt lat="47.2913" lon="4.95438">
        <ele>421</ele>
        <time>2015-04-19T07:43:34.070Z</time>
      </trkpt>
      <trkpt lat="47.29127" lon="4.95437">
        <ele>421</ele>
        <time>2015-04-19T07:43:35.081Z</time>
      </trkpt>
      <trkpt lat="47.29121" lon="4.95433">
        <ele>421</ele>
        <time>2015-04-19T07:43:38.076Z</time>
      </trkpt>
      <trkpt lat="47.29119" lon="4.95431">
        <ele>421</ele>
        <time>2015-04-19T07:43:38.979Z</time>
      </trkpt>
      <trkpt lat="47.29112" lon="4.95429">
        <ele>421</ele>
        <time>2015-04-19T07:43:41.990Z</time>
      </trkpt>
      <trkpt lat="47.2911" lon="4.95428">
        <ele>421</ele>
        <time>2015-04-19T07:43:42.978Z</time>
      </trkpt>
      <trkpt lat="47.29101" lon="4.95424">
        <ele>422</ele>
        <time>2015-04-19T07:43:48.082Z</time>
      </trkpt>
      <trkpt lat="47.291" lon="4.95423">
        <ele>422</ele>
        <time>2015-04-19T07:43:48.983Z</time>
      </trkpt>
      <trkpt lat="47.29093" lon="4.95416">
        <ele>421</ele>
        <time>2015-04-19T07:43:53.985Z</time>
      </trkpt>
      <trkpt lat="47.29091" lon="4.95415">
        <ele>422</ele>
        <time>2015-04-19T07:43:54.980Z</time>
      </trkpt>
      <trkpt lat="47.29084" lon="4.95408">
        <ele>421</ele>
        <time>2015-04-19T07:43:59.980Z</time>
      </trkpt>
      <trkpt lat="47.29082" lon="4.95407">
        <ele>423</ele>
        <time>2015-04-19T07:44:00.960Z</time>
      </trkpt>
      <trkpt lat="47.29075" lon="4.95402">
        <ele>424</ele>
        <time>2015-04-19T07:44:04.978Z</time>
      </trkpt>
      <trkpt lat="47.29073" lon="4.95401">
        <ele>424</ele>
        <time>2015-04-19T07:44:06.085Z</time>
      </trkpt>
      <trkpt lat="47.29065" lon="4.95396">
        <ele>424</ele>
        <time>2015-04-19T07:44:11.068Z</time>
      </trkpt>
      <trkpt lat="47.29064" lon="4.95394">
        <ele>424</ele>
        <time>2015-04-19T07:44:12.075Z</time>
      </trkpt>
      <trkpt lat="47.29057" lon="4.95387">
        <ele>425</ele>
        <time>2015-04-19T07:44:16.991Z</time>
      </trkpt>
      <trkpt lat="47.29056" lon="4.95386">
        <ele>425</ele>
        <time>2015-04-19T07:44:17.977Z</time>
      </trkpt>
      <trkpt lat="47.29049" lon="4.9538">
        <ele>425</ele>
        <time>2015-04-19T07:44:21.985Z</time>
      </trkpt>
      <trkpt lat="47.29047" lon="4.95378">
        <ele>425</ele>
        <time>2015-04-19T07:44:23.077Z</time>
      </trkpt>
      <trkpt lat="47.2904" lon="4.95371">
        <ele>426</ele>
        <time>2015-04-19T07:44:29.979Z</time>
      </trkpt>
      <trkpt lat="47.29039" lon="4.9537">
        <ele>426</ele>
        <time>2015-04-19T07:44:31.089Z</time>
      </trkpt>
      <trkpt lat="47.29039" lon="4.95369">
        <ele>426</ele>
        <time>2015-04-19T07:44:32.122Z</time>
      </trkpt>
      <trkpt lat="47.29038" lon="4.95369">
        <ele>426</ele>
        <time>2015-04-19T07:44:33.078Z</time>
      </trkpt>
      <trkpt lat="47.29038" lon="4.95369">
        <ele>426</ele>
        <time>2015-04-19T07:44:49.003Z</time>
      </trkpt>
      <trkpt lat="47.29036" lon="4.95363">
        <ele>426</ele>
        <time>2015-04-19T07:44:50.022Z</time>
      </trkpt>
      <trkpt lat="47.29036" lon="4.95363">
        <ele>426</ele>
        <time>2015-04-19T07:44:50.988Z</time>
      </trkpt>
      <trkpt lat="47.29035" lon="4.95363">
        <ele>426</ele>
        <time>2015-04-19T07:44:52.004Z</time>
      </trkpt>
      <trkpt lat="47.29032" lon="4.95354">
        <ele>426</ele>
        <time>2015-04-19T07:48:29.016Z</time>
      </trkpt>
      <trkpt lat="47.2903" lon="4.95352">
        <ele>426</ele>
        <time>2015-04-19T07:48:29.990Z</time>
      </trkpt>
      <trkpt lat="47.29022" lon="4.95346">
        <ele>427</ele>
        <time>2015-04-19T07:48:36.995Z</time>
      </trkpt>
      <trkpt lat="47.29021" lon="4.95345">
        <ele>427</ele>
        <time>2015-04-19T07:48:37.999Z</time>
      </trkpt>
      <trkpt lat="47.29014" lon="4.95342">
        <ele>427</ele>
        <time>2015-04-19T07:48:42.984Z</time>
      </trkpt>
      <trkpt lat="47.29012" lon="4.95342">
        <ele>427</ele>
        <time>2015-04-19T07:48:44.013Z</time>
      </trkpt>
      <trkpt lat="47.29003" lon="4.95344">
        <ele>428</ele>
        <time>2015-04-19T07:48:50.005Z</time>
      </trkpt>
      <trkpt lat="47.29002" lon="4.95345">
        <ele>428</ele>
        <time>2015-04-19T07:48:50.999Z</time>
      </trkpt>
      <trkpt lat="47.28997" lon="4.95353">
        <ele>430</ele>
        <time>2015-04-19T07:48:54.991Z</time>
      </trkpt>
      <trkpt lat="47.28995" lon="4.95355">
        <ele>431</ele>
        <time>2015-04-19T07:48:55.985Z</time>
      </trkpt>
      <trkpt lat="47.28991" lon="4.95365">
        <ele>431</ele>
        <time>2015-04-19T07:48:59.991Z</time>
      </trkpt>
      <trkpt lat="47.2899" lon="4.95368">
        <ele>431</ele>
        <time>2015-04-19T07:49:00.992Z</time>
      </trkpt>
      <trkpt lat="47.28982" lon="4.95371">
        <ele>431</ele>
        <time>2015-04-19T07:49:11.993Z</time>
      </trkpt>
      <trkpt lat="47.28981" lon="4.9537">
        <ele>431</ele>
        <time>2015-04-19T07:49:12.985Z</time>
      </trkpt>
      <trkpt lat="47.28973" lon="4.95364">
        <ele>431</ele>
        <time>2015-04-19T07:49:17.991Z</time>
      </trkpt>
      <trkpt lat="47.28971" lon="4.95364">
        <ele>431</ele>
        <time>2015-04-19T07:49:18.995Z</time>
      </trkpt>
      <trkpt lat="47.28963" lon="4.95362">
        <ele>432</ele>
        <time>2015-04-19T07:49:22.984Z</time>
      </trkpt>
      <trkpt lat="47.28961" lon="4.95362">
        <ele>432</ele>
        <time>2015-04-19T07:49:23.984Z</time>
      </trkpt>
      <trkpt lat="47.28954" lon="4.95359">
        <ele>432</ele>
        <time>2015-04-19T07:49:27.985Z</time>
      </trkpt>
      <trkpt lat="47.28952" lon="4.95358">
        <ele>432</ele>
        <time>2015-04-19T07:49:28.962Z</time>
      </trkpt>
      <trkpt lat="47.28945" lon="4.95353">
        <ele>432</ele>
        <time>2015-04-19T07:49:33.984Z</time>
      </trkpt>
      <trkpt lat="47.28943" lon="4.95351">
        <ele>432</ele>
        <time>2015-04-19T07:49:34.985Z</time>
      </trkpt>
      <trkpt lat="47.28936" lon="4.95345">
        <ele>433</ele>
        <time>2015-04-19T07:49:39.984Z</time>
      </trkpt>
      <trkpt lat="47.28934" lon="4.95345">
        <ele>433</ele>
        <time>2015-04-19T07:49:40.953Z</time>
      </trkpt>
      <trkpt lat="47.28927" lon="4.95342">
        <ele>433</ele>
        <time>2015-04-19T07:49:44.964Z</time>
      </trkpt>
      <trkpt lat="47.28925" lon="4.95341">
        <ele>433</ele>
        <time>2015-04-19T07:49:45.968Z</time>
      </trkpt>
      <trkpt lat="47.28918" lon="4.95339">
        <ele>434</ele>
        <time>2015-04-19T07:49:50.039Z</time>
      </trkpt>
      <trkpt lat="47.28916" lon="4.95338">
        <ele>435</ele>
        <time>2015-04-19T07:49:51.009Z</time>
      </trkpt>
      <trkpt lat="47.28908" lon="4.95334">
        <ele>435</ele>
        <time>2015-04-19T07:49:55.990Z</time>
      </trkpt>
      <trkpt lat="47.28907" lon="4.95333">
        <ele>434</ele>
        <time>2015-04-19T07:49:57.002Z</time>
      </trkpt>
      <trkpt lat="47.289" lon="4.95325">
        <ele>435</ele>
        <time>2015-04-19T07:50:02.004Z</time>
      </trkpt>
      <trkpt lat="47.28899" lon="4.95324">
        <ele>435</ele>
        <time>2015-04-19T07:50:02.987Z</time>
      </trkpt>
      <trkpt lat="47.28892" lon="4.95315">
        <ele>435</ele>
        <time>2015-04-19T07:50:07.998Z</time>
      </trkpt>
      <trkpt lat="47.28891" lon="4.95314">
        <ele>435</ele>
        <time>2015-04-19T07:50:08.979Z</time>
      </trkpt>
      <trkpt lat="47.28887" lon="4.95304">
        <ele>435</ele>
        <time>2015-04-19T07:50:14.003Z</time>
      </trkpt>
      <trkpt lat="47.28886" lon="4.95303">
        <ele>435</ele>
        <time>2015-04-19T07:50:14.992Z</time>
      </trkpt>
      <trkpt lat="47.28879" lon="4.95296">
        <ele>435</ele>
        <time>2015-04-19T07:50:20.004Z</time>
      </trkpt>
      <trkpt lat="47.28878" lon="4.95294">
        <ele>435</ele>
        <time>2015-04-19T07:50:20.986Z</time>
      </trkpt>
      <trkpt lat="47.28872" lon="4.95285">
        <ele>435</ele>
        <time>2015-04-19T07:50:26.985Z</time>
      </trkpt>
      <trkpt lat="47.28871" lon="4.95283">
        <ele>435</ele>
        <time>2015-04-19T07:50:27.985Z</time>
      </trkpt>
      <trkpt lat="47.28863" lon="4.95277">
        <ele>435</ele>
        <time>2015-04-19T07:50:32.995Z</time>
      </trkpt>
      <trkpt lat="47.28861" lon="4.95276">
        <ele>435</ele>
        <time>2015-04-19T07:50:33.979Z</time>
      </trkpt>
      <trkpt lat="47.28854" lon="4.95271">
        <ele>436</ele>
        <time>2015-04-19T07:50:38.979Z</time>
      </trkpt>
      <trkpt lat="47.28853" lon="4.95269">
        <ele>436</ele>
        <time>2015-04-19T07:50:39.979Z</time>
      </trkpt>
      <trkpt lat="47.28852" lon="4.95256">
        <ele>436</ele>
        <time>2015-04-19T07:50:46.012Z</time>
      </trkpt>
      <trkpt lat="47.28852" lon="4.95254">
        <ele>436</ele>
        <time>2015-04-19T07:50:46.985Z</time>
      </trkpt>
      <trkpt lat="47.28853" lon="4.95243">
        <ele>435</ele>
        <time>2015-04-19T07:50:52.959Z</time>
      </trkpt>
      <trkpt lat="47.28853" lon="4.95241">
        <ele>435</ele>
        <time>2015-04-19T07:50:53.986Z</time>
      </trkpt>
      <trkpt lat="47.28853" lon="4.9523">
        <ele>435</ele>
        <time>2015-04-19T07:50:58.963Z</time>
      </trkpt>
      <trkpt lat="47.28852" lon="4.95227">
        <ele>435</ele>
        <time>2015-04-19T07:50:59.986Z</time>
      </trkpt>
      <trkpt lat="47.28851" lon="4.95214">
        <ele>435</ele>
        <time>2015-04-19T07:51:04.980Z</time>
      </trkpt>
      <trkpt lat="47.28851" lon="4.95212">
        <ele>435</ele>
        <time>2015-04-19T07:51:05.988Z</time>
      </trkpt>
      <trkpt lat="47.2885" lon="4.95199">
        <ele>435</ele>
        <time>2015-04-19T07:51:10.988Z</time>
      </trkpt>
      <trkpt lat="47.2885" lon="4.95197">
        <ele>435</ele>
        <time>2015-04-19T07:51:11.980Z</time>
      </trkpt>
      <trkpt lat="47.28844" lon="4.95188">
        <ele>435</ele>
        <time>2015-04-19T07:51:17.987Z</time>
      </trkpt>
      <trkpt lat="47.28843" lon="4.95187">
        <ele>435</ele>
        <time>2015-04-19T07:51:18.976Z</time>
      </trkpt>
      <trkpt lat="47.28835" lon="4.95182">
        <ele>436</ele>
        <time>2015-04-19T07:51:24.980Z</time>
      </trkpt>
      <trkpt lat="47.28834" lon="4.95181">
        <ele>436</ele>
        <time>2015-04-19T07:51:26.008Z</time>
      </trkpt>
      <trkpt lat="47.28827" lon="4.95173">
        <ele>438</ele>
        <time>2015-04-19T07:51:32.978Z</time>
      </trkpt>
      <trkpt lat="47.28827" lon="4.95171">
        <ele>438</ele>
        <time>2015-04-19T07:51:33.982Z</time>
      </trkpt>
      <trkpt lat="47.28824" lon="4.95161">
        <ele>438</ele>
        <time>2015-04-19T07:51:39.001Z</time>
      </trkpt>
      <trkpt lat="47.28823" lon="4.95159">
        <ele>438</ele>
        <time>2015-04-19T07:51:39.983Z</time>
      </trkpt>
      <trkpt lat="47.28825" lon="4.95148">
        <ele>439</ele>
        <time>2015-04-19T07:51:43.986Z</time>
      </trkpt>
      <trkpt lat="47.28826" lon="4.95146">
        <ele>439</ele>
        <time>2015-04-19T07:51:44.954Z</time>
      </trkpt>
      <trkpt lat="47.28828" lon="4.95133">
        <ele>439</ele>
        <time>2015-04-19T07:51:50.001Z</time>
      </trkpt>
      <trkpt lat="47.28827" lon="4.95131">
        <ele>439</ele>
        <time>2015-04-19T07:51:50.977Z</time>
      </trkpt>
      <trkpt lat="47.28821" lon="4.95124">
        <ele>440</ele>
        <time>2015-04-19T07:51:54.967Z</time>
      </trkpt>
      <trkpt lat="47.28819" lon="4.95122">
        <ele>440</ele>
        <time>2015-04-19T07:51:55.962Z</time>
      </trkpt>
      <trkpt lat="47.28813" lon="4.95115">
        <ele>440</ele>
        <time>2015-04-19T07:51:59.976Z</time>
      </trkpt>
      <trkpt lat="47.28811" lon="4.95113">
        <ele>440</ele>
        <time>2015-04-19T07:52:00.980Z</time>
      </trkpt>
      <trkpt lat="47.28805" lon="4.95106">
        <ele>440</ele>
        <time>2015-04-19T07:52:04.993Z</time>
      </trkpt>
      <trkpt lat="47.28804" lon="4.95104">
        <ele>440</ele>
        <time>2015-04-19T07:52:05.979Z</time>
      </trkpt>
      <trkpt lat="47.28799" lon="4.95096">
        <ele>440</ele>
        <time>2015-04-19T07:52:09.983Z</time>
      </trkpt>
      <trkpt lat="47.28798" lon="4.95094">
        <ele>440</ele>
        <time>2015-04-19T07:52:10.966Z</time>
      </trkpt>
      <trkpt lat="47.28792" lon="4.95084">
        <ele>440</ele>
        <time>2015-04-19T07:52:15.964Z</time>
      </trkpt>
      <trkpt lat="47.28791" lon="4.95083">
        <ele>441</ele>
        <time>2015-04-19T07:52:17.003Z</time>
      </trkpt>
      <trkpt lat="47.28784" lon="4.95076">
        <ele>441</ele>
        <time>2015-04-19T07:52:21.988Z</time>
      </trkpt>
      <trkpt lat="47.28782" lon="4.95074">
        <ele>441</ele>
        <time>2015-04-19T07:52:22.994Z</time>
      </trkpt>
      <trkpt lat="47.28776" lon="4.95068">
        <ele>442</ele>
        <time>2015-04-19T07:52:26.950Z</time>
      </trkpt>
      <trkpt lat="47.28774" lon="4.95066">
        <ele>442</ele>
        <time>2015-04-19T07:52:27.984Z</time>
      </trkpt>
      <trkpt lat="47.28768" lon="4.9506">
        <ele>442</ele>
        <time>2015-04-19T07:52:31.956Z</time>
      </trkpt>
      <trkpt lat="47.28767" lon="4.95058">
        <ele>442</ele>
        <time>2015-04-19T07:52:32.973Z</time>
      </trkpt>
      <trkpt lat="47.28761" lon="4.95049">
        <ele>442</ele>
        <time>2015-04-19T07:52:37.975Z</time>
      </trkpt>
      <trkpt lat="47.28759" lon="4.95047">
        <ele>442</ele>
        <time>2015-04-19T07:52:38.981Z</time>
      </trkpt>
      <trkpt lat="47.28753" lon="4.95038">
        <ele>442</ele>
        <time>2015-04-19T07:52:44.010Z</time>
      </trkpt>
      <trkpt lat="47.28752" lon="4.95037">
        <ele>442</ele>
        <time>2015-04-19T07:52:44.983Z</time>
      </trkpt>
      <trkpt lat="47.28746" lon="4.95029">
        <ele>445</ele>
        <time>2015-04-19T07:52:48.982Z</time>
      </trkpt>
      <trkpt lat="47.28745" lon="4.95028">
        <ele>445</ele>
        <time>2015-04-19T07:52:49.997Z</time>
      </trkpt>
      <trkpt lat="47.28739" lon="4.95021">
        <ele>445</ele>
        <time>2015-04-19T07:52:53.968Z</time>
      </trkpt>
      <trkpt lat="47.28738" lon="4.95019">
        <ele>445</ele>
        <time>2015-04-19T07:52:54.987Z</time>
      </trkpt>
      <trkpt lat="47.28732" lon="4.9501">
        <ele>445</ele>
        <time>2015-04-19T07:52:59.953Z</time>
      </trkpt>
      <trkpt lat="47.28731" lon="4.95008">
        <ele>445</ele>
        <time>2015-04-19T07:53:00.957Z</time>
      </trkpt>
      <trkpt lat="47.28724" lon="4.95">
        <ele>445</ele>
        <time>2015-04-19T07:53:05.989Z</time>
      </trkpt>
      <trkpt lat="47.28723" lon="4.94999">
        <ele>446</ele>
        <time>2015-04-19T07:53:06.975Z</time>
      </trkpt>
      <trkpt lat="47.28716" lon="4.94991">
        <ele>446</ele>
        <time>2015-04-19T07:53:11.983Z</time>
      </trkpt>
      <trkpt lat="47.28715" lon="4.94989">
        <ele>446</ele>
        <time>2015-04-19T07:53:12.983Z</time>
      </trkpt>
      <trkpt lat="47.28709" lon="4.94982">
        <ele>446</ele>
        <time>2015-04-19T07:53:17.976Z</time>
      </trkpt>
      <trkpt lat="47.28707" lon="4.9498">
        <ele>446</ele>
        <time>2015-04-19T07:53:18.996Z</time>
      </trkpt>
      <trkpt lat="47.287" lon="4.94973">
        <ele>447</ele>
        <time>2015-04-19T07:53:23.992Z</time>
      </trkpt>
      <trkpt lat="47.28699" lon="4.94972">
        <ele>447</ele>
        <time>2015-04-19T07:53:24.998Z</time>
      </trkpt>
      <trkpt lat="47.28692" lon="4.94965">
        <ele>447</ele>
        <time>2015-04-19T07:53:29.977Z</time>
      </trkpt>
      <trkpt lat="47.28691" lon="4.94963">
        <ele>447</ele>
        <time>2015-04-19T07:53:30.980Z</time>
      </trkpt>
      <trkpt lat="47.28684" lon="4.94956">
        <ele>447</ele>
        <time>2015-04-19T07:53:36.976Z</time>
      </trkpt>
      <trkpt lat="47.28683" lon="4.94955">
        <ele>447</ele>
        <time>2015-04-19T07:53:37.985Z</time>
      </trkpt>
      <trkpt lat="47.28676" lon="4.94949">
        <ele>447</ele>
        <time>2015-04-19T07:53:42.980Z</time>
      </trkpt>
      <trkpt lat="47.28675" lon="4.94948">
        <ele>447</ele>
        <time>2015-04-19T07:53:43.990Z</time>
      </trkpt>
      <trkpt lat="47.28669" lon="4.94939">
        <ele>448</ele>
        <time>2015-04-19T07:53:49.000Z</time>
      </trkpt>
      <trkpt lat="47.28668" lon="4.94936">
        <ele>448</ele>
        <time>2015-04-19T07:53:49.990Z</time>
      </trkpt>
      <trkpt lat="47.28664" lon="4.94927">
        <ele>449</ele>
        <time>2015-04-19T07:53:54.988Z</time>
      </trkpt>
      <trkpt lat="47.28663" lon="4.94925">
        <ele>449</ele>
        <time>2015-04-19T07:53:55.989Z</time>
      </trkpt>
      <trkpt lat="47.28657" lon="4.94916">
        <ele>450</ele>
        <time>2015-04-19T07:54:00.977Z</time>
      </trkpt>
      <trkpt lat="47.28656" lon="4.94914">
        <ele>450</ele>
        <time>2015-04-19T07:54:01.968Z</time>
      </trkpt>
      <trkpt lat="47.28651" lon="4.94906">
        <ele>451</ele>
        <time>2015-04-19T07:54:06.978Z</time>
      </trkpt>
      <trkpt lat="47.2865" lon="4.94904">
        <ele>451</ele>
        <time>2015-04-19T07:54:07.983Z</time>
      </trkpt>
      <trkpt lat="47.28644" lon="4.94896">
        <ele>452</ele>
        <time>2015-04-19T07:54:12.982Z</time>
      </trkpt>
      <trkpt lat="47.28643" lon="4.94894">
        <ele>452</ele>
        <time>2015-04-19T07:54:14.000Z</time>
      </trkpt>
      <trkpt lat="47.28638" lon="4.94886">
        <ele>452</ele>
        <time>2015-04-19T07:54:18.995Z</time>
      </trkpt>
      <trkpt lat="47.28637" lon="4.94885">
        <ele>452</ele>
        <time>2015-04-19T07:54:20.008Z</time>
      </trkpt>
      <trkpt lat="47.2863" lon="4.94878">
        <ele>452</ele>
        <time>2015-04-19T07:54:24.987Z</time>
      </trkpt>
      <trkpt lat="47.28628" lon="4.94877">
        <ele>452</ele>
        <time>2015-04-19T07:54:25.988Z</time>
      </trkpt>
      <trkpt lat="47.28622" lon="4.94873">
        <ele>453</ele>
        <time>2015-04-19T07:54:29.976Z</time>
      </trkpt>
      <trkpt lat="47.2862" lon="4.94872">
        <ele>453</ele>
        <time>2015-04-19T07:54:30.975Z</time>
      </trkpt>
      <trkpt lat="47.28612" lon="4.94865">
        <ele>453</ele>
        <time>2015-04-19T07:54:35.975Z</time>
      </trkpt>
      <trkpt lat="47.28611" lon="4.94864">
        <ele>453</ele>
        <time>2015-04-19T07:54:36.976Z</time>
      </trkpt>
      <trkpt lat="47.28605" lon="4.94855">
        <ele>453</ele>
        <time>2015-04-19T07:54:41.976Z</time>
      </trkpt>
      <trkpt lat="47.28603" lon="4.94854">
        <ele>454</ele>
        <time>2015-04-19T07:54:42.947Z</time>
      </trkpt>
      <trkpt lat="47.28597" lon="4.94846">
        <ele>454</ele>
        <time>2015-04-19T07:54:47.986Z</time>
      </trkpt>
      <trkpt lat="47.28596" lon="4.94844">
        <ele>454</ele>
        <time>2015-04-19T07:54:48.972Z</time>
      </trkpt>
      <trkpt lat="47.2859" lon="4.94835">
        <ele>455</ele>
        <time>2015-04-19T07:54:53.963Z</time>
      </trkpt>
      <trkpt lat="47.28589" lon="4.94833">
        <ele>456</ele>
        <time>2015-04-19T07:54:54.978Z</time>
      </trkpt>
      <trkpt lat="47.28583" lon="4.94825">
        <ele>457</ele>
        <time>2015-04-19T07:54:59.978Z</time>
      </trkpt>
      <trkpt lat="47.28581" lon="4.94823">
        <ele>457</ele>
        <time>2015-04-19T07:55:00.946Z</time>
      </trkpt>
      <trkpt lat="47.28576" lon="4.94814">
        <ele>457</ele>
        <time>2015-04-19T07:55:05.999Z</time>
      </trkpt>
      <trkpt lat="47.28575" lon="4.94813">
        <ele>458</ele>
        <time>2015-04-19T07:55:06.979Z</time>
      </trkpt>
      <trkpt lat="47.28568" lon="4.94808">
        <ele>458</ele>
        <time>2015-04-19T07:55:13.986Z</time>
      </trkpt>
      <trkpt lat="47.28566" lon="4.94807">
        <ele>458</ele>
        <time>2015-04-19T07:55:14.971Z</time>
      </trkpt>
      <trkpt lat="47.28558" lon="4.94805">
        <ele>458</ele>
        <time>2015-04-19T07:55:19.960Z</time>
      </trkpt>
      <trkpt lat="47.28556" lon="4.94804">
        <ele>458</ele>
        <time>2015-04-19T07:55:20.956Z</time>
      </trkpt>
      <trkpt lat="47.28549" lon="4.94801">
        <ele>458</ele>
        <time>2015-04-19T07:55:24.949Z</time>
      </trkpt>
      <trkpt lat="47.28547" lon="4.948">
        <ele>458</ele>
        <time>2015-04-19T07:55:25.994Z</time>
      </trkpt>
      <trkpt lat="47.2854" lon="4.94796">
        <ele>459</ele>
        <time>2015-04-19T07:55:32.016Z</time>
      </trkpt>
      <trkpt lat="47.28538" lon="4.94795">
        <ele>459</ele>
        <time>2015-04-19T07:55:32.998Z</time>
      </trkpt>
      <trkpt lat="47.28531" lon="4.9479">
        <ele>459</ele>
        <time>2015-04-19T07:55:38.998Z</time>
      </trkpt>
      <trkpt lat="47.2853" lon="4.94789">
        <ele>459</ele>
        <time>2015-04-19T07:55:39.969Z</time>
      </trkpt>
      <trkpt lat="47.28522" lon="4.94783">
        <ele>459</ele>
        <time>2015-04-19T07:55:47.004Z</time>
      </trkpt>
      <trkpt lat="47.2852" lon="4.94782">
        <ele>459</ele>
        <time>2015-04-19T07:55:47.989Z</time>
      </trkpt>
      <trkpt lat="47.28513" lon="4.94779">
        <ele>460</ele>
        <time>2015-04-19T07:55:52.987Z</time>
      </trkpt>
      <trkpt lat="47.28512" lon="4.94778">
        <ele>460</ele>
        <time>2015-04-19T07:55:53.985Z</time>
      </trkpt>
      <trkpt lat="47.28504" lon="4.94775">
        <ele>460</ele>
        <time>2015-04-19T07:55:58.979Z</time>
      </trkpt>
      <trkpt lat="47.28503" lon="4.94775">
        <ele>460</ele>
        <time>2015-04-19T07:55:59.973Z</time>
      </trkpt>
      <trkpt lat="47.28495" lon="4.94771">
        <ele>462</ele>
        <time>2015-04-19T07:56:04.979Z</time>
      </trkpt>
      <trkpt lat="47.28494" lon="4.9477">
        <ele>462</ele>
        <time>2015-04-19T07:56:05.984Z</time>
      </trkpt>
      <trkpt lat="47.28486" lon="4.94766">
        <ele>463</ele>
        <time>2015-04-19T07:56:10.975Z</time>
      </trkpt>
      <trkpt lat="47.28484" lon="4.94765">
        <ele>463</ele>
        <time>2015-04-19T07:56:11.985Z</time>
      </trkpt>
      <trkpt lat="47.28475" lon="4.94764">
        <ele>463</ele>
        <time>2015-04-19T07:56:18.988Z</time>
      </trkpt>
      <trkpt lat="47.28474" lon="4.94764">
        <ele>463</ele>
        <time>2015-04-19T07:56:19.973Z</time>
      </trkpt>
      <trkpt lat="47.28466" lon="4.94765">
        <ele>463</ele>
        <time>2015-04-19T07:56:26.962Z</time>
      </trkpt>
      <trkpt lat="47.28465" lon="4.94766">
        <ele>463</ele>
        <time>2015-04-19T07:56:27.978Z</time>
      </trkpt>
      <trkpt lat="47.28457" lon="4.94766">
        <ele>463</ele>
        <time>2015-04-19T07:56:35.967Z</time>
      </trkpt>
      <trkpt lat="47.28455" lon="4.94766">
        <ele>463</ele>
        <time>2015-04-19T07:56:36.969Z</time>
      </trkpt>
      <trkpt lat="47.28447" lon="4.94767">
        <ele>464</ele>
        <time>2015-04-19T07:56:43.978Z</time>
      </trkpt>
      <trkpt lat="47.28446" lon="4.94767">
        <ele>464</ele>
        <time>2015-04-19T07:56:44.964Z</time>
      </trkpt>
      <trkpt lat="47.28439" lon="4.94767">
        <ele>464</ele>
        <time>2015-04-19T07:56:48.955Z</time>
      </trkpt>
      <trkpt lat="47.28437" lon="4.94767">
        <ele>464</ele>
        <time>2015-04-19T07:56:49.979Z</time>
      </trkpt>
      <trkpt lat="47.28428" lon="4.94766">
        <ele>465</ele>
        <time>2015-04-19T07:56:53.978Z</time>
      </trkpt>
      <trkpt lat="47.28426" lon="4.94766">
        <ele>465</ele>
        <time>2015-04-19T07:56:54.975Z</time>
      </trkpt>
      <trkpt lat="47.28418" lon="4.94768">
        <ele>465</ele>
        <time>2015-04-19T07:56:59.980Z</time>
      </trkpt>
      <trkpt lat="47.28417" lon="4.94769">
        <ele>465</ele>
        <time>2015-04-19T07:57:00.978Z</time>
      </trkpt>
      <trkpt lat="47.2841" lon="4.94774">
        <ele>465</ele>
        <time>2015-04-19T07:57:05.978Z</time>
      </trkpt>
      <trkpt lat="47.28409" lon="4.94774">
        <ele>465</ele>
        <time>2015-04-19T07:57:06.965Z</time>
      </trkpt>
      <trkpt lat="47.28401" lon="4.94777">
        <ele>465</ele>
        <time>2015-04-19T07:57:15.990Z</time>
      </trkpt>
      <trkpt lat="47.28395" lon="4.9478">
        <ele>464</ele>
        <time>2015-04-19T07:57:16.986Z</time>
      </trkpt>
      <trkpt lat="47.28388" lon="4.94781">
        <ele>464</ele>
        <time>2015-04-19T07:57:21.979Z</time>
      </trkpt>
      <trkpt lat="47.28386" lon="4.94782">
        <ele>464</ele>
        <time>2015-04-19T07:57:22.980Z</time>
      </trkpt>
      <trkpt lat="47.28379" lon="4.94785">
        <ele>464</ele>
        <time>2015-04-19T07:57:26.988Z</time>
      </trkpt>
      <trkpt lat="47.28377" lon="4.94786">
        <ele>464</ele>
        <time>2015-04-19T07:57:27.989Z</time>
      </trkpt>
      <trkpt lat="47.28369" lon="4.94791">
        <ele>464</ele>
        <time>2015-04-19T07:57:32.003Z</time>
      </trkpt>
      <trkpt lat="47.28367" lon="4.94791">
        <ele>464</ele>
        <time>2015-04-19T07:57:32.975Z</time>
      </trkpt>
      <trkpt lat="47.28359" lon="4.94791">
        <ele>464</ele>
        <time>2015-04-19T07:57:36.976Z</time>
      </trkpt>
      <trkpt lat="47.28358" lon="4.94791">
        <ele>464</ele>
        <time>2015-04-19T07:57:37.982Z</time>
      </trkpt>
      <trkpt lat="47.28351" lon="4.94793">
        <ele>463</ele>
        <time>2015-04-19T07:57:40.978Z</time>
      </trkpt>
      <trkpt lat="47.28348" lon="4.94794">
        <ele>463</ele>
        <time>2015-04-19T07:57:41.986Z</time>
      </trkpt>
      <trkpt lat="47.2834" lon="4.94797">
        <ele>463</ele>
        <time>2015-04-19T07:57:45.983Z</time>
      </trkpt>
      <trkpt lat="47.28337" lon="4.94798">
        <ele>463</ele>
        <time>2015-04-19T07:57:46.954Z</time>
      </trkpt>
      <trkpt lat="47.28331" lon="4.94801">
        <ele>454</ele>
        <time>2015-04-19T07:57:49.990Z</time>
      </trkpt>
      <trkpt lat="47.28328" lon="4.94802">
        <ele>454</ele>
        <time>2015-04-19T07:57:50.972Z</time>
      </trkpt>
      <trkpt lat="47.28322" lon="4.94804">
        <ele>453</ele>
        <time>2015-04-19T07:57:53.982Z</time>
      </trkpt>
      <trkpt lat="47.28319" lon="4.94804">
        <ele>453</ele>
        <time>2015-04-19T07:57:54.985Z</time>
      </trkpt>
      <trkpt lat="47.28311" lon="4.94801">
        <ele>452</ele>
        <time>2015-04-19T07:57:58.977Z</time>
      </trkpt>
      <trkpt lat="47.28309" lon="4.948">
        <ele>451</ele>
        <time>2015-04-19T07:57:59.965Z</time>
      </trkpt>
      <trkpt lat="47.28303" lon="4.94793">
        <ele>451</ele>
        <time>2015-04-19T07:58:03.967Z</time>
      </trkpt>
      <trkpt lat="47.28302" lon="4.9479">
        <ele>451</ele>
        <time>2015-04-19T07:58:04.957Z</time>
      </trkpt>
      <trkpt lat="47.28299" lon="4.94779">
        <ele>450</ele>
        <time>2015-04-19T07:58:11.962Z</time>
      </trkpt>
      <trkpt lat="47.28298" lon="4.94777">
        <ele>450</ele>
        <time>2015-04-19T07:58:12.972Z</time>
      </trkpt>
      <trkpt lat="47.28291" lon="4.94769">
        <ele>449</ele>
        <time>2015-04-19T07:58:18.985Z</time>
      </trkpt>
      <trkpt lat="47.2829" lon="4.94768">
        <ele>449</ele>
        <time>2015-04-19T07:58:19.970Z</time>
      </trkpt>
      <trkpt lat="47.28285" lon="4.94758">
        <ele>448</ele>
        <time>2015-04-19T07:58:25.989Z</time>
      </trkpt>
      <trkpt lat="47.28284" lon="4.94757">
        <ele>448</ele>
        <time>2015-04-19T07:58:26.983Z</time>
      </trkpt>
      <trkpt lat="47.28279" lon="4.94746">
        <ele>450</ele>
        <time>2015-04-19T07:58:32.976Z</time>
      </trkpt>
      <trkpt lat="47.28279" lon="4.94744">
        <ele>450</ele>
        <time>2015-04-19T07:58:33.977Z</time>
      </trkpt>
      <trkpt lat="47.28274" lon="4.94732">
        <ele>450</ele>
        <time>2015-04-19T07:58:39.983Z</time>
      </trkpt>
      <trkpt lat="47.28274" lon="4.9473">
        <ele>450</ele>
        <time>2015-04-19T07:58:40.981Z</time>
      </trkpt>
      <trkpt lat="47.28271" lon="4.9472">
        <ele>451</ele>
        <time>2015-04-19T07:58:46.991Z</time>
      </trkpt>
      <trkpt lat="47.2827" lon="4.94718">
        <ele>451</ele>
        <time>2015-04-19T07:58:47.969Z</time>
      </trkpt>
      <trkpt lat="47.28267" lon="4.94706">
        <ele>451</ele>
        <time>2015-04-19T07:58:51.972Z</time>
      </trkpt>
      <trkpt lat="47.28266" lon="4.94703">
        <ele>451</ele>
        <time>2015-04-19T07:58:52.959Z</time>
      </trkpt>
      <trkpt lat="47.28264" lon="4.94691">
        <ele>452</ele>
        <time>2015-04-19T07:58:57.989Z</time>
      </trkpt>
      <trkpt lat="47.28264" lon="4.94688">
        <ele>451</ele>
        <time>2015-04-19T07:58:58.997Z</time>
      </trkpt>
      <trkpt lat="47.2826" lon="4.94678">
        <ele>451</ele>
        <time>2015-04-19T07:59:02.970Z</time>
      </trkpt>
      <trkpt lat="47.28259" lon="4.94675">
        <ele>450</ele>
        <time>2015-04-19T07:59:04.229Z</time>
      </trkpt>
      <trkpt lat="47.28255" lon="4.94666">
        <ele>450</ele>
        <time>2015-04-19T07:59:07.198Z</time>
      </trkpt>
      <trkpt lat="47.28253" lon="4.94663">
        <ele>450</ele>
        <time>2015-04-19T07:59:08.215Z</time>
      </trkpt>
      <trkpt lat="47.28249" lon="4.94655">
        <ele>444</ele>
        <time>2015-04-19T07:59:11.192Z</time>
      </trkpt>
      <trkpt lat="47.28248" lon="4.94652">
        <ele>444</ele>
        <time>2015-04-19T07:59:12.210Z</time>
      </trkpt>
      <trkpt lat="47.28243" lon="4.94643">
        <ele>442</ele>
        <time>2015-04-19T07:59:17.218Z</time>
      </trkpt>
      <trkpt lat="47.28242" lon="4.94642">
        <ele>442</ele>
        <time>2015-04-19T07:59:18.185Z</time>
      </trkpt>
      <trkpt lat="47.28237" lon="4.94632">
        <ele>442</ele>
        <time>2015-04-19T07:59:25.205Z</time>
      </trkpt>
      <trkpt lat="47.28237" lon="4.9463">
        <ele>442</ele>
        <time>2015-04-19T07:59:26.219Z</time>
      </trkpt>
      <trkpt lat="47.28233" lon="4.94619">
        <ele>442</ele>
        <time>2015-04-19T07:59:34.212Z</time>
      </trkpt>
      <trkpt lat="47.28233" lon="4.94617">
        <ele>442</ele>
        <time>2015-04-19T07:59:35.208Z</time>
      </trkpt>
      <trkpt lat="47.28228" lon="4.94608">
        <ele>442</ele>
        <time>2015-04-19T07:59:42.227Z</time>
      </trkpt>
      <trkpt lat="47.28228" lon="4.94606">
        <ele>442</ele>
        <time>2015-04-19T07:59:43.205Z</time>
      </trkpt>
      <trkpt lat="47.28224" lon="4.94595">
        <ele>442</ele>
        <time>2015-04-19T07:59:50.219Z</time>
      </trkpt>
      <trkpt lat="47.28224" lon="4.94594">
        <ele>442</ele>
        <time>2015-04-19T07:59:51.218Z</time>
      </trkpt>
      <trkpt lat="47.2822" lon="4.94582">
        <ele>446</ele>
        <time>2015-04-19T07:59:58.185Z</time>
      </trkpt>
      <trkpt lat="47.28219" lon="4.94581">
        <ele>446</ele>
        <time>2015-04-19T07:59:59.218Z</time>
      </trkpt>
      <trkpt lat="47.28214" lon="4.94571">
        <ele>445</ele>
        <time>2015-04-19T08:00:07.221Z</time>
      </trkpt>
      <trkpt lat="47.28214" lon="4.9457">
        <ele>445</ele>
        <time>2015-04-19T08:00:08.230Z</time>
      </trkpt>
      <trkpt lat="47.28209" lon="4.94561">
        <ele>445</ele>
        <time>2015-04-19T08:00:18.212Z</time>
      </trkpt>
      <trkpt lat="47.28209" lon="4.94559">
        <ele>445</ele>
        <time>2015-04-19T08:00:19.249Z</time>
      </trkpt>
      <trkpt lat="47.28206" lon="4.94548">
        <ele>445</ele>
        <time>2015-04-19T08:00:28.241Z</time>
      </trkpt>
      <trkpt lat="47.28205" lon="4.94546">
        <ele>445</ele>
        <time>2015-04-19T08:00:29.248Z</time>
      </trkpt>
      <trkpt lat="47.28201" lon="4.94537">
        <ele>445</ele>
        <time>2015-04-19T08:00:36.227Z</time>
      </trkpt>
      <trkpt lat="47.282" lon="4.94535">
        <ele>445</ele>
        <time>2015-04-19T08:00:37.220Z</time>
      </trkpt>
      <trkpt lat="47.28199" lon="4.94525">
        <ele>445</ele>
        <time>2015-04-19T08:00:42.236Z</time>
      </trkpt>
      <trkpt lat="47.28199" lon="4.94522">
        <ele>445</ele>
        <time>2015-04-19T08:00:43.229Z</time>
      </trkpt>
      <trkpt lat="47.28197" lon="4.94512">
        <ele>445</ele>
        <time>2015-04-19T08:00:47.242Z</time>
      </trkpt>
      <trkpt lat="47.28196" lon="4.94509">
        <ele>445</ele>
        <time>2015-04-19T08:00:48.248Z</time>
      </trkpt>
      <trkpt lat="47.28191" lon="4.94499">
        <ele>449</ele>
        <time>2015-04-19T08:00:53.239Z</time>
      </trkpt>
      <trkpt lat="47.2819" lon="4.94497">
        <ele>448</ele>
        <time>2015-04-19T08:00:54.238Z</time>
      </trkpt>
      <trkpt lat="47.28186" lon="4.94486">
        <ele>448</ele>
        <time>2015-04-19T08:01:00.216Z</time>
      </trkpt>
      <trkpt lat="47.28185" lon="4.94484">
        <ele>449</ele>
        <time>2015-04-19T08:01:01.227Z</time>
      </trkpt>
      <trkpt lat="47.2818" lon="4.94473">
        <ele>449</ele>
        <time>2015-04-19T08:01:07.206Z</time>
      </trkpt>
      <trkpt lat="47.28179" lon="4.94471">
        <ele>449</ele>
        <time>2015-04-19T08:01:08.240Z</time>
      </trkpt>
      <trkpt lat="47.28174" lon="4.94462">
        <ele>450</ele>
        <time>2015-04-19T08:01:12.230Z</time>
      </trkpt>
      <trkpt lat="47.28173" lon="4.94459">
        <ele>450</ele>
        <time>2015-04-19T08:01:13.224Z</time>
      </trkpt>
      <trkpt lat="47.2817" lon="4.94447">
        <ele>450</ele>
        <time>2015-04-19T08:01:19.247Z</time>
      </trkpt>
      <trkpt lat="47.28169" lon="4.94446">
        <ele>450</ele>
        <time>2015-04-19T08:01:20.238Z</time>
      </trkpt>
      <trkpt lat="47.28163" lon="4.9444">
        <ele>449</ele>
        <time>2015-04-19T08:01:23.242Z</time>
      </trkpt>
      <trkpt lat="47.28161" lon="4.94438">
        <ele>449</ele>
        <time>2015-04-19T08:01:24.240Z</time>
      </trkpt>
      <trkpt lat="47.28155" lon="4.9443">
        <ele>449</ele>
        <time>2015-04-19T08:01:28.234Z</time>
      </trkpt>
      <trkpt lat="47.28154" lon="4.94428">
        <ele>449</ele>
        <time>2015-04-19T08:01:29.206Z</time>
      </trkpt>
      <trkpt lat="47.28148" lon="4.9442">
        <ele>449</ele>
        <time>2015-04-19T08:01:33.222Z</time>
      </trkpt>
      <trkpt lat="47.28146" lon="4.94418">
        <ele>449</ele>
        <time>2015-04-19T08:01:34.238Z</time>
      </trkpt>
      <trkpt lat="47.28142" lon="4.9441">
        <ele>452</ele>
        <time>2015-04-19T08:01:37.228Z</time>
      </trkpt>
      <trkpt lat="47.2814" lon="4.94408">
        <ele>452</ele>
        <time>2015-04-19T08:01:38.219Z</time>
      </trkpt>
      <trkpt lat="47.28135" lon="4.94399">
        <ele>452</ele>
        <time>2015-04-19T08:01:41.230Z</time>
      </trkpt>
      <trkpt lat="47.28132" lon="4.94396">
        <ele>452</ele>
        <time>2015-04-19T08:01:42.239Z</time>
      </trkpt>
      <trkpt lat="47.28127" lon="4.94389">
        <ele>453</ele>
        <time>2015-04-19T08:01:45.221Z</time>
      </trkpt>
      <trkpt lat="47.28125" lon="4.94387">
        <ele>453</ele>
        <time>2015-04-19T08:01:46.242Z</time>
      </trkpt>
      <trkpt lat="47.28118" lon="4.9438">
        <ele>453</ele>
        <time>2015-04-19T08:01:50.239Z</time>
      </trkpt>
      <trkpt lat="47.28116" lon="4.94378">
        <ele>453</ele>
        <time>2015-04-19T08:01:51.220Z</time>
      </trkpt>
      <trkpt lat="47.28113" lon="4.9437">
        <ele>453</ele>
        <time>2015-04-19T08:01:54.242Z</time>
      </trkpt>
      <trkpt lat="47.28112" lon="4.94367">
        <ele>453</ele>
        <time>2015-04-19T08:01:55.210Z</time>
      </trkpt>
      <trkpt lat="47.28108" lon="4.94355">
        <ele>453</ele>
        <time>2015-04-19T08:01:57.221Z</time>
      </trkpt>
      <trkpt lat="47.28107" lon="4.94349">
        <ele>454</ele>
        <time>2015-04-19T08:01:58.242Z</time>
      </trkpt>
      <trkpt lat="47.28105" lon="4.94339">
        <ele>454</ele>
        <time>2015-04-19T08:02:00.219Z</time>
      </trkpt>
      <trkpt lat="47.28104" lon="4.94336">
        <ele>454</ele>
        <time>2015-04-19T08:02:01.213Z</time>
      </trkpt>
      <trkpt lat="47.281" lon="4.94327">
        <ele>456</ele>
        <time>2015-04-19T08:02:04.227Z</time>
      </trkpt>
      <trkpt lat="47.28099" lon="4.94324">
        <ele>456</ele>
        <time>2015-04-19T08:02:05.221Z</time>
      </trkpt>
      <trkpt lat="47.28094" lon="4.94314">
        <ele>456</ele>
        <time>2015-04-19T08:02:09.221Z</time>
      </trkpt>
      <trkpt lat="47.28093" lon="4.94311">
        <ele>456</ele>
        <time>2015-04-19T08:02:10.225Z</time>
      </trkpt>
      <trkpt lat="47.2809" lon="4.94299">
        <ele>457</ele>
        <time>2015-04-19T08:02:14.230Z</time>
      </trkpt>
      <trkpt lat="47.28089" lon="4.94296">
        <ele>457</ele>
        <time>2015-04-19T08:02:15.228Z</time>
      </trkpt>
      <trkpt lat="47.28087" lon="4.94286">
        <ele>457</ele>
        <time>2015-04-19T08:02:19.233Z</time>
      </trkpt>
      <trkpt lat="47.28086" lon="4.94283">
        <ele>457</ele>
        <time>2015-04-19T08:02:20.247Z</time>
      </trkpt>
      <trkpt lat="47.28083" lon="4.94273">
        <ele>459</ele>
        <time>2015-04-19T08:02:24.222Z</time>
      </trkpt>
      <trkpt lat="47.28082" lon="4.9427">
        <ele>459</ele>
        <time>2015-04-19T08:02:25.229Z</time>
      </trkpt>
      <trkpt lat="47.28079" lon="4.94258">
        <ele>459</ele>
        <time>2015-04-19T08:02:29.242Z</time>
      </trkpt>
      <trkpt lat="47.28078" lon="4.94254">
        <ele>458</ele>
        <time>2015-04-19T08:02:30.220Z</time>
      </trkpt>
      <trkpt lat="47.28075" lon="4.94244">
        <ele>459</ele>
        <time>2015-04-19T08:02:33.221Z</time>
      </trkpt>
      <trkpt lat="47.28073" lon="4.94241">
        <ele>460</ele>
        <time>2015-04-19T08:02:34.220Z</time>
      </trkpt>
      <trkpt lat="47.28068" lon="4.94233">
        <ele>460</ele>
        <time>2015-04-19T08:02:39.217Z</time>
      </trkpt>
      <trkpt lat="47.28067" lon="4.94231">
        <ele>461</ele>
        <time>2015-04-19T08:02:40.226Z</time>
      </trkpt>
      <trkpt lat="47.28062" lon="4.94224">
        <ele>461</ele>
        <time>2015-04-19T08:02:43.221Z</time>
      </trkpt>
      <trkpt lat="47.2806" lon="4.94222">
        <ele>461</ele>
        <time>2015-04-19T08:02:44.240Z</time>
      </trkpt>
      <trkpt lat="47.28055" lon="4.94215">
        <ele>461</ele>
        <time>2015-04-19T08:02:47.236Z</time>
      </trkpt>
      <trkpt lat="47.28054" lon="4.94212">
        <ele>461</ele>
        <time>2015-04-19T08:02:48.222Z</time>
      </trkpt>
      <trkpt lat="47.28049" lon="4.94202">
        <ele>462</ele>
        <time>2015-04-19T08:02:51.219Z</time>
      </trkpt>
      <trkpt lat="47.28047" lon="4.94198">
        <ele>462</ele>
        <time>2015-04-19T08:02:52.226Z</time>
      </trkpt>
      <trkpt lat="47.28042" lon="4.94188">
        <ele>462</ele>
        <time>2015-04-19T08:02:54.246Z</time>
      </trkpt>
      <trkpt lat="47.28041" lon="4.94186">
        <ele>462</ele>
        <time>2015-04-19T08:02:55.244Z</time>
      </trkpt>
      <trkpt lat="47.28035" lon="4.94178">
        <ele>462</ele>
        <time>2015-04-19T08:02:59.249Z</time>
      </trkpt>
      <trkpt lat="47.28033" lon="4.94175">
        <ele>462</ele>
        <time>2015-04-19T08:03:00.310Z</time>
      </trkpt>
      <trkpt lat="47.28028" lon="4.94167">
        <ele>463</ele>
        <time>2015-04-19T08:03:03.223Z</time>
      </trkpt>
      <trkpt lat="47.28026" lon="4.94164">
        <ele>463</ele>
        <time>2015-04-19T08:03:04.228Z</time>
      </trkpt>
      <trkpt lat="47.28021" lon="4.94154">
        <ele>463</ele>
        <time>2015-04-19T08:03:08.213Z</time>
      </trkpt>
      <trkpt lat="47.2802" lon="4.94152">
        <ele>463</ele>
        <time>2015-04-19T08:03:09.223Z</time>
      </trkpt>
      <trkpt lat="47.28016" lon="4.94141">
        <ele>463</ele>
        <time>2015-04-19T08:03:11.268Z</time>
      </trkpt>
      <trkpt lat="47.28014" lon="4.94137">
        <ele>463</ele>
        <time>2015-04-19T08:03:12.222Z</time>
      </trkpt>
      <trkpt lat="47.28008" lon="4.94128">
        <ele>463</ele>
        <time>2015-04-19T08:03:15.274Z</time>
      </trkpt>
      <trkpt lat="47.28007" lon="4.94125">
        <ele>463</ele>
        <time>2015-04-19T08:03:16.237Z</time>
      </trkpt>
      <trkpt lat="47.28001" lon="4.94116">
        <ele>462</ele>
        <time>2015-04-19T08:03:21.234Z</time>
      </trkpt>
      <trkpt lat="47.28001" lon="4.94114">
        <ele>462</ele>
        <time>2015-04-19T08:03:22.220Z</time>
      </trkpt>
      <trkpt lat="47.27997" lon="4.94104">
        <ele>464</ele>
        <time>2015-04-19T08:03:26.211Z</time>
      </trkpt>
      <trkpt lat="47.27996" lon="4.94102">
        <ele>464</ele>
        <time>2015-04-19T08:03:27.240Z</time>
      </trkpt>
      <trkpt lat="47.27989" lon="4.94093">
        <ele>464</ele>
        <time>2015-04-19T08:03:32.236Z</time>
      </trkpt>
      <trkpt lat="47.27988" lon="4.94091">
        <ele>464</ele>
        <time>2015-04-19T08:03:33.220Z</time>
      </trkpt>
      <trkpt lat="47.27981" lon="4.94083">
        <ele>464</ele>
        <time>2015-04-19T08:03:39.227Z</time>
      </trkpt>
      <trkpt lat="47.2798" lon="4.94083">
        <ele>464</ele>
        <time>2015-04-19T08:03:40.222Z</time>
      </trkpt>
      <trkpt lat="47.27973" lon="4.94076">
        <ele>465</ele>
        <time>2015-04-19T08:03:46.240Z</time>
      </trkpt>
      <trkpt lat="47.27972" lon="4.94075">
        <ele>465</ele>
        <time>2015-04-19T08:03:47.229Z</time>
      </trkpt>
      <trkpt lat="47.27966" lon="4.94067">
        <ele>466</ele>
        <time>2015-04-19T08:03:53.230Z</time>
      </trkpt>
      <trkpt lat="47.27965" lon="4.94065">
        <ele>466</ele>
        <time>2015-04-19T08:03:54.216Z</time>
      </trkpt>
      <trkpt lat="47.27961" lon="4.94058">
        <ele>466</ele>
        <time>2015-04-19T08:03:58.237Z</time>
      </trkpt>
      <trkpt lat="47.27959" lon="4.94055">
        <ele>466</ele>
        <time>2015-04-19T08:03:59.229Z</time>
      </trkpt>
      <trkpt lat="47.27954" lon="4.94044">
        <ele>466</ele>
        <time>2015-04-19T08:04:05.200Z</time>
      </trkpt>
      <trkpt lat="47.27954" lon="4.94043">
        <ele>466</ele>
        <time>2015-04-19T08:04:06.200Z</time>
      </trkpt>
      <trkpt lat="47.27948" lon="4.94036">
        <ele>467</ele>
        <time>2015-04-19T08:04:11.228Z</time>
      </trkpt>
      <trkpt lat="47.27947" lon="4.94034">
        <ele>467</ele>
        <time>2015-04-19T08:04:12.220Z</time>
      </trkpt>
      <trkpt lat="47.27941" lon="4.94026">
        <ele>467</ele>
        <time>2015-04-19T08:04:16.231Z</time>
      </trkpt>
      <trkpt lat="47.2794" lon="4.94023">
        <ele>467</ele>
        <time>2015-04-19T08:04:17.228Z</time>
      </trkpt>
      <trkpt lat="47.27935" lon="4.94014">
        <ele>467</ele>
        <time>2015-04-19T08:04:20.227Z</time>
      </trkpt>
      <trkpt lat="47.27934" lon="4.94011">
        <ele>468</ele>
        <time>2015-04-19T08:04:21.221Z</time>
      </trkpt>
      <trkpt lat="47.27929" lon="4.93999">
        <ele>469</ele>
        <time>2015-04-19T08:04:24.211Z</time>
      </trkpt>
      <trkpt lat="47.27928" lon="4.93997">
        <ele>469</ele>
        <time>2015-04-19T08:04:25.241Z</time>
      </trkpt>
      <trkpt lat="47.27923" lon="4.93989">
        <ele>469</ele>
        <time>2015-04-19T08:04:30.227Z</time>
      </trkpt>
      <trkpt lat="47.27921" lon="4.93988">
        <ele>469</ele>
        <time>2015-04-19T08:04:31.240Z</time>
      </trkpt>
      <trkpt lat="47.27915" lon="4.93981">
        <ele>471</ele>
        <time>2015-04-19T08:04:38.241Z</time>
      </trkpt>
      <trkpt lat="47.27914" lon="4.9398">
        <ele>471</ele>
        <time>2015-04-19T08:04:39.218Z</time>
      </trkpt>
      <trkpt lat="47.27906" lon="4.93974">
        <ele>471</ele>
        <time>2015-04-19T08:04:45.231Z</time>
      </trkpt>
      <trkpt lat="47.27905" lon="4.93973">
        <ele>471</ele>
        <time>2015-04-19T08:04:46.209Z</time>
      </trkpt>
      <trkpt lat="47.27898" lon="4.93966">
        <ele>471</ele>
        <time>2015-04-19T08:04:51.200Z</time>
      </trkpt>
      <trkpt lat="47.27896" lon="4.93965">
        <ele>471</ele>
        <time>2015-04-19T08:04:52.207Z</time>
      </trkpt>
      <trkpt lat="47.27889" lon="4.93958">
        <ele>472</ele>
        <time>2015-04-19T08:04:59.234Z</time>
      </trkpt>
      <trkpt lat="47.27888" lon="4.93956">
        <ele>472</ele>
        <time>2015-04-19T08:05:00.208Z</time>
      </trkpt>
      <trkpt lat="47.27882" lon="4.93949">
        <ele>472</ele>
        <time>2015-04-19T08:05:05.230Z</time>
      </trkpt>
      <trkpt lat="47.2788" lon="4.93947">
        <ele>472</ele>
        <time>2015-04-19T08:05:06.224Z</time>
      </trkpt>
      <trkpt lat="47.27875" lon="4.93943">
        <ele>472</ele>
        <time>2015-04-19T08:05:10.214Z</time>
      </trkpt>
      <trkpt lat="47.27873" lon="4.93938">
        <ele>472</ele>
        <time>2015-04-19T08:05:11.207Z</time>
      </trkpt>
      <trkpt lat="47.27868" lon="4.93927">
        <ele>472</ele>
        <time>2015-04-19T08:05:16.225Z</time>
      </trkpt>
      <trkpt lat="47.27868" lon="4.93925">
        <ele>472</ele>
        <time>2015-04-19T08:05:17.242Z</time>
      </trkpt>
      <trkpt lat="47.27859" lon="4.93922">
        <ele>472</ele>
        <time>2015-04-19T08:05:24.238Z</time>
      </trkpt>
      <trkpt lat="47.27858" lon="4.93922">
        <ele>472</ele>
        <time>2015-04-19T08:05:25.242Z</time>
      </trkpt>
      <trkpt lat="47.2785" lon="4.93917">
        <ele>473</ele>
        <time>2015-04-19T08:05:32.250Z</time>
      </trkpt>
      <trkpt lat="47.2785" lon="4.93914">
        <ele>473</ele>
        <time>2015-04-19T08:05:33.219Z</time>
      </trkpt>
      <trkpt lat="47.27846" lon="4.93905">
        <ele>473</ele>
        <time>2015-04-19T08:05:38.241Z</time>
      </trkpt>
      <trkpt lat="47.27845" lon="4.93903">
        <ele>473</ele>
        <time>2015-04-19T08:05:39.231Z</time>
      </trkpt>
      <trkpt lat="47.27841" lon="4.93891">
        <ele>473</ele>
        <time>2015-04-19T08:05:45.218Z</time>
      </trkpt>
      <trkpt lat="47.27841" lon="4.93889">
        <ele>473</ele>
        <time>2015-04-19T08:05:46.252Z</time>
      </trkpt>
      <trkpt lat="47.27833" lon="4.93883">
        <ele>476</ele>
        <time>2015-04-19T08:05:52.262Z</time>
      </trkpt>
      <trkpt lat="47.27832" lon="4.93882">
        <ele>476</ele>
        <time>2015-04-19T08:05:53.243Z</time>
      </trkpt>
      <trkpt lat="47.27825" lon="4.93879">
        <ele>477</ele>
        <time>2015-04-19T08:05:59.249Z</time>
      </trkpt>
      <trkpt lat="47.27823" lon="4.93877">
        <ele>477</ele>
        <time>2015-04-19T08:06:00.233Z</time>
      </trkpt>
      <trkpt lat="47.27817" lon="4.9387">
        <ele>477</ele>
        <time>2015-04-19T08:06:05.228Z</time>
      </trkpt>
      <trkpt lat="47.27816" lon="4.93869">
        <ele>477</ele>
        <time>2015-04-19T08:06:06.228Z</time>
      </trkpt>
      <trkpt lat="47.27807" lon="4.93866">
        <ele>478</ele>
        <time>2015-04-19T08:06:13.200Z</time>
      </trkpt>
      <trkpt lat="47.27806" lon="4.93865">
        <ele>478</ele>
        <time>2015-04-19T08:06:14.240Z</time>
      </trkpt>
      <trkpt lat="47.27798" lon="4.9386">
        <ele>478</ele>
        <time>2015-04-19T08:06:20.246Z</time>
      </trkpt>
      <trkpt lat="47.27796" lon="4.9386">
        <ele>478</ele>
        <time>2015-04-19T08:06:21.232Z</time>
      </trkpt>
      <trkpt lat="47.27789" lon="4.93855">
        <ele>479</ele>
        <time>2015-04-19T08:06:27.255Z</time>
      </trkpt>
      <trkpt lat="47.27788" lon="4.93854">
        <ele>479</ele>
        <time>2015-04-19T08:06:28.242Z</time>
      </trkpt>
      <trkpt lat="47.27781" lon="4.93849">
        <ele>480</ele>
        <time>2015-04-19T08:06:33.234Z</time>
      </trkpt>
      <trkpt lat="47.27779" lon="4.93848">
        <ele>480</ele>
        <time>2015-04-19T08:06:34.236Z</time>
      </trkpt>
      <trkpt lat="47.27771" lon="4.93843">
        <ele>481</ele>
        <time>2015-04-19T08:06:39.224Z</time>
      </trkpt>
      <trkpt lat="47.27769" lon="4.93842">
        <ele>481</ele>
        <time>2015-04-19T08:06:40.223Z</time>
      </trkpt>
      <trkpt lat="47.27761" lon="4.93836">
        <ele>482</ele>
        <time>2015-04-19T08:06:45.238Z</time>
      </trkpt>
      <trkpt lat="47.2776" lon="4.93835">
        <ele>482</ele>
        <time>2015-04-19T08:06:46.237Z</time>
      </trkpt>
      <trkpt lat="47.27752" lon="4.9383">
        <ele>483</ele>
        <time>2015-04-19T08:06:53.238Z</time>
      </trkpt>
      <trkpt lat="47.27751" lon="4.93829">
        <ele>483</ele>
        <time>2015-04-19T08:06:54.237Z</time>
      </trkpt>
      <trkpt lat="47.27742" lon="4.93827">
        <ele>486</ele>
        <time>2015-04-19T08:07:02.234Z</time>
      </trkpt>
      <trkpt lat="47.27741" lon="4.93826">
        <ele>486</ele>
        <time>2015-04-19T08:07:03.224Z</time>
      </trkpt>
      <trkpt lat="47.27734" lon="4.93822">
        <ele>487</ele>
        <time>2015-04-19T08:07:10.232Z</time>
      </trkpt>
      <trkpt lat="47.27732" lon="4.93822">
        <ele>487</ele>
        <time>2015-04-19T08:07:11.225Z</time>
      </trkpt>
      <trkpt lat="47.27725" lon="4.9382">
        <ele>488</ele>
        <time>2015-04-19T08:07:16.235Z</time>
      </trkpt>
      <trkpt lat="47.27723" lon="4.9382">
        <ele>488</ele>
        <time>2015-04-19T08:07:17.222Z</time>
      </trkpt>
      <trkpt lat="47.27716" lon="4.93819">
        <ele>489</ele>
        <time>2015-04-19T08:07:21.233Z</time>
      </trkpt>
      <trkpt lat="47.27714" lon="4.93819">
        <ele>489</ele>
        <time>2015-04-19T08:07:22.222Z</time>
      </trkpt>
      <trkpt lat="47.27706" lon="4.93818">
        <ele>489</ele>
        <time>2015-04-19T08:07:27.235Z</time>
      </trkpt>
      <trkpt lat="47.27705" lon="4.93818">
        <ele>490</ele>
        <time>2015-04-19T08:07:28.215Z</time>
      </trkpt>
      <trkpt lat="47.27696" lon="4.93819">
        <ele>490</ele>
        <time>2015-04-19T08:07:35.223Z</time>
      </trkpt>
      <trkpt lat="47.27694" lon="4.93818">
        <ele>491</ele>
        <time>2015-04-19T08:07:36.203Z</time>
      </trkpt>
      <trkpt lat="47.27686" lon="4.93817">
        <ele>491</ele>
        <time>2015-04-19T08:07:40.223Z</time>
      </trkpt>
      <trkpt lat="47.27684" lon="4.93817">
        <ele>491</ele>
        <time>2015-04-19T08:07:41.222Z</time>
      </trkpt>
      <trkpt lat="47.27676" lon="4.93817">
        <ele>492</ele>
        <time>2015-04-19T08:07:46.256Z</time>
      </trkpt>
      <trkpt lat="47.27675" lon="4.93816">
        <ele>492</ele>
        <time>2015-04-19T08:07:47.235Z</time>
      </trkpt>
      <trkpt lat="47.27666" lon="4.93813">
        <ele>497</ele>
        <time>2015-04-19T08:07:54.208Z</time>
      </trkpt>
      <trkpt lat="47.27665" lon="4.93813">
        <ele>497</ele>
        <time>2015-04-19T08:07:55.220Z</time>
      </trkpt>
      <trkpt lat="47.27656" lon="4.9381">
        <ele>497</ele>
        <time>2015-04-19T08:08:01.228Z</time>
      </trkpt>
      <trkpt lat="47.27654" lon="4.9381">
        <ele>497</ele>
        <time>2015-04-19T08:08:02.253Z</time>
      </trkpt>
      <trkpt lat="47.27647" lon="4.93808">
        <ele>498</ele>
        <time>2015-04-19T08:08:06.228Z</time>
      </trkpt>
      <trkpt lat="47.27645" lon="4.93808">
        <ele>498</ele>
        <time>2015-04-19T08:08:07.233Z</time>
      </trkpt>
      <trkpt lat="47.27638" lon="4.93804">
        <ele>498</ele>
        <time>2015-04-19T08:08:11.206Z</time>
      </trkpt>
      <trkpt lat="47.27636" lon="4.93804">
        <ele>498</ele>
        <time>2015-04-19T08:08:12.209Z</time>
      </trkpt>
      <trkpt lat="47.27628" lon="4.93802">
        <ele>499</ele>
        <time>2015-04-19T08:08:17.218Z</time>
      </trkpt>
      <trkpt lat="47.27626" lon="4.938">
        <ele>499</ele>
        <time>2015-04-19T08:08:18.241Z</time>
      </trkpt>
      <trkpt lat="47.27619" lon="4.93797">
        <ele>499</ele>
        <time>2015-04-19T08:08:23.234Z</time>
      </trkpt>
      <trkpt lat="47.27617" lon="4.93797">
        <ele>499</ele>
        <time>2015-04-19T08:08:24.242Z</time>
      </trkpt>
      <trkpt lat="47.27608" lon="4.93796">
        <ele>499</ele>
        <time>2015-04-19T08:08:30.221Z</time>
      </trkpt>
      <trkpt lat="47.27607" lon="4.93796">
        <ele>499</ele>
        <time>2015-04-19T08:08:31.225Z</time>
      </trkpt>
      <trkpt lat="47.27598" lon="4.93795">
        <ele>500</ele>
        <time>2015-04-19T08:08:37.212Z</time>
      </trkpt>
      <trkpt lat="47.27597" lon="4.93795">
        <ele>500</ele>
        <time>2015-04-19T08:08:38.234Z</time>
      </trkpt>
      <trkpt lat="47.27588" lon="4.93796">
        <ele>500</ele>
        <time>2015-04-19T08:08:44.242Z</time>
      </trkpt>
      <trkpt lat="47.27587" lon="4.93795">
        <ele>500</ele>
        <time>2015-04-19T08:08:45.235Z</time>
      </trkpt>
      <trkpt lat="47.27579" lon="4.93798">
        <ele>504</ele>
        <time>2015-04-19T08:08:50.246Z</time>
      </trkpt>
      <trkpt lat="47.27577" lon="4.93798">
        <ele>504</ele>
        <time>2015-04-19T08:08:51.254Z</time>
      </trkpt>
      <trkpt lat="47.27569" lon="4.93799">
        <ele>504</ele>
        <time>2015-04-19T08:08:57.236Z</time>
      </trkpt>
      <trkpt lat="47.27568" lon="4.93799">
        <ele>504</ele>
        <time>2015-04-19T08:08:58.223Z</time>
      </trkpt>
      <trkpt lat="47.2756" lon="4.93799">
        <ele>504</ele>
        <time>2015-04-19T08:09:05.202Z</time>
      </trkpt>
      <trkpt lat="47.27559" lon="4.93799">
        <ele>504</ele>
        <time>2015-04-19T08:09:06.214Z</time>
      </trkpt>
      <trkpt lat="47.27551" lon="4.93802">
        <ele>504</ele>
        <time>2015-04-19T08:09:12.203Z</time>
      </trkpt>
      <trkpt lat="47.27549" lon="4.93803">
        <ele>504</ele>
        <time>2015-04-19T08:09:13.218Z</time>
      </trkpt>
      <trkpt lat="47.27541" lon="4.93803">
        <ele>505</ele>
        <time>2015-04-19T08:09:20.239Z</time>
      </trkpt>
      <trkpt lat="47.2754" lon="4.93803">
        <ele>505</ele>
        <time>2015-04-19T08:09:21.223Z</time>
      </trkpt>
      <trkpt lat="47.27532" lon="4.93801">
        <ele>505</ele>
        <time>2015-04-19T08:09:27.235Z</time>
      </trkpt>
      <trkpt lat="47.27531" lon="4.93801">
        <ele>505</ele>
        <time>2015-04-19T08:09:28.200Z</time>
      </trkpt>
      <trkpt lat="47.27524" lon="4.93794">
        <ele>505</ele>
        <time>2015-04-19T08:09:35.210Z</time>
      </trkpt>
      <trkpt lat="47.27523" lon="4.93793">
        <ele>505</ele>
        <time>2015-04-19T08:09:36.218Z</time>
      </trkpt>
      <trkpt lat="47.27515" lon="4.9379">
        <ele>505</ele>
        <time>2015-04-19T08:09:42.216Z</time>
      </trkpt>
      <trkpt lat="47.27513" lon="4.9379">
        <ele>505</ele>
        <time>2015-04-19T08:09:43.232Z</time>
      </trkpt>
      <trkpt lat="47.27504" lon="4.93789">
        <ele>505</ele>
        <time>2015-04-19T08:09:48.216Z</time>
      </trkpt>
      <trkpt lat="47.27502" lon="4.93789">
        <ele>505</ele>
        <time>2015-04-19T08:09:49.254Z</time>
      </trkpt>
      <trkpt lat="47.27495" lon="4.93787">
        <ele>507</ele>
        <time>2015-04-19T08:09:53.239Z</time>
      </trkpt>
      <trkpt lat="47.27493" lon="4.93786">
        <ele>507</ele>
        <time>2015-04-19T08:09:54.248Z</time>
      </trkpt>
      <trkpt lat="47.27485" lon="4.93784">
        <ele>507</ele>
        <time>2015-04-19T08:09:58.239Z</time>
      </trkpt>
      <trkpt lat="47.27483" lon="4.93783">
        <ele>507</ele>
        <time>2015-04-19T08:09:59.239Z</time>
      </trkpt>
      <trkpt lat="47.27476" lon="4.93781">
        <ele>507</ele>
        <time>2015-04-19T08:10:03.238Z</time>
      </trkpt>
      <trkpt lat="47.27474" lon="4.93781">
        <ele>507</ele>
        <time>2015-04-19T08:10:04.214Z</time>
      </trkpt>
      <trkpt lat="47.27466" lon="4.93779">
        <ele>507</ele>
        <time>2015-04-19T08:10:08.221Z</time>
      </trkpt>
      <trkpt lat="47.27464" lon="4.93778">
        <ele>507</ele>
        <time>2015-04-19T08:10:09.232Z</time>
      </trkpt>
      <trkpt lat="47.27457" lon="4.93777">
        <ele>507</ele>
        <time>2015-04-19T08:10:13.214Z</time>
      </trkpt>
      <trkpt lat="47.27455" lon="4.93777">
        <ele>507</ele>
        <time>2015-04-19T08:10:14.236Z</time>
      </trkpt>
      <trkpt lat="47.27448" lon="4.93775">
        <ele>507</ele>
        <time>2015-04-19T08:10:18.228Z</time>
      </trkpt>
      <trkpt lat="47.27446" lon="4.93775">
        <ele>507</ele>
        <time>2015-04-19T08:10:19.245Z</time>
      </trkpt>
      <trkpt lat="47.27439" lon="4.9377">
        <ele>507</ele>
        <time>2015-04-19T08:10:23.219Z</time>
      </trkpt>
      <trkpt lat="47.27437" lon="4.93769">
        <ele>507</ele>
        <time>2015-04-19T08:10:24.240Z</time>
      </trkpt>
      <trkpt lat="47.2743" lon="4.93767">
        <ele>507</ele>
        <time>2015-04-19T08:10:28.222Z</time>
      </trkpt>
      <trkpt lat="47.27428" lon="4.93766">
        <ele>507</ele>
        <time>2015-04-19T08:10:29.233Z</time>
      </trkpt>
      <trkpt lat="47.2742" lon="4.93764">
        <ele>507</ele>
        <time>2015-04-19T08:10:33.238Z</time>
      </trkpt>
      <trkpt lat="47.27418" lon="4.93763">
        <ele>507</ele>
        <time>2015-04-19T08:10:34.237Z</time>
      </trkpt>
      <trkpt lat="47.27409" lon="4.93762">
        <ele>508</ele>
        <time>2015-04-19T08:10:39.234Z</time>
      </trkpt>
      <trkpt lat="47.27408" lon="4.93761">
        <ele>508</ele>
        <time>2015-04-19T08:10:40.250Z</time>
      </trkpt>
      <trkpt lat="47.27399" lon="4.93758">
        <ele>508</ele>
        <time>2015-04-19T08:10:45.257Z</time>
      </trkpt>
      <trkpt lat="47.27397" lon="4.93758">
        <ele>508</ele>
        <time>2015-04-19T08:10:46.228Z</time>
      </trkpt>
      <trkpt lat="47.2739" lon="4.93756">
        <ele>508</ele>
        <time>2015-04-19T08:10:50.248Z</time>
      </trkpt>
      <trkpt lat="47.27388" lon="4.93755">
        <ele>508</ele>
        <time>2015-04-19T08:10:51.243Z</time>
      </trkpt>
      <trkpt lat="47.27381" lon="4.93753">
        <ele>509</ele>
        <time>2015-04-19T08:10:55.228Z</time>
      </trkpt>
      <trkpt lat="47.27379" lon="4.93753">
        <ele>509</ele>
        <time>2015-04-19T08:10:56.246Z</time>
      </trkpt>
      <trkpt lat="47.27371" lon="4.93749">
        <ele>509</ele>
        <time>2015-04-19T08:11:01.237Z</time>
      </trkpt>
      <trkpt lat="47.27369" lon="4.93748">
        <ele>510</ele>
        <time>2015-04-19T08:11:02.246Z</time>
      </trkpt>
      <trkpt lat="47.27362" lon="4.93746">
        <ele>510</ele>
        <time>2015-04-19T08:11:06.227Z</time>
      </trkpt>
      <trkpt lat="47.2736" lon="4.93746">
        <ele>510</ele>
        <time>2015-04-19T08:11:07.231Z</time>
      </trkpt>
      <trkpt lat="47.27352" lon="4.93745">
        <ele>510</ele>
        <time>2015-04-19T08:11:11.231Z</time>
      </trkpt>
      <trkpt lat="47.2735" lon="4.93745">
        <ele>510</ele>
        <time>2015-04-19T08:11:12.232Z</time>
      </trkpt>
      <trkpt lat="47.27342" lon="4.93744">
        <ele>510</ele>
        <time>2015-04-19T08:11:16.224Z</time>
      </trkpt>
      <trkpt lat="47.2734" lon="4.93744">
        <ele>511</ele>
        <time>2015-04-19T08:11:17.247Z</time>
      </trkpt>
      <trkpt lat="47.27332" lon="4.93741">
        <ele>511</ele>
        <time>2015-04-19T08:11:21.232Z</time>
      </trkpt>
      <trkpt lat="47.2733" lon="4.93741">
        <ele>511</ele>
        <time>2015-04-19T08:11:22.242Z</time>
      </trkpt>
      <trkpt lat="47.27322" lon="4.93738">
        <ele>512</ele>
        <time>2015-04-19T08:11:26.256Z</time>
      </trkpt>
      <trkpt lat="47.2732" lon="4.93738">
        <ele>512</ele>
        <time>2015-04-19T08:11:27.223Z</time>
      </trkpt>
      <trkpt lat="47.27312" lon="4.93737">
        <ele>512</ele>
        <time>2015-04-19T08:11:31.215Z</time>
      </trkpt>
      <trkpt lat="47.2731" lon="4.93737">
        <ele>512</ele>
        <time>2015-04-19T08:11:32.283Z</time>
      </trkpt>
      <trkpt lat="47.27302" lon="4.93736">
        <ele>512</ele>
        <time>2015-04-19T08:11:36.224Z</time>
      </trkpt>
      <trkpt lat="47.273" lon="4.93736">
        <ele>512</ele>
        <time>2015-04-19T08:11:37.257Z</time>
      </trkpt>
      <trkpt lat="47.27292" lon="4.93741">
        <ele>512</ele>
        <time>2015-04-19T08:11:42.248Z</time>
      </trkpt>
      <trkpt lat="47.2729" lon="4.93743">
        <ele>512</ele>
        <time>2015-04-19T08:11:43.239Z</time>
      </trkpt>
      <trkpt lat="47.27284" lon="4.93752">
        <ele>512</ele>
        <time>2015-04-19T08:11:47.238Z</time>
      </trkpt>
      <trkpt lat="47.27283" lon="4.93755">
        <ele>512</ele>
        <time>2015-04-19T08:11:48.257Z</time>
      </trkpt>
      <trkpt lat="47.27279" lon="4.93765">
        <ele>512</ele>
        <time>2015-04-19T08:11:52.226Z</time>
      </trkpt>
      <trkpt lat="47.27278" lon="4.93768">
        <ele>512</ele>
        <time>2015-04-19T08:11:53.254Z</time>
      </trkpt>
      <trkpt lat="47.27274" lon="4.93777">
        <ele>511</ele>
        <time>2015-04-19T08:11:57.241Z</time>
      </trkpt>
      <trkpt lat="47.27272" lon="4.9378">
        <ele>511</ele>
        <time>2015-04-19T08:11:58.261Z</time>
      </trkpt>
      <trkpt lat="47.27267" lon="4.9379">
        <ele>511</ele>
        <time>2015-04-19T08:12:02.236Z</time>
      </trkpt>
      <trkpt lat="47.27266" lon="4.93792">
        <ele>511</ele>
        <time>2015-04-19T08:12:03.245Z</time>
      </trkpt>
      <trkpt lat="47.27261" lon="4.938">
        <ele>511</ele>
        <time>2015-04-19T08:12:07.228Z</time>
      </trkpt>
      <trkpt lat="47.2726" lon="4.93803">
        <ele>511</ele>
        <time>2015-04-19T08:12:08.248Z</time>
      </trkpt>
      <trkpt lat="47.27255" lon="4.93812">
        <ele>511</ele>
        <time>2015-04-19T08:12:12.239Z</time>
      </trkpt>
      <trkpt lat="47.27254" lon="4.93815">
        <ele>511</ele>
        <time>2015-04-19T08:12:13.244Z</time>
      </trkpt>
      <trkpt lat="47.27249" lon="4.93823">
        <ele>511</ele>
        <time>2015-04-19T08:12:17.251Z</time>
      </trkpt>
      <trkpt lat="47.27247" lon="4.93826">
        <ele>511</ele>
        <time>2015-04-19T08:12:18.237Z</time>
      </trkpt>
      <trkpt lat="47.27242" lon="4.93835">
        <ele>510</ele>
        <time>2015-04-19T08:12:21.265Z</time>
      </trkpt>
      <trkpt lat="47.27241" lon="4.93837">
        <ele>510</ele>
        <time>2015-04-19T08:12:22.251Z</time>
      </trkpt>
      <trkpt lat="47.27235" lon="4.93847">
        <ele>510</ele>
        <time>2015-04-19T08:12:26.244Z</time>
      </trkpt>
      <trkpt lat="47.27234" lon="4.9385">
        <ele>509</ele>
        <time>2015-04-19T08:12:27.239Z</time>
      </trkpt>
      <trkpt lat="47.27229" lon="4.93859">
        <ele>509</ele>
        <time>2015-04-19T08:12:31.233Z</time>
      </trkpt>
      <trkpt lat="47.27227" lon="4.93861">
        <ele>509</ele>
        <time>2015-04-19T08:12:32.228Z</time>
      </trkpt>
      <trkpt lat="47.27222" lon="4.9387">
        <ele>509</ele>
        <time>2015-04-19T08:12:36.218Z</time>
      </trkpt>
      <trkpt lat="47.27221" lon="4.93872">
        <ele>509</ele>
        <time>2015-04-19T08:12:37.271Z</time>
      </trkpt>
      <trkpt lat="47.27217" lon="4.93881">
        <ele>508</ele>
        <time>2015-04-19T08:12:41.238Z</time>
      </trkpt>
      <trkpt lat="47.27216" lon="4.93883">
        <ele>508</ele>
        <time>2015-04-19T08:12:42.247Z</time>
      </trkpt>
      <trkpt lat="47.27211" lon="4.93892">
        <ele>508</ele>
        <time>2015-04-19T08:12:46.237Z</time>
      </trkpt>
      <trkpt lat="47.27209" lon="4.93895">
        <ele>508</ele>
        <time>2015-04-19T08:12:47.233Z</time>
      </trkpt>
      <trkpt lat="47.27204" lon="4.93902">
        <ele>508</ele>
        <time>2015-04-19T08:12:51.253Z</time>
      </trkpt>
      <trkpt lat="47.27202" lon="4.93904">
        <ele>508</ele>
        <time>2015-04-19T08:12:52.248Z</time>
      </trkpt>
      <trkpt lat="47.27194" lon="4.93908">
        <ele>508</ele>
        <time>2015-04-19T08:12:56.238Z</time>
      </trkpt>
      <trkpt lat="47.27192" lon="4.93908">
        <ele>508</ele>
        <time>2015-04-19T08:12:57.257Z</time>
      </trkpt>
      <trkpt lat="47.27184" lon="4.93907">
        <ele>507</ele>
        <time>2015-04-19T08:13:01.259Z</time>
      </trkpt>
      <trkpt lat="47.27183" lon="4.93906">
        <ele>507</ele>
        <time>2015-04-19T08:13:02.255Z</time>
      </trkpt>
      <trkpt lat="47.27174" lon="4.93902">
        <ele>507</ele>
        <time>2015-04-19T08:13:07.228Z</time>
      </trkpt>
      <trkpt lat="47.27173" lon="4.93901">
        <ele>507</ele>
        <time>2015-04-19T08:13:08.243Z</time>
      </trkpt>
      <trkpt lat="47.27166" lon="4.93895">
        <ele>507</ele>
        <time>2015-04-19T08:13:13.244Z</time>
      </trkpt>
      <trkpt lat="47.27165" lon="4.93895">
        <ele>507</ele>
        <time>2015-04-19T08:13:14.250Z</time>
      </trkpt>
      <trkpt lat="47.27157" lon="4.9389">
        <ele>508</ele>
        <time>2015-04-19T08:13:19.294Z</time>
      </trkpt>
      <trkpt lat="47.27155" lon="4.93889">
        <ele>508</ele>
        <time>2015-04-19T08:13:20.257Z</time>
      </trkpt>
      <trkpt lat="47.27147" lon="4.93886">
        <ele>508</ele>
        <time>2015-04-19T08:13:25.253Z</time>
      </trkpt>
      <trkpt lat="47.27145" lon="4.93885">
        <ele>508</ele>
        <time>2015-04-19T08:13:26.255Z</time>
      </trkpt>
      <trkpt lat="47.27137" lon="4.93881">
        <ele>508</ele>
        <time>2015-04-19T08:13:31.239Z</time>
      </trkpt>
      <trkpt lat="47.27136" lon="4.9388">
        <ele>508</ele>
        <time>2015-04-19T08:13:32.250Z</time>
      </trkpt>
      <trkpt lat="47.27128" lon="4.93875">
        <ele>508</ele>
        <time>2015-04-19T08:13:37.239Z</time>
      </trkpt>
      <trkpt lat="47.27126" lon="4.93875">
        <ele>508</ele>
        <time>2015-04-19T08:13:38.235Z</time>
      </trkpt>
      <trkpt lat="47.27119" lon="4.9387">
        <ele>508</ele>
        <time>2015-04-19T08:13:43.236Z</time>
      </trkpt>
      <trkpt lat="47.27117" lon="4.93869">
        <ele>508</ele>
        <time>2015-04-19T08:13:44.250Z</time>
      </trkpt>
      <trkpt lat="47.2711" lon="4.93865">
        <ele>509</ele>
        <time>2015-04-19T08:13:49.245Z</time>
      </trkpt>
      <trkpt lat="47.27108" lon="4.93864">
        <ele>509</ele>
        <time>2015-04-19T08:13:50.252Z</time>
      </trkpt>
      <trkpt lat="47.271" lon="4.93859">
        <ele>509</ele>
        <time>2015-04-19T08:13:55.247Z</time>
      </trkpt>
      <trkpt lat="47.27098" lon="4.93858">
        <ele>509</ele>
        <time>2015-04-19T08:13:56.236Z</time>
      </trkpt>
      <trkpt lat="47.27091" lon="4.93855">
        <ele>509</ele>
        <time>2015-04-19T08:14:01.234Z</time>
      </trkpt>
      <trkpt lat="47.27089" lon="4.93854">
        <ele>509</ele>
        <time>2015-04-19T08:14:02.249Z</time>
      </trkpt>
      <trkpt lat="47.27081" lon="4.93851">
        <ele>509</ele>
        <time>2015-04-19T08:14:07.248Z</time>
      </trkpt>
      <trkpt lat="47.27079" lon="4.9385">
        <ele>509</ele>
        <time>2015-04-19T08:14:08.242Z</time>
      </trkpt>
      <trkpt lat="47.27071" lon="4.93846">
        <ele>509</ele>
        <time>2015-04-19T08:14:13.236Z</time>
      </trkpt>
      <trkpt lat="47.27069" lon="4.93845">
        <ele>509</ele>
        <time>2015-04-19T08:14:14.228Z</time>
      </trkpt>
      <trkpt lat="47.27062" lon="4.93842">
        <ele>509</ele>
        <time>2015-04-19T08:14:18.231Z</time>
      </trkpt>
      <trkpt lat="47.27061" lon="4.93841">
        <ele>509</ele>
        <time>2015-04-19T08:14:19.248Z</time>
      </trkpt>
      <trkpt lat="47.27053" lon="4.93838">
        <ele>509</ele>
        <time>2015-04-19T08:14:23.249Z</time>
      </trkpt>
      <trkpt lat="47.27051" lon="4.93837">
        <ele>509</ele>
        <time>2015-04-19T08:14:24.251Z</time>
      </trkpt>
      <trkpt lat="47.27044" lon="4.93833">
        <ele>511</ele>
        <time>2015-04-19T08:14:28.250Z</time>
      </trkpt>
      <trkpt lat="47.27043" lon="4.93832">
        <ele>511</ele>
        <time>2015-04-19T08:14:29.253Z</time>
      </trkpt>
      <trkpt lat="47.27036" lon="4.93828">
        <ele>512</ele>
        <time>2015-04-19T08:14:33.243Z</time>
      </trkpt>
      <trkpt lat="47.27034" lon="4.93827">
        <ele>512</ele>
        <time>2015-04-19T08:14:34.242Z</time>
      </trkpt>
      <trkpt lat="47.27027" lon="4.93823">
        <ele>512</ele>
        <time>2015-04-19T08:14:38.248Z</time>
      </trkpt>
      <trkpt lat="47.27025" lon="4.93822">
        <ele>512</ele>
        <time>2015-04-19T08:14:39.243Z</time>
      </trkpt>
      <trkpt lat="47.27018" lon="4.93818">
        <ele>512</ele>
        <time>2015-04-19T08:14:43.234Z</time>
      </trkpt>
      <trkpt lat="47.27017" lon="4.93817">
        <ele>512</ele>
        <time>2015-04-19T08:14:44.248Z</time>
      </trkpt>
      <trkpt lat="47.2701" lon="4.93813">
        <ele>512</ele>
        <time>2015-04-19T08:14:48.256Z</time>
      </trkpt>
      <trkpt lat="47.27008" lon="4.93812">
        <ele>512</ele>
        <time>2015-04-19T08:14:49.248Z</time>
      </trkpt>
      <trkpt lat="47.27001" lon="4.93809">
        <ele>512</ele>
        <time>2015-04-19T08:14:53.250Z</time>
      </trkpt>
      <trkpt lat="47.26999" lon="4.93807">
        <ele>512</ele>
        <time>2015-04-19T08:14:54.236Z</time>
      </trkpt>
      <trkpt lat="47.26992" lon="4.93802">
        <ele>512</ele>
        <time>2015-04-19T08:14:58.235Z</time>
      </trkpt>
      <trkpt lat="47.26991" lon="4.93801">
        <ele>512</ele>
        <time>2015-04-19T08:14:59.249Z</time>
      </trkpt>
      <trkpt lat="47.26984" lon="4.93796">
        <ele>512</ele>
        <time>2015-04-19T08:15:03.240Z</time>
      </trkpt>
      <trkpt lat="47.26982" lon="4.93795">
        <ele>512</ele>
        <time>2015-04-19T08:15:04.244Z</time>
      </trkpt>
      <trkpt lat="47.26975" lon="4.93791">
        <ele>513</ele>
        <time>2015-04-19T08:15:08.218Z</time>
      </trkpt>
      <trkpt lat="47.26973" lon="4.9379">
        <ele>513</ele>
        <time>2015-04-19T08:15:09.227Z</time>
      </trkpt>
      <trkpt lat="47.26966" lon="4.93786">
        <ele>513</ele>
        <time>2015-04-19T08:15:12.755Z</time>
      </trkpt>
      <trkpt lat="47.26964" lon="4.93785">
        <ele>513</ele>
        <time>2015-04-19T08:15:13.778Z</time>
      </trkpt>
      <trkpt lat="47.26956" lon="4.93781">
        <ele>513</ele>
        <time>2015-04-19T08:15:17.794Z</time>
      </trkpt>
      <trkpt lat="47.26954" lon="4.9378">
        <ele>513</ele>
        <time>2015-04-19T08:15:18.794Z</time>
      </trkpt>
      <trkpt lat="47.26947" lon="4.93777">
        <ele>513</ele>
        <time>2015-04-19T08:15:22.798Z</time>
      </trkpt>
      <trkpt lat="47.26945" lon="4.93777">
        <ele>513</ele>
        <time>2015-04-19T08:15:23.800Z</time>
      </trkpt>
      <trkpt lat="47.26937" lon="4.93774">
        <ele>513</ele>
        <time>2015-04-19T08:15:27.795Z</time>
      </trkpt>
      <trkpt lat="47.26935" lon="4.93774">
        <ele>513</ele>
        <time>2015-04-19T08:15:28.796Z</time>
      </trkpt>
      <trkpt lat="47.26927" lon="4.93771">
        <ele>513</ele>
        <time>2015-04-19T08:15:32.784Z</time>
      </trkpt>
      <trkpt lat="47.26924" lon="4.93771">
        <ele>513</ele>
        <time>2015-04-19T08:15:33.813Z</time>
      </trkpt>
      <trkpt lat="47.26916" lon="4.93769">
        <ele>513</ele>
        <time>2015-04-19T08:15:37.806Z</time>
      </trkpt>
      <trkpt lat="47.26914" lon="4.93769">
        <ele>513</ele>
        <time>2015-04-19T08:15:38.779Z</time>
      </trkpt>
      <trkpt lat="47.26906" lon="4.93767">
        <ele>513</ele>
        <time>2015-04-19T08:15:42.787Z</time>
      </trkpt>
      <trkpt lat="47.26903" lon="4.93766">
        <ele>513</ele>
        <time>2015-04-19T08:15:43.793Z</time>
      </trkpt>
      <trkpt lat="47.26896" lon="4.93763">
        <ele>513</ele>
        <time>2015-04-19T08:15:47.798Z</time>
      </trkpt>
      <trkpt lat="47.26894" lon="4.93762">
        <ele>513</ele>
        <time>2015-04-19T08:15:48.792Z</time>
      </trkpt>
      <trkpt lat="47.26886" lon="4.93758">
        <ele>513</ele>
        <time>2015-04-19T08:15:52.758Z</time>
      </trkpt>
      <trkpt lat="47.26884" lon="4.93756">
        <ele>513</ele>
        <time>2015-04-19T08:15:53.800Z</time>
      </trkpt>
      <trkpt lat="47.26876" lon="4.93752">
        <ele>513</ele>
        <time>2015-04-19T08:15:57.795Z</time>
      </trkpt>
      <trkpt lat="47.26874" lon="4.9375">
        <ele>513</ele>
        <time>2015-04-19T08:15:58.795Z</time>
      </trkpt>
      <trkpt lat="47.26867" lon="4.93745">
        <ele>514</ele>
        <time>2015-04-19T08:16:02.817Z</time>
      </trkpt>
      <trkpt lat="47.26865" lon="4.93743">
        <ele>514</ele>
        <time>2015-04-19T08:16:03.810Z</time>
      </trkpt>
      <trkpt lat="47.26858" lon="4.93737">
        <ele>514</ele>
        <time>2015-04-19T08:16:07.826Z</time>
      </trkpt>
      <trkpt lat="47.26856" lon="4.93735">
        <ele>514</ele>
        <time>2015-04-19T08:16:08.834Z</time>
      </trkpt>
      <trkpt lat="47.2685" lon="4.93728">
        <ele>514</ele>
        <time>2015-04-19T08:16:12.810Z</time>
      </trkpt>
      <trkpt lat="47.26848" lon="4.93726">
        <ele>514</ele>
        <time>2015-04-19T08:16:13.820Z</time>
      </trkpt>
      <trkpt lat="47.26843" lon="4.93718">
        <ele>514</ele>
        <time>2015-04-19T08:16:17.798Z</time>
      </trkpt>
      <trkpt lat="47.26841" lon="4.93716">
        <ele>514</ele>
        <time>2015-04-19T08:16:18.833Z</time>
      </trkpt>
      <trkpt lat="47.26835" lon="4.93709">
        <ele>514</ele>
        <time>2015-04-19T08:16:22.819Z</time>
      </trkpt>
      <trkpt lat="47.26833" lon="4.93707">
        <ele>513</ele>
        <time>2015-04-19T08:16:23.833Z</time>
      </trkpt>
      <trkpt lat="47.26827" lon="4.93699">
        <ele>513</ele>
        <time>2015-04-19T08:16:27.829Z</time>
      </trkpt>
      <trkpt lat="47.26825" lon="4.93697">
        <ele>513</ele>
        <time>2015-04-19T08:16:28.793Z</time>
      </trkpt>
      <trkpt lat="47.26818" lon="4.9369">
        <ele>513</ele>
        <time>2015-04-19T08:16:32.806Z</time>
      </trkpt>
      <trkpt lat="47.26817" lon="4.93688">
        <ele>513</ele>
        <time>2015-04-19T08:16:33.824Z</time>
      </trkpt>
      <trkpt lat="47.26811" lon="4.9368">
        <ele>513</ele>
        <time>2015-04-19T08:16:37.827Z</time>
      </trkpt>
      <trkpt lat="47.26809" lon="4.93678">
        <ele>513</ele>
        <time>2015-04-19T08:16:38.825Z</time>
      </trkpt>
      <trkpt lat="47.26802" lon="4.93672">
        <ele>513</ele>
        <time>2015-04-19T08:16:42.816Z</time>
      </trkpt>
      <trkpt lat="47.268" lon="4.9367">
        <ele>513</ele>
        <time>2015-04-19T08:16:43.811Z</time>
      </trkpt>
      <trkpt lat="47.26793" lon="4.93663">
        <ele>515</ele>
        <time>2015-04-19T08:16:47.827Z</time>
      </trkpt>
      <trkpt lat="47.26792" lon="4.93662">
        <ele>515</ele>
        <time>2015-04-19T08:16:48.834Z</time>
      </trkpt>
      <trkpt lat="47.26785" lon="4.93655">
        <ele>515</ele>
        <time>2015-04-19T08:16:52.817Z</time>
      </trkpt>
      <trkpt lat="47.26784" lon="4.93653">
        <ele>515</ele>
        <time>2015-04-19T08:16:53.815Z</time>
      </trkpt>
      <trkpt lat="47.26777" lon="4.93647">
        <ele>515</ele>
        <time>2015-04-19T08:16:57.835Z</time>
      </trkpt>
      <trkpt lat="47.26775" lon="4.93645">
        <ele>515</ele>
        <time>2015-04-19T08:16:58.808Z</time>
      </trkpt>
      <trkpt lat="47.26768" lon="4.93638">
        <ele>515</ele>
        <time>2015-04-19T08:17:02.806Z</time>
      </trkpt>
      <trkpt lat="47.26767" lon="4.93635">
        <ele>515</ele>
        <time>2015-04-19T08:17:03.816Z</time>
      </trkpt>
      <trkpt lat="47.2676" lon="4.93629">
        <ele>516</ele>
        <time>2015-04-19T08:17:07.817Z</time>
      </trkpt>
      <trkpt lat="47.26758" lon="4.93627">
        <ele>516</ele>
        <time>2015-04-19T08:17:08.819Z</time>
      </trkpt>
      <trkpt lat="47.2675" lon="4.93622">
        <ele>516</ele>
        <time>2015-04-19T08:17:13.828Z</time>
      </trkpt>
      <trkpt lat="47.26748" lon="4.93621">
        <ele>516</ele>
        <time>2015-04-19T08:17:14.818Z</time>
      </trkpt>
      <trkpt lat="47.26742" lon="4.93616">
        <ele>517</ele>
        <time>2015-04-19T08:17:18.833Z</time>
      </trkpt>
      <trkpt lat="47.2674" lon="4.93614">
        <ele>517</ele>
        <time>2015-04-19T08:17:19.830Z</time>
      </trkpt>
      <trkpt lat="47.26734" lon="4.93608">
        <ele>517</ele>
        <time>2015-04-19T08:17:23.803Z</time>
      </trkpt>
      <trkpt lat="47.26732" lon="4.93606">
        <ele>517</ele>
        <time>2015-04-19T08:17:24.828Z</time>
      </trkpt>
      <trkpt lat="47.26726" lon="4.93599">
        <ele>517</ele>
        <time>2015-04-19T08:17:28.800Z</time>
      </trkpt>
      <trkpt lat="47.26725" lon="4.93597">
        <ele>517</ele>
        <time>2015-04-19T08:17:29.817Z</time>
      </trkpt>
      <trkpt lat="47.26719" lon="4.93589">
        <ele>517</ele>
        <time>2015-04-19T08:17:33.809Z</time>
      </trkpt>
      <trkpt lat="47.26717" lon="4.93587">
        <ele>517</ele>
        <time>2015-04-19T08:17:34.818Z</time>
      </trkpt>
      <trkpt lat="47.2671" lon="4.9358">
        <ele>520</ele>
        <time>2015-04-19T08:17:38.783Z</time>
      </trkpt>
      <trkpt lat="47.26708" lon="4.93578">
        <ele>520</ele>
        <time>2015-04-19T08:17:39.803Z</time>
      </trkpt>
      <trkpt lat="47.26702" lon="4.93574">
        <ele>520</ele>
        <time>2015-04-19T08:17:42.793Z</time>
      </trkpt>
      <trkpt lat="47.267" lon="4.93572">
        <ele>520</ele>
        <time>2015-04-19T08:17:43.828Z</time>
      </trkpt>
      <trkpt lat="47.26692" lon="4.93566">
        <ele>520</ele>
        <time>2015-04-19T08:17:47.813Z</time>
      </trkpt>
      <trkpt lat="47.2669" lon="4.93565">
        <ele>520</ele>
        <time>2015-04-19T08:17:48.836Z</time>
      </trkpt>
      <trkpt lat="47.26682" lon="4.9356">
        <ele>520</ele>
        <time>2015-04-19T08:17:52.811Z</time>
      </trkpt>
      <trkpt lat="47.26681" lon="4.93558">
        <ele>520</ele>
        <time>2015-04-19T08:17:53.825Z</time>
      </trkpt>
      <trkpt lat="47.26674" lon="4.93552">
        <ele>520</ele>
        <time>2015-04-19T08:17:57.816Z</time>
      </trkpt>
      <trkpt lat="47.26672" lon="4.9355">
        <ele>520</ele>
        <time>2015-04-19T08:17:58.838Z</time>
      </trkpt>
      <trkpt lat="47.26664" lon="4.93544">
        <ele>519</ele>
        <time>2015-04-19T08:18:02.817Z</time>
      </trkpt>
      <trkpt lat="47.26663" lon="4.93543">
        <ele>519</ele>
        <time>2015-04-19T08:18:03.797Z</time>
      </trkpt>
      <trkpt lat="47.26655" lon="4.93537">
        <ele>519</ele>
        <time>2015-04-19T08:18:08.809Z</time>
      </trkpt>
      <trkpt lat="47.26653" lon="4.93536">
        <ele>519</ele>
        <time>2015-04-19T08:18:09.808Z</time>
      </trkpt>
      <trkpt lat="47.26646" lon="4.9353">
        <ele>519</ele>
        <time>2015-04-19T08:18:13.827Z</time>
      </trkpt>
      <trkpt lat="47.26644" lon="4.93527">
        <ele>519</ele>
        <time>2015-04-19T08:18:14.801Z</time>
      </trkpt>
      <trkpt lat="47.26638" lon="4.93519">
        <ele>520</ele>
        <time>2015-04-19T08:18:18.831Z</time>
      </trkpt>
      <trkpt lat="47.26637" lon="4.93517">
        <ele>520</ele>
        <time>2015-04-19T08:18:19.825Z</time>
      </trkpt>
      <trkpt lat="47.26632" lon="4.9351">
        <ele>520</ele>
        <time>2015-04-19T08:18:23.808Z</time>
      </trkpt>
      <trkpt lat="47.2663" lon="4.93508">
        <ele>520</ele>
        <time>2015-04-19T08:18:24.785Z</time>
      </trkpt>
      <trkpt lat="47.26624" lon="4.93501">
        <ele>520</ele>
        <time>2015-04-19T08:18:28.808Z</time>
      </trkpt>
      <trkpt lat="47.26622" lon="4.935">
        <ele>521</ele>
        <time>2015-04-19T08:18:29.775Z</time>
      </trkpt>
      <trkpt lat="47.26614" lon="4.93494">
        <ele>521</ele>
        <time>2015-04-19T08:18:34.797Z</time>
      </trkpt>
      <trkpt lat="47.26613" lon="4.93493">
        <ele>521</ele>
        <time>2015-04-19T08:18:35.799Z</time>
      </trkpt>
      <trkpt lat="47.26605" lon="4.93487">
        <ele>521</ele>
        <time>2015-04-19T08:18:40.788Z</time>
      </trkpt>
      <trkpt lat="47.26604" lon="4.93486">
        <ele>521</ele>
        <time>2015-04-19T08:18:41.797Z</time>
      </trkpt>
      <trkpt lat="47.26597" lon="4.93479">
        <ele>521</ele>
        <time>2015-04-19T08:18:45.803Z</time>
      </trkpt>
      <trkpt lat="47.26595" lon="4.93477">
        <ele>521</ele>
        <time>2015-04-19T08:18:46.803Z</time>
      </trkpt>
      <trkpt lat="47.26589" lon="4.93469">
        <ele>521</ele>
        <time>2015-04-19T08:18:50.802Z</time>
      </trkpt>
      <trkpt lat="47.26587" lon="4.93467">
        <ele>521</ele>
        <time>2015-04-19T08:18:51.823Z</time>
      </trkpt>
      <trkpt lat="47.26581" lon="4.9346">
        <ele>521</ele>
        <time>2015-04-19T08:18:55.815Z</time>
      </trkpt>
      <trkpt lat="47.2658" lon="4.93459">
        <ele>521</ele>
        <time>2015-04-19T08:18:56.805Z</time>
      </trkpt>
      <trkpt lat="47.26573" lon="4.93452">
        <ele>521</ele>
        <time>2015-04-19T08:19:00.797Z</time>
      </trkpt>
      <trkpt lat="47.26572" lon="4.9345">
        <ele>521</ele>
        <time>2015-04-19T08:19:01.815Z</time>
      </trkpt>
      <trkpt lat="47.26565" lon="4.93444">
        <ele>522</ele>
        <time>2015-04-19T08:19:05.800Z</time>
      </trkpt>
      <trkpt lat="47.26564" lon="4.93442">
        <ele>522</ele>
        <time>2015-04-19T08:19:06.789Z</time>
      </trkpt>
      <trkpt lat="47.26558" lon="4.93433">
        <ele>522</ele>
        <time>2015-04-19T08:19:10.805Z</time>
      </trkpt>
      <trkpt lat="47.26557" lon="4.9343">
        <ele>522</ele>
        <time>2015-04-19T08:19:11.797Z</time>
      </trkpt>
      <trkpt lat="47.26552" lon="4.93421">
        <ele>522</ele>
        <time>2015-04-19T08:19:15.788Z</time>
      </trkpt>
      <trkpt lat="47.26551" lon="4.93419">
        <ele>522</ele>
        <time>2015-04-19T08:19:16.828Z</time>
      </trkpt>
      <trkpt lat="47.26546" lon="4.93411">
        <ele>524</ele>
        <time>2015-04-19T08:19:20.823Z</time>
      </trkpt>
      <trkpt lat="47.26544" lon="4.93409">
        <ele>524</ele>
        <time>2015-04-19T08:19:21.808Z</time>
      </trkpt>
      <trkpt lat="47.26538" lon="4.93403">
        <ele>524</ele>
        <time>2015-04-19T08:19:25.847Z</time>
      </trkpt>
      <trkpt lat="47.26535" lon="4.934">
        <ele>524</ele>
        <time>2015-04-19T08:19:26.809Z</time>
      </trkpt>
      <trkpt lat="47.26529" lon="4.93395">
        <ele>524</ele>
        <time>2015-04-19T08:19:30.795Z</time>
      </trkpt>
      <trkpt lat="47.26527" lon="4.93394">
        <ele>524</ele>
        <time>2015-04-19T08:19:31.781Z</time>
      </trkpt>
      <trkpt lat="47.2652" lon="4.93389">
        <ele>524</ele>
        <time>2015-04-19T08:19:35.797Z</time>
      </trkpt>
      <trkpt lat="47.26518" lon="4.93387">
        <ele>524</ele>
        <time>2015-04-19T08:19:36.798Z</time>
      </trkpt>
      <trkpt lat="47.26512" lon="4.93382">
        <ele>524</ele>
        <time>2015-04-19T08:19:39.788Z</time>
      </trkpt>
      <trkpt lat="47.2651" lon="4.9338">
        <ele>524</ele>
        <time>2015-04-19T08:19:40.785Z</time>
      </trkpt>
      <trkpt lat="47.26503" lon="4.93373">
        <ele>524</ele>
        <time>2015-04-19T08:19:44.785Z</time>
      </trkpt>
      <trkpt lat="47.26502" lon="4.93371">
        <ele>524</ele>
        <time>2015-04-19T08:19:45.804Z</time>
      </trkpt>
      <trkpt lat="47.26495" lon="4.93362">
        <ele>525</ele>
        <time>2015-04-19T08:19:49.799Z</time>
      </trkpt>
      <trkpt lat="47.26494" lon="4.9336">
        <ele>525</ele>
        <time>2015-04-19T08:19:50.787Z</time>
      </trkpt>
      <trkpt lat="47.26486" lon="4.93353">
        <ele>525</ele>
        <time>2015-04-19T08:19:54.833Z</time>
      </trkpt>
      <trkpt lat="47.26484" lon="4.93351">
        <ele>525</ele>
        <time>2015-04-19T08:19:55.798Z</time>
      </trkpt>
      <trkpt lat="47.26479" lon="4.93346">
        <ele>525</ele>
        <time>2015-04-19T08:19:58.820Z</time>
      </trkpt>
      <trkpt lat="47.26477" lon="4.93344">
        <ele>525</ele>
        <time>2015-04-19T08:19:59.823Z</time>
      </trkpt>
      <trkpt lat="47.2647" lon="4.93336">
        <ele>525</ele>
        <time>2015-04-19T08:20:03.806Z</time>
      </trkpt>
      <trkpt lat="47.26469" lon="4.93334">
        <ele>525</ele>
        <time>2015-04-19T08:20:04.780Z</time>
      </trkpt>
      <trkpt lat="47.26463" lon="4.93325">
        <ele>526</ele>
        <time>2015-04-19T08:20:08.809Z</time>
      </trkpt>
      <trkpt lat="47.26461" lon="4.93323">
        <ele>526</ele>
        <time>2015-04-19T08:20:09.800Z</time>
      </trkpt>
      <trkpt lat="47.26455" lon="4.93315">
        <ele>526</ele>
        <time>2015-04-19T08:20:13.820Z</time>
      </trkpt>
      <trkpt lat="47.26454" lon="4.93313">
        <ele>526</ele>
        <time>2015-04-19T08:20:14.804Z</time>
      </trkpt>
      <trkpt lat="47.26449" lon="4.93305">
        <ele>526</ele>
        <time>2015-04-19T08:20:18.808Z</time>
      </trkpt>
      <trkpt lat="47.26447" lon="4.93303">
        <ele>526</ele>
        <time>2015-04-19T08:20:19.799Z</time>
      </trkpt>
      <trkpt lat="47.26441" lon="4.93296">
        <ele>526</ele>
        <time>2015-04-19T08:20:23.807Z</time>
      </trkpt>
      <trkpt lat="47.26439" lon="4.93294">
        <ele>526</ele>
        <time>2015-04-19T08:20:24.781Z</time>
      </trkpt>
      <trkpt lat="47.26432" lon="4.93287">
        <ele>526</ele>
        <time>2015-04-19T08:20:28.799Z</time>
      </trkpt>
      <trkpt lat="47.26431" lon="4.93285">
        <ele>526</ele>
        <time>2015-04-19T08:20:29.790Z</time>
      </trkpt>
      <trkpt lat="47.26424" lon="4.93278">
        <ele>526</ele>
        <time>2015-04-19T08:20:33.798Z</time>
      </trkpt>
      <trkpt lat="47.26422" lon="4.93276">
        <ele>526</ele>
        <time>2015-04-19T08:20:34.801Z</time>
      </trkpt>
      <trkpt lat="47.26415" lon="4.9327">
        <ele>526</ele>
        <time>2015-04-19T08:20:38.801Z</time>
      </trkpt>
      <trkpt lat="47.26413" lon="4.93269">
        <ele>526</ele>
        <time>2015-04-19T08:20:39.791Z</time>
      </trkpt>
      <trkpt lat="47.26406" lon="4.93262">
        <ele>526</ele>
        <time>2015-04-19T08:20:43.805Z</time>
      </trkpt>
      <trkpt lat="47.26404" lon="4.9326">
        <ele>526</ele>
        <time>2015-04-19T08:20:44.792Z</time>
      </trkpt>
      <trkpt lat="47.26397" lon="4.93251">
        <ele>526</ele>
        <time>2015-04-19T08:20:48.824Z</time>
      </trkpt>
      <trkpt lat="47.26396" lon="4.93249">
        <ele>525</ele>
        <time>2015-04-19T08:20:49.845Z</time>
      </trkpt>
      <trkpt lat="47.2639" lon="4.93242">
        <ele>525</ele>
        <time>2015-04-19T08:20:53.842Z</time>
      </trkpt>
      <trkpt lat="47.26388" lon="4.9324">
        <ele>525</ele>
        <time>2015-04-19T08:20:54.818Z</time>
      </trkpt>
      <trkpt lat="47.26382" lon="4.93233">
        <ele>525</ele>
        <time>2015-04-19T08:20:58.825Z</time>
      </trkpt>
      <trkpt lat="47.26381" lon="4.93231">
        <ele>525</ele>
        <time>2015-04-19T08:20:59.818Z</time>
      </trkpt>
      <trkpt lat="47.26374" lon="4.93224">
        <ele>525</ele>
        <time>2015-04-19T08:21:03.807Z</time>
      </trkpt>
      <trkpt lat="47.26373" lon="4.93223">
        <ele>525</ele>
        <time>2015-04-19T08:21:04.809Z</time>
      </trkpt>
      <trkpt lat="47.26364" lon="4.93219">
        <ele>525</ele>
        <time>2015-04-19T08:21:09.807Z</time>
      </trkpt>
      <trkpt lat="47.26362" lon="4.93218">
        <ele>525</ele>
        <time>2015-04-19T08:21:10.804Z</time>
      </trkpt>
      <trkpt lat="47.26356" lon="4.93215">
        <ele>525</ele>
        <time>2015-04-19T08:21:14.816Z</time>
      </trkpt>
      <trkpt lat="47.26354" lon="4.93214">
        <ele>525</ele>
        <time>2015-04-19T08:21:15.831Z</time>
      </trkpt>
      <trkpt lat="47.26346" lon="4.93213">
        <ele>525</ele>
        <time>2015-04-19T08:21:19.808Z</time>
      </trkpt>
      <trkpt lat="47.26344" lon="4.93213">
        <ele>525</ele>
        <time>2015-04-19T08:21:20.815Z</time>
      </trkpt>
      <trkpt lat="47.26337" lon="4.93217">
        <ele>525</ele>
        <time>2015-04-19T08:21:25.823Z</time>
      </trkpt>
      <trkpt lat="47.26336" lon="4.93219">
        <ele>525</ele>
        <time>2015-04-19T08:21:26.790Z</time>
      </trkpt>
      <trkpt lat="47.2633" lon="4.93229">
        <ele>525</ele>
        <time>2015-04-19T08:21:31.885Z</time>
      </trkpt>
      <trkpt lat="47.26329" lon="4.93231">
        <ele>525</ele>
        <time>2015-04-19T08:21:32.815Z</time>
      </trkpt>
      <trkpt lat="47.26325" lon="4.93241">
        <ele>525</ele>
        <time>2015-04-19T08:21:36.810Z</time>
      </trkpt>
      <trkpt lat="47.26324" lon="4.93243">
        <ele>525</ele>
        <time>2015-04-19T08:21:37.808Z</time>
      </trkpt>
      <trkpt lat="47.2632" lon="4.93254">
        <ele>526</ele>
        <time>2015-04-19T08:21:41.789Z</time>
      </trkpt>
      <trkpt lat="47.2632" lon="4.93256">
        <ele>526</ele>
        <time>2015-04-19T08:21:42.804Z</time>
      </trkpt>
      <trkpt lat="47.26318" lon="4.93267">
        <ele>525</ele>
        <time>2015-04-19T08:21:46.804Z</time>
      </trkpt>
      <trkpt lat="47.26318" lon="4.9327">
        <ele>525</ele>
        <time>2015-04-19T08:21:47.800Z</time>
      </trkpt>
      <trkpt lat="47.26313" lon="4.93281">
        <ele>525</ele>
        <time>2015-04-19T08:21:52.804Z</time>
      </trkpt>
      <trkpt lat="47.26311" lon="4.93282">
        <ele>525</ele>
        <time>2015-04-19T08:21:53.808Z</time>
      </trkpt>
      <trkpt lat="47.26304" lon="4.93282">
        <ele>525</ele>
        <time>2015-04-19T08:21:57.807Z</time>
      </trkpt>
      <trkpt lat="47.26302" lon="4.93281">
        <ele>525</ele>
        <time>2015-04-19T08:21:58.808Z</time>
      </trkpt>
      <trkpt lat="47.26295" lon="4.93278">
        <ele>525</ele>
        <time>2015-04-19T08:22:02.808Z</time>
      </trkpt>
      <trkpt lat="47.26293" lon="4.93277">
        <ele>525</ele>
        <time>2015-04-19T08:22:03.807Z</time>
      </trkpt>
      <trkpt lat="47.26285" lon="4.93273">
        <ele>525</ele>
        <time>2015-04-19T08:22:07.834Z</time>
      </trkpt>
      <trkpt lat="47.26283" lon="4.93272">
        <ele>525</ele>
        <time>2015-04-19T08:22:08.800Z</time>
      </trkpt>
      <trkpt lat="47.26275" lon="4.9327">
        <ele>525</ele>
        <time>2015-04-19T08:22:12.808Z</time>
      </trkpt>
      <trkpt lat="47.26274" lon="4.93269">
        <ele>525</ele>
        <time>2015-04-19T08:22:13.812Z</time>
      </trkpt>
      <trkpt lat="47.26267" lon="4.93264">
        <ele>525</ele>
        <time>2015-04-19T08:22:17.831Z</time>
      </trkpt>
      <trkpt lat="47.26265" lon="4.93263">
        <ele>525</ele>
        <time>2015-04-19T08:22:18.818Z</time>
      </trkpt>
      <trkpt lat="47.26259" lon="4.93257">
        <ele>524</ele>
        <time>2015-04-19T08:22:22.810Z</time>
      </trkpt>
      <trkpt lat="47.26257" lon="4.93256">
        <ele>524</ele>
        <time>2015-04-19T08:22:23.821Z</time>
      </trkpt>
      <trkpt lat="47.2625" lon="4.93251">
        <ele>524</ele>
        <time>2015-04-19T08:22:27.808Z</time>
      </trkpt>
      <trkpt lat="47.26249" lon="4.93249">
        <ele>524</ele>
        <time>2015-04-19T08:22:28.796Z</time>
      </trkpt>
      <trkpt lat="47.26242" lon="4.93244">
        <ele>525</ele>
        <time>2015-04-19T08:22:32.805Z</time>
      </trkpt>
      <trkpt lat="47.26241" lon="4.93243">
        <ele>525</ele>
        <time>2015-04-19T08:22:33.809Z</time>
      </trkpt>
      <trkpt lat="47.26233" lon="4.93239">
        <ele>525</ele>
        <time>2015-04-19T08:22:37.806Z</time>
      </trkpt>
      <trkpt lat="47.26232" lon="4.93237">
        <ele>525</ele>
        <time>2015-04-19T08:22:38.815Z</time>
      </trkpt>
      <trkpt lat="47.26224" lon="4.93233">
        <ele>525</ele>
        <time>2015-04-19T08:22:42.805Z</time>
      </trkpt>
      <trkpt lat="47.26222" lon="4.93232">
        <ele>525</ele>
        <time>2015-04-19T08:22:43.816Z</time>
      </trkpt>
      <trkpt lat="47.26214" lon="4.93228">
        <ele>526</ele>
        <time>2015-04-19T08:22:47.815Z</time>
      </trkpt>
      <trkpt lat="47.26212" lon="4.93228">
        <ele>526</ele>
        <time>2015-04-19T08:22:48.820Z</time>
      </trkpt>
      <trkpt lat="47.26205" lon="4.93223">
        <ele>526</ele>
        <time>2015-04-19T08:22:52.814Z</time>
      </trkpt>
      <trkpt lat="47.26204" lon="4.93222">
        <ele>526</ele>
        <time>2015-04-19T08:22:53.852Z</time>
      </trkpt>
      <trkpt lat="47.26197" lon="4.93218">
        <ele>526</ele>
        <time>2015-04-19T08:22:57.829Z</time>
      </trkpt>
      <trkpt lat="47.26195" lon="4.93217">
        <ele>526</ele>
        <time>2015-04-19T08:22:58.818Z</time>
      </trkpt>
      <trkpt lat="47.26187" lon="4.93211">
        <ele>526</ele>
        <time>2015-04-19T08:23:03.812Z</time>
      </trkpt>
      <trkpt lat="47.26186" lon="4.9321">
        <ele>526</ele>
        <time>2015-04-19T08:23:04.809Z</time>
      </trkpt>
      <trkpt lat="47.26179" lon="4.93206">
        <ele>526</ele>
        <time>2015-04-19T08:23:08.812Z</time>
      </trkpt>
      <trkpt lat="47.26177" lon="4.93205">
        <ele>526</ele>
        <time>2015-04-19T08:23:09.808Z</time>
      </trkpt>
      <trkpt lat="47.2617" lon="4.932">
        <ele>526</ele>
        <time>2015-04-19T08:23:13.827Z</time>
      </trkpt>
      <trkpt lat="47.26169" lon="4.93199">
        <ele>526</ele>
        <time>2015-04-19T08:23:14.816Z</time>
      </trkpt>
      <trkpt lat="47.26162" lon="4.93195">
        <ele>528</ele>
        <time>2015-04-19T08:23:18.799Z</time>
      </trkpt>
      <trkpt lat="47.2616" lon="4.93194">
        <ele>528</ele>
        <time>2015-04-19T08:23:19.816Z</time>
      </trkpt>
      <trkpt lat="47.26153" lon="4.9319">
        <ele>528</ele>
        <time>2015-04-19T08:23:23.805Z</time>
      </trkpt>
      <trkpt lat="47.26151" lon="4.93189">
        <ele>528</ele>
        <time>2015-04-19T08:23:24.815Z</time>
      </trkpt>
      <trkpt lat="47.26144" lon="4.93186">
        <ele>528</ele>
        <time>2015-04-19T08:23:28.821Z</time>
      </trkpt>
      <trkpt lat="47.26142" lon="4.93185">
        <ele>528</ele>
        <time>2015-04-19T08:23:29.817Z</time>
      </trkpt>
      <trkpt lat="47.26135" lon="4.93182">
        <ele>528</ele>
        <time>2015-04-19T08:23:33.801Z</time>
      </trkpt>
      <trkpt lat="47.26133" lon="4.93181">
        <ele>528</ele>
        <time>2015-04-19T08:23:34.800Z</time>
      </trkpt>
      <trkpt lat="47.26126" lon="4.93179">
        <ele>528</ele>
        <time>2015-04-19T08:23:38.802Z</time>
      </trkpt>
      <trkpt lat="47.26124" lon="4.93179">
        <ele>528</ele>
        <time>2015-04-19T08:23:39.801Z</time>
      </trkpt>
      <trkpt lat="47.26115" lon="4.93176">
        <ele>528</ele>
        <time>2015-04-19T08:23:44.813Z</time>
      </trkpt>
      <trkpt lat="47.26113" lon="4.93176">
        <ele>528</ele>
        <time>2015-04-19T08:23:45.813Z</time>
      </trkpt>
      <trkpt lat="47.26104" lon="4.93173">
        <ele>528</ele>
        <time>2015-04-19T08:23:50.813Z</time>
      </trkpt>
      <trkpt lat="47.26103" lon="4.93173">
        <ele>528</ele>
        <time>2015-04-19T08:23:51.828Z</time>
      </trkpt>
      <trkpt lat="47.26095" lon="4.93168">
        <ele>529</ele>
        <time>2015-04-19T08:23:56.813Z</time>
      </trkpt>
      <trkpt lat="47.26093" lon="4.93168">
        <ele>529</ele>
        <time>2015-04-19T08:23:57.819Z</time>
      </trkpt>
      <trkpt lat="47.26084" lon="4.93166">
        <ele>529</ele>
        <time>2015-04-19T08:24:02.814Z</time>
      </trkpt>
      <trkpt lat="47.26082" lon="4.93166">
        <ele>529</ele>
        <time>2015-04-19T08:24:03.814Z</time>
      </trkpt>
      <trkpt lat="47.26074" lon="4.93165">
        <ele>530</ele>
        <time>2015-04-19T08:24:07.814Z</time>
      </trkpt>
      <trkpt lat="47.26072" lon="4.93165">
        <ele>530</ele>
        <time>2015-04-19T08:24:08.801Z</time>
      </trkpt>
      <trkpt lat="47.26064" lon="4.93164">
        <ele>530</ele>
        <time>2015-04-19T08:24:12.802Z</time>
      </trkpt>
      <trkpt lat="47.26062" lon="4.93164">
        <ele>530</ele>
        <time>2015-04-19T08:24:13.813Z</time>
      </trkpt>
      <trkpt lat="47.26055" lon="4.9316">
        <ele>530</ele>
        <time>2015-04-19T08:24:17.798Z</time>
      </trkpt>
      <trkpt lat="47.26053" lon="4.93159">
        <ele>530</ele>
        <time>2015-04-19T08:24:18.821Z</time>
      </trkpt>
      <trkpt lat="47.26045" lon="4.93153">
        <ele>531</ele>
        <time>2015-04-19T08:24:23.819Z</time>
      </trkpt>
      <trkpt lat="47.26043" lon="4.93152">
        <ele>531</ele>
        <time>2015-04-19T08:24:24.855Z</time>
      </trkpt>
      <trkpt lat="47.26036" lon="4.93147">
        <ele>531</ele>
        <time>2015-04-19T08:24:28.807Z</time>
      </trkpt>
      <trkpt lat="47.26034" lon="4.93146">
        <ele>531</ele>
        <time>2015-04-19T08:24:29.819Z</time>
      </trkpt>
      <trkpt lat="47.26028" lon="4.93141">
        <ele>531</ele>
        <time>2015-04-19T08:24:33.809Z</time>
      </trkpt>
      <trkpt lat="47.26026" lon="4.93139">
        <ele>531</ele>
        <time>2015-04-19T08:24:34.815Z</time>
      </trkpt>
      <trkpt lat="47.26018" lon="4.93136">
        <ele>531</ele>
        <time>2015-04-19T08:24:38.812Z</time>
      </trkpt>
      <trkpt lat="47.26016" lon="4.93135">
        <ele>531</ele>
        <time>2015-04-19T08:24:39.812Z</time>
      </trkpt>
      <trkpt lat="47.26007" lon="4.93132">
        <ele>531</ele>
        <time>2015-04-19T08:24:43.798Z</time>
      </trkpt>
      <trkpt lat="47.26005" lon="4.93131">
        <ele>531</ele>
        <time>2015-04-19T08:24:44.817Z</time>
      </trkpt>
      <trkpt lat="47.25998" lon="4.93127">
        <ele>531</ele>
        <time>2015-04-19T08:24:48.823Z</time>
      </trkpt>
      <trkpt lat="47.25996" lon="4.93126">
        <ele>531</ele>
        <time>2015-04-19T08:24:49.833Z</time>
      </trkpt>
      <trkpt lat="47.25989" lon="4.93121">
        <ele>531</ele>
        <time>2015-04-19T08:24:53.844Z</time>
      </trkpt>
      <trkpt lat="47.25987" lon="4.93119">
        <ele>531</ele>
        <time>2015-04-19T08:24:54.808Z</time>
      </trkpt>
      <trkpt lat="47.25978" lon="4.93115">
        <ele>531</ele>
        <time>2015-04-19T08:24:59.833Z</time>
      </trkpt>
      <trkpt lat="47.25977" lon="4.93114">
        <ele>532</ele>
        <time>2015-04-19T08:25:00.808Z</time>
      </trkpt>
      <trkpt lat="47.25968" lon="4.9311">
        <ele>532</ele>
        <time>2015-04-19T08:25:05.810Z</time>
      </trkpt>
      <trkpt lat="47.25967" lon="4.93109">
        <ele>532</ele>
        <time>2015-04-19T08:25:06.813Z</time>
      </trkpt>
      <trkpt lat="47.25958" lon="4.93106">
        <ele>532</ele>
        <time>2015-04-19T08:25:11.822Z</time>
      </trkpt>
      <trkpt lat="47.25956" lon="4.93105">
        <ele>532</ele>
        <time>2015-04-19T08:25:12.787Z</time>
      </trkpt>
      <trkpt lat="47.25949" lon="4.93103">
        <ele>532</ele>
        <time>2015-04-19T08:25:16.822Z</time>
      </trkpt>
      <trkpt lat="47.25947" lon="4.93102">
        <ele>532</ele>
        <time>2015-04-19T08:25:17.813Z</time>
      </trkpt>
      <trkpt lat="47.25938" lon="4.93101">
        <ele>532</ele>
        <time>2015-04-19T08:25:22.811Z</time>
      </trkpt>
      <trkpt lat="47.25937" lon="4.93101">
        <ele>532</ele>
        <time>2015-04-19T08:25:23.829Z</time>
      </trkpt>
      <trkpt lat="47.25929" lon="4.93098">
        <ele>532</ele>
        <time>2015-04-19T08:25:28.793Z</time>
      </trkpt>
      <trkpt lat="47.25927" lon="4.93097">
        <ele>532</ele>
        <time>2015-04-19T08:25:29.812Z</time>
      </trkpt>
      <trkpt lat="47.25919" lon="4.93098">
        <ele>532</ele>
        <time>2015-04-19T08:25:33.806Z</time>
      </trkpt>
      <trkpt lat="47.25917" lon="4.93098">
        <ele>532</ele>
        <time>2015-04-19T08:25:34.817Z</time>
      </trkpt>
      <trkpt lat="47.25909" lon="4.931">
        <ele>531</ele>
        <time>2015-04-19T08:25:38.815Z</time>
      </trkpt>
      <trkpt lat="47.25907" lon="4.931">
        <ele>531</ele>
        <time>2015-04-19T08:25:39.811Z</time>
      </trkpt>
      <trkpt lat="47.25899" lon="4.93105">
        <ele>531</ele>
        <time>2015-04-19T08:25:44.813Z</time>
      </trkpt>
      <trkpt lat="47.25898" lon="4.93106">
        <ele>530</ele>
        <time>2015-04-19T08:25:45.820Z</time>
      </trkpt>
      <trkpt lat="47.25891" lon="4.93112">
        <ele>530</ele>
        <time>2015-04-19T08:25:49.829Z</time>
      </trkpt>
      <trkpt lat="47.25889" lon="4.93114">
        <ele>530</ele>
        <time>2015-04-19T08:25:50.829Z</time>
      </trkpt>
      <trkpt lat="47.25883" lon="4.93121">
        <ele>530</ele>
        <time>2015-04-19T08:25:54.812Z</time>
      </trkpt>
      <trkpt lat="47.25882" lon="4.93123">
        <ele>530</ele>
        <time>2015-04-19T08:25:55.829Z</time>
      </trkpt>
      <trkpt lat="47.25876" lon="4.93131">
        <ele>530</ele>
        <time>2015-04-19T08:25:59.783Z</time>
      </trkpt>
      <trkpt lat="47.25875" lon="4.93133">
        <ele>530</ele>
        <time>2015-04-19T08:26:00.783Z</time>
      </trkpt>
      <trkpt lat="47.25872" lon="4.93142">
        <ele>530</ele>
        <time>2015-04-19T08:26:04.840Z</time>
      </trkpt>
      <trkpt lat="47.25871" lon="4.93145">
        <ele>530</ele>
        <time>2015-04-19T08:26:05.814Z</time>
      </trkpt>
      <trkpt lat="47.25866" lon="4.93155">
        <ele>529</ele>
        <time>2015-04-19T08:26:09.815Z</time>
      </trkpt>
      <trkpt lat="47.25866" lon="4.93157">
        <ele>529</ele>
        <time>2015-04-19T08:26:10.823Z</time>
      </trkpt>
      <trkpt lat="47.25863" lon="4.93168">
        <ele>528</ele>
        <time>2015-04-19T08:26:14.798Z</time>
      </trkpt>
      <trkpt lat="47.25862" lon="4.9317">
        <ele>528</ele>
        <time>2015-04-19T08:26:15.813Z</time>
      </trkpt>
      <trkpt lat="47.25856" lon="4.93181">
        <ele>528</ele>
        <time>2015-04-19T08:26:20.817Z</time>
      </trkpt>
      <trkpt lat="47.25855" lon="4.93183">
        <ele>528</ele>
        <time>2015-04-19T08:26:21.822Z</time>
      </trkpt>
      <trkpt lat="47.25849" lon="4.93191">
        <ele>527</ele>
        <time>2015-04-19T08:26:25.819Z</time>
      </trkpt>
      <trkpt lat="47.25848" lon="4.93193">
        <ele>527</ele>
        <time>2015-04-19T08:26:26.812Z</time>
      </trkpt>
      <trkpt lat="47.2584" lon="4.93196">
        <ele>527</ele>
        <time>2015-04-19T08:26:33.807Z</time>
      </trkpt>
      <trkpt lat="47.25839" lon="4.93195">
        <ele>527</ele>
        <time>2015-04-19T08:26:34.807Z</time>
      </trkpt>
      <trkpt lat="47.2583" lon="4.93194">
        <ele>525</ele>
        <time>2015-04-19T08:26:41.811Z</time>
      </trkpt>
      <trkpt lat="47.25829" lon="4.93193">
        <ele>525</ele>
        <time>2015-04-19T08:26:42.811Z</time>
      </trkpt>
      <trkpt lat="47.25822" lon="4.93186">
        <ele>525</ele>
        <time>2015-04-19T08:26:47.792Z</time>
      </trkpt>
      <trkpt lat="47.25821" lon="4.93185">
        <ele>525</ele>
        <time>2015-04-19T08:26:48.813Z</time>
      </trkpt>
      <trkpt lat="47.25814" lon="4.93181">
        <ele>525</ele>
        <time>2015-04-19T08:26:54.804Z</time>
      </trkpt>
      <trkpt lat="47.25813" lon="4.9318">
        <ele>525</ele>
        <time>2015-04-19T08:26:55.793Z</time>
      </trkpt>
      <trkpt lat="47.25805" lon="4.93176">
        <ele>525</ele>
        <time>2015-04-19T08:26:59.799Z</time>
      </trkpt>
      <trkpt lat="47.25803" lon="4.93175">
        <ele>525</ele>
        <time>2015-04-19T08:27:00.796Z</time>
      </trkpt>
      <trkpt lat="47.25796" lon="4.93171">
        <ele>525</ele>
        <time>2015-04-19T08:27:03.803Z</time>
      </trkpt>
      <trkpt lat="47.25794" lon="4.9317">
        <ele>525</ele>
        <time>2015-04-19T08:27:04.791Z</time>
      </trkpt>
      <trkpt lat="47.25789" lon="4.93164">
        <ele>526</ele>
        <time>2015-04-19T08:27:06.809Z</time>
      </trkpt>
      <trkpt lat="47.25786" lon="4.93162">
        <ele>526</ele>
        <time>2015-04-19T08:27:07.811Z</time>
      </trkpt>
      <trkpt lat="47.2578" lon="4.93155">
        <ele>526</ele>
        <time>2015-04-19T08:27:10.813Z</time>
      </trkpt>
      <trkpt lat="47.25779" lon="4.93152">
        <ele>526</ele>
        <time>2015-04-19T08:27:11.808Z</time>
      </trkpt>
      <trkpt lat="47.25772" lon="4.93145">
        <ele>526</ele>
        <time>2015-04-19T08:27:16.798Z</time>
      </trkpt>
      <trkpt lat="47.25771" lon="4.93143">
        <ele>526</ele>
        <time>2015-04-19T08:27:17.803Z</time>
      </trkpt>
      <trkpt lat="47.25765" lon="4.93135">
        <ele>526</ele>
        <time>2015-04-19T08:27:21.812Z</time>
      </trkpt>
      <trkpt lat="47.25763" lon="4.93134">
        <ele>526</ele>
        <time>2015-04-19T08:27:22.868Z</time>
      </trkpt>
      <trkpt lat="47.25757" lon="4.93128">
        <ele>526</ele>
        <time>2015-04-19T08:27:26.803Z</time>
      </trkpt>
      <trkpt lat="47.25755" lon="4.93127">
        <ele>526</ele>
        <time>2015-04-19T08:27:27.780Z</time>
      </trkpt>
      <trkpt lat="47.25748" lon="4.93124">
        <ele>526</ele>
        <time>2015-04-19T08:27:30.797Z</time>
      </trkpt>
      <trkpt lat="47.25746" lon="4.93124">
        <ele>526</ele>
        <time>2015-04-19T08:27:31.820Z</time>
      </trkpt>
      <trkpt lat="47.25738" lon="4.9312">
        <ele>526</ele>
        <time>2015-04-19T08:27:35.793Z</time>
      </trkpt>
      <trkpt lat="47.25736" lon="4.93119">
        <ele>526</ele>
        <time>2015-04-19T08:27:36.799Z</time>
      </trkpt>
      <trkpt lat="47.25729" lon="4.93116">
        <ele>526</ele>
        <time>2015-04-19T08:27:40.804Z</time>
      </trkpt>
      <trkpt lat="47.25727" lon="4.93116">
        <ele>526</ele>
        <time>2015-04-19T08:27:41.844Z</time>
      </trkpt>
      <trkpt lat="47.25718" lon="4.93114">
        <ele>526</ele>
        <time>2015-04-19T08:27:47.811Z</time>
      </trkpt>
      <trkpt lat="47.25716" lon="4.93114">
        <ele>526</ele>
        <time>2015-04-19T08:27:48.814Z</time>
      </trkpt>
      <trkpt lat="47.25709" lon="4.93113">
        <ele>526</ele>
        <time>2015-04-19T08:27:52.804Z</time>
      </trkpt>
      <trkpt lat="47.25708" lon="4.93111">
        <ele>526</ele>
        <time>2015-04-19T08:27:53.804Z</time>
      </trkpt>
      <trkpt lat="47.25701" lon="4.93103">
        <ele>526</ele>
        <time>2015-04-19T08:27:57.802Z</time>
      </trkpt>
      <trkpt lat="47.257" lon="4.93101">
        <ele>526</ele>
        <time>2015-04-19T08:27:58.810Z</time>
      </trkpt>
      <trkpt lat="47.25692" lon="4.93095">
        <ele>526</ele>
        <time>2015-04-19T08:28:02.805Z</time>
      </trkpt>
      <trkpt lat="47.2569" lon="4.93094">
        <ele>526</ele>
        <time>2015-04-19T08:28:03.804Z</time>
      </trkpt>
      <trkpt lat="47.25684" lon="4.93089">
        <ele>526</ele>
        <time>2015-04-19T08:28:07.809Z</time>
      </trkpt>
      <trkpt lat="47.25682" lon="4.93088">
        <ele>526</ele>
        <time>2015-04-19T08:28:08.799Z</time>
      </trkpt>
      <trkpt lat="47.25675" lon="4.9308">
        <ele>527</ele>
        <time>2015-04-19T08:28:12.805Z</time>
      </trkpt>
      <trkpt lat="47.25674" lon="4.93078">
        <ele>527</ele>
        <time>2015-04-19T08:28:13.813Z</time>
      </trkpt>
      <trkpt lat="47.25666" lon="4.93073">
        <ele>527</ele>
        <time>2015-04-19T08:28:18.804Z</time>
      </trkpt>
      <trkpt lat="47.25665" lon="4.93072">
        <ele>527</ele>
        <time>2015-04-19T08:28:19.816Z</time>
      </trkpt>
      <trkpt lat="47.25657" lon="4.93067">
        <ele>527</ele>
        <time>2015-04-19T08:28:24.806Z</time>
      </trkpt>
      <trkpt lat="47.25656" lon="4.93066">
        <ele>527</ele>
        <time>2015-04-19T08:28:25.815Z</time>
      </trkpt>
      <trkpt lat="47.25647" lon="4.93061">
        <ele>527</ele>
        <time>2015-04-19T08:28:30.800Z</time>
      </trkpt>
      <trkpt lat="47.25646" lon="4.9306">
        <ele>527</ele>
        <time>2015-04-19T08:28:31.809Z</time>
      </trkpt>
      <trkpt lat="47.25639" lon="4.93056">
        <ele>528</ele>
        <time>2015-04-19T08:28:36.792Z</time>
      </trkpt>
      <trkpt lat="47.25637" lon="4.93055">
        <ele>528</ele>
        <time>2015-04-19T08:28:37.803Z</time>
      </trkpt>
      <trkpt lat="47.2563" lon="4.93049">
        <ele>528</ele>
        <time>2015-04-19T08:28:42.802Z</time>
      </trkpt>
      <trkpt lat="47.25628" lon="4.93048">
        <ele>528</ele>
        <time>2015-04-19T08:28:43.804Z</time>
      </trkpt>
      <trkpt lat="47.25621" lon="4.93043">
        <ele>528</ele>
        <time>2015-04-19T08:28:48.792Z</time>
      </trkpt>
      <trkpt lat="47.2562" lon="4.93042">
        <ele>528</ele>
        <time>2015-04-19T08:28:49.791Z</time>
      </trkpt>
      <trkpt lat="47.25612" lon="4.93038">
        <ele>528</ele>
        <time>2015-04-19T08:28:54.816Z</time>
      </trkpt>
      <trkpt lat="47.2561" lon="4.93037">
        <ele>528</ele>
        <time>2015-04-19T08:28:55.809Z</time>
      </trkpt>
      <trkpt lat="47.25602" lon="4.93033">
        <ele>528</ele>
        <time>2015-04-19T08:29:00.803Z</time>
      </trkpt>
      <trkpt lat="47.25601" lon="4.93032">
        <ele>528</ele>
        <time>2015-04-19T08:29:01.805Z</time>
      </trkpt>
      <trkpt lat="47.25593" lon="4.93029">
        <ele>528</ele>
        <time>2015-04-19T08:29:07.795Z</time>
      </trkpt>
      <trkpt lat="47.25591" lon="4.93028">
        <ele>528</ele>
        <time>2015-04-19T08:29:08.808Z</time>
      </trkpt>
      <trkpt lat="47.25583" lon="4.93024">
        <ele>529</ele>
        <time>2015-04-19T08:29:13.807Z</time>
      </trkpt>
      <trkpt lat="47.25581" lon="4.93023">
        <ele>529</ele>
        <time>2015-04-19T08:29:14.809Z</time>
      </trkpt>
      <trkpt lat="47.25573" lon="4.93019">
        <ele>529</ele>
        <time>2015-04-19T08:29:19.813Z</time>
      </trkpt>
      <trkpt lat="47.25571" lon="4.93019">
        <ele>529</ele>
        <time>2015-04-19T08:29:20.804Z</time>
      </trkpt>
      <trkpt lat="47.25564" lon="4.93017">
        <ele>529</ele>
        <time>2015-04-19T08:29:24.812Z</time>
      </trkpt>
      <trkpt lat="47.25562" lon="4.93016">
        <ele>529</ele>
        <time>2015-04-19T08:29:25.827Z</time>
      </trkpt>
      <trkpt lat="47.25554" lon="4.93014">
        <ele>529</ele>
        <time>2015-04-19T08:29:29.801Z</time>
      </trkpt>
      <trkpt lat="47.25553" lon="4.93014">
        <ele>529</ele>
        <time>2015-04-19T08:29:30.801Z</time>
      </trkpt>
      <trkpt lat="47.25544" lon="4.93012">
        <ele>529</ele>
        <time>2015-04-19T08:29:35.805Z</time>
      </trkpt>
      <trkpt lat="47.25542" lon="4.93011">
        <ele>529</ele>
        <time>2015-04-19T08:29:36.797Z</time>
      </trkpt>
      <trkpt lat="47.25534" lon="4.93011">
        <ele>529</ele>
        <time>2015-04-19T08:29:40.833Z</time>
      </trkpt>
      <trkpt lat="47.25532" lon="4.93011">
        <ele>529</ele>
        <time>2015-04-19T08:29:41.801Z</time>
      </trkpt>
      <trkpt lat="47.25524" lon="4.93011">
        <ele>529</ele>
        <time>2015-04-19T08:29:45.800Z</time>
      </trkpt>
      <trkpt lat="47.25522" lon="4.9301">
        <ele>530</ele>
        <time>2015-04-19T08:29:46.795Z</time>
      </trkpt>
      <trkpt lat="47.25514" lon="4.93007">
        <ele>530</ele>
        <time>2015-04-19T08:29:51.812Z</time>
      </trkpt>
      <trkpt lat="47.25512" lon="4.93006">
        <ele>530</ele>
        <time>2015-04-19T08:29:52.818Z</time>
      </trkpt>
      <trkpt lat="47.25505" lon="4.93004">
        <ele>530</ele>
        <time>2015-04-19T08:29:56.806Z</time>
      </trkpt>
      <trkpt lat="47.25503" lon="4.93004">
        <ele>530</ele>
        <time>2015-04-19T08:29:57.820Z</time>
      </trkpt>
      <trkpt lat="47.25495" lon="4.93001">
        <ele>530</ele>
        <time>2015-04-19T08:30:02.804Z</time>
      </trkpt>
      <trkpt lat="47.25494" lon="4.93001">
        <ele>530</ele>
        <time>2015-04-19T08:30:03.834Z</time>
      </trkpt>
      <trkpt lat="47.25486" lon="4.92997">
        <ele>530</ele>
        <time>2015-04-19T08:30:08.808Z</time>
      </trkpt>
      <trkpt lat="47.25484" lon="4.92997">
        <ele>530</ele>
        <time>2015-04-19T08:30:09.809Z</time>
      </trkpt>
      <trkpt lat="47.25476" lon="4.92993">
        <ele>531</ele>
        <time>2015-04-19T08:30:14.803Z</time>
      </trkpt>
      <trkpt lat="47.25474" lon="4.92992">
        <ele>531</ele>
        <time>2015-04-19T08:30:15.851Z</time>
      </trkpt>
      <trkpt lat="47.25467" lon="4.92989">
        <ele>531</ele>
        <time>2015-04-19T08:30:20.817Z</time>
      </trkpt>
      <trkpt lat="47.25465" lon="4.92987">
        <ele>531</ele>
        <time>2015-04-19T08:30:21.828Z</time>
      </trkpt>
      <trkpt lat="47.25457" lon="4.92982">
        <ele>531</ele>
        <time>2015-04-19T08:30:27.800Z</time>
      </trkpt>
      <trkpt lat="47.25456" lon="4.92981">
        <ele>531</ele>
        <time>2015-04-19T08:30:28.821Z</time>
      </trkpt>
      <trkpt lat="47.25448" lon="4.92976">
        <ele>531</ele>
        <time>2015-04-19T08:30:35.807Z</time>
      </trkpt>
      <trkpt lat="47.25446" lon="4.92975">
        <ele>531</ele>
        <time>2015-04-19T08:30:36.808Z</time>
      </trkpt>
      <trkpt lat="47.25439" lon="4.92973">
        <ele>531</ele>
        <time>2015-04-19T08:30:40.804Z</time>
      </trkpt>
      <trkpt lat="47.25437" lon="4.92972">
        <ele>531</ele>
        <time>2015-04-19T08:30:41.802Z</time>
      </trkpt>
      <trkpt lat="47.2543" lon="4.92969">
        <ele>531</ele>
        <time>2015-04-19T08:30:44.790Z</time>
      </trkpt>
      <trkpt lat="47.25428" lon="4.92969">
        <ele>531</ele>
        <time>2015-04-19T08:30:45.794Z</time>
      </trkpt>
      <trkpt lat="47.2542" lon="4.92967">
        <ele>531</ele>
        <time>2015-04-19T08:30:48.821Z</time>
      </trkpt>
      <trkpt lat="47.25418" lon="4.92966">
        <ele>531</ele>
        <time>2015-04-19T08:30:49.817Z</time>
      </trkpt>
      <trkpt lat="47.25409" lon="4.92964">
        <ele>530</ele>
        <time>2015-04-19T08:30:53.821Z</time>
      </trkpt>
      <trkpt lat="47.25407" lon="4.92963">
        <ele>530</ele>
        <time>2015-04-19T08:30:54.817Z</time>
      </trkpt>
      <trkpt lat="47.25399" lon="4.9296">
        <ele>530</ele>
        <time>2015-04-19T08:30:58.814Z</time>
      </trkpt>
      <trkpt lat="47.25397" lon="4.9296">
        <ele>530</ele>
        <time>2015-04-19T08:30:59.808Z</time>
      </trkpt>
      <trkpt lat="47.25389" lon="4.9296">
        <ele>530</ele>
        <time>2015-04-19T08:31:03.818Z</time>
      </trkpt>
      <trkpt lat="47.25388" lon="4.92959">
        <ele>530</ele>
        <time>2015-04-19T08:31:04.807Z</time>
      </trkpt>
      <trkpt lat="47.2538" lon="4.9296">
        <ele>530</ele>
        <time>2015-04-19T08:31:08.814Z</time>
      </trkpt>
      <trkpt lat="47.25378" lon="4.9296">
        <ele>530</ele>
        <time>2015-04-19T08:31:09.815Z</time>
      </trkpt>
      <trkpt lat="47.2537" lon="4.92959">
        <ele>530</ele>
        <time>2015-04-19T08:31:13.878Z</time>
      </trkpt>
      <trkpt lat="47.25367" lon="4.92959">
        <ele>530</ele>
        <time>2015-04-19T08:31:14.819Z</time>
      </trkpt>
      <trkpt lat="47.25359" lon="4.92959">
        <ele>530</ele>
        <time>2015-04-19T08:31:17.806Z</time>
      </trkpt>
      <trkpt lat="47.25356" lon="4.92958">
        <ele>530</ele>
        <time>2015-04-19T08:31:18.819Z</time>
      </trkpt>
      <trkpt lat="47.25349" lon="4.92957">
        <ele>530</ele>
        <time>2015-04-19T08:31:21.814Z</time>
      </trkpt>
      <trkpt lat="47.25346" lon="4.92957">
        <ele>530</ele>
        <time>2015-04-19T08:31:22.817Z</time>
      </trkpt>
      <trkpt lat="47.25339" lon="4.92955">
        <ele>530</ele>
        <time>2015-04-19T08:31:25.819Z</time>
      </trkpt>
      <trkpt lat="47.25336" lon="4.92955">
        <ele>530</ele>
        <time>2015-04-19T08:31:26.819Z</time>
      </trkpt>
      <trkpt lat="47.2533" lon="4.92955">
        <ele>530</ele>
        <time>2015-04-19T08:31:29.813Z</time>
      </trkpt>
      <trkpt lat="47.25327" lon="4.92954">
        <ele>530</ele>
        <time>2015-04-19T08:31:30.811Z</time>
      </trkpt>
      <trkpt lat="47.2532" lon="4.92953">
        <ele>529</ele>
        <time>2015-04-19T08:31:33.815Z</time>
      </trkpt>
      <trkpt lat="47.25318" lon="4.92952">
        <ele>529</ele>
        <time>2015-04-19T08:31:34.805Z</time>
      </trkpt>
      <trkpt lat="47.2531" lon="4.92952">
        <ele>529</ele>
        <time>2015-04-19T08:31:37.819Z</time>
      </trkpt>
      <trkpt lat="47.25308" lon="4.92952">
        <ele>529</ele>
        <time>2015-04-19T08:31:38.818Z</time>
      </trkpt>
      <trkpt lat="47.253" lon="4.9295">
        <ele>529</ele>
        <time>2015-04-19T08:31:42.862Z</time>
      </trkpt>
      <trkpt lat="47.25298" lon="4.9295">
        <ele>529</ele>
        <time>2015-04-19T08:31:43.817Z</time>
      </trkpt>
      <trkpt lat="47.25289" lon="4.92949">
        <ele>529</ele>
        <time>2015-04-19T08:31:48.823Z</time>
      </trkpt>
      <trkpt lat="47.25288" lon="4.92949">
        <ele>529</ele>
        <time>2015-04-19T08:31:49.819Z</time>
      </trkpt>
      <trkpt lat="47.25279" lon="4.92947">
        <ele>529</ele>
        <time>2015-04-19T08:31:54.819Z</time>
      </trkpt>
      <trkpt lat="47.25277" lon="4.92947">
        <ele>529</ele>
        <time>2015-04-19T08:31:55.825Z</time>
      </trkpt>
      <trkpt lat="47.25269" lon="4.92946">
        <ele>529</ele>
        <time>2015-04-19T08:31:59.810Z</time>
      </trkpt>
      <trkpt lat="47.25267" lon="4.92945">
        <ele>529</ele>
        <time>2015-04-19T08:32:00.796Z</time>
      </trkpt>
      <trkpt lat="47.25258" lon="4.92942">
        <ele>529</ele>
        <time>2015-04-19T08:32:04.820Z</time>
      </trkpt>
      <trkpt lat="47.25256" lon="4.92942">
        <ele>529</ele>
        <time>2015-04-19T08:32:05.807Z</time>
      </trkpt>
      <trkpt lat="47.25247" lon="4.92939">
        <ele>528</ele>
        <time>2015-04-19T08:32:09.806Z</time>
      </trkpt>
      <trkpt lat="47.25245" lon="4.92938">
        <ele>528</ele>
        <time>2015-04-19T08:32:10.834Z</time>
      </trkpt>
      <trkpt lat="47.25236" lon="4.92935">
        <ele>528</ele>
        <time>2015-04-19T08:32:14.802Z</time>
      </trkpt>
      <trkpt lat="47.25234" lon="4.92935">
        <ele>528</ele>
        <time>2015-04-19T08:32:15.809Z</time>
      </trkpt>
      <trkpt lat="47.25225" lon="4.92933">
        <ele>528</ele>
        <time>2015-04-19T08:32:19.795Z</time>
      </trkpt>
      <trkpt lat="47.25223" lon="4.92933">
        <ele>528</ele>
        <time>2015-04-19T08:32:20.844Z</time>
      </trkpt>
      <trkpt lat="47.25215" lon="4.92931">
        <ele>528</ele>
        <time>2015-04-19T08:32:24.826Z</time>
      </trkpt>
      <trkpt lat="47.25213" lon="4.9293">
        <ele>528</ele>
        <time>2015-04-19T08:32:25.828Z</time>
      </trkpt>
      <trkpt lat="47.25205" lon="4.92927">
        <ele>528</ele>
        <time>2015-04-19T08:32:28.802Z</time>
      </trkpt>
      <trkpt lat="47.25203" lon="4.92927">
        <ele>528</ele>
        <time>2015-04-19T08:32:29.810Z</time>
      </trkpt>
      <trkpt lat="47.25196" lon="4.92923">
        <ele>527</ele>
        <time>2015-04-19T08:32:32.804Z</time>
      </trkpt>
      <trkpt lat="47.25194" lon="4.92922">
        <ele>527</ele>
        <time>2015-04-19T08:32:33.815Z</time>
      </trkpt>
      <trkpt lat="47.25186" lon="4.92918">
        <ele>527</ele>
        <time>2015-04-19T08:32:37.794Z</time>
      </trkpt>
      <trkpt lat="47.25184" lon="4.92917">
        <ele>527</ele>
        <time>2015-04-19T08:32:38.814Z</time>
      </trkpt>
      <trkpt lat="47.25177" lon="4.92914">
        <ele>526</ele>
        <time>2015-04-19T08:32:41.781Z</time>
      </trkpt>
      <trkpt lat="47.25175" lon="4.92913">
        <ele>526</ele>
        <time>2015-04-19T08:32:42.819Z</time>
      </trkpt>
      <trkpt lat="47.25166" lon="4.9291">
        <ele>526</ele>
        <time>2015-04-19T08:32:46.835Z</time>
      </trkpt>
      <trkpt lat="47.25164" lon="4.92909">
        <ele>526</ele>
        <time>2015-04-19T08:32:47.818Z</time>
      </trkpt>
      <trkpt lat="47.25156" lon="4.92906">
        <ele>526</ele>
        <time>2015-04-19T08:32:50.845Z</time>
      </trkpt>
      <trkpt lat="47.25154" lon="4.92906">
        <ele>526</ele>
        <time>2015-04-19T08:32:51.803Z</time>
      </trkpt>
      <trkpt lat="47.25146" lon="4.92904">
        <ele>526</ele>
        <time>2015-04-19T08:32:54.818Z</time>
      </trkpt>
      <trkpt lat="47.25144" lon="4.92904">
        <ele>526</ele>
        <time>2015-04-19T08:32:55.837Z</time>
      </trkpt>
      <trkpt lat="47.25135" lon="4.92901">
        <ele>525</ele>
        <time>2015-04-19T08:32:59.803Z</time>
      </trkpt>
      <trkpt lat="47.25133" lon="4.929">
        <ele>525</ele>
        <time>2015-04-19T08:33:00.807Z</time>
      </trkpt>
      <trkpt lat="47.25125" lon="4.92898">
        <ele>525</ele>
        <time>2015-04-19T08:33:04.836Z</time>
      </trkpt>
      <trkpt lat="47.25123" lon="4.92898">
        <ele>525</ele>
        <time>2015-04-19T08:33:05.809Z</time>
      </trkpt>
      <trkpt lat="47.25115" lon="4.92899">
        <ele>525</ele>
        <time>2015-04-19T08:33:10.805Z</time>
      </trkpt>
      <trkpt lat="47.25114" lon="4.929">
        <ele>525</ele>
        <time>2015-04-19T08:33:11.814Z</time>
      </trkpt>
      <trkpt lat="47.25108" lon="4.92908">
        <ele>526</ele>
        <time>2015-04-19T08:33:15.833Z</time>
      </trkpt>
      <trkpt lat="47.25107" lon="4.92909">
        <ele>526</ele>
        <time>2015-04-19T08:33:16.811Z</time>
      </trkpt>
      <trkpt lat="47.25101" lon="4.92916">
        <ele>526</ele>
        <time>2015-04-19T08:33:20.808Z</time>
      </trkpt>
      <trkpt lat="47.25099" lon="4.92918">
        <ele>526</ele>
        <time>2015-04-19T08:33:21.812Z</time>
      </trkpt>
      <trkpt lat="47.25092" lon="4.92925">
        <ele>526</ele>
        <time>2015-04-19T08:33:25.814Z</time>
      </trkpt>
      <trkpt lat="47.2509" lon="4.92927">
        <ele>526</ele>
        <time>2015-04-19T08:33:26.816Z</time>
      </trkpt>
      <trkpt lat="47.25084" lon="4.92933">
        <ele>526</ele>
        <time>2015-04-19T08:33:30.784Z</time>
      </trkpt>
      <trkpt lat="47.25082" lon="4.92935">
        <ele>526</ele>
        <time>2015-04-19T08:33:31.814Z</time>
      </trkpt>
      <trkpt lat="47.25074" lon="4.92941">
        <ele>527</ele>
        <time>2015-04-19T08:33:35.806Z</time>
      </trkpt>
      <trkpt lat="47.25073" lon="4.92942">
        <ele>527</ele>
        <time>2015-04-19T08:33:36.803Z</time>
      </trkpt>
      <trkpt lat="47.25067" lon="4.92949">
        <ele>527</ele>
        <time>2015-04-19T08:33:40.799Z</time>
      </trkpt>
      <trkpt lat="47.25065" lon="4.92951">
        <ele>527</ele>
        <time>2015-04-19T08:33:41.784Z</time>
      </trkpt>
      <trkpt lat="47.2506" lon="4.92957">
        <ele>527</ele>
        <time>2015-04-19T08:33:45.810Z</time>
      </trkpt>
      <trkpt lat="47.25058" lon="4.92959">
        <ele>527</ele>
        <time>2015-04-19T08:33:46.811Z</time>
      </trkpt>
      <trkpt lat="47.25051" lon="4.92966">
        <ele>527</ele>
        <time>2015-04-19T08:33:51.829Z</time>
      </trkpt>
      <trkpt lat="47.2505" lon="4.92968">
        <ele>527</ele>
        <time>2015-04-19T08:33:52.793Z</time>
      </trkpt>
      <trkpt lat="47.25043" lon="4.92974">
        <ele>527</ele>
        <time>2015-04-19T08:33:57.810Z</time>
      </trkpt>
      <trkpt lat="47.25041" lon="4.92975">
        <ele>527</ele>
        <time>2015-04-19T08:33:58.810Z</time>
      </trkpt>
      <trkpt lat="47.25034" lon="4.92981">
        <ele>527</ele>
        <time>2015-04-19T08:34:02.800Z</time>
      </trkpt>
      <trkpt lat="47.25032" lon="4.92982">
        <ele>527</ele>
        <time>2015-04-19T08:34:03.806Z</time>
      </trkpt>
      <trkpt lat="47.25024" lon="4.92987">
        <ele>527</ele>
        <time>2015-04-19T08:34:07.808Z</time>
      </trkpt>
      <trkpt lat="47.25022" lon="4.92987">
        <ele>527</ele>
        <time>2015-04-19T08:34:08.807Z</time>
      </trkpt>
      <trkpt lat="47.25016" lon="4.92994">
        <ele>528</ele>
        <time>2015-04-19T08:34:12.797Z</time>
      </trkpt>
      <trkpt lat="47.25014" lon="4.92996">
        <ele>528</ele>
        <time>2015-04-19T08:34:13.817Z</time>
      </trkpt>
      <trkpt lat="47.25008" lon="4.93004">
        <ele>528</ele>
        <time>2015-04-19T08:34:17.826Z</time>
      </trkpt>
      <trkpt lat="47.25007" lon="4.93006">
        <ele>528</ele>
        <time>2015-04-19T08:34:18.818Z</time>
      </trkpt>
      <trkpt lat="47.25001" lon="4.93013">
        <ele>528</ele>
        <time>2015-04-19T08:34:22.807Z</time>
      </trkpt>
      <trkpt lat="47.25" lon="4.93015">
        <ele>528</ele>
        <time>2015-04-19T08:34:23.809Z</time>
      </trkpt>
      <trkpt lat="47.24995" lon="4.93024">
        <ele>528</ele>
        <time>2015-04-19T08:34:27.827Z</time>
      </trkpt>
      <trkpt lat="47.24994" lon="4.93026">
        <ele>528</ele>
        <time>2015-04-19T08:34:28.815Z</time>
      </trkpt>
      <trkpt lat="47.24988" lon="4.93035">
        <ele>528</ele>
        <time>2015-04-19T08:34:33.809Z</time>
      </trkpt>
      <trkpt lat="47.24988" lon="4.93037">
        <ele>528</ele>
        <time>2015-04-19T08:34:34.802Z</time>
      </trkpt>
      <trkpt lat="47.24984" lon="4.93049">
        <ele>528</ele>
        <time>2015-04-19T08:34:40.799Z</time>
      </trkpt>
      <trkpt lat="47.24984" lon="4.93051">
        <ele>528</ele>
        <time>2015-04-19T08:34:41.802Z</time>
      </trkpt>
      <trkpt lat="47.24981" lon="4.93063">
        <ele>528</ele>
        <time>2015-04-19T08:34:46.812Z</time>
      </trkpt>
      <trkpt lat="47.2498" lon="4.93065">
        <ele>528</ele>
        <time>2015-04-19T08:34:47.798Z</time>
      </trkpt>
      <trkpt lat="47.24975" lon="4.93075">
        <ele>528</ele>
        <time>2015-04-19T08:34:52.814Z</time>
      </trkpt>
      <trkpt lat="47.24974" lon="4.93077">
        <ele>528</ele>
        <time>2015-04-19T08:34:53.826Z</time>
      </trkpt>
      <trkpt lat="47.24969" lon="4.93085">
        <ele>528</ele>
        <time>2015-04-19T08:34:57.821Z</time>
      </trkpt>
      <trkpt lat="47.24967" lon="4.93086">
        <ele>528</ele>
        <time>2015-04-19T08:34:58.839Z</time>
      </trkpt>
      <trkpt lat="47.24961" lon="4.93095">
        <ele>527</ele>
        <time>2015-04-19T08:35:02.795Z</time>
      </trkpt>
      <trkpt lat="47.24959" lon="4.93098">
        <ele>527</ele>
        <time>2015-04-19T08:35:03.817Z</time>
      </trkpt>
      <trkpt lat="47.24956" lon="4.93107">
        <ele>527</ele>
        <time>2015-04-19T08:35:06.797Z</time>
      </trkpt>
      <trkpt lat="47.24955" lon="4.9311">
        <ele>527</ele>
        <time>2015-04-19T08:35:07.815Z</time>
      </trkpt>
      <trkpt lat="47.24952" lon="4.9312">
        <ele>527</ele>
        <time>2015-04-19T08:35:11.797Z</time>
      </trkpt>
      <trkpt lat="47.24951" lon="4.93123">
        <ele>527</ele>
        <time>2015-04-19T08:35:12.798Z</time>
      </trkpt>
      <trkpt lat="47.24948" lon="4.93132">
        <ele>527</ele>
        <time>2015-04-19T08:35:16.813Z</time>
      </trkpt>
      <trkpt lat="47.24947" lon="4.93135">
        <ele>527</ele>
        <time>2015-04-19T08:35:17.811Z</time>
      </trkpt>
      <trkpt lat="47.24945" lon="4.93146">
        <ele>527</ele>
        <time>2015-04-19T08:35:21.797Z</time>
      </trkpt>
      <trkpt lat="47.24944" lon="4.93149">
        <ele>527</ele>
        <time>2015-04-19T08:35:22.795Z</time>
      </trkpt>
      <trkpt lat="47.24941" lon="4.93161">
        <ele>526</ele>
        <time>2015-04-19T08:35:26.793Z</time>
      </trkpt>
      <trkpt lat="47.2494" lon="4.93163">
        <ele>526</ele>
        <time>2015-04-19T08:35:27.818Z</time>
      </trkpt>
      <trkpt lat="47.24937" lon="4.93174">
        <ele>525</ele>
        <time>2015-04-19T08:35:31.833Z</time>
      </trkpt>
      <trkpt lat="47.24936" lon="4.93175">
        <ele>525</ele>
        <time>2015-04-19T08:35:32.815Z</time>
      </trkpt>
      <trkpt lat="47.24931" lon="4.93186">
        <ele>525</ele>
        <time>2015-04-19T08:35:37.816Z</time>
      </trkpt>
      <trkpt lat="47.2493" lon="4.93188">
        <ele>525</ele>
        <time>2015-04-19T08:35:38.829Z</time>
      </trkpt>
      <trkpt lat="47.24927" lon="4.93198">
        <ele>524</ele>
        <time>2015-04-19T08:35:42.793Z</time>
      </trkpt>
      <trkpt lat="47.24926" lon="4.932">
        <ele>524</ele>
        <time>2015-04-19T08:35:43.808Z</time>
      </trkpt>
      <trkpt lat="47.24922" lon="4.93208">
        <ele>524</ele>
        <time>2015-04-19T08:35:47.788Z</time>
      </trkpt>
      <trkpt lat="47.24921" lon="4.93211">
        <ele>524</ele>
        <time>2015-04-19T08:35:48.813Z</time>
      </trkpt>
      <trkpt lat="47.24918" lon="4.93221">
        <ele>524</ele>
        <time>2015-04-19T08:35:52.816Z</time>
      </trkpt>
      <trkpt lat="47.24917" lon="4.93223">
        <ele>523</ele>
        <time>2015-04-19T08:35:53.789Z</time>
      </trkpt>
      <trkpt lat="47.24914" lon="4.93233">
        <ele>522</ele>
        <time>2015-04-19T08:35:57.810Z</time>
      </trkpt>
      <trkpt lat="47.24913" lon="4.93235">
        <ele>522</ele>
        <time>2015-04-19T08:35:58.812Z</time>
      </trkpt>
      <trkpt lat="47.24908" lon="4.93245">
        <ele>521</ele>
        <time>2015-04-19T08:36:02.805Z</time>
      </trkpt>
      <trkpt lat="47.24908" lon="4.93247">
        <ele>521</ele>
        <time>2015-04-19T08:36:03.800Z</time>
      </trkpt>
      <trkpt lat="47.24902" lon="4.93258">
        <ele>520</ele>
        <time>2015-04-19T08:36:08.799Z</time>
      </trkpt>
      <trkpt lat="47.24901" lon="4.9326">
        <ele>520</ele>
        <time>2015-04-19T08:36:09.801Z</time>
      </trkpt>
      <trkpt lat="47.24896" lon="4.93269">
        <ele>520</ele>
        <time>2015-04-19T08:36:13.810Z</time>
      </trkpt>
      <trkpt lat="47.24895" lon="4.93271">
        <ele>520</ele>
        <time>2015-04-19T08:36:14.819Z</time>
      </trkpt>
      <trkpt lat="47.24889" lon="4.93281">
        <ele>519</ele>
        <time>2015-04-19T08:36:19.812Z</time>
      </trkpt>
      <trkpt lat="47.24888" lon="4.93283">
        <ele>519</ele>
        <time>2015-04-19T08:36:20.812Z</time>
      </trkpt>
      <trkpt lat="47.24885" lon="4.93293">
        <ele>519</ele>
        <time>2015-04-19T08:36:24.797Z</time>
      </trkpt>
      <trkpt lat="47.24884" lon="4.93296">
        <ele>519</ele>
        <time>2015-04-19T08:36:25.814Z</time>
      </trkpt>
      <trkpt lat="47.24879" lon="4.93306">
        <ele>519</ele>
        <time>2015-04-19T08:36:29.787Z</time>
      </trkpt>
      <trkpt lat="47.24878" lon="4.93309">
        <ele>519</ele>
        <time>2015-04-19T08:36:30.804Z</time>
      </trkpt>
      <trkpt lat="47.24872" lon="4.93319">
        <ele>519</ele>
        <time>2015-04-19T08:36:35.807Z</time>
      </trkpt>
      <trkpt lat="47.24871" lon="4.9332">
        <ele>519</ele>
        <time>2015-04-19T08:36:36.790Z</time>
      </trkpt>
      <trkpt lat="47.24864" lon="4.93327">
        <ele>518</ele>
        <time>2015-04-19T08:36:40.796Z</time>
      </trkpt>
      <trkpt lat="47.24863" lon="4.93328">
        <ele>518</ele>
        <time>2015-04-19T08:36:41.789Z</time>
      </trkpt>
      <trkpt lat="47.24857" lon="4.93336">
        <ele>517</ele>
        <time>2015-04-19T08:36:45.812Z</time>
      </trkpt>
      <trkpt lat="47.24855" lon="4.93339">
        <ele>517</ele>
        <time>2015-04-19T08:36:46.808Z</time>
      </trkpt>
      <trkpt lat="47.24849" lon="4.93347">
        <ele>517</ele>
        <time>2015-04-19T08:36:50.790Z</time>
      </trkpt>
      <trkpt lat="47.24847" lon="4.93349">
        <ele>517</ele>
        <time>2015-04-19T08:36:51.808Z</time>
      </trkpt>
      <trkpt lat="47.24842" lon="4.93358">
        <ele>516</ele>
        <time>2015-04-19T08:36:55.846Z</time>
      </trkpt>
      <trkpt lat="47.2484" lon="4.93361">
        <ele>516</ele>
        <time>2015-04-19T08:36:56.797Z</time>
      </trkpt>
      <trkpt lat="47.24835" lon="4.93371">
        <ele>516</ele>
        <time>2015-04-19T08:37:00.824Z</time>
      </trkpt>
      <trkpt lat="47.24834" lon="4.93373">
        <ele>516</ele>
        <time>2015-04-19T08:37:01.808Z</time>
      </trkpt>
      <trkpt lat="47.24828" lon="4.93382">
        <ele>515</ele>
        <time>2015-04-19T08:37:05.794Z</time>
      </trkpt>
      <trkpt lat="47.24826" lon="4.93384">
        <ele>515</ele>
        <time>2015-04-19T08:37:06.818Z</time>
      </trkpt>
      <trkpt lat="47.24822" lon="4.93392">
        <ele>515</ele>
        <time>2015-04-19T08:37:09.798Z</time>
      </trkpt>
      <trkpt lat="47.2482" lon="4.93395">
        <ele>515</ele>
        <time>2015-04-19T08:37:10.779Z</time>
      </trkpt>
      <trkpt lat="47.24816" lon="4.93405">
        <ele>514</ele>
        <time>2015-04-19T08:37:14.801Z</time>
      </trkpt>
      <trkpt lat="47.24815" lon="4.93407">
        <ele>514</ele>
        <time>2015-04-19T08:37:15.791Z</time>
      </trkpt>
      <trkpt lat="47.2481" lon="4.93417">
        <ele>514</ele>
        <time>2015-04-19T08:37:19.820Z</time>
      </trkpt>
      <trkpt lat="47.24808" lon="4.93419">
        <ele>513</ele>
        <time>2015-04-19T08:37:20.809Z</time>
      </trkpt>
      <trkpt lat="47.24804" lon="4.93429">
        <ele>512</ele>
        <time>2015-04-19T08:37:24.823Z</time>
      </trkpt>
      <trkpt lat="47.24803" lon="4.93431">
        <ele>512</ele>
        <time>2015-04-19T08:37:25.820Z</time>
      </trkpt>
      <trkpt lat="47.24799" lon="4.93441">
        <ele>512</ele>
        <time>2015-04-19T08:37:29.811Z</time>
      </trkpt>
      <trkpt lat="47.24798" lon="4.93443">
        <ele>512</ele>
        <time>2015-04-19T08:37:30.799Z</time>
      </trkpt>
      <trkpt lat="47.24793" lon="4.93453">
        <ele>512</ele>
        <time>2015-04-19T08:37:34.809Z</time>
      </trkpt>
      <trkpt lat="47.24791" lon="4.93456">
        <ele>512</ele>
        <time>2015-04-19T08:37:35.814Z</time>
      </trkpt>
      <trkpt lat="47.24787" lon="4.93464">
        <ele>512</ele>
        <time>2015-04-19T08:37:38.805Z</time>
      </trkpt>
      <trkpt lat="47.24785" lon="4.93466">
        <ele>512</ele>
        <time>2015-04-19T08:37:39.791Z</time>
      </trkpt>
      <trkpt lat="47.24781" lon="4.93474">
        <ele>511</ele>
        <time>2015-04-19T08:37:42.810Z</time>
      </trkpt>
      <trkpt lat="47.24779" lon="4.93476">
        <ele>511</ele>
        <time>2015-04-19T08:37:43.823Z</time>
      </trkpt>
      <trkpt lat="47.24773" lon="4.93486">
        <ele>511</ele>
        <time>2015-04-19T08:37:47.811Z</time>
      </trkpt>
      <trkpt lat="47.24772" lon="4.93488">
        <ele>511</ele>
        <time>2015-04-19T08:37:48.781Z</time>
      </trkpt>
      <trkpt lat="47.24767" lon="4.93498">
        <ele>510</ele>
        <time>2015-04-19T08:37:51.821Z</time>
      </trkpt>
      <trkpt lat="47.24766" lon="4.93501">
        <ele>509</ele>
        <time>2015-04-19T08:37:52.823Z</time>
      </trkpt>
      <trkpt lat="47.24764" lon="4.93512">
        <ele>508</ele>
        <time>2015-04-19T08:37:56.825Z</time>
      </trkpt>
      <trkpt lat="47.24763" lon="4.93515">
        <ele>508</ele>
        <time>2015-04-19T08:37:57.791Z</time>
      </trkpt>
      <trkpt lat="47.24759" lon="4.93526">
        <ele>508</ele>
        <time>2015-04-19T08:38:01.806Z</time>
      </trkpt>
      <trkpt lat="47.24758" lon="4.93529">
        <ele>508</ele>
        <time>2015-04-19T08:38:02.809Z</time>
      </trkpt>
      <trkpt lat="47.24754" lon="4.93537">
        <ele>507</ele>
        <time>2015-04-19T08:38:05.816Z</time>
      </trkpt>
      <trkpt lat="47.24752" lon="4.9354">
        <ele>507</ele>
        <time>2015-04-19T08:38:06.813Z</time>
      </trkpt>
      <trkpt lat="47.24746" lon="4.93547">
        <ele>506</ele>
        <time>2015-04-19T08:38:09.810Z</time>
      </trkpt>
      <trkpt lat="47.24744" lon="4.93549">
        <ele>506</ele>
        <time>2015-04-19T08:38:10.835Z</time>
      </trkpt>
      <trkpt lat="47.24738" lon="4.93557">
        <ele>505</ele>
        <time>2015-04-19T08:38:13.836Z</time>
      </trkpt>
      <trkpt lat="47.24737" lon="4.9356">
        <ele>505</ele>
        <time>2015-04-19T08:38:14.823Z</time>
      </trkpt>
      <trkpt lat="47.24732" lon="4.93569">
        <ele>505</ele>
        <time>2015-04-19T08:38:18.823Z</time>
      </trkpt>
      <trkpt lat="47.24731" lon="4.93572">
        <ele>505</ele>
        <time>2015-04-19T08:38:19.791Z</time>
      </trkpt>
      <trkpt lat="47.24728" lon="4.93582">
        <ele>505</ele>
        <time>2015-04-19T08:38:23.813Z</time>
      </trkpt>
      <trkpt lat="47.24727" lon="4.93585">
        <ele>503</ele>
        <time>2015-04-19T08:38:24.820Z</time>
      </trkpt>
      <trkpt lat="47.24723" lon="4.93596">
        <ele>503</ele>
        <time>2015-04-19T08:38:29.801Z</time>
      </trkpt>
      <trkpt lat="47.24722" lon="4.93598">
        <ele>503</ele>
        <time>2015-04-19T08:38:30.773Z</time>
      </trkpt>
      <trkpt lat="47.2472" lon="4.93608">
        <ele>503</ele>
        <time>2015-04-19T08:38:34.798Z</time>
      </trkpt>
      <trkpt lat="47.2472" lon="4.93611">
        <ele>503</ele>
        <time>2015-04-19T08:38:35.800Z</time>
      </trkpt>
      <trkpt lat="47.24718" lon="4.93622">
        <ele>503</ele>
        <time>2015-04-19T08:38:39.793Z</time>
      </trkpt>
      <trkpt lat="47.24718" lon="4.93625">
        <ele>503</ele>
        <time>2015-04-19T08:38:40.813Z</time>
      </trkpt>
      <trkpt lat="47.24715" lon="4.93637">
        <ele>503</ele>
        <time>2015-04-19T08:38:45.782Z</time>
      </trkpt>
      <trkpt lat="47.24714" lon="4.93639">
        <ele>503</ele>
        <time>2015-04-19T08:38:46.818Z</time>
      </trkpt>
      <trkpt lat="47.24713" lon="4.9365">
        <ele>503</ele>
        <time>2015-04-19T08:38:50.819Z</time>
      </trkpt>
      <trkpt lat="47.24712" lon="4.93652">
        <ele>503</ele>
        <time>2015-04-19T08:38:51.838Z</time>
      </trkpt>
      <trkpt lat="47.2471" lon="4.93663">
        <ele>502</ele>
        <time>2015-04-19T08:38:55.802Z</time>
      </trkpt>
      <trkpt lat="47.2471" lon="4.93666">
        <ele>502</ele>
        <time>2015-04-19T08:38:56.802Z</time>
      </trkpt>
      <trkpt lat="47.24708" lon="4.93679">
        <ele>501</ele>
        <time>2015-04-19T08:39:00.786Z</time>
      </trkpt>
      <trkpt lat="47.24707" lon="4.93682">
        <ele>501</ele>
        <time>2015-04-19T08:39:01.799Z</time>
      </trkpt>
      <trkpt lat="47.24704" lon="4.93694">
        <ele>501</ele>
        <time>2015-04-19T08:39:06.804Z</time>
      </trkpt>
      <trkpt lat="47.24703" lon="4.93696">
        <ele>501</ele>
        <time>2015-04-19T08:39:07.805Z</time>
      </trkpt>
      <trkpt lat="47.24699" lon="4.93705">
        <ele>500</ele>
        <time>2015-04-19T08:39:11.805Z</time>
      </trkpt>
      <trkpt lat="47.24698" lon="4.93707">
        <ele>500</ele>
        <time>2015-04-19T08:39:12.823Z</time>
      </trkpt>
      <trkpt lat="47.24695" lon="4.93716">
        <ele>500</ele>
        <time>2015-04-19T08:39:16.797Z</time>
      </trkpt>
      <trkpt lat="47.24693" lon="4.93718">
        <ele>500</ele>
        <time>2015-04-19T08:39:17.812Z</time>
      </trkpt>
      <trkpt lat="47.2469" lon="4.93728">
        <ele>500</ele>
        <time>2015-04-19T08:39:21.809Z</time>
      </trkpt>
      <trkpt lat="47.24689" lon="4.93731">
        <ele>500</ele>
        <time>2015-04-19T08:39:22.796Z</time>
      </trkpt>
      <trkpt lat="47.24687" lon="4.93742">
        <ele>500</ele>
        <time>2015-04-19T08:39:26.797Z</time>
      </trkpt>
      <trkpt lat="47.24686" lon="4.93745">
        <ele>500</ele>
        <time>2015-04-19T08:39:27.815Z</time>
      </trkpt>
      <trkpt lat="47.24683" lon="4.93756">
        <ele>498</ele>
        <time>2015-04-19T08:39:32.821Z</time>
      </trkpt>
      <trkpt lat="47.24683" lon="4.93758">
        <ele>498</ele>
        <time>2015-04-19T08:39:33.808Z</time>
      </trkpt>
      <trkpt lat="47.24682" lon="4.9377">
        <ele>497</ele>
        <time>2015-04-19T08:39:38.806Z</time>
      </trkpt>
      <trkpt lat="47.24682" lon="4.93772">
        <ele>497</ele>
        <time>2015-04-19T08:39:39.814Z</time>
      </trkpt>
      <trkpt lat="47.24681" lon="4.93785">
        <ele>497</ele>
        <time>2015-04-19T08:39:45.783Z</time>
      </trkpt>
      <trkpt lat="47.24681" lon="4.93788">
        <ele>497</ele>
        <time>2015-04-19T08:39:46.794Z</time>
      </trkpt>
      <trkpt lat="47.24683" lon="4.93799">
        <ele>496</ele>
        <time>2015-04-19T08:39:51.821Z</time>
      </trkpt>
      <trkpt lat="47.24684" lon="4.93802">
        <ele>496</ele>
        <time>2015-04-19T08:39:52.790Z</time>
      </trkpt>
      <trkpt lat="47.24685" lon="4.93812">
        <ele>496</ele>
        <time>2015-04-19T08:39:56.815Z</time>
      </trkpt>
      <trkpt lat="47.24686" lon="4.93815">
        <ele>496</ele>
        <time>2015-04-19T08:39:57.818Z</time>
      </trkpt>
      <trkpt lat="47.24687" lon="4.93827">
        <ele>496</ele>
        <time>2015-04-19T08:40:01.811Z</time>
      </trkpt>
      <trkpt lat="47.24688" lon="4.9383">
        <ele>496</ele>
        <time>2015-04-19T08:40:02.790Z</time>
      </trkpt>
      <trkpt lat="47.24688" lon="4.93841">
        <ele>494</ele>
        <time>2015-04-19T08:40:06.805Z</time>
      </trkpt>
      <trkpt lat="47.24689" lon="4.93844">
        <ele>494</ele>
        <time>2015-04-19T08:40:07.809Z</time>
      </trkpt>
      <trkpt lat="47.24691" lon="4.93856">
        <ele>493</ele>
        <time>2015-04-19T08:40:11.814Z</time>
      </trkpt>
      <trkpt lat="47.24691" lon="4.93859">
        <ele>493</ele>
        <time>2015-04-19T08:40:12.785Z</time>
      </trkpt>
      <trkpt lat="47.24694" lon="4.93869">
        <ele>493</ele>
        <time>2015-04-19T08:40:15.839Z</time>
      </trkpt>
      <trkpt lat="47.24694" lon="4.93873">
        <ele>493</ele>
        <time>2015-04-19T08:40:16.811Z</time>
      </trkpt>
      <trkpt lat="47.24695" lon="4.93883">
        <ele>493</ele>
        <time>2015-04-19T08:40:18.827Z</time>
      </trkpt>
      <trkpt lat="47.24695" lon="4.93888">
        <ele>493</ele>
        <time>2015-04-19T08:40:19.831Z</time>
      </trkpt>
      <trkpt lat="47.24697" lon="4.939">
        <ele>493</ele>
        <time>2015-04-19T08:40:22.822Z</time>
      </trkpt>
      <trkpt lat="47.24697" lon="4.93904">
        <ele>493</ele>
        <time>2015-04-19T08:40:23.830Z</time>
      </trkpt>
      <trkpt lat="47.24697" lon="4.93916">
        <ele>493</ele>
        <time>2015-04-19T08:40:27.792Z</time>
      </trkpt>
      <trkpt lat="47.24696" lon="4.9392">
        <ele>491</ele>
        <time>2015-04-19T08:40:28.825Z</time>
      </trkpt>
      <trkpt lat="47.24696" lon="4.9393">
        <ele>491</ele>
        <time>2015-04-19T08:40:31.815Z</time>
      </trkpt>
      <trkpt lat="47.24696" lon="4.93933">
        <ele>491</ele>
        <time>2015-04-19T08:40:32.813Z</time>
      </trkpt>
      <trkpt lat="47.24695" lon="4.93946">
        <ele>491</ele>
        <time>2015-04-19T08:40:36.810Z</time>
      </trkpt>
      <trkpt lat="47.24695" lon="4.93949">
        <ele>491</ele>
        <time>2015-04-19T08:40:37.821Z</time>
      </trkpt>
      <trkpt lat="47.24695" lon="4.93961">
        <ele>491</ele>
        <time>2015-04-19T08:40:41.799Z</time>
      </trkpt>
      <trkpt lat="47.24695" lon="4.93964">
        <ele>491</ele>
        <time>2015-04-19T08:40:42.802Z</time>
      </trkpt>
      <trkpt lat="47.24697" lon="4.93975">
        <ele>491</ele>
        <time>2015-04-19T08:40:46.816Z</time>
      </trkpt>
      <trkpt lat="47.24697" lon="4.93978">
        <ele>491</ele>
        <time>2015-04-19T08:40:47.815Z</time>
      </trkpt>
      <trkpt lat="47.24698" lon="4.93989">
        <ele>491</ele>
        <time>2015-04-19T08:40:51.826Z</time>
      </trkpt>
      <trkpt lat="47.24697" lon="4.93992">
        <ele>491</ele>
        <time>2015-04-19T08:40:52.817Z</time>
      </trkpt>
      <trkpt lat="47.24696" lon="4.94003">
        <ele>491</ele>
        <time>2015-04-19T08:40:56.794Z</time>
      </trkpt>
      <trkpt lat="47.24696" lon="4.94006">
        <ele>491</ele>
        <time>2015-04-19T08:40:57.812Z</time>
      </trkpt>
      <trkpt lat="47.24694" lon="4.94016">
        <ele>491</ele>
        <time>2015-04-19T08:41:02.810Z</time>
      </trkpt>
      <trkpt lat="47.24693" lon="4.94018">
        <ele>491</ele>
        <time>2015-04-19T08:41:03.816Z</time>
      </trkpt>
      <trkpt lat="47.24691" lon="4.94031">
        <ele>490</ele>
        <time>2015-04-19T08:41:08.810Z</time>
      </trkpt>
      <trkpt lat="47.24691" lon="4.94033">
        <ele>490</ele>
        <time>2015-04-19T08:41:09.802Z</time>
      </trkpt>
      <trkpt lat="47.24688" lon="4.94044">
        <ele>490</ele>
        <time>2015-04-19T08:41:14.814Z</time>
      </trkpt>
      <trkpt lat="47.24687" lon="4.94047">
        <ele>490</ele>
        <time>2015-04-19T08:41:15.814Z</time>
      </trkpt>
      <trkpt lat="47.24685" lon="4.94058">
        <ele>491</ele>
        <time>2015-04-19T08:41:19.817Z</time>
      </trkpt>
      <trkpt lat="47.24685" lon="4.9406">
        <ele>491</ele>
        <time>2015-04-19T08:41:20.814Z</time>
      </trkpt>
      <trkpt lat="47.24684" lon="4.94071">
        <ele>491</ele>
        <time>2015-04-19T08:41:24.822Z</time>
      </trkpt>
      <trkpt lat="47.24684" lon="4.94074">
        <ele>491</ele>
        <time>2015-04-19T08:41:25.843Z</time>
      </trkpt>
      <trkpt lat="47.24683" lon="4.94085">
        <ele>491</ele>
        <time>2015-04-19T08:41:29.800Z</time>
      </trkpt>
      <trkpt lat="47.24683" lon="4.94088">
        <ele>491</ele>
        <time>2015-04-19T08:41:30.802Z</time>
      </trkpt>
      <trkpt lat="47.24682" lon="4.94101">
        <ele>490</ele>
        <time>2015-04-19T08:41:35.811Z</time>
      </trkpt>
      <trkpt lat="47.24682" lon="4.94104">
        <ele>490</ele>
        <time>2015-04-19T08:41:36.781Z</time>
      </trkpt>
      <trkpt lat="47.24683" lon="4.94116">
        <ele>490</ele>
        <time>2015-04-19T08:41:40.783Z</time>
      </trkpt>
      <trkpt lat="47.24683" lon="4.94119">
        <ele>490</ele>
        <time>2015-04-19T08:41:41.792Z</time>
      </trkpt>
      <trkpt lat="47.24684" lon="4.9413">
        <ele>490</ele>
        <time>2015-04-19T08:41:45.854Z</time>
      </trkpt>
      <trkpt lat="47.24684" lon="4.94133">
        <ele>490</ele>
        <time>2015-04-19T08:41:46.827Z</time>
      </trkpt>
      <trkpt lat="47.24685" lon="4.94144">
        <ele>490</ele>
        <time>2015-04-19T08:41:50.823Z</time>
      </trkpt>
      <trkpt lat="47.24685" lon="4.94146">
        <ele>490</ele>
        <time>2015-04-19T08:41:51.801Z</time>
      </trkpt>
      <trkpt lat="47.24686" lon="4.94157">
        <ele>490</ele>
        <time>2015-04-19T08:41:55.811Z</time>
      </trkpt>
      <trkpt lat="47.24686" lon="4.9416">
        <ele>490</ele>
        <time>2015-04-19T08:41:56.825Z</time>
      </trkpt>
      <trkpt lat="47.24686" lon="4.94172">
        <ele>490</ele>
        <time>2015-04-19T08:42:01.823Z</time>
      </trkpt>
      <trkpt lat="47.24687" lon="4.94174">
        <ele>490</ele>
        <time>2015-04-19T08:42:02.787Z</time>
      </trkpt>
      <trkpt lat="47.24685" lon="4.94187">
        <ele>490</ele>
        <time>2015-04-19T08:42:07.823Z</time>
      </trkpt>
      <trkpt lat="47.24685" lon="4.94189">
        <ele>490</ele>
        <time>2015-04-19T08:42:08.821Z</time>
      </trkpt>
      <trkpt lat="47.24686" lon="4.94201">
        <ele>490</ele>
        <time>2015-04-19T08:42:13.799Z</time>
      </trkpt>
      <trkpt lat="47.24686" lon="4.94204">
        <ele>490</ele>
        <time>2015-04-19T08:42:14.826Z</time>
      </trkpt>
      <trkpt lat="47.24686" lon="4.94216">
        <ele>490</ele>
        <time>2015-04-19T08:42:20.790Z</time>
      </trkpt>
      <trkpt lat="47.24686" lon="4.94218">
        <ele>490</ele>
        <time>2015-04-19T08:42:21.812Z</time>
      </trkpt>
      <trkpt lat="47.24688" lon="4.9423">
        <ele>490</ele>
        <time>2015-04-19T08:42:26.824Z</time>
      </trkpt>
      <trkpt lat="47.24688" lon="4.94233">
        <ele>490</ele>
        <time>2015-04-19T08:42:27.825Z</time>
      </trkpt>
      <trkpt lat="47.24687" lon="4.94243">
        <ele>490</ele>
        <time>2015-04-19T08:42:31.857Z</time>
      </trkpt>
      <trkpt lat="47.24687" lon="4.94246">
        <ele>490</ele>
        <time>2015-04-19T08:42:32.822Z</time>
      </trkpt>
      <trkpt lat="47.24688" lon="4.94257">
        <ele>490</ele>
        <time>2015-04-19T08:42:36.813Z</time>
      </trkpt>
      <trkpt lat="47.24689" lon="4.9426">
        <ele>490</ele>
        <time>2015-04-19T08:42:37.822Z</time>
      </trkpt>
      <trkpt lat="47.2469" lon="4.94273">
        <ele>490</ele>
        <time>2015-04-19T08:42:41.806Z</time>
      </trkpt>
      <trkpt lat="47.24689" lon="4.94276">
        <ele>490</ele>
        <time>2015-04-19T08:42:42.819Z</time>
      </trkpt>
      <trkpt lat="47.24689" lon="4.94289">
        <ele>490</ele>
        <time>2015-04-19T08:42:46.802Z</time>
      </trkpt>
      <trkpt lat="47.24689" lon="4.94292">
        <ele>490</ele>
        <time>2015-04-19T08:42:47.819Z</time>
      </trkpt>
      <trkpt lat="47.24688" lon="4.94305">
        <ele>490</ele>
        <time>2015-04-19T08:42:51.817Z</time>
      </trkpt>
      <trkpt lat="47.24688" lon="4.94308">
        <ele>490</ele>
        <time>2015-04-19T08:42:52.819Z</time>
      </trkpt>
      <trkpt lat="47.24686" lon="4.9432">
        <ele>490</ele>
        <time>2015-04-19T08:42:56.814Z</time>
      </trkpt>
      <trkpt lat="47.24686" lon="4.94322">
        <ele>490</ele>
        <time>2015-04-19T08:42:57.794Z</time>
      </trkpt>
      <trkpt lat="47.24686" lon="4.94333">
        <ele>490</ele>
        <time>2015-04-19T08:43:01.819Z</time>
      </trkpt>
      <trkpt lat="47.24686" lon="4.94336">
        <ele>490</ele>
        <time>2015-04-19T08:43:02.803Z</time>
      </trkpt>
      <trkpt lat="47.24685" lon="4.94348">
        <ele>490</ele>
        <time>2015-04-19T08:43:06.803Z</time>
      </trkpt>
      <trkpt lat="47.24685" lon="4.9435">
        <ele>490</ele>
        <time>2015-04-19T08:43:07.813Z</time>
      </trkpt>
      <trkpt lat="47.24684" lon="4.94361">
        <ele>490</ele>
        <time>2015-04-19T08:43:11.877Z</time>
      </trkpt>
      <trkpt lat="47.24684" lon="4.94364">
        <ele>490</ele>
        <time>2015-04-19T08:43:12.853Z</time>
      </trkpt>
      <trkpt lat="47.24683" lon="4.94377">
        <ele>490</ele>
        <time>2015-04-19T08:43:17.889Z</time>
      </trkpt>
      <trkpt lat="47.24683" lon="4.9438">
        <ele>490</ele>
        <time>2015-04-19T08:43:18.877Z</time>
      </trkpt>
      <trkpt lat="47.24683" lon="4.94392">
        <ele>490</ele>
        <time>2015-04-19T08:43:22.871Z</time>
      </trkpt>
      <trkpt lat="47.24683" lon="4.94394">
        <ele>490</ele>
        <time>2015-04-19T08:43:23.907Z</time>
      </trkpt>
      <trkpt lat="47.24685" lon="4.94407">
        <ele>490</ele>
        <time>2015-04-19T08:43:27.871Z</time>
      </trkpt>
      <trkpt lat="47.24686" lon="4.9441">
        <ele>490</ele>
        <time>2015-04-19T08:43:28.873Z</time>
      </trkpt>
      <trkpt lat="47.24687" lon="4.94423">
        <ele>490</ele>
        <time>2015-04-19T08:43:32.866Z</time>
      </trkpt>
      <trkpt lat="47.24687" lon="4.94426">
        <ele>490</ele>
        <time>2015-04-19T08:43:33.870Z</time>
      </trkpt>
      <trkpt lat="47.24685" lon="4.94438">
        <ele>490</ele>
        <time>2015-04-19T08:43:37.847Z</time>
      </trkpt>
      <trkpt lat="47.24684" lon="4.94442">
        <ele>490</ele>
        <time>2015-04-19T08:43:38.851Z</time>
      </trkpt>
      <trkpt lat="47.24683" lon="4.94453">
        <ele>490</ele>
        <time>2015-04-19T08:43:41.853Z</time>
      </trkpt>
      <trkpt lat="47.24683" lon="4.94457">
        <ele>489</ele>
        <time>2015-04-19T08:43:42.861Z</time>
      </trkpt>
      <trkpt lat="47.24681" lon="4.94468">
        <ele>489</ele>
        <time>2015-04-19T08:43:45.879Z</time>
      </trkpt>
      <trkpt lat="47.24681" lon="4.94472">
        <ele>489</ele>
        <time>2015-04-19T08:43:46.870Z</time>
      </trkpt>
      <trkpt lat="47.24678" lon="4.94484">
        <ele>489</ele>
        <time>2015-04-19T08:43:49.876Z</time>
      </trkpt>
      <trkpt lat="47.24677" lon="4.94487">
        <ele>489</ele>
        <time>2015-04-19T08:43:50.858Z</time>
      </trkpt>
      <trkpt lat="47.24677" lon="4.945">
        <ele>488</ele>
        <time>2015-04-19T08:43:54.850Z</time>
      </trkpt>
      <trkpt lat="47.24676" lon="4.94503">
        <ele>488</ele>
        <time>2015-04-19T08:43:55.867Z</time>
      </trkpt>
      <trkpt lat="47.24676" lon="4.94513">
        <ele>488</ele>
        <time>2015-04-19T08:43:58.882Z</time>
      </trkpt>
      <trkpt lat="47.24675" lon="4.94516">
        <ele>488</ele>
        <time>2015-04-19T08:43:59.858Z</time>
      </trkpt>
      <trkpt lat="47.24676" lon="4.94529">
        <ele>488</ele>
        <time>2015-04-19T08:44:04.769Z</time>
      </trkpt>
      <trkpt lat="47.24676" lon="4.94531">
        <ele>487</ele>
        <time>2015-04-19T08:44:05.779Z</time>
      </trkpt>
      <trkpt lat="47.24675" lon="4.9454">
        <ele>487</ele>
        <time>2015-04-19T08:44:08.746Z</time>
      </trkpt>
      <trkpt lat="47.24675" lon="4.94544">
        <ele>487</ele>
        <time>2015-04-19T08:44:09.788Z</time>
      </trkpt>
      <trkpt lat="47.24674" lon="4.94552">
        <ele>487</ele>
        <time>2015-04-19T08:44:11.764Z</time>
      </trkpt>
      <trkpt lat="47.24675" lon="4.9456">
        <ele>487</ele>
        <time>2015-04-19T08:44:12.762Z</time>
      </trkpt>
      <trkpt lat="47.24674" lon="4.94573">
        <ele>486</ele>
        <time>2015-04-19T08:44:15.767Z</time>
      </trkpt>
      <trkpt lat="47.24674" lon="4.94577">
        <ele>486</ele>
        <time>2015-04-19T08:44:16.788Z</time>
      </trkpt>
      <trkpt lat="47.24672" lon="4.94589">
        <ele>486</ele>
        <time>2015-04-19T08:44:19.802Z</time>
      </trkpt>
      <trkpt lat="47.24672" lon="4.94592">
        <ele>486</ele>
        <time>2015-04-19T08:44:20.791Z</time>
      </trkpt>
      <trkpt lat="47.24669" lon="4.94604">
        <ele>485</ele>
        <time>2015-04-19T08:44:24.781Z</time>
      </trkpt>
      <trkpt lat="47.24669" lon="4.94607">
        <ele>485</ele>
        <time>2015-04-19T08:44:25.796Z</time>
      </trkpt>
      <trkpt lat="47.24667" lon="4.94617">
        <ele>485</ele>
        <time>2015-04-19T08:44:28.780Z</time>
      </trkpt>
      <trkpt lat="47.24666" lon="4.94621">
        <ele>485</ele>
        <time>2015-04-19T08:44:29.775Z</time>
      </trkpt>
      <trkpt lat="47.24663" lon="4.9463">
        <ele>485</ele>
        <time>2015-04-19T08:44:32.784Z</time>
      </trkpt>
      <trkpt lat="47.24662" lon="4.94633">
        <ele>485</ele>
        <time>2015-04-19T08:44:33.784Z</time>
      </trkpt>
      <trkpt lat="47.24656" lon="4.94642">
        <ele>485</ele>
        <time>2015-04-19T08:44:35.768Z</time>
      </trkpt>
      <trkpt lat="47.24655" lon="4.94645">
        <ele>484</ele>
        <time>2015-04-19T08:44:36.769Z</time>
      </trkpt>
      <trkpt lat="47.24653" lon="4.94655">
        <ele>484</ele>
        <time>2015-04-19T08:44:39.757Z</time>
      </trkpt>
      <trkpt lat="47.24653" lon="4.94659">
        <ele>484</ele>
        <time>2015-04-19T08:44:40.772Z</time>
      </trkpt>
      <trkpt lat="47.24651" lon="4.9467">
        <ele>483</ele>
        <time>2015-04-19T08:44:43.774Z</time>
      </trkpt>
      <trkpt lat="47.2465" lon="4.94673">
        <ele>483</ele>
        <time>2015-04-19T08:44:44.794Z</time>
      </trkpt>
      <trkpt lat="47.24648" lon="4.94682">
        <ele>482</ele>
        <time>2015-04-19T08:44:47.774Z</time>
      </trkpt>
      <trkpt lat="47.24647" lon="4.94685">
        <ele>482</ele>
        <time>2015-04-19T08:44:48.776Z</time>
      </trkpt>
      <trkpt lat="47.24643" lon="4.94695">
        <ele>482</ele>
        <time>2015-04-19T08:44:51.779Z</time>
      </trkpt>
      <trkpt lat="47.24641" lon="4.94699">
        <ele>481</ele>
        <time>2015-04-19T08:44:52.793Z</time>
      </trkpt>
      <trkpt lat="47.24638" lon="4.94708">
        <ele>481</ele>
        <time>2015-04-19T08:44:55.830Z</time>
      </trkpt>
      <trkpt lat="47.24636" lon="4.94712">
        <ele>481</ele>
        <time>2015-04-19T08:44:56.779Z</time>
      </trkpt>
      <trkpt lat="47.24633" lon="4.94721">
        <ele>481</ele>
        <time>2015-04-19T08:44:59.780Z</time>
      </trkpt>
      <trkpt lat="47.24631" lon="4.94724">
        <ele>481</ele>
        <time>2015-04-19T08:45:00.782Z</time>
      </trkpt>
      <trkpt lat="47.24627" lon="4.94733">
        <ele>480</ele>
        <time>2015-04-19T08:45:03.783Z</time>
      </trkpt>
      <trkpt lat="47.24625" lon="4.94736">
        <ele>480</ele>
        <time>2015-04-19T08:45:04.776Z</time>
      </trkpt>
      <trkpt lat="47.24621" lon="4.94747">
        <ele>480</ele>
        <time>2015-04-19T08:45:08.764Z</time>
      </trkpt>
      <trkpt lat="47.2462" lon="4.94749">
        <ele>480</ele>
        <time>2015-04-19T08:45:09.786Z</time>
      </trkpt>
      <trkpt lat="47.24616" lon="4.9476">
        <ele>478</ele>
        <time>2015-04-19T08:45:13.792Z</time>
      </trkpt>
      <trkpt lat="47.24616" lon="4.94763">
        <ele>478</ele>
        <time>2015-04-19T08:45:14.782Z</time>
      </trkpt>
      <trkpt lat="47.24613" lon="4.94773">
        <ele>478</ele>
        <time>2015-04-19T08:45:17.781Z</time>
      </trkpt>
      <trkpt lat="47.24613" lon="4.94776">
        <ele>478</ele>
        <time>2015-04-19T08:45:18.780Z</time>
      </trkpt>
      <trkpt lat="47.24611" lon="4.94787">
        <ele>478</ele>
        <time>2015-04-19T08:45:21.785Z</time>
      </trkpt>
      <trkpt lat="47.2461" lon="4.94791">
        <ele>478</ele>
        <time>2015-04-19T08:45:22.813Z</time>
      </trkpt>
      <trkpt lat="47.24608" lon="4.94801">
        <ele>477</ele>
        <time>2015-04-19T08:45:25.800Z</time>
      </trkpt>
      <trkpt lat="47.24607" lon="4.94804">
        <ele>477</ele>
        <time>2015-04-19T08:45:26.802Z</time>
      </trkpt>
      <trkpt lat="47.24604" lon="4.94817">
        <ele>477</ele>
        <time>2015-04-19T08:45:30.773Z</time>
      </trkpt>
      <trkpt lat="47.24603" lon="4.9482">
        <ele>477</ele>
        <time>2015-04-19T08:45:31.771Z</time>
      </trkpt>
      <trkpt lat="47.246" lon="4.94829">
        <ele>477</ele>
        <time>2015-04-19T08:45:34.772Z</time>
      </trkpt>
      <trkpt lat="47.24599" lon="4.94832">
        <ele>477</ele>
        <time>2015-04-19T08:45:35.781Z</time>
      </trkpt>
      <trkpt lat="47.24595" lon="4.94841">
        <ele>475</ele>
        <time>2015-04-19T08:45:38.765Z</time>
      </trkpt>
      <trkpt lat="47.24595" lon="4.94844">
        <ele>475</ele>
        <time>2015-04-19T08:45:39.786Z</time>
      </trkpt>
      <trkpt lat="47.24592" lon="4.94856">
        <ele>475</ele>
        <time>2015-04-19T08:45:43.781Z</time>
      </trkpt>
      <trkpt lat="47.24591" lon="4.94858">
        <ele>475</ele>
        <time>2015-04-19T08:45:44.795Z</time>
      </trkpt>
      <trkpt lat="47.24587" lon="4.9487">
        <ele>475</ele>
        <time>2015-04-19T08:45:48.817Z</time>
      </trkpt>
      <trkpt lat="47.24586" lon="4.94873">
        <ele>475</ele>
        <time>2015-04-19T08:45:49.792Z</time>
      </trkpt>
      <trkpt lat="47.24584" lon="4.94882">
        <ele>474</ele>
        <time>2015-04-19T08:45:52.756Z</time>
      </trkpt>
      <trkpt lat="47.24583" lon="4.94885">
        <ele>474</ele>
        <time>2015-04-19T08:45:53.789Z</time>
      </trkpt>
      <trkpt lat="47.24581" lon="4.94896">
        <ele>473</ele>
        <time>2015-04-19T08:45:58.416Z</time>
      </trkpt>
      <trkpt lat="47.2458" lon="4.94899">
        <ele>473</ele>
        <time>2015-04-19T08:45:59.420Z</time>
      </trkpt>
      <trkpt lat="47.24577" lon="4.9491">
        <ele>473</ele>
        <time>2015-04-19T08:46:04.424Z</time>
      </trkpt>
      <trkpt lat="47.24576" lon="4.94913">
        <ele>473</ele>
        <time>2015-04-19T08:46:05.433Z</time>
      </trkpt>
      <trkpt lat="47.24573" lon="4.94925">
        <ele>472</ele>
        <time>2015-04-19T08:46:10.422Z</time>
      </trkpt>
      <trkpt lat="47.24572" lon="4.94927">
        <ele>472</ele>
        <time>2015-04-19T08:46:11.436Z</time>
      </trkpt>
      <trkpt lat="47.24568" lon="4.94937">
        <ele>472</ele>
        <time>2015-04-19T08:46:16.431Z</time>
      </trkpt>
      <trkpt lat="47.24567" lon="4.94939">
        <ele>472</ele>
        <time>2015-04-19T08:46:17.434Z</time>
      </trkpt>
      <trkpt lat="47.24564" lon="4.94948">
        <ele>472</ele>
        <time>2015-04-19T08:46:21.492Z</time>
      </trkpt>
      <trkpt lat="47.24562" lon="4.9495">
        <ele>472</ele>
        <time>2015-04-19T08:46:22.420Z</time>
      </trkpt>
      <trkpt lat="47.24558" lon="4.94959">
        <ele>473</ele>
        <time>2015-04-19T08:46:26.458Z</time>
      </trkpt>
      <trkpt lat="47.24557" lon="4.94961">
        <ele>473</ele>
        <time>2015-04-19T08:46:27.439Z</time>
      </trkpt>
      <trkpt lat="47.24554" lon="4.94971">
        <ele>473</ele>
        <time>2015-04-19T08:46:31.421Z</time>
      </trkpt>
      <trkpt lat="47.24553" lon="4.94974">
        <ele>473</ele>
        <time>2015-04-19T08:46:32.412Z</time>
      </trkpt>
      <trkpt lat="47.24551" lon="4.94985">
        <ele>473</ele>
        <time>2015-04-19T08:46:36.428Z</time>
      </trkpt>
      <trkpt lat="47.24551" lon="4.94988">
        <ele>473</ele>
        <time>2015-04-19T08:46:37.425Z</time>
      </trkpt>
      <trkpt lat="47.24547" lon="4.94999">
        <ele>473</ele>
        <time>2015-04-19T08:46:41.430Z</time>
      </trkpt>
      <trkpt lat="47.24546" lon="4.95002">
        <ele>471</ele>
        <time>2015-04-19T08:46:42.430Z</time>
      </trkpt>
      <trkpt lat="47.24541" lon="4.95012">
        <ele>471</ele>
        <time>2015-04-19T08:46:46.440Z</time>
      </trkpt>
      <trkpt lat="47.24541" lon="4.95015">
        <ele>471</ele>
        <time>2015-04-19T08:46:47.422Z</time>
      </trkpt>
      <trkpt lat="47.24539" lon="4.95027">
        <ele>470</ele>
        <time>2015-04-19T08:46:51.442Z</time>
      </trkpt>
      <trkpt lat="47.24538" lon="4.9503">
        <ele>470</ele>
        <time>2015-04-19T08:46:52.438Z</time>
      </trkpt>
      <trkpt lat="47.24536" lon="4.95041">
        <ele>470</ele>
        <time>2015-04-19T08:46:56.429Z</time>
      </trkpt>
      <trkpt lat="47.24535" lon="4.95044">
        <ele>470</ele>
        <time>2015-04-19T08:46:57.442Z</time>
      </trkpt>
      <trkpt lat="47.24532" lon="4.95053">
        <ele>470</ele>
        <time>2015-04-19T08:47:02.431Z</time>
      </trkpt>
      <trkpt lat="47.24531" lon="4.95056">
        <ele>469</ele>
        <time>2015-04-19T08:47:03.430Z</time>
      </trkpt>
      <trkpt lat="47.24528" lon="4.95067">
        <ele>469</ele>
        <time>2015-04-19T08:47:07.432Z</time>
      </trkpt>
      <trkpt lat="47.24527" lon="4.9507">
        <ele>469</ele>
        <time>2015-04-19T08:47:08.445Z</time>
      </trkpt>
      <trkpt lat="47.24522" lon="4.9508">
        <ele>469</ele>
        <time>2015-04-19T08:47:12.426Z</time>
      </trkpt>
      <trkpt lat="47.24521" lon="4.95083">
        <ele>469</ele>
        <time>2015-04-19T08:47:13.431Z</time>
      </trkpt>
      <trkpt lat="47.24516" lon="4.95093">
        <ele>465</ele>
        <time>2015-04-19T08:47:17.437Z</time>
      </trkpt>
      <trkpt lat="47.24515" lon="4.95095">
        <ele>465</ele>
        <time>2015-04-19T08:47:18.441Z</time>
      </trkpt>
      <trkpt lat="47.24511" lon="4.95106">
        <ele>465</ele>
        <time>2015-04-19T08:47:22.434Z</time>
      </trkpt>
      <trkpt lat="47.2451" lon="4.95108">
        <ele>465</ele>
        <time>2015-04-19T08:47:23.448Z</time>
      </trkpt>
      <trkpt lat="47.24505" lon="4.95118">
        <ele>464</ele>
        <time>2015-04-19T08:47:28.434Z</time>
      </trkpt>
      <trkpt lat="47.24504" lon="4.9512">
        <ele>464</ele>
        <time>2015-04-19T08:47:29.439Z</time>
      </trkpt>
      <trkpt lat="47.24499" lon="4.95131">
        <ele>463</ele>
        <time>2015-04-19T08:47:33.431Z</time>
      </trkpt>
      <trkpt lat="47.24498" lon="4.95133">
        <ele>463</ele>
        <time>2015-04-19T08:47:34.443Z</time>
      </trkpt>
      <trkpt lat="47.24496" lon="4.95146">
        <ele>462</ele>
        <time>2015-04-19T08:47:38.437Z</time>
      </trkpt>
      <trkpt lat="47.24495" lon="4.95149">
        <ele>462</ele>
        <time>2015-04-19T08:47:39.443Z</time>
      </trkpt>
      <trkpt lat="47.24492" lon="4.95158">
        <ele>462</ele>
        <time>2015-04-19T08:47:42.434Z</time>
      </trkpt>
      <trkpt lat="47.24491" lon="4.95161">
        <ele>461</ele>
        <time>2015-04-19T08:47:43.440Z</time>
      </trkpt>
      <trkpt lat="47.24487" lon="4.95171">
        <ele>460</ele>
        <time>2015-04-19T08:47:46.447Z</time>
      </trkpt>
      <trkpt lat="47.24486" lon="4.95174">
        <ele>460</ele>
        <time>2015-04-19T08:47:47.434Z</time>
      </trkpt>
      <trkpt lat="47.24483" lon="4.95183">
        <ele>460</ele>
        <time>2015-04-19T08:47:50.444Z</time>
      </trkpt>
      <trkpt lat="47.24482" lon="4.95187">
        <ele>460</ele>
        <time>2015-04-19T08:47:51.427Z</time>
      </trkpt>
      <trkpt lat="47.2448" lon="4.95198">
        <ele>459</ele>
        <time>2015-04-19T08:47:54.438Z</time>
      </trkpt>
      <trkpt lat="47.2448" lon="4.95202">
        <ele>459</ele>
        <time>2015-04-19T08:47:55.439Z</time>
      </trkpt>
      <trkpt lat="47.24479" lon="4.95212">
        <ele>459</ele>
        <time>2015-04-19T08:47:58.441Z</time>
      </trkpt>
      <trkpt lat="47.24478" lon="4.95215">
        <ele>459</ele>
        <time>2015-04-19T08:47:59.435Z</time>
      </trkpt>
      <trkpt lat="47.24476" lon="4.95225">
        <ele>459</ele>
        <time>2015-04-19T08:48:02.434Z</time>
      </trkpt>
      <trkpt lat="47.24475" lon="4.95229">
        <ele>459</ele>
        <time>2015-04-19T08:48:03.436Z</time>
      </trkpt>
      <trkpt lat="47.24472" lon="4.95238">
        <ele>459</ele>
        <time>2015-04-19T08:48:06.463Z</time>
      </trkpt>
      <trkpt lat="47.24471" lon="4.95241">
        <ele>459</ele>
        <time>2015-04-19T08:48:07.441Z</time>
      </trkpt>
      <trkpt lat="47.24468" lon="4.95253">
        <ele>456</ele>
        <time>2015-04-19T08:48:11.462Z</time>
      </trkpt>
      <trkpt lat="47.24467" lon="4.95256">
        <ele>456</ele>
        <time>2015-04-19T08:48:12.433Z</time>
      </trkpt>
      <trkpt lat="47.24463" lon="4.95265">
        <ele>456</ele>
        <time>2015-04-19T08:48:15.429Z</time>
      </trkpt>
      <trkpt lat="47.24462" lon="4.95268">
        <ele>456</ele>
        <time>2015-04-19T08:48:16.441Z</time>
      </trkpt>
      <trkpt lat="47.24456" lon="4.95275">
        <ele>455</ele>
        <time>2015-04-19T08:48:19.433Z</time>
      </trkpt>
      <trkpt lat="47.24455" lon="4.95278">
        <ele>455</ele>
        <time>2015-04-19T08:48:20.444Z</time>
      </trkpt>
      <trkpt lat="47.24448" lon="4.95286">
        <ele>455</ele>
        <time>2015-04-19T08:48:23.452Z</time>
      </trkpt>
      <trkpt lat="47.24446" lon="4.95288">
        <ele>455</ele>
        <time>2015-04-19T08:48:24.474Z</time>
      </trkpt>
      <trkpt lat="47.24442" lon="4.95296">
        <ele>455</ele>
        <time>2015-04-19T08:48:27.448Z</time>
      </trkpt>
      <trkpt lat="47.24441" lon="4.953">
        <ele>455</ele>
        <time>2015-04-19T08:48:28.448Z</time>
      </trkpt>
      <trkpt lat="47.24437" lon="4.95309">
        <ele>454</ele>
        <time>2015-04-19T08:48:31.423Z</time>
      </trkpt>
      <trkpt lat="47.24436" lon="4.95312">
        <ele>454</ele>
        <time>2015-04-19T08:48:32.438Z</time>
      </trkpt>
      <trkpt lat="47.24433" lon="4.95321">
        <ele>454</ele>
        <time>2015-04-19T08:48:35.425Z</time>
      </trkpt>
      <trkpt lat="47.24431" lon="4.95324">
        <ele>453</ele>
        <time>2015-04-19T08:48:36.436Z</time>
      </trkpt>
      <trkpt lat="47.24426" lon="4.95334">
        <ele>452</ele>
        <time>2015-04-19T08:48:40.452Z</time>
      </trkpt>
      <trkpt lat="47.24425" lon="4.95336">
        <ele>452</ele>
        <time>2015-04-19T08:48:41.442Z</time>
      </trkpt>
      <trkpt lat="47.2442" lon="4.95347">
        <ele>451</ele>
        <time>2015-04-19T08:48:45.431Z</time>
      </trkpt>
      <trkpt lat="47.24419" lon="4.9535">
        <ele>451</ele>
        <time>2015-04-19T08:48:46.446Z</time>
      </trkpt>
      <trkpt lat="47.24415" lon="4.95361">
        <ele>445</ele>
        <time>2015-04-19T08:48:50.443Z</time>
      </trkpt>
      <trkpt lat="47.24414" lon="4.95364">
        <ele>445</ele>
        <time>2015-04-19T08:48:51.498Z</time>
      </trkpt>
      <trkpt lat="47.24411" lon="4.95376">
        <ele>444</ele>
        <time>2015-04-19T08:48:55.424Z</time>
      </trkpt>
      <trkpt lat="47.2441" lon="4.95379">
        <ele>444</ele>
        <time>2015-04-19T08:48:56.466Z</time>
      </trkpt>
      <trkpt lat="47.24407" lon="4.95388">
        <ele>444</ele>
        <time>2015-04-19T08:48:59.478Z</time>
      </trkpt>
      <trkpt lat="47.24406" lon="4.95392">
        <ele>444</ele>
        <time>2015-04-19T08:49:00.435Z</time>
      </trkpt>
      <trkpt lat="47.24404" lon="4.95401">
        <ele>444</ele>
        <time>2015-04-19T08:49:03.424Z</time>
      </trkpt>
      <trkpt lat="47.24403" lon="4.95404">
        <ele>444</ele>
        <time>2015-04-19T08:49:04.435Z</time>
      </trkpt>
      <trkpt lat="47.24401" lon="4.95414">
        <ele>445</ele>
        <time>2015-04-19T08:49:07.427Z</time>
      </trkpt>
      <trkpt lat="47.244" lon="4.95417">
        <ele>444</ele>
        <time>2015-04-19T08:49:08.441Z</time>
      </trkpt>
      <trkpt lat="47.24398" lon="4.95427">
        <ele>443</ele>
        <time>2015-04-19T08:49:11.410Z</time>
      </trkpt>
      <trkpt lat="47.24397" lon="4.9543">
        <ele>443</ele>
        <time>2015-04-19T08:49:12.430Z</time>
      </trkpt>
      <trkpt lat="47.24394" lon="4.95442">
        <ele>442</ele>
        <time>2015-04-19T08:49:16.034Z</time>
      </trkpt>
      <trkpt lat="47.24393" lon="4.95445">
        <ele>442</ele>
        <time>2015-04-19T08:49:17.010Z</time>
      </trkpt>
      <trkpt lat="47.2439" lon="4.95454">
        <ele>442</ele>
        <time>2015-04-19T08:49:20.033Z</time>
      </trkpt>
      <trkpt lat="47.24389" lon="4.95457">
        <ele>441</ele>
        <time>2015-04-19T08:49:21.038Z</time>
      </trkpt>
      <trkpt lat="47.24387" lon="4.95467">
        <ele>441</ele>
        <time>2015-04-19T08:49:24.023Z</time>
      </trkpt>
      <trkpt lat="47.24386" lon="4.9547">
        <ele>441</ele>
        <time>2015-04-19T08:49:24.998Z</time>
      </trkpt>
      <trkpt lat="47.24385" lon="4.9548">
        <ele>441</ele>
        <time>2015-04-19T08:49:28.019Z</time>
      </trkpt>
      <trkpt lat="47.24385" lon="4.95483">
        <ele>441</ele>
        <time>2015-04-19T08:49:28.993Z</time>
      </trkpt>
      <trkpt lat="47.24384" lon="4.95493">
        <ele>441</ele>
        <time>2015-04-19T08:49:32.032Z</time>
      </trkpt>
      <trkpt lat="47.24384" lon="4.95497">
        <ele>441</ele>
        <time>2015-04-19T08:49:33.022Z</time>
      </trkpt>
      <trkpt lat="47.24381" lon="4.95509">
        <ele>440</ele>
        <time>2015-04-19T08:49:36.997Z</time>
      </trkpt>
      <trkpt lat="47.2438" lon="4.95512">
        <ele>440</ele>
        <time>2015-04-19T08:49:38.014Z</time>
      </trkpt>
      <trkpt lat="47.24376" lon="4.95524">
        <ele>440</ele>
        <time>2015-04-19T08:49:41.993Z</time>
      </trkpt>
      <trkpt lat="47.24375" lon="4.95526">
        <ele>440</ele>
        <time>2015-04-19T08:49:42.993Z</time>
      </trkpt>
      <trkpt lat="47.2437" lon="4.95538">
        <ele>439</ele>
        <time>2015-04-19T08:49:47.022Z</time>
      </trkpt>
      <trkpt lat="47.24369" lon="4.9554">
        <ele>439</ele>
        <time>2015-04-19T08:49:48.005Z</time>
      </trkpt>
      <trkpt lat="47.24363" lon="4.9555">
        <ele>439</ele>
        <time>2015-04-19T08:49:52.071Z</time>
      </trkpt>
      <trkpt lat="47.24361" lon="4.95552">
        <ele>439</ele>
        <time>2015-04-19T08:49:53.004Z</time>
      </trkpt>
      <trkpt lat="47.24355" lon="4.95561">
        <ele>438</ele>
        <time>2015-04-19T08:49:57.000Z</time>
      </trkpt>
      <trkpt lat="47.24353" lon="4.95563">
        <ele>438</ele>
        <time>2015-04-19T08:49:57.996Z</time>
      </trkpt>
      <trkpt lat="47.24348" lon="4.95571">
        <ele>438</ele>
        <time>2015-04-19T08:50:01.051Z</time>
      </trkpt>
      <trkpt lat="47.24347" lon="4.95573">
        <ele>438</ele>
        <time>2015-04-19T08:50:02.023Z</time>
      </trkpt>
      <trkpt lat="47.24342" lon="4.9558">
        <ele>437</ele>
        <time>2015-04-19T08:50:05.029Z</time>
      </trkpt>
      <trkpt lat="47.2434" lon="4.95583">
        <ele>437</ele>
        <time>2015-04-19T08:50:06.042Z</time>
      </trkpt>
      <trkpt lat="47.24334" lon="4.95591">
        <ele>436</ele>
        <time>2015-04-19T08:50:09.103Z</time>
      </trkpt>
      <trkpt lat="47.24333" lon="4.95593">
        <ele>433</ele>
        <time>2015-04-19T08:50:10.017Z</time>
      </trkpt>
      <trkpt lat="47.24326" lon="4.95602">
        <ele>430</ele>
        <time>2015-04-19T08:50:14.085Z</time>
      </trkpt>
      <trkpt lat="47.24325" lon="4.95604">
        <ele>430</ele>
        <time>2015-04-19T08:50:15.046Z</time>
      </trkpt>
      <trkpt lat="47.24318" lon="4.95613">
        <ele>428</ele>
        <time>2015-04-19T08:50:19.059Z</time>
      </trkpt>
      <trkpt lat="47.24317" lon="4.95615">
        <ele>428</ele>
        <time>2015-04-19T08:50:20.030Z</time>
      </trkpt>
      <trkpt lat="47.2431" lon="4.95623">
        <ele>427</ele>
        <time>2015-04-19T08:50:24.041Z</time>
      </trkpt>
      <trkpt lat="47.24309" lon="4.95624">
        <ele>427</ele>
        <time>2015-04-19T08:50:25.025Z</time>
      </trkpt>
      <trkpt lat="47.24302" lon="4.95631">
        <ele>426</ele>
        <time>2015-04-19T08:50:29.038Z</time>
      </trkpt>
      <trkpt lat="47.24301" lon="4.95634">
        <ele>426</ele>
        <time>2015-04-19T08:50:30.035Z</time>
      </trkpt>
      <trkpt lat="47.24296" lon="4.95644">
        <ele>426</ele>
        <time>2015-04-19T08:50:34.011Z</time>
      </trkpt>
      <trkpt lat="47.24296" lon="4.95647">
        <ele>426</ele>
        <time>2015-04-19T08:50:35.040Z</time>
      </trkpt>
      <trkpt lat="47.24292" lon="4.95658">
        <ele>425</ele>
        <time>2015-04-19T08:50:39.063Z</time>
      </trkpt>
      <trkpt lat="47.24292" lon="4.95661">
        <ele>425</ele>
        <time>2015-04-19T08:50:40.040Z</time>
      </trkpt>
      <trkpt lat="47.24289" lon="4.95672">
        <ele>425</ele>
        <time>2015-04-19T08:50:44.048Z</time>
      </trkpt>
      <trkpt lat="47.24288" lon="4.95675">
        <ele>425</ele>
        <time>2015-04-19T08:50:45.036Z</time>
      </trkpt>
      <trkpt lat="47.24286" lon="4.95686">
        <ele>425</ele>
        <time>2015-04-19T08:50:49.028Z</time>
      </trkpt>
      <trkpt lat="47.24285" lon="4.95689">
        <ele>425</ele>
        <time>2015-04-19T08:50:50.028Z</time>
      </trkpt>
      <trkpt lat="47.24282" lon="4.957">
        <ele>425</ele>
        <time>2015-04-19T08:50:54.026Z</time>
      </trkpt>
      <trkpt lat="47.24281" lon="4.95703">
        <ele>425</ele>
        <time>2015-04-19T08:50:55.072Z</time>
      </trkpt>
      <trkpt lat="47.24278" lon="4.95715">
        <ele>424</ele>
        <time>2015-04-19T08:50:59.080Z</time>
      </trkpt>
      <trkpt lat="47.24277" lon="4.95718">
        <ele>424</ele>
        <time>2015-04-19T08:51:00.075Z</time>
      </trkpt>
      <trkpt lat="47.24274" lon="4.95729">
        <ele>424</ele>
        <time>2015-04-19T08:51:04.037Z</time>
      </trkpt>
      <trkpt lat="47.24274" lon="4.95732">
        <ele>424</ele>
        <time>2015-04-19T08:51:05.041Z</time>
      </trkpt>
      <trkpt lat="47.24272" lon="4.95742">
        <ele>423</ele>
        <time>2015-04-19T08:51:08.051Z</time>
      </trkpt>
      <trkpt lat="47.24271" lon="4.95745">
        <ele>423</ele>
        <time>2015-04-19T08:51:09.040Z</time>
      </trkpt>
      <trkpt lat="47.2427" lon="4.95755">
        <ele>421</ele>
        <time>2015-04-19T08:51:12.038Z</time>
      </trkpt>
      <trkpt lat="47.2427" lon="4.95759">
        <ele>421</ele>
        <time>2015-04-19T08:51:13.034Z</time>
      </trkpt>
      <trkpt lat="47.24269" lon="4.95769">
        <ele>421</ele>
        <time>2015-04-19T08:51:16.051Z</time>
      </trkpt>
      <trkpt lat="47.24269" lon="4.95773">
        <ele>421</ele>
        <time>2015-04-19T08:51:17.051Z</time>
      </trkpt>
      <trkpt lat="47.24268" lon="4.95783">
        <ele>421</ele>
        <time>2015-04-19T08:51:20.088Z</time>
      </trkpt>
      <trkpt lat="47.24268" lon="4.95787">
        <ele>421</ele>
        <time>2015-04-19T08:51:21.047Z</time>
      </trkpt>
      <trkpt lat="47.24268" lon="4.95798">
        <ele>421</ele>
        <time>2015-04-19T08:51:24.052Z</time>
      </trkpt>
      <trkpt lat="47.24269" lon="4.95801">
        <ele>420</ele>
        <time>2015-04-19T08:51:25.048Z</time>
      </trkpt>
      <trkpt lat="47.24269" lon="4.95812">
        <ele>420</ele>
        <time>2015-04-19T08:51:28.051Z</time>
      </trkpt>
      <trkpt lat="47.2427" lon="4.95815">
        <ele>420</ele>
        <time>2015-04-19T08:51:29.051Z</time>
      </trkpt>
      <trkpt lat="47.2427" lon="4.95826">
        <ele>419</ele>
        <time>2015-04-19T08:51:32.055Z</time>
      </trkpt>
      <trkpt lat="47.24271" lon="4.95829">
        <ele>419</ele>
        <time>2015-04-19T08:51:33.030Z</time>
      </trkpt>
      <trkpt lat="47.24272" lon="4.9584">
        <ele>416</ele>
        <time>2015-04-19T08:51:36.047Z</time>
      </trkpt>
      <trkpt lat="47.24272" lon="4.95844">
        <ele>416</ele>
        <time>2015-04-19T08:51:37.041Z</time>
      </trkpt>
      <trkpt lat="47.24273" lon="4.95855">
        <ele>416</ele>
        <time>2015-04-19T08:51:40.011Z</time>
      </trkpt>
      <trkpt lat="47.24274" lon="4.95858">
        <ele>416</ele>
        <time>2015-04-19T08:51:41.031Z</time>
      </trkpt>
      <trkpt lat="47.24276" lon="4.95868">
        <ele>415</ele>
        <time>2015-04-19T08:51:44.051Z</time>
      </trkpt>
      <trkpt lat="47.24276" lon="4.95871">
        <ele>415</ele>
        <time>2015-04-19T08:51:45.050Z</time>
      </trkpt>
      <trkpt lat="47.24278" lon="4.95883">
        <ele>415</ele>
        <time>2015-04-19T08:51:49.053Z</time>
      </trkpt>
      <trkpt lat="47.24279" lon="4.95886">
        <ele>415</ele>
        <time>2015-04-19T08:51:50.040Z</time>
      </trkpt>
      <trkpt lat="47.24281" lon="4.95896">
        <ele>414</ele>
        <time>2015-04-19T08:51:53.051Z</time>
      </trkpt>
      <trkpt lat="47.24281" lon="4.95899">
        <ele>414</ele>
        <time>2015-04-19T08:51:54.053Z</time>
      </trkpt>
      <trkpt lat="47.24283" lon="4.95911">
        <ele>414</ele>
        <time>2015-04-19T08:51:57.051Z</time>
      </trkpt>
      <trkpt lat="47.24284" lon="4.95914">
        <ele>414</ele>
        <time>2015-04-19T08:51:58.052Z</time>
      </trkpt>
      <trkpt lat="47.24285" lon="4.95926">
        <ele>408</ele>
        <time>2015-04-19T08:52:01.047Z</time>
      </trkpt>
      <trkpt lat="47.24286" lon="4.9593">
        <ele>408</ele>
        <time>2015-04-19T08:52:02.032Z</time>
      </trkpt>
      <trkpt lat="47.24287" lon="4.95942">
        <ele>408</ele>
        <time>2015-04-19T08:52:05.044Z</time>
      </trkpt>
      <trkpt lat="47.24288" lon="4.95946">
        <ele>408</ele>
        <time>2015-04-19T08:52:06.046Z</time>
      </trkpt>
      <trkpt lat="47.24289" lon="4.95957">
        <ele>407</ele>
        <time>2015-04-19T08:52:09.041Z</time>
      </trkpt>
      <trkpt lat="47.2429" lon="4.9596">
        <ele>407</ele>
        <time>2015-04-19T08:52:10.026Z</time>
      </trkpt>
      <trkpt lat="47.24294" lon="4.95969">
        <ele>407</ele>
        <time>2015-04-19T08:52:13.032Z</time>
      </trkpt>
      <trkpt lat="47.24295" lon="4.95972">
        <ele>407</ele>
        <time>2015-04-19T08:52:14.043Z</time>
      </trkpt>
      <trkpt lat="47.24297" lon="4.95982">
        <ele>406</ele>
        <time>2015-04-19T08:52:17.031Z</time>
      </trkpt>
      <trkpt lat="47.24297" lon="4.95986">
        <ele>406</ele>
        <time>2015-04-19T08:52:18.044Z</time>
      </trkpt>
      <trkpt lat="47.24299" lon="4.95996">
        <ele>406</ele>
        <time>2015-04-19T08:52:21.053Z</time>
      </trkpt>
      <trkpt lat="47.24299" lon="4.95999">
        <ele>406</ele>
        <time>2015-04-19T08:52:22.051Z</time>
      </trkpt>
      <trkpt lat="47.24301" lon="4.9601">
        <ele>400</ele>
        <time>2015-04-19T08:52:25.052Z</time>
      </trkpt>
      <trkpt lat="47.24301" lon="4.96013">
        <ele>400</ele>
        <time>2015-04-19T08:52:26.071Z</time>
      </trkpt>
      <trkpt lat="47.24302" lon="4.96023">
        <ele>400</ele>
        <time>2015-04-19T08:52:29.047Z</time>
      </trkpt>
      <trkpt lat="47.24302" lon="4.96027">
        <ele>400</ele>
        <time>2015-04-19T08:52:30.036Z</time>
      </trkpt>
      <trkpt lat="47.24302" lon="4.96037">
        <ele>399</ele>
        <time>2015-04-19T08:52:33.033Z</time>
      </trkpt>
      <trkpt lat="47.24302" lon="4.96041">
        <ele>399</ele>
        <time>2015-04-19T08:52:34.038Z</time>
      </trkpt>
      <trkpt lat="47.24301" lon="4.96051">
        <ele>398</ele>
        <time>2015-04-19T08:52:37.036Z</time>
      </trkpt>
      <trkpt lat="47.24301" lon="4.96054">
        <ele>398</ele>
        <time>2015-04-19T08:52:38.039Z</time>
      </trkpt>
      <trkpt lat="47.243" lon="4.96065">
        <ele>398</ele>
        <time>2015-04-19T08:52:43.032Z</time>
      </trkpt>
      <trkpt lat="47.243" lon="4.96068">
        <ele>397</ele>
        <time>2015-04-19T08:52:44.043Z</time>
      </trkpt>
      <trkpt lat="47.24299" lon="4.9608">
        <ele>397</ele>
        <time>2015-04-19T08:52:49.054Z</time>
      </trkpt>
      <trkpt lat="47.24298" lon="4.96082">
        <ele>397</ele>
        <time>2015-04-19T08:52:50.025Z</time>
      </trkpt>
      <trkpt lat="47.24294" lon="4.96092">
        <ele>392</ele>
        <time>2015-04-19T08:52:54.051Z</time>
      </trkpt>
      <trkpt lat="47.24293" lon="4.96095">
        <ele>392</ele>
        <time>2015-04-19T08:52:55.044Z</time>
      </trkpt>
      <trkpt lat="47.2429" lon="4.96104">
        <ele>391</ele>
        <time>2015-04-19T08:52:58.044Z</time>
      </trkpt>
      <trkpt lat="47.24289" lon="4.96107">
        <ele>391</ele>
        <time>2015-04-19T08:52:59.061Z</time>
      </trkpt>
      <trkpt lat="47.24286" lon="4.96118">
        <ele>391</ele>
        <time>2015-04-19T08:53:03.039Z</time>
      </trkpt>
      <trkpt lat="47.24286" lon="4.9612">
        <ele>391</ele>
        <time>2015-04-19T08:53:04.041Z</time>
      </trkpt>
      <trkpt lat="47.24286" lon="4.96133">
        <ele>390</ele>
        <time>2015-04-19T08:53:10.038Z</time>
      </trkpt>
      <trkpt lat="47.24285" lon="4.96136">
        <ele>390</ele>
        <time>2015-04-19T08:53:11.044Z</time>
      </trkpt>
      <trkpt lat="47.24283" lon="4.96146">
        <ele>389</ele>
        <time>2015-04-19T08:53:15.049Z</time>
      </trkpt>
      <trkpt lat="47.24282" lon="4.96148">
        <ele>389</ele>
        <time>2015-04-19T08:53:16.044Z</time>
      </trkpt>
      <trkpt lat="47.24279" lon="4.96159">
        <ele>388</ele>
        <time>2015-04-19T08:53:20.052Z</time>
      </trkpt>
      <trkpt lat="47.24277" lon="4.96161">
        <ele>388</ele>
        <time>2015-04-19T08:53:21.047Z</time>
      </trkpt>
      <trkpt lat="47.24274" lon="4.96172">
        <ele>384</ele>
        <time>2015-04-19T08:53:25.053Z</time>
      </trkpt>
      <trkpt lat="47.24274" lon="4.96175">
        <ele>384</ele>
        <time>2015-04-19T08:53:26.078Z</time>
      </trkpt>
      <trkpt lat="47.24271" lon="4.96186">
        <ele>384</ele>
        <time>2015-04-19T08:53:30.028Z</time>
      </trkpt>
      <trkpt lat="47.24271" lon="4.96189">
        <ele>384</ele>
        <time>2015-04-19T08:53:31.037Z</time>
      </trkpt>
      <trkpt lat="47.24269" lon="4.96202">
        <ele>383</ele>
        <time>2015-04-19T08:53:35.033Z</time>
      </trkpt>
      <trkpt lat="47.24269" lon="4.96205">
        <ele>383</ele>
        <time>2015-04-19T08:53:36.039Z</time>
      </trkpt>
      <trkpt lat="47.24268" lon="4.96216">
        <ele>383</ele>
        <time>2015-04-19T08:53:40.035Z</time>
      </trkpt>
      <trkpt lat="47.24268" lon="4.96219">
        <ele>383</ele>
        <time>2015-04-19T08:53:41.015Z</time>
      </trkpt>
      <trkpt lat="47.24266" lon="4.9623">
        <ele>382</ele>
        <time>2015-04-19T08:53:46.061Z</time>
      </trkpt>
      <trkpt lat="47.24266" lon="4.96233">
        <ele>381</ele>
        <time>2015-04-19T08:53:47.047Z</time>
      </trkpt>
      <trkpt lat="47.24268" lon="4.96245">
        <ele>381</ele>
        <time>2015-04-19T08:53:51.051Z</time>
      </trkpt>
      <trkpt lat="47.24269" lon="4.96248">
        <ele>381</ele>
        <time>2015-04-19T08:53:52.062Z</time>
      </trkpt>
      <trkpt lat="47.2427" lon="4.9626">
        <ele>376</ele>
        <time>2015-04-19T08:53:56.033Z</time>
      </trkpt>
      <trkpt lat="47.2427" lon="4.96264">
        <ele>376</ele>
        <time>2015-04-19T08:53:57.063Z</time>
      </trkpt>
      <trkpt lat="47.24272" lon="4.96275">
        <ele>376</ele>
        <time>2015-04-19T08:54:01.032Z</time>
      </trkpt>
      <trkpt lat="47.24271" lon="4.96278">
        <ele>375</ele>
        <time>2015-04-19T08:54:02.043Z</time>
      </trkpt>
      <trkpt lat="47.24271" lon="4.9629">
        <ele>374</ele>
        <time>2015-04-19T08:54:07.035Z</time>
      </trkpt>
      <trkpt lat="47.24271" lon="4.96293">
        <ele>374</ele>
        <time>2015-04-19T08:54:08.037Z</time>
      </trkpt>
      <trkpt lat="47.24274" lon="4.96304">
        <ele>373</ele>
        <time>2015-04-19T08:54:12.033Z</time>
      </trkpt>
      <trkpt lat="47.24275" lon="4.96307">
        <ele>373</ele>
        <time>2015-04-19T08:54:13.039Z</time>
      </trkpt>
      <trkpt lat="47.2428" lon="4.96317">
        <ele>373</ele>
        <time>2015-04-19T08:54:17.042Z</time>
      </trkpt>
      <trkpt lat="47.24281" lon="4.96319">
        <ele>373</ele>
        <time>2015-04-19T08:54:18.030Z</time>
      </trkpt>
      <trkpt lat="47.24285" lon="4.9633">
        <ele>372</ele>
        <time>2015-04-19T08:54:22.050Z</time>
      </trkpt>
      <trkpt lat="47.24285" lon="4.96333">
        <ele>373</ele>
        <time>2015-04-19T08:54:23.062Z</time>
      </trkpt>
      <trkpt lat="47.24289" lon="4.96342">
        <ele>365</ele>
        <time>2015-04-19T08:54:27.045Z</time>
      </trkpt>
      <trkpt lat="47.2429" lon="4.96344">
        <ele>365</ele>
        <time>2015-04-19T08:54:28.046Z</time>
      </trkpt>
      <trkpt lat="47.24294" lon="4.96353">
        <ele>365</ele>
        <time>2015-04-19T08:54:32.087Z</time>
      </trkpt>
      <trkpt lat="47.24296" lon="4.96355">
        <ele>365</ele>
        <time>2015-04-19T08:54:33.034Z</time>
      </trkpt>
      <trkpt lat="47.243" lon="4.96366">
        <ele>364</ele>
        <time>2015-04-19T08:54:37.039Z</time>
      </trkpt>
      <trkpt lat="47.24301" lon="4.96368">
        <ele>364</ele>
        <time>2015-04-19T08:54:38.032Z</time>
      </trkpt>
      <trkpt lat="47.24308" lon="4.96376">
        <ele>363</ele>
        <time>2015-04-19T08:54:43.033Z</time>
      </trkpt>
      <trkpt lat="47.24309" lon="4.96377">
        <ele>363</ele>
        <time>2015-04-19T08:54:44.041Z</time>
      </trkpt>
      <trkpt lat="47.24315" lon="4.96386">
        <ele>363</ele>
        <time>2015-04-19T08:54:49.052Z</time>
      </trkpt>
      <trkpt lat="47.24317" lon="4.96387">
        <ele>363</ele>
        <time>2015-04-19T08:54:50.046Z</time>
      </trkpt>
      <trkpt lat="47.24323" lon="4.96395">
        <ele>362</ele>
        <time>2015-04-19T08:54:55.051Z</time>
      </trkpt>
      <trkpt lat="47.24324" lon="4.96397">
        <ele>362</ele>
        <time>2015-04-19T08:54:56.047Z</time>
      </trkpt>
      <trkpt lat="47.2433" lon="4.96405">
        <ele>361</ele>
        <time>2015-04-19T08:55:01.034Z</time>
      </trkpt>
      <trkpt lat="47.24331" lon="4.96407">
        <ele>361</ele>
        <time>2015-04-19T08:55:02.026Z</time>
      </trkpt>
      <trkpt lat="47.24336" lon="4.96417">
        <ele>361</ele>
        <time>2015-04-19T08:55:06.025Z</time>
      </trkpt>
      <trkpt lat="47.24338" lon="4.9642">
        <ele>359</ele>
        <time>2015-04-19T08:55:07.035Z</time>
      </trkpt>
      <trkpt lat="47.24341" lon="4.96428">
        <ele>358</ele>
        <time>2015-04-19T08:55:10.029Z</time>
      </trkpt>
      <trkpt lat="47.24342" lon="4.96431">
        <ele>358</ele>
        <time>2015-04-19T08:55:11.033Z</time>
      </trkpt>
      <trkpt lat="47.24347" lon="4.96441">
        <ele>357</ele>
        <time>2015-04-19T08:55:15.041Z</time>
      </trkpt>
      <trkpt lat="47.24349" lon="4.96443">
        <ele>357</ele>
        <time>2015-04-19T08:55:16.038Z</time>
      </trkpt>
      <trkpt lat="47.24353" lon="4.96452">
        <ele>356</ele>
        <time>2015-04-19T08:55:20.053Z</time>
      </trkpt>
      <trkpt lat="47.24354" lon="4.96455">
        <ele>356</ele>
        <time>2015-04-19T08:55:21.039Z</time>
      </trkpt>
      <trkpt lat="47.24358" lon="4.96464">
        <ele>355</ele>
        <time>2015-04-19T08:55:25.042Z</time>
      </trkpt>
      <trkpt lat="47.2436" lon="4.96466">
        <ele>355</ele>
        <time>2015-04-19T08:55:26.048Z</time>
      </trkpt>
      <trkpt lat="47.24365" lon="4.96474">
        <ele>354</ele>
        <time>2015-04-19T08:55:30.042Z</time>
      </trkpt>
      <trkpt lat="47.24366" lon="4.96476">
        <ele>354</ele>
        <time>2015-04-19T08:55:31.022Z</time>
      </trkpt>
      <trkpt lat="47.24372" lon="4.96482">
        <ele>354</ele>
        <time>2015-04-19T08:55:35.034Z</time>
      </trkpt>
      <trkpt lat="47.24374" lon="4.96484">
        <ele>354</ele>
        <time>2015-04-19T08:55:36.024Z</time>
      </trkpt>
      <trkpt lat="47.2438" lon="4.96493">
        <ele>354</ele>
        <time>2015-04-19T08:55:40.034Z</time>
      </trkpt>
      <trkpt lat="47.24382" lon="4.96495">
        <ele>354</ele>
        <time>2015-04-19T08:55:41.036Z</time>
      </trkpt>
      <trkpt lat="47.24389" lon="4.96502">
        <ele>347</ele>
        <time>2015-04-19T08:55:45.041Z</time>
      </trkpt>
      <trkpt lat="47.24391" lon="4.96504">
        <ele>347</ele>
        <time>2015-04-19T08:55:46.029Z</time>
      </trkpt>
      <trkpt lat="47.24396" lon="4.9651">
        <ele>347</ele>
        <time>2015-04-19T08:55:49.043Z</time>
      </trkpt>
      <trkpt lat="47.24398" lon="4.96511">
        <ele>348</ele>
        <time>2015-04-19T08:55:50.044Z</time>
      </trkpt>
      <trkpt lat="47.24406" lon="4.96517">
        <ele>348</ele>
        <time>2015-04-19T08:55:54.044Z</time>
      </trkpt>
      <trkpt lat="47.24408" lon="4.96518">
        <ele>348</ele>
        <time>2015-04-19T08:55:55.043Z</time>
      </trkpt>
      <trkpt lat="47.24415" lon="4.96522">
        <ele>347</ele>
        <time>2015-04-19T08:55:59.044Z</time>
      </trkpt>
      <trkpt lat="47.24417" lon="4.96523">
        <ele>348</ele>
        <time>2015-04-19T08:56:00.024Z</time>
      </trkpt>
      <trkpt lat="47.24426" lon="4.96524">
        <ele>348</ele>
        <time>2015-04-19T08:56:05.043Z</time>
      </trkpt>
      <trkpt lat="47.24427" lon="4.96524">
        <ele>348</ele>
        <time>2015-04-19T08:56:06.038Z</time>
      </trkpt>
      <trkpt lat="47.24435" lon="4.96527">
        <ele>347</ele>
        <time>2015-04-19T08:56:11.015Z</time>
      </trkpt>
      <trkpt lat="47.24437" lon="4.96527">
        <ele>347</ele>
        <time>2015-04-19T08:56:12.046Z</time>
      </trkpt>
      <trkpt lat="47.24444" lon="4.96526">
        <ele>347</ele>
        <time>2015-04-19T08:56:16.042Z</time>
      </trkpt>
      <trkpt lat="47.24446" lon="4.96526">
        <ele>347</ele>
        <time>2015-04-19T08:56:17.046Z</time>
      </trkpt>
      <trkpt lat="47.24453" lon="4.96524">
        <ele>347</ele>
        <time>2015-04-19T08:56:20.063Z</time>
      </trkpt>
      <trkpt lat="47.24455" lon="4.96523">
        <ele>347</ele>
        <time>2015-04-19T08:56:21.045Z</time>
      </trkpt>
      <trkpt lat="47.24462" lon="4.96519">
        <ele>347</ele>
        <time>2015-04-19T08:56:24.047Z</time>
      </trkpt>
      <trkpt lat="47.24464" lon="4.96517">
        <ele>347</ele>
        <time>2015-04-19T08:56:25.053Z</time>
      </trkpt>
      <trkpt lat="47.24469" lon="4.96511">
        <ele>347</ele>
        <time>2015-04-19T08:56:27.044Z</time>
      </trkpt>
      <trkpt lat="47.24471" lon="4.96508">
        <ele>347</ele>
        <time>2015-04-19T08:56:28.045Z</time>
      </trkpt>
      <trkpt lat="47.24477" lon="4.96502">
        <ele>348</ele>
        <time>2015-04-19T08:56:32.042Z</time>
      </trkpt>
      <trkpt lat="47.2448" lon="4.965">
        <ele>353</ele>
        <time>2015-04-19T08:56:33.036Z</time>
      </trkpt>
      <trkpt lat="47.24487" lon="4.96495">
        <ele>352</ele>
        <time>2015-04-19T08:56:37.042Z</time>
      </trkpt>
      <trkpt lat="47.24489" lon="4.96493">
        <ele>352</ele>
        <time>2015-04-19T08:56:38.042Z</time>
      </trkpt>
      <trkpt lat="47.24495" lon="4.9649">
        <ele>352</ele>
        <time>2015-04-19T08:56:43.032Z</time>
      </trkpt>
      <trkpt lat="47.24497" lon="4.9649">
        <ele>352</ele>
        <time>2015-04-19T08:56:44.065Z</time>
      </trkpt>
      <trkpt lat="47.24505" lon="4.96486">
        <ele>348</ele>
        <time>2015-04-19T08:56:48.074Z</time>
      </trkpt>
      <trkpt lat="47.24507" lon="4.96485">
        <ele>348</ele>
        <time>2015-04-19T08:56:49.048Z</time>
      </trkpt>
      <trkpt lat="47.24515" lon="4.96482">
        <ele>348</ele>
        <time>2015-04-19T08:56:54.046Z</time>
      </trkpt>
      <trkpt lat="47.24517" lon="4.96481">
        <ele>348</ele>
        <time>2015-04-19T08:56:55.043Z</time>
      </trkpt>
      <trkpt lat="47.24526" lon="4.9648">
        <ele>347</ele>
        <time>2015-04-19T08:57:00.074Z</time>
      </trkpt>
      <trkpt lat="47.24527" lon="4.96479">
        <ele>347</ele>
        <time>2015-04-19T08:57:01.034Z</time>
      </trkpt>
      <trkpt lat="47.24535" lon="4.96484">
        <ele>346</ele>
        <time>2015-04-19T08:57:06.037Z</time>
      </trkpt>
      <trkpt lat="47.24536" lon="4.96487">
        <ele>346</ele>
        <time>2015-04-19T08:57:07.033Z</time>
      </trkpt>
      <trkpt lat="47.24543" lon="4.96493">
        <ele>344</ele>
        <time>2015-04-19T08:57:12.027Z</time>
      </trkpt>
      <trkpt lat="47.24545" lon="4.96493">
        <ele>344</ele>
        <time>2015-04-19T08:57:13.035Z</time>
      </trkpt>
      <trkpt lat="47.24552" lon="4.965">
        <ele>343</ele>
        <time>2015-04-19T08:57:18.026Z</time>
      </trkpt>
      <trkpt lat="47.24553" lon="4.96501">
        <ele>338</ele>
        <time>2015-04-19T08:57:19.045Z</time>
      </trkpt>
      <trkpt lat="47.24555" lon="4.96502">
        <ele>337</ele>
        <time>2015-04-19T08:57:30.032Z</time>
      </trkpt>
      <trkpt lat="47.24555" lon="4.96502">
        <ele>337</ele>
        <time>2015-04-19T08:57:31.035Z</time>
      </trkpt>
      <trkpt lat="47.24563" lon="4.96496">
        <ele>340</ele>
        <time>2015-04-19T08:57:52.062Z</time>
      </trkpt>
      <trkpt lat="47.24564" lon="4.96495">
        <ele>340</ele>
        <time>2015-04-19T08:57:53.065Z</time>
      </trkpt>
      <trkpt lat="47.24564" lon="4.96495">
        <ele>340</ele>
        <time>2015-04-19T08:57:54.083Z</time>
      </trkpt>
      <trkpt lat="47.24564" lon="4.96495">
        <ele>340</ele>
        <time>2015-04-19T08:58:10.040Z</time>
      </trkpt>
      <trkpt lat="47.24567" lon="4.96496">
        <ele>339</ele>
        <time>2015-04-19T08:58:11.041Z</time>
      </trkpt>
      <trkpt lat="47.24568" lon="4.96496">
        <ele>339</ele>
        <time>2015-04-19T08:58:12.037Z</time>
      </trkpt>
      <trkpt lat="47.24575" lon="4.96498">
        <ele>337</ele>
        <time>2015-04-19T09:02:17.058Z</time>
      </trkpt>
      <trkpt lat="47.24577" lon="4.96497">
        <ele>336</ele>
        <time>2015-04-19T09:02:18.055Z</time>
      </trkpt>
      <trkpt lat="47.24578" lon="4.96497">
        <ele>336</ele>
        <time>2015-04-19T09:02:19.078Z</time>
      </trkpt>
      <trkpt lat="47.24578" lon="4.96498">
        <ele>336</ele>
        <time>2015-04-19T09:05:18.056Z</time>
      </trkpt>
      <trkpt lat="47.24578" lon="4.96498">
        <ele>336</ele>
        <time>2015-04-19T09:05:19.046Z</time>
      </trkpt>
      <trkpt lat="47.24578" lon="4.96487">
        <ele>339</ele>
        <time>2015-04-19T09:05:28.047Z</time>
      </trkpt>
      <trkpt lat="47.24578" lon="4.96484">
        <ele>339</ele>
        <time>2015-04-19T09:05:29.048Z</time>
      </trkpt>
      <trkpt lat="47.24581" lon="4.96473">
        <ele>341</ele>
        <time>2015-04-19T09:05:34.041Z</time>
      </trkpt>
      <trkpt lat="47.24581" lon="4.96471">
        <ele>342</ele>
        <time>2015-04-19T09:05:35.035Z</time>
      </trkpt>
      <trkpt lat="47.24584" lon="4.9646">
        <ele>336</ele>
        <time>2015-04-19T09:05:40.021Z</time>
      </trkpt>
      <trkpt lat="47.24585" lon="4.96458">
        <ele>336</ele>
        <time>2015-04-19T09:05:41.029Z</time>
      </trkpt>
      <trkpt lat="47.24588" lon="4.96447">
        <ele>337</ele>
        <time>2015-04-19T09:05:46.044Z</time>
      </trkpt>
      <trkpt lat="47.24588" lon="4.96444">
        <ele>337</ele>
        <time>2015-04-19T09:05:47.039Z</time>
      </trkpt>
      <trkpt lat="47.2459" lon="4.96432">
        <ele>339</ele>
        <time>2015-04-19T09:05:53.036Z</time>
      </trkpt>
      <trkpt lat="47.24591" lon="4.96429">
        <ele>339</ele>
        <time>2015-04-19T09:05:54.040Z</time>
      </trkpt>
      <trkpt lat="47.24593" lon="4.96417">
        <ele>340</ele>
        <time>2015-04-19T09:05:59.057Z</time>
      </trkpt>
      <trkpt lat="47.24593" lon="4.96415">
        <ele>343</ele>
        <time>2015-04-19T09:06:00.044Z</time>
      </trkpt>
      <trkpt lat="47.24595" lon="4.96403">
        <ele>343</ele>
        <time>2015-04-19T09:06:05.061Z</time>
      </trkpt>
      <trkpt lat="47.24595" lon="4.96401">
        <ele>343</ele>
        <time>2015-04-19T09:06:06.037Z</time>
      </trkpt>
      <trkpt lat="47.24597" lon="4.96388">
        <ele>343</ele>
        <time>2015-04-19T09:06:11.026Z</time>
      </trkpt>
      <trkpt lat="47.24597" lon="4.96386">
        <ele>343</ele>
        <time>2015-04-19T09:06:12.007Z</time>
      </trkpt>
      <trkpt lat="47.24596" lon="4.96374">
        <ele>344</ele>
        <time>2015-04-19T09:06:18.021Z</time>
      </trkpt>
      <trkpt lat="47.24596" lon="4.96372">
        <ele>344</ele>
        <time>2015-04-19T09:06:19.067Z</time>
      </trkpt>
      <trkpt lat="47.24597" lon="4.9636">
        <ele>345</ele>
        <time>2015-04-19T09:06:24.047Z</time>
      </trkpt>
      <trkpt lat="47.24597" lon="4.96358">
        <ele>345</ele>
        <time>2015-04-19T09:06:25.035Z</time>
      </trkpt>
      <trkpt lat="47.246" lon="4.96346">
        <ele>346</ele>
        <time>2015-04-19T09:06:30.026Z</time>
      </trkpt>
      <trkpt lat="47.246" lon="4.96344">
        <ele>346</ele>
        <time>2015-04-19T09:06:31.071Z</time>
      </trkpt>
      <trkpt lat="47.24603" lon="4.96333">
        <ele>346</ele>
        <time>2015-04-19T09:06:36.028Z</time>
      </trkpt>
      <trkpt lat="47.24604" lon="4.96331">
        <ele>349</ele>
        <time>2015-04-19T09:06:37.020Z</time>
      </trkpt>
      <trkpt lat="47.24607" lon="4.96321">
        <ele>348</ele>
        <time>2015-04-19T09:06:41.007Z</time>
      </trkpt>
      <trkpt lat="47.24608" lon="4.96319">
        <ele>348</ele>
        <time>2015-04-19T09:06:42.017Z</time>
      </trkpt>
      <trkpt lat="47.24612" lon="4.96307">
        <ele>348</ele>
        <time>2015-04-19T09:06:48.031Z</time>
      </trkpt>
      <trkpt lat="47.24612" lon="4.96306">
        <ele>348</ele>
        <time>2015-04-19T09:06:49.012Z</time>
      </trkpt>
      <trkpt lat="47.24616" lon="4.96294">
        <ele>348</ele>
        <time>2015-04-19T09:06:56.048Z</time>
      </trkpt>
      <trkpt lat="47.24617" lon="4.96292">
        <ele>348</ele>
        <time>2015-04-19T09:06:57.032Z</time>
      </trkpt>
      <trkpt lat="47.2462" lon="4.96282">
        <ele>348</ele>
        <time>2015-04-19T09:07:01.026Z</time>
      </trkpt>
      <trkpt lat="47.24621" lon="4.96278">
        <ele>348</ele>
        <time>2015-04-19T09:07:02.065Z</time>
      </trkpt>
      <trkpt lat="47.24624" lon="4.96268">
        <ele>348</ele>
        <time>2015-04-19T09:07:05.041Z</time>
      </trkpt>
      <trkpt lat="47.24625" lon="4.96265">
        <ele>348</ele>
        <time>2015-04-19T09:07:06.031Z</time>
      </trkpt>
      <trkpt lat="47.24627" lon="4.96255">
        <ele>348</ele>
        <time>2015-04-19T09:07:09.031Z</time>
      </trkpt>
      <trkpt lat="47.24628" lon="4.96251">
        <ele>348</ele>
        <time>2015-04-19T09:07:10.017Z</time>
      </trkpt>
      <trkpt lat="47.24631" lon="4.9624">
        <ele>349</ele>
        <time>2015-04-19T09:07:14.065Z</time>
      </trkpt>
      <trkpt lat="47.24632" lon="4.96237">
        <ele>349</ele>
        <time>2015-04-19T09:07:15.028Z</time>
      </trkpt>
      <trkpt lat="47.24635" lon="4.96226">
        <ele>349</ele>
        <time>2015-04-19T09:07:20.044Z</time>
      </trkpt>
      <trkpt lat="47.24636" lon="4.96224">
        <ele>349</ele>
        <time>2015-04-19T09:07:21.036Z</time>
      </trkpt>
      <trkpt lat="47.24641" lon="4.96214">
        <ele>349</ele>
        <time>2015-04-19T09:07:26.045Z</time>
      </trkpt>
      <trkpt lat="47.24641" lon="4.96213">
        <ele>349</ele>
        <time>2015-04-19T09:07:27.024Z</time>
      </trkpt>
      <trkpt lat="47.24645" lon="4.96201">
        <ele>349</ele>
        <time>2015-04-19T09:07:34.028Z</time>
      </trkpt>
      <trkpt lat="47.24646" lon="4.96199">
        <ele>349</ele>
        <time>2015-04-19T09:07:35.023Z</time>
      </trkpt>
      <trkpt lat="47.24649" lon="4.96188">
        <ele>349</ele>
        <time>2015-04-19T09:07:40.026Z</time>
      </trkpt>
      <trkpt lat="47.2465" lon="4.96185">
        <ele>348</ele>
        <time>2015-04-19T09:07:41.012Z</time>
      </trkpt>
      <trkpt lat="47.24654" lon="4.96175">
        <ele>348</ele>
        <time>2015-04-19T09:07:45.031Z</time>
      </trkpt>
      <trkpt lat="47.24655" lon="4.96171">
        <ele>347</ele>
        <time>2015-04-19T09:07:46.021Z</time>
      </trkpt>
      <trkpt lat="47.24657" lon="4.96161">
        <ele>348</ele>
        <time>2015-04-19T09:07:50.015Z</time>
      </trkpt>
      <trkpt lat="47.24657" lon="4.96158">
        <ele>349</ele>
        <time>2015-04-19T09:07:51.015Z</time>
      </trkpt>
      <trkpt lat="47.24661" lon="4.96147">
        <ele>350</ele>
        <time>2015-04-19T09:07:56.025Z</time>
      </trkpt>
      <trkpt lat="47.24662" lon="4.96145">
        <ele>350</ele>
        <time>2015-04-19T09:07:57.025Z</time>
      </trkpt>
      <trkpt lat="47.24666" lon="4.96136">
        <ele>351</ele>
        <time>2015-04-19T09:08:01.008Z</time>
      </trkpt>
      <trkpt lat="47.24667" lon="4.96133">
        <ele>355</ele>
        <time>2015-04-19T09:08:02.025Z</time>
      </trkpt>
      <trkpt lat="47.24671" lon="4.96122">
        <ele>355</ele>
        <time>2015-04-19T09:08:07.027Z</time>
      </trkpt>
      <trkpt lat="47.24672" lon="4.9612">
        <ele>356</ele>
        <time>2015-04-19T09:08:08.029Z</time>
      </trkpt>
      <trkpt lat="47.24674" lon="4.96109">
        <ele>356</ele>
        <time>2015-04-19T09:08:12.021Z</time>
      </trkpt>
      <trkpt lat="47.24675" lon="4.96106">
        <ele>356</ele>
        <time>2015-04-19T09:08:13.022Z</time>
      </trkpt>
      <trkpt lat="47.24678" lon="4.96094">
        <ele>355</ele>
        <time>2015-04-19T09:08:18.040Z</time>
      </trkpt>
      <trkpt lat="47.24678" lon="4.96092">
        <ele>355</ele>
        <time>2015-04-19T09:08:19.009Z</time>
      </trkpt>
      <trkpt lat="47.24682" lon="4.9608">
        <ele>356</ele>
        <time>2015-04-19T09:08:24.018Z</time>
      </trkpt>
      <trkpt lat="47.24683" lon="4.96077">
        <ele>357</ele>
        <time>2015-04-19T09:08:25.022Z</time>
      </trkpt>
      <trkpt lat="47.24687" lon="4.96067">
        <ele>358</ele>
        <time>2015-04-19T09:08:30.002Z</time>
      </trkpt>
      <trkpt lat="47.24688" lon="4.96065">
        <ele>359</ele>
        <time>2015-04-19T09:08:31.017Z</time>
      </trkpt>
      <trkpt lat="47.24692" lon="4.96055">
        <ele>360</ele>
        <time>2015-04-19T09:08:37.011Z</time>
      </trkpt>
      <trkpt lat="47.24692" lon="4.96053">
        <ele>360</ele>
        <time>2015-04-19T09:08:38.028Z</time>
      </trkpt>
      <trkpt lat="47.24696" lon="4.96044">
        <ele>360</ele>
        <time>2015-04-19T09:08:42.031Z</time>
      </trkpt>
      <trkpt lat="47.24698" lon="4.96041">
        <ele>361</ele>
        <time>2015-04-19T09:08:43.023Z</time>
      </trkpt>
      <trkpt lat="47.24701" lon="4.9603">
        <ele>361</ele>
        <time>2015-04-19T09:08:47.038Z</time>
      </trkpt>
      <trkpt lat="47.24702" lon="4.96027">
        <ele>361</ele>
        <time>2015-04-19T09:08:48.034Z</time>
      </trkpt>
      <trkpt lat="47.24703" lon="4.96016">
        <ele>361</ele>
        <time>2015-04-19T09:08:52.033Z</time>
      </trkpt>
      <trkpt lat="47.24704" lon="4.96012">
        <ele>361</ele>
        <time>2015-04-19T09:08:53.028Z</time>
      </trkpt>
      <trkpt lat="47.24707" lon="4.96">
        <ele>363</ele>
        <time>2015-04-19T09:08:57.028Z</time>
      </trkpt>
      <trkpt lat="47.24707" lon="4.95997">
        <ele>363</ele>
        <time>2015-04-19T09:08:58.034Z</time>
      </trkpt>
      <trkpt lat="47.2471" lon="4.95984">
        <ele>364</ele>
        <time>2015-04-19T09:09:02.008Z</time>
      </trkpt>
      <trkpt lat="47.2471" lon="4.95982">
        <ele>364</ele>
        <time>2015-04-19T09:09:03.001Z</time>
      </trkpt>
      <trkpt lat="47.24715" lon="4.95971">
        <ele>364</ele>
        <time>2015-04-19T09:09:08.032Z</time>
      </trkpt>
      <trkpt lat="47.24715" lon="4.95969">
        <ele>364</ele>
        <time>2015-04-19T09:09:09.023Z</time>
      </trkpt>
      <trkpt lat="47.2472" lon="4.95961">
        <ele>365</ele>
        <time>2015-04-19T09:09:13.010Z</time>
      </trkpt>
      <trkpt lat="47.24721" lon="4.95958">
        <ele>365</ele>
        <time>2015-04-19T09:09:14.038Z</time>
      </trkpt>
      <trkpt lat="47.24724" lon="4.95948">
        <ele>365</ele>
        <time>2015-04-19T09:09:18.063Z</time>
      </trkpt>
      <trkpt lat="47.24725" lon="4.95945">
        <ele>366</ele>
        <time>2015-04-19T09:09:19.038Z</time>
      </trkpt>
      <trkpt lat="47.24728" lon="4.95935">
        <ele>366</ele>
        <time>2015-04-19T09:09:23.034Z</time>
      </trkpt>
      <trkpt lat="47.24729" lon="4.95933">
        <ele>366</ele>
        <time>2015-04-19T09:09:24.031Z</time>
      </trkpt>
      <trkpt lat="47.24733" lon="4.95923">
        <ele>367</ele>
        <time>2015-04-19T09:09:29.044Z</time>
      </trkpt>
      <trkpt lat="47.24734" lon="4.95921">
        <ele>368</ele>
        <time>2015-04-19T09:09:30.024Z</time>
      </trkpt>
      <trkpt lat="47.24739" lon="4.95912">
        <ele>369</ele>
        <time>2015-04-19T09:09:35.017Z</time>
      </trkpt>
      <trkpt lat="47.24739" lon="4.9591">
        <ele>369</ele>
        <time>2015-04-19T09:09:36.020Z</time>
      </trkpt>
      <trkpt lat="47.24744" lon="4.95902">
        <ele>369</ele>
        <time>2015-04-19T09:09:40.019Z</time>
      </trkpt>
      <trkpt lat="47.24745" lon="4.959">
        <ele>369</ele>
        <time>2015-04-19T09:09:41.023Z</time>
      </trkpt>
      <trkpt lat="47.24749" lon="4.9589">
        <ele>368</ele>
        <time>2015-04-19T09:09:45.032Z</time>
      </trkpt>
      <trkpt lat="47.2475" lon="4.95887">
        <ele>376</ele>
        <time>2015-04-19T09:09:46.012Z</time>
      </trkpt>
      <trkpt lat="47.24754" lon="4.95877">
        <ele>377</ele>
        <time>2015-04-19T09:09:50.037Z</time>
      </trkpt>
      <trkpt lat="47.24756" lon="4.95875">
        <ele>377</ele>
        <time>2015-04-19T09:09:51.025Z</time>
      </trkpt>
      <trkpt lat="47.24761" lon="4.95865">
        <ele>376</ele>
        <time>2015-04-19T09:09:55.013Z</time>
      </trkpt>
      <trkpt lat="47.24762" lon="4.95864">
        <ele>376</ele>
        <time>2015-04-19T09:09:56.021Z</time>
      </trkpt>
      <trkpt lat="47.24766" lon="4.95854">
        <ele>376</ele>
        <time>2015-04-19T09:10:00.043Z</time>
      </trkpt>
      <trkpt lat="47.24767" lon="4.95852">
        <ele>376</ele>
        <time>2015-04-19T09:10:01.020Z</time>
      </trkpt>
      <trkpt lat="47.2477" lon="4.95842">
        <ele>375</ele>
        <time>2015-04-19T09:10:05.024Z</time>
      </trkpt>
      <trkpt lat="47.24771" lon="4.95839">
        <ele>375</ele>
        <time>2015-04-19T09:10:06.004Z</time>
      </trkpt>
      <trkpt lat="47.24777" lon="4.95828">
        <ele>374</ele>
        <time>2015-04-19T09:10:10.021Z</time>
      </trkpt>
      <trkpt lat="47.24778" lon="4.95825">
        <ele>374</ele>
        <time>2015-04-19T09:10:11.030Z</time>
      </trkpt>
      <trkpt lat="47.24779" lon="4.95814">
        <ele>374</ele>
        <time>2015-04-19T09:10:15.041Z</time>
      </trkpt>
      <trkpt lat="47.24779" lon="4.95811">
        <ele>374</ele>
        <time>2015-04-19T09:10:16.033Z</time>
      </trkpt>
      <trkpt lat="47.24782" lon="4.95801">
        <ele>374</ele>
        <time>2015-04-19T09:10:20.045Z</time>
      </trkpt>
      <trkpt lat="47.24783" lon="4.95799">
        <ele>374</ele>
        <time>2015-04-19T09:10:21.033Z</time>
      </trkpt>
      <trkpt lat="47.24788" lon="4.95788">
        <ele>375</ele>
        <time>2015-04-19T09:10:26.052Z</time>
      </trkpt>
      <trkpt lat="47.24789" lon="4.95786">
        <ele>375</ele>
        <time>2015-04-19T09:10:27.024Z</time>
      </trkpt>
      <trkpt lat="47.24793" lon="4.95776">
        <ele>375</ele>
        <time>2015-04-19T09:10:31.022Z</time>
      </trkpt>
      <trkpt lat="47.24794" lon="4.95774">
        <ele>375</ele>
        <time>2015-04-19T09:10:32.050Z</time>
      </trkpt>
      <trkpt lat="47.248" lon="4.95765">
        <ele>375</ele>
        <time>2015-04-19T09:10:37.019Z</time>
      </trkpt>
      <trkpt lat="47.24801" lon="4.95763">
        <ele>376</ele>
        <time>2015-04-19T09:10:38.034Z</time>
      </trkpt>
      <trkpt lat="47.24806" lon="4.95753">
        <ele>376</ele>
        <time>2015-04-19T09:10:44.035Z</time>
      </trkpt>
      <trkpt lat="47.24807" lon="4.95752">
        <ele>376</ele>
        <time>2015-04-19T09:10:45.033Z</time>
      </trkpt>
      <trkpt lat="47.24813" lon="4.95743">
        <ele>374</ele>
        <time>2015-04-19T09:10:52.052Z</time>
      </trkpt>
      <trkpt lat="47.24814" lon="4.95741">
        <ele>374</ele>
        <time>2015-04-19T09:10:53.029Z</time>
      </trkpt>
      <trkpt lat="47.2482" lon="4.95734">
        <ele>374</ele>
        <time>2015-04-19T09:10:59.033Z</time>
      </trkpt>
      <trkpt lat="47.24821" lon="4.95733">
        <ele>374</ele>
        <time>2015-04-19T09:11:00.049Z</time>
      </trkpt>
      <trkpt lat="47.24827" lon="4.95723">
        <ele>373</ele>
        <time>2015-04-19T09:11:06.022Z</time>
      </trkpt>
      <trkpt lat="47.24827" lon="4.95721">
        <ele>373</ele>
        <time>2015-04-19T09:11:07.014Z</time>
      </trkpt>
      <trkpt lat="47.24832" lon="4.9571">
        <ele>372</ele>
        <time>2015-04-19T09:11:15.050Z</time>
      </trkpt>
      <trkpt lat="47.24833" lon="4.95709">
        <ele>371</ele>
        <time>2015-04-19T09:11:16.042Z</time>
      </trkpt>
      <trkpt lat="47.24837" lon="4.957">
        <ele>382</ele>
        <time>2015-04-19T09:11:22.038Z</time>
      </trkpt>
      <trkpt lat="47.24838" lon="4.95698">
        <ele>382</ele>
        <time>2015-04-19T09:11:23.035Z</time>
      </trkpt>
      <trkpt lat="47.24842" lon="4.95687">
        <ele>380</ele>
        <time>2015-04-19T09:11:28.033Z</time>
      </trkpt>
      <trkpt lat="47.24843" lon="4.95685">
        <ele>380</ele>
        <time>2015-04-19T09:11:29.041Z</time>
      </trkpt>
      <trkpt lat="47.24847" lon="4.95677">
        <ele>378</ele>
        <time>2015-04-19T09:11:36.052Z</time>
      </trkpt>
      <trkpt lat="47.24848" lon="4.95673">
        <ele>378</ele>
        <time>2015-04-19T09:11:37.080Z</time>
      </trkpt>
      <trkpt lat="47.24853" lon="4.95666">
        <ele>376</ele>
        <time>2015-04-19T09:11:44.034Z</time>
      </trkpt>
      <trkpt lat="47.24854" lon="4.95664">
        <ele>377</ele>
        <time>2015-04-19T09:11:45.033Z</time>
      </trkpt>
      <trkpt lat="47.24861" lon="4.95657">
        <ele>379</ele>
        <time>2015-04-19T09:11:49.023Z</time>
      </trkpt>
      <trkpt lat="47.24863" lon="4.95655">
        <ele>379</ele>
        <time>2015-04-19T09:11:50.040Z</time>
      </trkpt>
      <trkpt lat="47.24869" lon="4.95648">
        <ele>381</ele>
        <time>2015-04-19T09:11:53.029Z</time>
      </trkpt>
      <trkpt lat="47.2487" lon="4.95645">
        <ele>381</ele>
        <time>2015-04-19T09:11:54.067Z</time>
      </trkpt>
      <trkpt lat="47.24874" lon="4.95635">
        <ele>382</ele>
        <time>2015-04-19T09:11:58.036Z</time>
      </trkpt>
      <trkpt lat="47.24875" lon="4.95632">
        <ele>382</ele>
        <time>2015-04-19T09:11:59.030Z</time>
      </trkpt>
      <trkpt lat="47.24878" lon="4.95619">
        <ele>382</ele>
        <time>2015-04-19T09:12:03.022Z</time>
      </trkpt>
      <trkpt lat="47.24878" lon="4.95617">
        <ele>382</ele>
        <time>2015-04-19T09:12:04.039Z</time>
      </trkpt>
      <trkpt lat="47.24881" lon="4.95608">
        <ele>382</ele>
        <time>2015-04-19T09:12:08.008Z</time>
      </trkpt>
      <trkpt lat="47.24883" lon="4.95604">
        <ele>382</ele>
        <time>2015-04-19T09:12:09.025Z</time>
      </trkpt>
      <trkpt lat="47.24887" lon="4.95593">
        <ele>383</ele>
        <time>2015-04-19T09:12:13.027Z</time>
      </trkpt>
      <trkpt lat="47.24888" lon="4.9559">
        <ele>383</ele>
        <time>2015-04-19T09:12:14.025Z</time>
      </trkpt>
      <trkpt lat="47.24889" lon="4.9558">
        <ele>383</ele>
        <time>2015-04-19T09:12:18.028Z</time>
      </trkpt>
      <trkpt lat="47.2489" lon="4.95576">
        <ele>383</ele>
        <time>2015-04-19T09:12:19.047Z</time>
      </trkpt>
      <trkpt lat="47.24892" lon="4.95564">
        <ele>383</ele>
        <time>2015-04-19T09:12:23.030Z</time>
      </trkpt>
      <trkpt lat="47.24892" lon="4.95561">
        <ele>383</ele>
        <time>2015-04-19T09:12:24.026Z</time>
      </trkpt>
      <trkpt lat="47.24892" lon="4.95549">
        <ele>383</ele>
        <time>2015-04-19T09:12:29.037Z</time>
      </trkpt>
      <trkpt lat="47.24893" lon="4.95546">
        <ele>383</ele>
        <time>2015-04-19T09:12:30.019Z</time>
      </trkpt>
      <trkpt lat="47.24895" lon="4.95534">
        <ele>383</ele>
        <time>2015-04-19T09:12:34.034Z</time>
      </trkpt>
      <trkpt lat="47.24896" lon="4.95532">
        <ele>383</ele>
        <time>2015-04-19T09:12:35.016Z</time>
      </trkpt>
      <trkpt lat="47.24899" lon="4.9552">
        <ele>383</ele>
        <time>2015-04-19T09:12:41.020Z</time>
      </trkpt>
      <trkpt lat="47.249" lon="4.95519">
        <ele>383</ele>
        <time>2015-04-19T09:12:42.042Z</time>
      </trkpt>
      <trkpt lat="47.24904" lon="4.95509">
        <ele>383</ele>
        <time>2015-04-19T09:12:47.028Z</time>
      </trkpt>
      <trkpt lat="47.24905" lon="4.95506">
        <ele>383</ele>
        <time>2015-04-19T09:12:48.033Z</time>
      </trkpt>
      <trkpt lat="47.24908" lon="4.95495">
        <ele>385</ele>
        <time>2015-04-19T09:12:54.031Z</time>
      </trkpt>
      <trkpt lat="47.24908" lon="4.95493">
        <ele>385</ele>
        <time>2015-04-19T09:12:55.073Z</time>
      </trkpt>
      <trkpt lat="47.24911" lon="4.95481">
        <ele>386</ele>
        <time>2015-04-19T09:13:00.024Z</time>
      </trkpt>
      <trkpt lat="47.24911" lon="4.95478">
        <ele>387</ele>
        <time>2015-04-19T09:13:01.008Z</time>
      </trkpt>
      <trkpt lat="47.24915" lon="4.95468">
        <ele>387</ele>
        <time>2015-04-19T09:13:07.026Z</time>
      </trkpt>
      <trkpt lat="47.24916" lon="4.95466">
        <ele>388</ele>
        <time>2015-04-19T09:13:08.030Z</time>
      </trkpt>
      <trkpt lat="47.24918" lon="4.95455">
        <ele>391</ele>
        <time>2015-04-19T09:13:12.022Z</time>
      </trkpt>
      <trkpt lat="47.24918" lon="4.95452">
        <ele>391</ele>
        <time>2015-04-19T09:13:13.007Z</time>
      </trkpt>
      <trkpt lat="47.24921" lon="4.95441">
        <ele>391</ele>
        <time>2015-04-19T09:13:17.031Z</time>
      </trkpt>
      <trkpt lat="47.24922" lon="4.95437">
        <ele>391</ele>
        <time>2015-04-19T09:13:18.029Z</time>
      </trkpt>
      <trkpt lat="47.24924" lon="4.95428">
        <ele>390</ele>
        <time>2015-04-19T09:13:21.028Z</time>
      </trkpt>
      <trkpt lat="47.24925" lon="4.95425">
        <ele>389</ele>
        <time>2015-04-19T09:13:22.020Z</time>
      </trkpt>
      <trkpt lat="47.24928" lon="4.95413">
        <ele>390</ele>
        <time>2015-04-19T09:13:26.023Z</time>
      </trkpt>
      <trkpt lat="47.24929" lon="4.95409">
        <ele>391</ele>
        <time>2015-04-19T09:13:27.034Z</time>
      </trkpt>
      <trkpt lat="47.24932" lon="4.954">
        <ele>393</ele>
        <time>2015-04-19T09:13:31.014Z</time>
      </trkpt>
      <trkpt lat="47.24933" lon="4.95397">
        <ele>393</ele>
        <time>2015-04-19T09:13:32.032Z</time>
      </trkpt>
      <trkpt lat="47.24938" lon="4.95386">
        <ele>395</ele>
        <time>2015-04-19T09:13:37.019Z</time>
      </trkpt>
      <trkpt lat="47.24938" lon="4.95384">
        <ele>395</ele>
        <time>2015-04-19T09:13:38.042Z</time>
      </trkpt>
      <trkpt lat="47.24942" lon="4.95374">
        <ele>396</ele>
        <time>2015-04-19T09:13:43.022Z</time>
      </trkpt>
      <trkpt lat="47.24942" lon="4.95371">
        <ele>396</ele>
        <time>2015-04-19T09:13:44.033Z</time>
      </trkpt>
      <trkpt lat="47.24946" lon="4.95361">
        <ele>396</ele>
        <time>2015-04-19T09:13:49.042Z</time>
      </trkpt>
      <trkpt lat="47.24947" lon="4.9536">
        <ele>396</ele>
        <time>2015-04-19T09:13:50.045Z</time>
      </trkpt>
      <trkpt lat="47.24951" lon="4.9535">
        <ele>397</ele>
        <time>2015-04-19T09:13:55.025Z</time>
      </trkpt>
      <trkpt lat="47.24952" lon="4.95348">
        <ele>397</ele>
        <time>2015-04-19T09:13:56.033Z</time>
      </trkpt>
      <trkpt lat="47.24957" lon="4.95337">
        <ele>397</ele>
        <time>2015-04-19T09:14:02.046Z</time>
      </trkpt>
      <trkpt lat="47.24958" lon="4.95335">
        <ele>397</ele>
        <time>2015-04-19T09:14:03.024Z</time>
      </trkpt>
      <trkpt lat="47.24962" lon="4.95327">
        <ele>402</ele>
        <time>2015-04-19T09:14:08.033Z</time>
      </trkpt>
      <trkpt lat="47.24963" lon="4.95325">
        <ele>402</ele>
        <time>2015-04-19T09:14:09.023Z</time>
      </trkpt>
      <trkpt lat="47.24968" lon="4.95314">
        <ele>403</ele>
        <time>2015-04-19T09:14:14.052Z</time>
      </trkpt>
      <trkpt lat="47.24968" lon="4.95312">
        <ele>403</ele>
        <time>2015-04-19T09:14:15.039Z</time>
      </trkpt>
      <trkpt lat="47.24973" lon="4.95303">
        <ele>403</ele>
        <time>2015-04-19T09:14:22.033Z</time>
      </trkpt>
      <trkpt lat="47.24974" lon="4.95302">
        <ele>403</ele>
        <time>2015-04-19T09:14:23.029Z</time>
      </trkpt>
      <trkpt lat="47.2498" lon="4.95294">
        <ele>404</ele>
        <time>2015-04-19T09:14:30.021Z</time>
      </trkpt>
      <trkpt lat="47.24981" lon="4.95292">
        <ele>404</ele>
        <time>2015-04-19T09:14:31.016Z</time>
      </trkpt>
      <trkpt lat="47.24985" lon="4.95282">
        <ele>404</ele>
        <time>2015-04-19T09:14:37.018Z</time>
      </trkpt>
      <trkpt lat="47.24986" lon="4.9528">
        <ele>404</ele>
        <time>2015-04-19T09:14:38.010Z</time>
      </trkpt>
      <trkpt lat="47.24988" lon="4.95269">
        <ele>405</ele>
        <time>2015-04-19T09:14:43.022Z</time>
      </trkpt>
      <trkpt lat="47.24988" lon="4.95266">
        <ele>405</ele>
        <time>2015-04-19T09:14:44.035Z</time>
      </trkpt>
      <trkpt lat="47.24989" lon="4.95254">
        <ele>405</ele>
        <time>2015-04-19T09:14:48.028Z</time>
      </trkpt>
      <trkpt lat="47.24989" lon="4.95252">
        <ele>405</ele>
        <time>2015-04-19T09:14:49.026Z</time>
      </trkpt>
      <trkpt lat="47.2499" lon="4.9524">
        <ele>411</ele>
        <time>2015-04-19T09:14:54.031Z</time>
      </trkpt>
      <trkpt lat="47.24991" lon="4.95238">
        <ele>412</ele>
        <time>2015-04-19T09:14:55.043Z</time>
      </trkpt>
      <trkpt lat="47.24994" lon="4.95225">
        <ele>414</ele>
        <time>2015-04-19T09:15:03.011Z</time>
      </trkpt>
      <trkpt lat="47.24994" lon="4.95224">
        <ele>415</ele>
        <time>2015-04-19T09:15:04.022Z</time>
      </trkpt>
      <trkpt lat="47.24998" lon="4.95212">
        <ele>416</ele>
        <time>2015-04-19T09:15:12.027Z</time>
      </trkpt>
      <trkpt lat="47.24998" lon="4.9521">
        <ele>417</ele>
        <time>2015-04-19T09:15:13.011Z</time>
      </trkpt>
      <trkpt lat="47.24999" lon="4.95197">
        <ele>418</ele>
        <time>2015-04-19T09:15:18.013Z</time>
      </trkpt>
      <trkpt lat="47.24999" lon="4.95195">
        <ele>418</ele>
        <time>2015-04-19T09:15:19.045Z</time>
      </trkpt>
      <trkpt lat="47.25" lon="4.95184">
        <ele>415</ele>
        <time>2015-04-19T09:15:23.036Z</time>
      </trkpt>
      <trkpt lat="47.25001" lon="4.95181">
        <ele>415</ele>
        <time>2015-04-19T09:15:24.034Z</time>
      </trkpt>
      <trkpt lat="47.25002" lon="4.9517">
        <ele>416</ele>
        <time>2015-04-19T09:15:28.029Z</time>
      </trkpt>
      <trkpt lat="47.25003" lon="4.95167">
        <ele>418</ele>
        <time>2015-04-19T09:15:29.014Z</time>
      </trkpt>
      <trkpt lat="47.25005" lon="4.95154">
        <ele>419</ele>
        <time>2015-04-19T09:15:33.033Z</time>
      </trkpt>
      <trkpt lat="47.25006" lon="4.95152">
        <ele>420</ele>
        <time>2015-04-19T09:15:34.025Z</time>
      </trkpt>
      <trkpt lat="47.2501" lon="4.95141">
        <ele>421</ele>
        <time>2015-04-19T09:15:38.025Z</time>
      </trkpt>
      <trkpt lat="47.2501" lon="4.95139">
        <ele>422</ele>
        <time>2015-04-19T09:15:39.034Z</time>
      </trkpt>
      <trkpt lat="47.25012" lon="4.95127">
        <ele>423</ele>
        <time>2015-04-19T09:15:44.727Z</time>
      </trkpt>
      <trkpt lat="47.25013" lon="4.95126">
        <ele>424</ele>
        <time>2015-04-19T09:15:45.703Z</time>
      </trkpt>
      <trkpt lat="47.25018" lon="4.95118">
        <ele>424</ele>
        <time>2015-04-19T09:15:49.735Z</time>
      </trkpt>
      <trkpt lat="47.25019" lon="4.95116">
        <ele>425</ele>
        <time>2015-04-19T09:15:50.761Z</time>
      </trkpt>
      <trkpt lat="47.25024" lon="4.95108">
        <ele>425</ele>
        <time>2015-04-19T09:15:54.703Z</time>
      </trkpt>
      <trkpt lat="47.25026" lon="4.95106">
        <ele>425</ele>
        <time>2015-04-19T09:15:55.717Z</time>
      </trkpt>
      <trkpt lat="47.25032" lon="4.95101">
        <ele>425</ele>
        <time>2015-04-19T09:15:59.711Z</time>
      </trkpt>
      <trkpt lat="47.25034" lon="4.951">
        <ele>425</ele>
        <time>2015-04-19T09:16:00.736Z</time>
      </trkpt>
      <trkpt lat="47.25039" lon="4.95091">
        <ele>425</ele>
        <time>2015-04-19T09:16:04.741Z</time>
      </trkpt>
      <trkpt lat="47.2504" lon="4.9509">
        <ele>424</ele>
        <time>2015-04-19T09:16:05.711Z</time>
      </trkpt>
      <trkpt lat="47.25045" lon="4.9508">
        <ele>433</ele>
        <time>2015-04-19T09:16:11.734Z</time>
      </trkpt>
      <trkpt lat="47.25046" lon="4.95078">
        <ele>433</ele>
        <time>2015-04-19T09:16:12.734Z</time>
      </trkpt>
      <trkpt lat="47.2505" lon="4.95067">
        <ele>433</ele>
        <time>2015-04-19T09:16:19.746Z</time>
      </trkpt>
      <trkpt lat="47.2505" lon="4.95065">
        <ele>433</ele>
        <time>2015-04-19T09:16:20.748Z</time>
      </trkpt>
      <trkpt lat="47.25053" lon="4.95055">
        <ele>433</ele>
        <time>2015-04-19T09:16:26.747Z</time>
      </trkpt>
      <trkpt lat="47.25054" lon="4.95053">
        <ele>433</ele>
        <time>2015-04-19T09:16:27.739Z</time>
      </trkpt>
      <trkpt lat="47.25059" lon="4.95042">
        <ele>434</ele>
        <time>2015-04-19T09:16:34.720Z</time>
      </trkpt>
      <trkpt lat="47.25059" lon="4.95041">
        <ele>434</ele>
        <time>2015-04-19T09:16:35.735Z</time>
      </trkpt>
      <trkpt lat="47.25062" lon="4.95028">
        <ele>435</ele>
        <time>2015-04-19T09:16:44.748Z</time>
      </trkpt>
      <trkpt lat="47.25063" lon="4.95027">
        <ele>435</ele>
        <time>2015-04-19T09:16:45.737Z</time>
      </trkpt>
      <trkpt lat="47.25067" lon="4.95016">
        <ele>435</ele>
        <time>2015-04-19T09:16:55.743Z</time>
      </trkpt>
      <trkpt lat="47.25067" lon="4.95015">
        <ele>435</ele>
        <time>2015-04-19T09:16:56.747Z</time>
      </trkpt>
      <trkpt lat="47.25066" lon="4.95003">
        <ele>436</ele>
        <time>2015-04-19T09:17:07.735Z</time>
      </trkpt>
      <trkpt lat="47.25066" lon="4.95003">
        <ele>436</ele>
        <time>2015-04-19T09:17:08.743Z</time>
      </trkpt>
      <trkpt lat="47.25066" lon="4.95002">
        <ele>436</ele>
        <time>2015-04-19T09:17:09.737Z</time>
      </trkpt>
      <trkpt lat="47.25064" lon="4.94989">
        <ele>442</ele>
        <time>2015-04-19T09:17:20.759Z</time>
      </trkpt>
      <trkpt lat="47.25064" lon="4.94988">
        <ele>442</ele>
        <time>2015-04-19T09:17:21.731Z</time>
      </trkpt>
      <trkpt lat="47.25067" lon="4.94982">
        <ele>443</ele>
        <time>2015-04-19T09:17:28.746Z</time>
      </trkpt>
      <trkpt lat="47.25067" lon="4.94981">
        <ele>443</ele>
        <time>2015-04-19T09:17:29.742Z</time>
      </trkpt>
      <trkpt lat="47.25067" lon="4.94976">
        <ele>444</ele>
        <time>2015-04-19T09:17:53.744Z</time>
      </trkpt>
      <trkpt lat="47.25067" lon="4.94976">
        <ele>444</ele>
        <time>2015-04-19T09:17:54.757Z</time>
      </trkpt>
      <trkpt lat="47.25067" lon="4.94976">
        <ele>444</ele>
        <time>2015-04-19T09:17:56.770Z</time>
      </trkpt>
      <trkpt lat="47.25067" lon="4.94976">
        <ele>444</ele>
        <time>2015-04-19T09:17:57.765Z</time>
      </trkpt>
      <trkpt lat="47.25067" lon="4.94976">
        <ele>444</ele>
        <time>2015-04-19T09:18:00.730Z</time>
      </trkpt>
      <trkpt lat="47.25068" lon="4.94971">
        <ele>444</ele>
        <time>2015-04-19T09:18:01.740Z</time>
      </trkpt>
      <trkpt lat="47.25075" lon="4.94971">
        <ele>443</ele>
        <time>2015-04-19T09:18:10.732Z</time>
      </trkpt>
      <trkpt lat="47.25075" lon="4.94971">
        <ele>443</ele>
        <time>2015-04-19T09:18:11.726Z</time>
      </trkpt>
      <trkpt lat="47.25075" lon="4.94971">
        <ele>443</ele>
        <time>2015-04-19T09:18:19.749Z</time>
      </trkpt>
      <trkpt lat="47.25075" lon="4.94971">
        <ele>443</ele>
        <time>2015-04-19T09:18:20.759Z</time>
      </trkpt>
      <trkpt lat="47.25075" lon="4.94971">
        <ele>443</ele>
        <time>2015-04-19T09:18:21.742Z</time>
      </trkpt>
      <trkpt lat="47.25075" lon="4.94971">
        <ele>443</ele>
        <time>2015-04-19T09:18:29.749Z</time>
      </trkpt>
      <trkpt lat="47.25076" lon="4.94964">
        <ele>444</ele>
        <time>2015-04-19T09:18:30.733Z</time>
      </trkpt>
      <trkpt lat="47.25083" lon="4.94959">
        <ele>444</ele>
        <time>2015-04-19T09:18:44.739Z</time>
      </trkpt>
      <trkpt lat="47.25084" lon="4.94959">
        <ele>438</ele>
        <time>2015-04-19T09:18:45.739Z</time>
      </trkpt>
      <trkpt lat="47.25093" lon="4.94957">
        <ele>438</ele>
        <time>2015-04-19T09:18:53.760Z</time>
      </trkpt>
      <trkpt lat="47.25094" lon="4.94957">
        <ele>438</ele>
        <time>2015-04-19T09:18:54.759Z</time>
      </trkpt>
      <trkpt lat="47.25102" lon="4.94953">
        <ele>438</ele>
        <time>2015-04-19T09:19:02.743Z</time>
      </trkpt>
      <trkpt lat="47.25103" lon="4.94954">
        <ele>438</ele>
        <time>2015-04-19T09:19:03.733Z</time>
      </trkpt>
      <trkpt lat="47.25108" lon="4.94954">
        <ele>438</ele>
        <time>2015-04-19T09:19:09.738Z</time>
      </trkpt>
      <trkpt lat="47.25109" lon="4.94953">
        <ele>438</ele>
        <time>2015-04-19T09:19:10.726Z</time>
      </trkpt>
      <trkpt lat="47.2511" lon="4.94953">
        <ele>438</ele>
        <time>2015-04-19T09:19:11.763Z</time>
      </trkpt>
      <trkpt lat="47.2511" lon="4.94953">
        <ele>438</ele>
        <time>2015-04-19T09:19:12.738Z</time>
      </trkpt>
      <trkpt lat="47.2511" lon="4.94953">
        <ele>438</ele>
        <time>2015-04-19T09:19:13.736Z</time>
      </trkpt>
      <trkpt lat="47.25116" lon="4.94952">
        <ele>438</ele>
        <time>2015-04-19T09:19:23.757Z</time>
      </trkpt>
      <trkpt lat="47.25116" lon="4.94952">
        <ele>438</ele>
        <time>2015-04-19T09:19:24.771Z</time>
      </trkpt>
      <trkpt lat="47.25121" lon="4.9495">
        <ele>438</ele>
        <time>2015-04-19T09:19:25.753Z</time>
      </trkpt>
      <trkpt lat="47.25129" lon="4.94953">
        <ele>438</ele>
        <time>2015-04-19T09:19:31.739Z</time>
      </trkpt>
      <trkpt lat="47.2513" lon="4.94954">
        <ele>438</ele>
        <time>2015-04-19T09:19:32.720Z</time>
      </trkpt>
      <trkpt lat="47.25136" lon="4.94961">
        <ele>438</ele>
        <time>2015-04-19T09:19:40.742Z</time>
      </trkpt>
      <trkpt lat="47.25137" lon="4.94963">
        <ele>437</ele>
        <time>2015-04-19T09:19:41.756Z</time>
      </trkpt>
      <trkpt lat="47.25144" lon="4.94971">
        <ele>437</ele>
        <time>2015-04-19T09:19:51.755Z</time>
      </trkpt>
      <trkpt lat="47.25145" lon="4.94971">
        <ele>437</ele>
        <time>2015-04-19T09:19:52.727Z</time>
      </trkpt>
      <trkpt lat="47.25151" lon="4.94979">
        <ele>437</ele>
        <time>2015-04-19T09:20:02.762Z</time>
      </trkpt>
      <trkpt lat="47.25152" lon="4.94981">
        <ele>437</ele>
        <time>2015-04-19T09:20:03.785Z</time>
      </trkpt>
      <trkpt lat="47.25155" lon="4.94994">
        <ele>437</ele>
        <time>2015-04-19T09:20:09.730Z</time>
      </trkpt>
      <trkpt lat="47.25155" lon="4.94996">
        <ele>437</ele>
        <time>2015-04-19T09:20:10.739Z</time>
      </trkpt>
      <trkpt lat="47.25159" lon="4.95005">
        <ele>435</ele>
        <time>2015-04-19T09:20:15.757Z</time>
      </trkpt>
      <trkpt lat="47.25159" lon="4.95008">
        <ele>435</ele>
        <time>2015-04-19T09:20:16.731Z</time>
      </trkpt>
      <trkpt lat="47.25162" lon="4.9502">
        <ele>434</ele>
        <time>2015-04-19T09:20:22.730Z</time>
      </trkpt>
      <trkpt lat="47.25163" lon="4.95022">
        <ele>434</ele>
        <time>2015-04-19T09:20:23.720Z</time>
      </trkpt>
      <trkpt lat="47.25163" lon="4.95034">
        <ele>434</ele>
        <time>2015-04-19T09:20:29.750Z</time>
      </trkpt>
      <trkpt lat="47.25163" lon="4.95037">
        <ele>434</ele>
        <time>2015-04-19T09:20:30.734Z</time>
      </trkpt>
      <trkpt lat="47.25162" lon="4.95049">
        <ele>434</ele>
        <time>2015-04-19T09:20:35.742Z</time>
      </trkpt>
      <trkpt lat="47.25162" lon="4.95052">
        <ele>434</ele>
        <time>2015-04-19T09:20:36.773Z</time>
      </trkpt>
      <trkpt lat="47.2516" lon="4.95063">
        <ele>435</ele>
        <time>2015-04-19T09:20:42.730Z</time>
      </trkpt>
      <trkpt lat="47.25159" lon="4.95065">
        <ele>435</ele>
        <time>2015-04-19T09:20:43.741Z</time>
      </trkpt>
      <trkpt lat="47.25155" lon="4.95076">
        <ele>436</ele>
        <time>2015-04-19T09:20:48.757Z</time>
      </trkpt>
      <trkpt lat="47.25154" lon="4.95078">
        <ele>436</ele>
        <time>2015-04-19T09:20:49.767Z</time>
      </trkpt>
      <trkpt lat="47.25151" lon="4.9509">
        <ele>434</ele>
        <time>2015-04-19T09:20:54.763Z</time>
      </trkpt>
      <trkpt lat="47.25151" lon="4.95091">
        <ele>434</ele>
        <time>2015-04-19T09:20:55.724Z</time>
      </trkpt>
      <trkpt lat="47.25151" lon="4.95103">
        <ele>433</ele>
        <time>2015-04-19T09:21:00.750Z</time>
      </trkpt>
      <trkpt lat="47.25152" lon="4.95107">
        <ele>433</ele>
        <time>2015-04-19T09:21:01.748Z</time>
      </trkpt>
      <trkpt lat="47.25155" lon="4.95117">
        <ele>433</ele>
        <time>2015-04-19T09:21:04.754Z</time>
      </trkpt>
      <trkpt lat="47.25156" lon="4.95119">
        <ele>433</ele>
        <time>2015-04-19T09:21:05.739Z</time>
      </trkpt>
      <trkpt lat="47.2516" lon="4.95129">
        <ele>434</ele>
        <time>2015-04-19T09:21:11.735Z</time>
      </trkpt>
      <trkpt lat="47.2516" lon="4.95131">
        <ele>434</ele>
        <time>2015-04-19T09:21:12.748Z</time>
      </trkpt>
      <trkpt lat="47.25163" lon="4.95143">
        <ele>436</ele>
        <time>2015-04-19T09:21:17.757Z</time>
      </trkpt>
      <trkpt lat="47.25163" lon="4.95146">
        <ele>436</ele>
        <time>2015-04-19T09:21:18.762Z</time>
      </trkpt>
      <trkpt lat="47.25166" lon="4.95157">
        <ele>440</ele>
        <time>2015-04-19T09:21:22.741Z</time>
      </trkpt>
      <trkpt lat="47.25166" lon="4.95159">
        <ele>441</ele>
        <time>2015-04-19T09:21:23.735Z</time>
      </trkpt>
      <trkpt lat="47.25169" lon="4.95171">
        <ele>446</ele>
        <time>2015-04-19T09:21:28.758Z</time>
      </trkpt>
      <trkpt lat="47.2517" lon="4.95174">
        <ele>447</ele>
        <time>2015-04-19T09:21:29.766Z</time>
      </trkpt>
      <trkpt lat="47.25173" lon="4.95186">
        <ele>449</ele>
        <time>2015-04-19T09:21:34.741Z</time>
      </trkpt>
      <trkpt lat="47.25173" lon="4.95188">
        <ele>449</ele>
        <time>2015-04-19T09:21:35.745Z</time>
      </trkpt>
      <trkpt lat="47.25176" lon="4.952">
        <ele>450</ele>
        <time>2015-04-19T09:21:40.737Z</time>
      </trkpt>
      <trkpt lat="47.25177" lon="4.95203">
        <ele>450</ele>
        <time>2015-04-19T09:21:41.733Z</time>
      </trkpt>
      <trkpt lat="47.2518" lon="4.95212">
        <ele>450</ele>
        <time>2015-04-19T09:21:45.757Z</time>
      </trkpt>
      <trkpt lat="47.25181" lon="4.95215">
        <ele>450</ele>
        <time>2015-04-19T09:21:46.751Z</time>
      </trkpt>
      <trkpt lat="47.25184" lon="4.95225">
        <ele>450</ele>
        <time>2015-04-19T09:21:50.764Z</time>
      </trkpt>
      <trkpt lat="47.25185" lon="4.95227">
        <ele>450</ele>
        <time>2015-04-19T09:21:51.726Z</time>
      </trkpt>
      <trkpt lat="47.25189" lon="4.95239">
        <ele>450</ele>
        <time>2015-04-19T09:21:56.800Z</time>
      </trkpt>
      <trkpt lat="47.25189" lon="4.95241">
        <ele>450</ele>
        <time>2015-04-19T09:21:57.756Z</time>
      </trkpt>
      <trkpt lat="47.25193" lon="4.95252">
        <ele>451</ele>
        <time>2015-04-19T09:22:02.733Z</time>
      </trkpt>
      <trkpt lat="47.25193" lon="4.95255">
        <ele>451</ele>
        <time>2015-04-19T09:22:03.742Z</time>
      </trkpt>
      <trkpt lat="47.25196" lon="4.95266">
        <ele>452</ele>
        <time>2015-04-19T09:22:08.763Z</time>
      </trkpt>
      <trkpt lat="47.25196" lon="4.95269">
        <ele>452</ele>
        <time>2015-04-19T09:22:09.720Z</time>
      </trkpt>
      <trkpt lat="47.252" lon="4.95281">
        <ele>452</ele>
        <time>2015-04-19T09:22:14.750Z</time>
      </trkpt>
      <trkpt lat="47.25201" lon="4.95283">
        <ele>452</ele>
        <time>2015-04-19T09:22:15.787Z</time>
      </trkpt>
      <trkpt lat="47.25204" lon="4.95294">
        <ele>453</ele>
        <time>2015-04-19T09:22:20.767Z</time>
      </trkpt>
      <trkpt lat="47.25205" lon="4.95297">
        <ele>453</ele>
        <time>2015-04-19T09:22:21.759Z</time>
      </trkpt>
      <trkpt lat="47.2521" lon="4.95307">
        <ele>453</ele>
        <time>2015-04-19T09:22:26.758Z</time>
      </trkpt>
      <trkpt lat="47.25211" lon="4.95309">
        <ele>453</ele>
        <time>2015-04-19T09:22:27.723Z</time>
      </trkpt>
      <trkpt lat="47.25213" lon="4.9532">
        <ele>453</ele>
        <time>2015-04-19T09:22:32.755Z</time>
      </trkpt>
      <trkpt lat="47.25213" lon="4.95321">
        <ele>453</ele>
        <time>2015-04-19T09:22:33.489Z</time>
      </trkpt>
      <trkpt lat="47.25215" lon="4.95333">
        <ele>453</ele>
        <time>2015-04-19T09:22:38.831Z</time>
      </trkpt>
      <trkpt lat="47.25215" lon="4.95335">
        <ele>453</ele>
        <time>2015-04-19T09:22:39.490Z</time>
      </trkpt>
      <trkpt lat="47.25215" lon="4.95343">
        <ele>453</ele>
        <time>2015-04-19T09:22:44.512Z</time>
      </trkpt>
      <trkpt lat="47.25215" lon="4.95343">
        <ele>453</ele>
        <time>2015-04-19T09:22:45.508Z</time>
      </trkpt>
      <trkpt lat="47.25215" lon="4.95343">
        <ele>453</ele>
        <time>2015-04-19T09:23:12.531Z</time>
      </trkpt>
      <trkpt lat="47.25214" lon="4.95346">
        <ele>453</ele>
        <time>2015-04-19T09:23:13.555Z</time>
      </trkpt>
      <trkpt lat="47.25214" lon="4.95358">
        <ele>453</ele>
        <time>2015-04-19T09:23:21.543Z</time>
      </trkpt>
      <trkpt lat="47.25214" lon="4.9536">
        <ele>453</ele>
        <time>2015-04-19T09:23:22.545Z</time>
      </trkpt>
      <trkpt lat="47.25216" lon="4.95372">
        <ele>453</ele>
        <time>2015-04-19T09:23:28.521Z</time>
      </trkpt>
      <trkpt lat="47.25218" lon="4.95373">
        <ele>453</ele>
        <time>2015-04-19T09:23:29.538Z</time>
      </trkpt>
      <trkpt lat="47.25226" lon="4.95374">
        <ele>453</ele>
        <time>2015-04-19T09:23:35.521Z</time>
      </trkpt>
      <trkpt lat="47.25228" lon="4.95374">
        <ele>453</ele>
        <time>2015-04-19T09:23:36.521Z</time>
      </trkpt>
      <trkpt lat="47.25236" lon="4.95371">
        <ele>453</ele>
        <time>2015-04-19T09:23:41.523Z</time>
      </trkpt>
      <trkpt lat="47.25237" lon="4.9537">
        <ele>453</ele>
        <time>2015-04-19T09:23:42.530Z</time>
      </trkpt>
      <trkpt lat="47.25244" lon="4.95366">
        <ele>454</ele>
        <time>2015-04-19T09:23:46.533Z</time>
      </trkpt>
      <trkpt lat="47.25246" lon="4.95365">
        <ele>454</ele>
        <time>2015-04-19T09:23:47.533Z</time>
      </trkpt>
      <trkpt lat="47.25253" lon="4.95361">
        <ele>457</ele>
        <time>2015-04-19T09:23:51.537Z</time>
      </trkpt>
      <trkpt lat="47.25255" lon="4.9536">
        <ele>457</ele>
        <time>2015-04-19T09:23:52.526Z</time>
      </trkpt>
      <trkpt lat="47.25262" lon="4.95355">
        <ele>457</ele>
        <time>2015-04-19T09:23:56.552Z</time>
      </trkpt>
      <trkpt lat="47.25263" lon="4.95354">
        <ele>457</ele>
        <time>2015-04-19T09:23:57.534Z</time>
      </trkpt>
      <trkpt lat="47.25271" lon="4.95349">
        <ele>457</ele>
        <time>2015-04-19T09:24:02.518Z</time>
      </trkpt>
      <trkpt lat="47.25273" lon="4.95348">
        <ele>457</ele>
        <time>2015-04-19T09:24:03.510Z</time>
      </trkpt>
      <trkpt lat="47.2528" lon="4.95344">
        <ele>457</ele>
        <time>2015-04-19T09:24:07.507Z</time>
      </trkpt>
      <trkpt lat="47.25282" lon="4.95344">
        <ele>457</ele>
        <time>2015-04-19T09:24:08.528Z</time>
      </trkpt>
      <trkpt lat="47.25289" lon="4.95339">
        <ele>458</ele>
        <time>2015-04-19T09:24:13.521Z</time>
      </trkpt>
      <trkpt lat="47.2529" lon="4.95338">
        <ele>458</ele>
        <time>2015-04-19T09:24:14.515Z</time>
      </trkpt>
      <trkpt lat="47.25298" lon="4.95332">
        <ele>458</ele>
        <time>2015-04-19T09:24:20.535Z</time>
      </trkpt>
      <trkpt lat="47.253" lon="4.95331">
        <ele>458</ele>
        <time>2015-04-19T09:24:21.531Z</time>
      </trkpt>
      <trkpt lat="47.25306" lon="4.95326">
        <ele>458</ele>
        <time>2015-04-19T09:24:26.532Z</time>
      </trkpt>
      <trkpt lat="47.25308" lon="4.95325">
        <ele>458</ele>
        <time>2015-04-19T09:24:27.531Z</time>
      </trkpt>
      <trkpt lat="47.25315" lon="4.9532">
        <ele>458</ele>
        <time>2015-04-19T09:24:32.529Z</time>
      </trkpt>
      <trkpt lat="47.25317" lon="4.95319">
        <ele>458</ele>
        <time>2015-04-19T09:24:33.520Z</time>
      </trkpt>
      <trkpt lat="47.25325" lon="4.95315">
        <ele>458</ele>
        <time>2015-04-19T09:24:38.517Z</time>
      </trkpt>
      <trkpt lat="47.25327" lon="4.95314">
        <ele>458</ele>
        <time>2015-04-19T09:24:39.515Z</time>
      </trkpt>
      <trkpt lat="47.25335" lon="4.95309">
        <ele>460</ele>
        <time>2015-04-19T09:24:43.507Z</time>
      </trkpt>
      <trkpt lat="47.25336" lon="4.95307">
        <ele>460</ele>
        <time>2015-04-19T09:24:44.536Z</time>
      </trkpt>
      <trkpt lat="47.25343" lon="4.95299">
        <ele>460</ele>
        <time>2015-04-19T09:24:48.520Z</time>
      </trkpt>
      <trkpt lat="47.25345" lon="4.95298">
        <ele>460</ele>
        <time>2015-04-19T09:24:49.529Z</time>
      </trkpt>
      <trkpt lat="47.25353" lon="4.95291">
        <ele>460</ele>
        <time>2015-04-19T09:24:53.534Z</time>
      </trkpt>
      <trkpt lat="47.25355" lon="4.9529">
        <ele>460</ele>
        <time>2015-04-19T09:24:54.532Z</time>
      </trkpt>
      <trkpt lat="47.25362" lon="4.95282">
        <ele>460</ele>
        <time>2015-04-19T09:24:58.512Z</time>
      </trkpt>
      <trkpt lat="47.25363" lon="4.9528">
        <ele>460</ele>
        <time>2015-04-19T09:24:59.537Z</time>
      </trkpt>
      <trkpt lat="47.25368" lon="4.95272">
        <ele>460</ele>
        <time>2015-04-19T09:25:03.512Z</time>
      </trkpt>
      <trkpt lat="47.25369" lon="4.95271">
        <ele>460</ele>
        <time>2015-04-19T09:25:04.526Z</time>
      </trkpt>
      <trkpt lat="47.25376" lon="4.95265">
        <ele>460</ele>
        <time>2015-04-19T09:25:08.530Z</time>
      </trkpt>
      <trkpt lat="47.25378" lon="4.95263">
        <ele>460</ele>
        <time>2015-04-19T09:25:09.521Z</time>
      </trkpt>
      <trkpt lat="47.25384" lon="4.95256">
        <ele>460</ele>
        <time>2015-04-19T09:25:13.508Z</time>
      </trkpt>
      <trkpt lat="47.25386" lon="4.95255">
        <ele>460</ele>
        <time>2015-04-19T09:25:14.536Z</time>
      </trkpt>
      <trkpt lat="47.25392" lon="4.95247">
        <ele>462</ele>
        <time>2015-04-19T09:25:18.527Z</time>
      </trkpt>
      <trkpt lat="47.25393" lon="4.95245">
        <ele>462</ele>
        <time>2015-04-19T09:25:19.529Z</time>
      </trkpt>
      <trkpt lat="47.254" lon="4.95239">
        <ele>462</ele>
        <time>2015-04-19T09:25:23.528Z</time>
      </trkpt>
      <trkpt lat="47.25401" lon="4.95238">
        <ele>462</ele>
        <time>2015-04-19T09:25:24.529Z</time>
      </trkpt>
      <trkpt lat="47.25409" lon="4.95234">
        <ele>462</ele>
        <time>2015-04-19T09:25:28.520Z</time>
      </trkpt>
      <trkpt lat="47.25411" lon="4.95233">
        <ele>462</ele>
        <time>2015-04-19T09:25:29.518Z</time>
      </trkpt>
      <trkpt lat="47.25419" lon="4.95227">
        <ele>462</ele>
        <time>2015-04-19T09:25:33.513Z</time>
      </trkpt>
      <trkpt lat="47.2542" lon="4.95225">
        <ele>462</ele>
        <time>2015-04-19T09:25:34.510Z</time>
      </trkpt>
      <trkpt lat="47.25427" lon="4.95219">
        <ele>462</ele>
        <time>2015-04-19T09:25:38.497Z</time>
      </trkpt>
      <trkpt lat="47.25428" lon="4.95216">
        <ele>463</ele>
        <time>2015-04-19T09:25:39.515Z</time>
      </trkpt>
      <trkpt lat="47.25435" lon="4.9521">
        <ele>463</ele>
        <time>2015-04-19T09:25:43.514Z</time>
      </trkpt>
      <trkpt lat="47.25436" lon="4.95208">
        <ele>463</ele>
        <time>2015-04-19T09:25:44.518Z</time>
      </trkpt>
      <trkpt lat="47.25443" lon="4.95202">
        <ele>463</ele>
        <time>2015-04-19T09:25:48.516Z</time>
      </trkpt>
      <trkpt lat="47.25445" lon="4.95201">
        <ele>463</ele>
        <time>2015-04-19T09:25:49.502Z</time>
      </trkpt>
      <trkpt lat="47.25452" lon="4.95196">
        <ele>463</ele>
        <time>2015-04-19T09:25:53.519Z</time>
      </trkpt>
      <trkpt lat="47.25454" lon="4.95195">
        <ele>463</ele>
        <time>2015-04-19T09:25:54.515Z</time>
      </trkpt>
      <trkpt lat="47.2546" lon="4.9519">
        <ele>463</ele>
        <time>2015-04-19T09:25:58.529Z</time>
      </trkpt>
      <trkpt lat="47.25462" lon="4.95189">
        <ele>463</ele>
        <time>2015-04-19T09:25:59.536Z</time>
      </trkpt>
      <trkpt lat="47.2547" lon="4.95185">
        <ele>463</ele>
        <time>2015-04-19T09:26:04.510Z</time>
      </trkpt>
      <trkpt lat="47.25471" lon="4.95183">
        <ele>463</ele>
        <time>2015-04-19T09:26:05.529Z</time>
      </trkpt>
      <trkpt lat="47.25477" lon="4.95175">
        <ele>463</ele>
        <time>2015-04-19T09:26:09.533Z</time>
      </trkpt>
      <trkpt lat="47.25478" lon="4.95174">
        <ele>463</ele>
        <time>2015-04-19T09:26:10.531Z</time>
      </trkpt>
      <trkpt lat="47.25484" lon="4.95167">
        <ele>464</ele>
        <time>2015-04-19T09:26:14.546Z</time>
      </trkpt>
      <trkpt lat="47.25486" lon="4.95165">
        <ele>465</ele>
        <time>2015-04-19T09:26:15.505Z</time>
      </trkpt>
      <trkpt lat="47.25492" lon="4.95159">
        <ele>465</ele>
        <time>2015-04-19T09:26:19.509Z</time>
      </trkpt>
      <trkpt lat="47.25494" lon="4.95158">
        <ele>465</ele>
        <time>2015-04-19T09:26:20.520Z</time>
      </trkpt>
      <trkpt lat="47.25502" lon="4.9516">
        <ele>464</ele>
        <time>2015-04-19T09:26:27.529Z</time>
      </trkpt>
      <trkpt lat="47.25503" lon="4.95161">
        <ele>464</ele>
        <time>2015-04-19T09:26:28.530Z</time>
      </trkpt>
      <trkpt lat="47.25512" lon="4.95161">
        <ele>465</ele>
        <time>2015-04-19T09:26:37.525Z</time>
      </trkpt>
      <trkpt lat="47.25513" lon="4.95161">
        <ele>465</ele>
        <time>2015-04-19T09:26:38.531Z</time>
      </trkpt>
      <trkpt lat="47.25521" lon="4.95163">
        <ele>465</ele>
        <time>2015-04-19T09:26:47.537Z</time>
      </trkpt>
      <trkpt lat="47.25523" lon="4.95163">
        <ele>465</ele>
        <time>2015-04-19T09:26:48.507Z</time>
      </trkpt>
      <trkpt lat="47.2553" lon="4.95163">
        <ele>465</ele>
        <time>2015-04-19T09:26:54.534Z</time>
      </trkpt>
      <trkpt lat="47.25532" lon="4.95163">
        <ele>465</ele>
        <time>2015-04-19T09:26:55.516Z</time>
      </trkpt>
      <trkpt lat="47.2554" lon="4.95161">
        <ele>465</ele>
        <time>2015-04-19T09:27:00.526Z</time>
      </trkpt>
      <trkpt lat="47.25542" lon="4.95161">
        <ele>465</ele>
        <time>2015-04-19T09:27:01.523Z</time>
      </trkpt>
      <trkpt lat="47.25549" lon="4.95161">
        <ele>466</ele>
        <time>2015-04-19T09:27:06.499Z</time>
      </trkpt>
      <trkpt lat="47.25551" lon="4.95161">
        <ele>466</ele>
        <time>2015-04-19T09:27:07.522Z</time>
      </trkpt>
      <trkpt lat="47.25558" lon="4.9516">
        <ele>466</ele>
        <time>2015-04-19T09:27:12.525Z</time>
      </trkpt>
      <trkpt lat="47.2556" lon="4.95158">
        <ele>466</ele>
        <time>2015-04-19T09:27:13.526Z</time>
      </trkpt>
      <trkpt lat="47.25568" lon="4.95157">
        <ele>465</ele>
        <time>2015-04-19T09:27:17.515Z</time>
      </trkpt>
      <trkpt lat="47.2557" lon="4.95156">
        <ele>465</ele>
        <time>2015-04-19T09:27:18.530Z</time>
      </trkpt>
      <trkpt lat="47.25578" lon="4.95155">
        <ele>465</ele>
        <time>2015-04-19T09:27:22.546Z</time>
      </trkpt>
      <trkpt lat="47.25579" lon="4.95154">
        <ele>465</ele>
        <time>2015-04-19T09:27:23.528Z</time>
      </trkpt>
      <trkpt lat="47.25588" lon="4.95151">
        <ele>466</ele>
        <time>2015-04-19T09:27:28.532Z</time>
      </trkpt>
      <trkpt lat="47.25589" lon="4.9515">
        <ele>466</ele>
        <time>2015-04-19T09:27:29.537Z</time>
      </trkpt>
      <trkpt lat="47.25596" lon="4.95146">
        <ele>466</ele>
        <time>2015-04-19T09:27:34.531Z</time>
      </trkpt>
      <trkpt lat="47.25598" lon="4.95145">
        <ele>466</ele>
        <time>2015-04-19T09:27:35.530Z</time>
      </trkpt>
      <trkpt lat="47.25605" lon="4.95139">
        <ele>466</ele>
        <time>2015-04-19T09:27:41.531Z</time>
      </trkpt>
      <trkpt lat="47.25607" lon="4.95137">
        <ele>466</ele>
        <time>2015-04-19T09:27:42.537Z</time>
      </trkpt>
      <trkpt lat="47.25614" lon="4.95132">
        <ele>466</ele>
        <time>2015-04-19T09:27:47.516Z</time>
      </trkpt>
      <trkpt lat="47.25616" lon="4.95131">
        <ele>466</ele>
        <time>2015-04-19T09:27:48.524Z</time>
      </trkpt>
      <trkpt lat="47.25622" lon="4.95124">
        <ele>466</ele>
        <time>2015-04-19T09:27:53.529Z</time>
      </trkpt>
      <trkpt lat="47.25623" lon="4.95122">
        <ele>466</ele>
        <time>2015-04-19T09:27:54.532Z</time>
      </trkpt>
      <trkpt lat="47.25628" lon="4.95114">
        <ele>466</ele>
        <time>2015-04-19T09:27:58.527Z</time>
      </trkpt>
      <trkpt lat="47.25629" lon="4.95112">
        <ele>466</ele>
        <time>2015-04-19T09:27:59.533Z</time>
      </trkpt>
      <trkpt lat="47.25635" lon="4.95103">
        <ele>467</ele>
        <time>2015-04-19T09:28:04.534Z</time>
      </trkpt>
      <trkpt lat="47.25636" lon="4.95102">
        <ele>467</ele>
        <time>2015-04-19T09:28:05.521Z</time>
      </trkpt>
      <trkpt lat="47.25643" lon="4.95095">
        <ele>467</ele>
        <time>2015-04-19T09:28:10.518Z</time>
      </trkpt>
      <trkpt lat="47.25645" lon="4.95094">
        <ele>467</ele>
        <time>2015-04-19T09:28:11.519Z</time>
      </trkpt>
      <trkpt lat="47.25652" lon="4.95086">
        <ele>467</ele>
        <time>2015-04-19T09:28:17.524Z</time>
      </trkpt>
      <trkpt lat="47.25653" lon="4.95085">
        <ele>467</ele>
        <time>2015-04-19T09:28:18.528Z</time>
      </trkpt>
      <trkpt lat="47.25658" lon="4.95075">
        <ele>468</ele>
        <time>2015-04-19T09:28:25.524Z</time>
      </trkpt>
      <trkpt lat="47.25659" lon="4.95073">
        <ele>468</ele>
        <time>2015-04-19T09:28:26.526Z</time>
      </trkpt>
      <trkpt lat="47.25665" lon="4.95065">
        <ele>468</ele>
        <time>2015-04-19T09:28:30.528Z</time>
      </trkpt>
      <trkpt lat="47.25667" lon="4.95064">
        <ele>468</ele>
        <time>2015-04-19T09:28:31.553Z</time>
      </trkpt>
      <trkpt lat="47.25672" lon="4.95054">
        <ele>468</ele>
        <time>2015-04-19T09:28:37.515Z</time>
      </trkpt>
      <trkpt lat="47.25673" lon="4.95053">
        <ele>468</ele>
        <time>2015-04-19T09:28:38.523Z</time>
      </trkpt>
      <trkpt lat="47.25678" lon="4.95041">
        <ele>468</ele>
        <time>2015-04-19T09:28:43.520Z</time>
      </trkpt>
      <trkpt lat="47.25678" lon="4.95039">
        <ele>468</ele>
        <time>2015-04-19T09:28:44.538Z</time>
      </trkpt>
      <trkpt lat="47.25681" lon="4.95028">
        <ele>468</ele>
        <time>2015-04-19T09:28:48.521Z</time>
      </trkpt>
      <trkpt lat="47.25682" lon="4.95026">
        <ele>469</ele>
        <time>2015-04-19T09:28:49.519Z</time>
      </trkpt>
      <trkpt lat="47.25684" lon="4.95013">
        <ele>469</ele>
        <time>2015-04-19T09:28:54.528Z</time>
      </trkpt>
      <trkpt lat="47.25684" lon="4.95011">
        <ele>469</ele>
        <time>2015-04-19T09:28:55.529Z</time>
      </trkpt>
      <trkpt lat="47.25686" lon="4.94999">
        <ele>470</ele>
        <time>2015-04-19T09:29:00.510Z</time>
      </trkpt>
      <trkpt lat="47.25686" lon="4.94997">
        <ele>470</ele>
        <time>2015-04-19T09:29:01.526Z</time>
      </trkpt>
      <trkpt lat="47.25688" lon="4.94984">
        <ele>470</ele>
        <time>2015-04-19T09:29:07.526Z</time>
      </trkpt>
      <trkpt lat="47.25689" lon="4.94982">
        <ele>471</ele>
        <time>2015-04-19T09:29:08.531Z</time>
      </trkpt>
      <trkpt lat="47.25693" lon="4.94972">
        <ele>471</ele>
        <time>2015-04-19T09:29:13.523Z</time>
      </trkpt>
      <trkpt lat="47.25694" lon="4.9497">
        <ele>471</ele>
        <time>2015-04-19T09:29:14.532Z</time>
      </trkpt>
      <trkpt lat="47.25699" lon="4.9496">
        <ele>471</ele>
        <time>2015-04-19T09:29:19.528Z</time>
      </trkpt>
      <trkpt lat="47.257" lon="4.94957">
        <ele>471</ele>
        <time>2015-04-19T09:29:20.532Z</time>
      </trkpt>
      <trkpt lat="47.25702" lon="4.94947">
        <ele>471</ele>
        <time>2015-04-19T09:29:24.530Z</time>
      </trkpt>
      <trkpt lat="47.25703" lon="4.94944">
        <ele>471</ele>
        <time>2015-04-19T09:29:25.535Z</time>
      </trkpt>
      <trkpt lat="47.25706" lon="4.94934">
        <ele>471</ele>
        <time>2015-04-19T09:29:29.505Z</time>
      </trkpt>
      <trkpt lat="47.25707" lon="4.94931">
        <ele>471</ele>
        <time>2015-04-19T09:29:30.522Z</time>
      </trkpt>
      <trkpt lat="47.25712" lon="4.94921">
        <ele>471</ele>
        <time>2015-04-19T09:29:34.534Z</time>
      </trkpt>
      <trkpt lat="47.25713" lon="4.94918">
        <ele>471</ele>
        <time>2015-04-19T09:29:35.526Z</time>
      </trkpt>
      <trkpt lat="47.25717" lon="4.94908">
        <ele>473</ele>
        <time>2015-04-19T09:29:40.490Z</time>
      </trkpt>
      <trkpt lat="47.25718" lon="4.94907">
        <ele>473</ele>
        <time>2015-04-19T09:29:41.511Z</time>
      </trkpt>
      <trkpt lat="47.25722" lon="4.94898">
        <ele>473</ele>
        <time>2015-04-19T09:29:46.540Z</time>
      </trkpt>
      <trkpt lat="47.25723" lon="4.94896">
        <ele>473</ele>
        <time>2015-04-19T09:29:47.519Z</time>
      </trkpt>
      <trkpt lat="47.2573" lon="4.94889">
        <ele>473</ele>
        <time>2015-04-19T09:29:52.525Z</time>
      </trkpt>
      <trkpt lat="47.25731" lon="4.9489">
        <ele>473</ele>
        <time>2015-04-19T09:29:53.524Z</time>
      </trkpt>
      <trkpt lat="47.25739" lon="4.94889">
        <ele>473</ele>
        <time>2015-04-19T09:29:57.523Z</time>
      </trkpt>
      <trkpt lat="47.25741" lon="4.94888">
        <ele>473</ele>
        <time>2015-04-19T09:29:58.521Z</time>
      </trkpt>
      <trkpt lat="47.25749" lon="4.94889">
        <ele>473</ele>
        <time>2015-04-19T09:30:03.518Z</time>
      </trkpt>
      <trkpt lat="47.25751" lon="4.94889">
        <ele>471</ele>
        <time>2015-04-19T09:30:04.509Z</time>
      </trkpt>
      <trkpt lat="47.25759" lon="4.94885">
        <ele>470</ele>
        <time>2015-04-19T09:30:11.519Z</time>
      </trkpt>
      <trkpt lat="47.25761" lon="4.94884">
        <ele>470</ele>
        <time>2015-04-19T09:30:12.520Z</time>
      </trkpt>
      <trkpt lat="47.25768" lon="4.94885">
        <ele>470</ele>
        <time>2015-04-19T09:30:17.523Z</time>
      </trkpt>
      <trkpt lat="47.2577" lon="4.94885">
        <ele>470</ele>
        <time>2015-04-19T09:30:18.521Z</time>
      </trkpt>
      <trkpt lat="47.25779" lon="4.94885">
        <ele>470</ele>
        <time>2015-04-19T09:30:24.531Z</time>
      </trkpt>
      <trkpt lat="47.2578" lon="4.94885">
        <ele>470</ele>
        <time>2015-04-19T09:30:25.523Z</time>
      </trkpt>
      <trkpt lat="47.25789" lon="4.94885">
        <ele>470</ele>
        <time>2015-04-19T09:30:30.521Z</time>
      </trkpt>
      <trkpt lat="47.2579" lon="4.94886">
        <ele>470</ele>
        <time>2015-04-19T09:30:31.521Z</time>
      </trkpt>
      <trkpt lat="47.25799" lon="4.94885">
        <ele>469</ele>
        <time>2015-04-19T09:30:37.500Z</time>
      </trkpt>
      <trkpt lat="47.258" lon="4.94884">
        <ele>469</ele>
        <time>2015-04-19T09:30:38.530Z</time>
      </trkpt>
      <trkpt lat="47.25804" lon="4.94881">
        <ele>469</ele>
        <time>2015-04-19T09:30:41.527Z</time>
      </trkpt>
      <trkpt lat="47.25804" lon="4.94881">
        <ele>469</ele>
        <time>2015-04-19T09:30:42.525Z</time>
      </trkpt>
      <trkpt lat="47.25804" lon="4.94881">
        <ele>469</ele>
        <time>2015-04-19T09:30:44.518Z</time>
      </trkpt>
      <trkpt lat="47.25808" lon="4.94882">
        <ele>469</ele>
        <time>2015-04-19T09:30:45.520Z</time>
      </trkpt>
      <trkpt lat="47.25816" lon="4.94884">
        <ele>469</ele>
        <time>2015-04-19T09:30:50.499Z</time>
      </trkpt>
      <trkpt lat="47.25818" lon="4.94886">
        <ele>469</ele>
        <time>2015-04-19T09:30:51.526Z</time>
      </trkpt>
      <trkpt lat="47.25825" lon="4.94887">
        <ele>469</ele>
        <time>2015-04-19T09:31:00.516Z</time>
      </trkpt>
      <trkpt lat="47.25825" lon="4.94887">
        <ele>469</ele>
        <time>2015-04-19T09:31:01.499Z</time>
      </trkpt>
      <trkpt lat="47.25825" lon="4.94887">
        <ele>469</ele>
        <time>2015-04-19T09:31:02.533Z</time>
      </trkpt>
      <trkpt lat="47.2583" lon="4.94888">
        <ele>468</ele>
        <time>2015-04-19T09:31:03.513Z</time>
      </trkpt>
      <trkpt lat="47.25836" lon="4.94893">
        <ele>464</ele>
        <time>2015-04-19T09:31:08.516Z</time>
      </trkpt>
      <trkpt lat="47.25838" lon="4.94893">
        <ele>464</ele>
        <time>2015-04-19T09:31:09.521Z</time>
      </trkpt>
      <trkpt lat="47.25845" lon="4.94897">
        <ele>464</ele>
        <time>2015-04-19T09:31:16.517Z</time>
      </trkpt>
      <trkpt lat="47.25845" lon="4.94897">
        <ele>464</ele>
        <time>2015-04-19T09:31:17.523Z</time>
      </trkpt>
      <trkpt lat="47.25845" lon="4.94897">
        <ele>464</ele>
        <time>2015-04-19T09:31:18.525Z</time>
      </trkpt>
      <trkpt lat="47.25845" lon="4.94897">
        <ele>464</ele>
        <time>2015-04-19T09:31:19.504Z</time>
      </trkpt>
      <trkpt lat="47.25845" lon="4.94897">
        <ele>464</ele>
        <time>2015-04-19T09:31:20.524Z</time>
      </trkpt>
      <trkpt lat="47.25845" lon="4.94897">
        <ele>464</ele>
        <time>2015-04-19T09:31:21.523Z</time>
      </trkpt>
      <trkpt lat="47.2585" lon="4.94898">
        <ele>464</ele>
        <time>2015-04-19T09:31:22.511Z</time>
      </trkpt>
      <trkpt lat="47.2585" lon="4.94898">
        <ele>464</ele>
        <time>2015-04-19T09:31:23.517Z</time>
      </trkpt>
      <trkpt lat="47.25851" lon="4.94898">
        <ele>464</ele>
        <time>2015-04-19T09:31:24.522Z</time>
      </trkpt>
      <trkpt lat="47.25852" lon="4.94899">
        <ele>464</ele>
        <time>2015-04-19T09:31:25.521Z</time>
      </trkpt>
      <trkpt lat="47.25852" lon="4.94899">
        <ele>464</ele>
        <time>2015-04-19T09:31:26.530Z</time>
      </trkpt>
      <trkpt lat="47.25852" lon="4.94899">
        <ele>464</ele>
        <time>2015-04-19T09:31:27.505Z</time>
      </trkpt>
      <trkpt lat="47.25854" lon="4.94899">
        <ele>464</ele>
        <time>2015-04-19T09:31:28.528Z</time>
      </trkpt>
      <trkpt lat="47.25862" lon="4.94898">
        <ele>463</ele>
        <time>2015-04-19T09:31:34.493Z</time>
      </trkpt>
      <trkpt lat="47.25863" lon="4.94897">
        <ele>463</ele>
        <time>2015-04-19T09:31:35.517Z</time>
      </trkpt>
      <trkpt lat="47.2587" lon="4.94892">
        <ele>463</ele>
        <time>2015-04-19T09:31:39.523Z</time>
      </trkpt>
      <trkpt lat="47.25871" lon="4.94891">
        <ele>463</ele>
        <time>2015-04-19T09:31:40.520Z</time>
      </trkpt>
      <trkpt lat="47.25877" lon="4.94883">
        <ele>463</ele>
        <time>2015-04-19T09:31:46.511Z</time>
      </trkpt>
      <trkpt lat="47.25878" lon="4.94882">
        <ele>463</ele>
        <time>2015-04-19T09:31:47.504Z</time>
      </trkpt>
      <trkpt lat="47.25884" lon="4.94874">
        <ele>463</ele>
        <time>2015-04-19T09:31:52.527Z</time>
      </trkpt>
      <trkpt lat="47.25885" lon="4.94873">
        <ele>463</ele>
        <time>2015-04-19T09:31:53.513Z</time>
      </trkpt>
      <trkpt lat="47.25891" lon="4.94865">
        <ele>463</ele>
        <time>2015-04-19T09:31:58.523Z</time>
      </trkpt>
      <trkpt lat="47.25892" lon="4.94863">
        <ele>463</ele>
        <time>2015-04-19T09:31:59.522Z</time>
      </trkpt>
      <trkpt lat="47.25898" lon="4.94854">
        <ele>463</ele>
        <time>2015-04-19T09:32:03.515Z</time>
      </trkpt>
      <trkpt lat="47.25899" lon="4.94852">
        <ele>463</ele>
        <time>2015-04-19T09:32:04.503Z</time>
      </trkpt>
      <trkpt lat="47.25904" lon="4.94842">
        <ele>462</ele>
        <time>2015-04-19T09:32:09.510Z</time>
      </trkpt>
      <trkpt lat="47.25905" lon="4.9484">
        <ele>462</ele>
        <time>2015-04-19T09:32:10.521Z</time>
      </trkpt>
      <trkpt lat="47.25908" lon="4.94828">
        <ele>464</ele>
        <time>2015-04-19T09:32:15.493Z</time>
      </trkpt>
      <trkpt lat="47.25909" lon="4.94827">
        <ele>464</ele>
        <time>2015-04-19T09:32:16.519Z</time>
      </trkpt>
      <trkpt lat="47.25913" lon="4.94818">
        <ele>464</ele>
        <time>2015-04-19T09:32:21.513Z</time>
      </trkpt>
      <trkpt lat="47.25914" lon="4.94816">
        <ele>464</ele>
        <time>2015-04-19T09:32:22.500Z</time>
      </trkpt>
      <trkpt lat="47.25921" lon="4.94808">
        <ele>463</ele>
        <time>2015-04-19T09:32:28.527Z</time>
      </trkpt>
      <trkpt lat="47.25924" lon="4.94808">
        <ele>463</ele>
        <time>2015-04-19T09:32:29.520Z</time>
      </trkpt>
      <trkpt lat="47.25933" lon="4.94808">
        <ele>463</ele>
        <time>2015-04-19T09:32:35.513Z</time>
      </trkpt>
      <trkpt lat="47.25934" lon="4.94808">
        <ele>463</ele>
        <time>2015-04-19T09:32:36.517Z</time>
      </trkpt>
      <trkpt lat="47.25938" lon="4.9481">
        <ele>463</ele>
        <time>2015-04-19T09:32:40.514Z</time>
      </trkpt>
      <trkpt lat="47.25938" lon="4.94809">
        <ele>463</ele>
        <time>2015-04-19T09:32:41.503Z</time>
      </trkpt>
      <trkpt lat="47.25938" lon="4.94809">
        <ele>463</ele>
        <time>2015-04-19T09:32:45.505Z</time>
      </trkpt>
      <trkpt lat="47.25943" lon="4.94812">
        <ele>463</ele>
        <time>2015-04-19T09:32:46.528Z</time>
      </trkpt>
      <trkpt lat="47.2595" lon="4.9482">
        <ele>463</ele>
        <time>2015-04-19T09:32:54.505Z</time>
      </trkpt>
      <trkpt lat="47.25951" lon="4.94821">
        <ele>463</ele>
        <time>2015-04-19T09:32:55.502Z</time>
      </trkpt>
      <trkpt lat="47.25951" lon="4.94822">
        <ele>463</ele>
        <time>2015-04-19T09:32:57.521Z</time>
      </trkpt>
      <trkpt lat="47.25951" lon="4.94822">
        <ele>463</ele>
        <time>2015-04-19T09:32:58.516Z</time>
      </trkpt>
      <trkpt lat="47.25951" lon="4.94822">
        <ele>463</ele>
        <time>2015-04-19T09:32:59.513Z</time>
      </trkpt>
      <trkpt lat="47.25951" lon="4.94822">
        <ele>463</ele>
        <time>2015-04-19T09:33:00.507Z</time>
      </trkpt>
      <trkpt lat="47.2596" lon="4.94822">
        <ele>463</ele>
        <time>2015-04-19T09:33:04.526Z</time>
      </trkpt>
      <trkpt lat="47.2596" lon="4.94822">
        <ele>463</ele>
        <time>2015-04-19T09:33:05.528Z</time>
      </trkpt>
      <trkpt lat="47.2596" lon="4.94822">
        <ele>463</ele>
        <time>2015-04-19T09:33:07.519Z</time>
      </trkpt>
      <trkpt lat="47.2596" lon="4.94822">
        <ele>463</ele>
        <time>2015-04-19T09:33:08.524Z</time>
      </trkpt>
      <trkpt lat="47.25967" lon="4.94826">
        <ele>463</ele>
        <time>2015-04-19T09:33:10.494Z</time>
      </trkpt>
      <trkpt lat="47.25968" lon="4.94827">
        <ele>462</ele>
        <time>2015-04-19T09:33:11.519Z</time>
      </trkpt>
      <trkpt lat="47.25975" lon="4.94836">
        <ele>459</ele>
        <time>2015-04-19T09:33:16.512Z</time>
      </trkpt>
      <trkpt lat="47.25975" lon="4.94838">
        <ele>459</ele>
        <time>2015-04-19T09:33:17.519Z</time>
      </trkpt>
      <trkpt lat="47.25977" lon="4.94849">
        <ele>458</ele>
        <time>2015-04-19T09:33:24.525Z</time>
      </trkpt>
      <trkpt lat="47.25978" lon="4.94851">
        <ele>458</ele>
        <time>2015-04-19T09:33:25.527Z</time>
      </trkpt>
      <trkpt lat="47.25983" lon="4.94859">
        <ele>458</ele>
        <time>2015-04-19T09:33:30.526Z</time>
      </trkpt>
      <trkpt lat="47.25985" lon="4.94861">
        <ele>458</ele>
        <time>2015-04-19T09:33:31.519Z</time>
      </trkpt>
      <trkpt lat="47.2599" lon="4.94871">
        <ele>458</ele>
        <time>2015-04-19T09:33:36.514Z</time>
      </trkpt>
      <trkpt lat="47.25991" lon="4.94872">
        <ele>458</ele>
        <time>2015-04-19T09:33:37.513Z</time>
      </trkpt>
      <trkpt lat="47.25993" lon="4.94884">
        <ele>457</ele>
        <time>2015-04-19T09:33:42.505Z</time>
      </trkpt>
      <trkpt lat="47.25993" lon="4.94886">
        <ele>457</ele>
        <time>2015-04-19T09:33:43.260Z</time>
      </trkpt>
      <trkpt lat="47.25993" lon="4.94897">
        <ele>457</ele>
        <time>2015-04-19T09:33:48.265Z</time>
      </trkpt>
      <trkpt lat="47.25993" lon="4.94899">
        <ele>457</ele>
        <time>2015-04-19T09:33:49.296Z</time>
      </trkpt>
      <trkpt lat="47.25991" lon="4.9491">
        <ele>456</ele>
        <time>2015-04-19T09:33:54.261Z</time>
      </trkpt>
      <trkpt lat="47.25991" lon="4.94913">
        <ele>456</ele>
        <time>2015-04-19T09:33:55.294Z</time>
      </trkpt>
      <trkpt lat="47.25988" lon="4.94924">
        <ele>455</ele>
        <time>2015-04-19T09:34:01.296Z</time>
      </trkpt>
      <trkpt lat="47.25988" lon="4.94926">
        <ele>455</ele>
        <time>2015-04-19T09:34:02.341Z</time>
      </trkpt>
      <trkpt lat="47.25987" lon="4.94939">
        <ele>455</ele>
        <time>2015-04-19T09:34:08.322Z</time>
      </trkpt>
      <trkpt lat="47.25987" lon="4.94941">
        <ele>455</ele>
        <time>2015-04-19T09:34:09.326Z</time>
      </trkpt>
      <trkpt lat="47.25984" lon="4.94952">
        <ele>455</ele>
        <time>2015-04-19T09:34:15.332Z</time>
      </trkpt>
      <trkpt lat="47.25984" lon="4.94954">
        <ele>455</ele>
        <time>2015-04-19T09:34:16.335Z</time>
      </trkpt>
      <trkpt lat="47.25986" lon="4.94965">
        <ele>455</ele>
        <time>2015-04-19T09:34:22.332Z</time>
      </trkpt>
      <trkpt lat="47.25986" lon="4.94967">
        <ele>455</ele>
        <time>2015-04-19T09:34:23.301Z</time>
      </trkpt>
      <trkpt lat="47.25987" lon="4.94978">
        <ele>455</ele>
        <time>2015-04-19T09:34:27.333Z</time>
      </trkpt>
      <trkpt lat="47.25988" lon="4.9498">
        <ele>455</ele>
        <time>2015-04-19T09:34:28.334Z</time>
      </trkpt>
      <trkpt lat="47.25991" lon="4.9499">
        <ele>455</ele>
        <time>2015-04-19T09:34:32.331Z</time>
      </trkpt>
      <trkpt lat="47.25991" lon="4.94993">
        <ele>455</ele>
        <time>2015-04-19T09:34:33.325Z</time>
      </trkpt>
      <trkpt lat="47.25991" lon="4.95005">
        <ele>455</ele>
        <time>2015-04-19T09:34:37.326Z</time>
      </trkpt>
      <trkpt lat="47.25991" lon="4.95009">
        <ele>454</ele>
        <time>2015-04-19T09:34:38.309Z</time>
      </trkpt>
      <trkpt lat="47.25992" lon="4.9502">
        <ele>454</ele>
        <time>2015-04-19T09:34:42.323Z</time>
      </trkpt>
      <trkpt lat="47.25993" lon="4.95022">
        <ele>454</ele>
        <time>2015-04-19T09:34:43.323Z</time>
      </trkpt>
      <trkpt lat="47.25994" lon="4.95035">
        <ele>453</ele>
        <time>2015-04-19T09:34:47.342Z</time>
      </trkpt>
      <trkpt lat="47.25995" lon="4.95038">
        <ele>453</ele>
        <time>2015-04-19T09:34:48.342Z</time>
      </trkpt>
      <trkpt lat="47.25997" lon="4.95048">
        <ele>453</ele>
        <time>2015-04-19T09:34:52.343Z</time>
      </trkpt>
      <trkpt lat="47.25998" lon="4.95051">
        <ele>453</ele>
        <time>2015-04-19T09:34:53.338Z</time>
      </trkpt>
      <trkpt lat="47.26" lon="4.95063">
        <ele>457</ele>
        <time>2015-04-19T09:34:58.327Z</time>
      </trkpt>
      <trkpt lat="47.26001" lon="4.95065">
        <ele>457</ele>
        <time>2015-04-19T09:34:59.315Z</time>
      </trkpt>
      <trkpt lat="47.26004" lon="4.95076">
        <ele>456</ele>
        <time>2015-04-19T09:35:05.327Z</time>
      </trkpt>
      <trkpt lat="47.26005" lon="4.95078">
        <ele>456</ele>
        <time>2015-04-19T09:35:06.315Z</time>
      </trkpt>
      <trkpt lat="47.26008" lon="4.9509">
        <ele>456</ele>
        <time>2015-04-19T09:35:12.322Z</time>
      </trkpt>
      <trkpt lat="47.26008" lon="4.95092">
        <ele>456</ele>
        <time>2015-04-19T09:35:13.316Z</time>
      </trkpt>
      <trkpt lat="47.26011" lon="4.95102">
        <ele>457</ele>
        <time>2015-04-19T09:35:18.299Z</time>
      </trkpt>
      <trkpt lat="47.26011" lon="4.95105">
        <ele>457</ele>
        <time>2015-04-19T09:35:19.305Z</time>
      </trkpt>
      <trkpt lat="47.26012" lon="4.95116">
        <ele>458</ele>
        <time>2015-04-19T09:35:24.338Z</time>
      </trkpt>
      <trkpt lat="47.26012" lon="4.95118">
        <ele>458</ele>
        <time>2015-04-19T09:35:25.311Z</time>
      </trkpt>
      <trkpt lat="47.26012" lon="4.95131">
        <ele>458</ele>
        <time>2015-04-19T09:35:31.331Z</time>
      </trkpt>
      <trkpt lat="47.26012" lon="4.95133">
        <ele>458</ele>
        <time>2015-04-19T09:35:32.319Z</time>
      </trkpt>
      <trkpt lat="47.26016" lon="4.95143">
        <ele>458</ele>
        <time>2015-04-19T09:35:37.315Z</time>
      </trkpt>
      <trkpt lat="47.26016" lon="4.95145">
        <ele>458</ele>
        <time>2015-04-19T09:35:38.323Z</time>
      </trkpt>
      <trkpt lat="47.26019" lon="4.95155">
        <ele>458</ele>
        <time>2015-04-19T09:35:42.343Z</time>
      </trkpt>
      <trkpt lat="47.2602" lon="4.95158">
        <ele>458</ele>
        <time>2015-04-19T09:35:43.319Z</time>
      </trkpt>
      <trkpt lat="47.26021" lon="4.95169">
        <ele>458</ele>
        <time>2015-04-19T09:35:47.346Z</time>
      </trkpt>
      <trkpt lat="47.26022" lon="4.95172">
        <ele>458</ele>
        <time>2015-04-19T09:35:48.334Z</time>
      </trkpt>
      <trkpt lat="47.26023" lon="4.95183">
        <ele>458</ele>
        <time>2015-04-19T09:35:52.339Z</time>
      </trkpt>
      <trkpt lat="47.26023" lon="4.95185">
        <ele>458</ele>
        <time>2015-04-19T09:35:53.331Z</time>
      </trkpt>
      <trkpt lat="47.26024" lon="4.95196">
        <ele>458</ele>
        <time>2015-04-19T09:35:57.336Z</time>
      </trkpt>
      <trkpt lat="47.26024" lon="4.95198">
        <ele>458</ele>
        <time>2015-04-19T09:35:58.322Z</time>
      </trkpt>
      <trkpt lat="47.26026" lon="4.95211">
        <ele>458</ele>
        <time>2015-04-19T09:36:02.302Z</time>
      </trkpt>
      <trkpt lat="47.26026" lon="4.95214">
        <ele>458</ele>
        <time>2015-04-19T09:36:03.324Z</time>
      </trkpt>
      <trkpt lat="47.26025" lon="4.95225">
        <ele>458</ele>
        <time>2015-04-19T09:36:08.316Z</time>
      </trkpt>
      <trkpt lat="47.26025" lon="4.95227">
        <ele>458</ele>
        <time>2015-04-19T09:36:09.323Z</time>
      </trkpt>
      <trkpt lat="47.26028" lon="4.95239">
        <ele>458</ele>
        <time>2015-04-19T09:36:15.335Z</time>
      </trkpt>
      <trkpt lat="47.26028" lon="4.95241">
        <ele>458</ele>
        <time>2015-04-19T09:36:16.332Z</time>
      </trkpt>
      <trkpt lat="47.26032" lon="4.95251">
        <ele>457</ele>
        <time>2015-04-19T09:36:21.337Z</time>
      </trkpt>
      <trkpt lat="47.26032" lon="4.95253">
        <ele>457</ele>
        <time>2015-04-19T09:36:22.329Z</time>
      </trkpt>
      <trkpt lat="47.26035" lon="4.95265">
        <ele>457</ele>
        <time>2015-04-19T09:36:28.332Z</time>
      </trkpt>
      <trkpt lat="47.26036" lon="4.95268">
        <ele>457</ele>
        <time>2015-04-19T09:36:29.324Z</time>
      </trkpt>
      <trkpt lat="47.26038" lon="4.95278">
        <ele>457</ele>
        <time>2015-04-19T09:36:33.326Z</time>
      </trkpt>
      <trkpt lat="47.26039" lon="4.95281">
        <ele>457</ele>
        <time>2015-04-19T09:36:34.324Z</time>
      </trkpt>
      <trkpt lat="47.26041" lon="4.95292">
        <ele>457</ele>
        <time>2015-04-19T09:36:39.324Z</time>
      </trkpt>
      <trkpt lat="47.26042" lon="4.95294">
        <ele>457</ele>
        <time>2015-04-19T09:36:40.326Z</time>
      </trkpt>
      <trkpt lat="47.26044" lon="4.95303">
        <ele>457</ele>
        <time>2015-04-19T09:36:44.336Z</time>
      </trkpt>
      <trkpt lat="47.26045" lon="4.95306">
        <ele>457</ele>
        <time>2015-04-19T09:36:45.334Z</time>
      </trkpt>
      <trkpt lat="47.26048" lon="4.95318">
        <ele>457</ele>
        <time>2015-04-19T09:36:49.351Z</time>
      </trkpt>
      <trkpt lat="47.26048" lon="4.9532">
        <ele>457</ele>
        <time>2015-04-19T09:36:50.337Z</time>
      </trkpt>
      <trkpt lat="47.26052" lon="4.95331">
        <ele>457</ele>
        <time>2015-04-19T09:36:55.335Z</time>
      </trkpt>
      <trkpt lat="47.26052" lon="4.95334">
        <ele>456</ele>
        <time>2015-04-19T09:36:56.335Z</time>
      </trkpt>
      <trkpt lat="47.26053" lon="4.95345">
        <ele>456</ele>
        <time>2015-04-19T09:37:00.312Z</time>
      </trkpt>
      <trkpt lat="47.26053" lon="4.95348">
        <ele>456</ele>
        <time>2015-04-19T09:37:01.319Z</time>
      </trkpt>
      <trkpt lat="47.26053" lon="4.95359">
        <ele>456</ele>
        <time>2015-04-19T09:37:05.323Z</time>
      </trkpt>
      <trkpt lat="47.26053" lon="4.95362">
        <ele>456</ele>
        <time>2015-04-19T09:37:06.325Z</time>
      </trkpt>
      <trkpt lat="47.26054" lon="4.95373">
        <ele>456</ele>
        <time>2015-04-19T09:37:11.325Z</time>
      </trkpt>
      <trkpt lat="47.26054" lon="4.95376">
        <ele>456</ele>
        <time>2015-04-19T09:37:12.323Z</time>
      </trkpt>
      <trkpt lat="47.26054" lon="4.95389">
        <ele>456</ele>
        <time>2015-04-19T09:37:17.343Z</time>
      </trkpt>
      <trkpt lat="47.26054" lon="4.95391">
        <ele>456</ele>
        <time>2015-04-19T09:37:18.335Z</time>
      </trkpt>
      <trkpt lat="47.26055" lon="4.95403">
        <ele>456</ele>
        <time>2015-04-19T09:37:23.326Z</time>
      </trkpt>
      <trkpt lat="47.26056" lon="4.95406">
        <ele>456</ele>
        <time>2015-04-19T09:37:24.338Z</time>
      </trkpt>
      <trkpt lat="47.26058" lon="4.95417">
        <ele>457</ele>
        <time>2015-04-19T09:37:29.325Z</time>
      </trkpt>
      <trkpt lat="47.26058" lon="4.9542">
        <ele>457</ele>
        <time>2015-04-19T09:37:30.317Z</time>
      </trkpt>
      <trkpt lat="47.26058" lon="4.95433">
        <ele>457</ele>
        <time>2015-04-19T09:37:36.312Z</time>
      </trkpt>
      <trkpt lat="47.26059" lon="4.95435">
        <ele>457</ele>
        <time>2015-04-19T09:37:37.309Z</time>
      </trkpt>
      <trkpt lat="47.26061" lon="4.95448">
        <ele>458</ele>
        <time>2015-04-19T09:37:43.326Z</time>
      </trkpt>
      <trkpt lat="47.26062" lon="4.9545">
        <ele>458</ele>
        <time>2015-04-19T09:37:44.318Z</time>
      </trkpt>
      <trkpt lat="47.26063" lon="4.95462">
        <ele>458</ele>
        <time>2015-04-19T09:37:49.327Z</time>
      </trkpt>
      <trkpt lat="47.26064" lon="4.95464">
        <ele>458</ele>
        <time>2015-04-19T09:37:50.339Z</time>
      </trkpt>
      <trkpt lat="47.26066" lon="4.95474">
        <ele>458</ele>
        <time>2015-04-19T09:37:55.296Z</time>
      </trkpt>
      <trkpt lat="47.26067" lon="4.95476">
        <ele>458</ele>
        <time>2015-04-19T09:37:56.327Z</time>
      </trkpt>
      <trkpt lat="47.26069" lon="4.95488">
        <ele>459</ele>
        <time>2015-04-19T09:38:02.323Z</time>
      </trkpt>
      <trkpt lat="47.26069" lon="4.9549">
        <ele>459</ele>
        <time>2015-04-19T09:38:03.316Z</time>
      </trkpt>
      <trkpt lat="47.26066" lon="4.95502">
        <ele>460</ele>
        <time>2015-04-19T09:38:09.317Z</time>
      </trkpt>
      <trkpt lat="47.26066" lon="4.95504">
        <ele>459</ele>
        <time>2015-04-19T09:38:10.312Z</time>
      </trkpt>
      <trkpt lat="47.26068" lon="4.95517">
        <ele>459</ele>
        <time>2015-04-19T09:38:17.326Z</time>
      </trkpt>
      <trkpt lat="47.26068" lon="4.95519">
        <ele>459</ele>
        <time>2015-04-19T09:38:18.326Z</time>
      </trkpt>
      <trkpt lat="47.26068" lon="4.95531">
        <ele>459</ele>
        <time>2015-04-19T09:38:22.312Z</time>
      </trkpt>
      <trkpt lat="47.26068" lon="4.95534">
        <ele>459</ele>
        <time>2015-04-19T09:38:23.337Z</time>
      </trkpt>
      <trkpt lat="47.26071" lon="4.95545">
        <ele>459</ele>
        <time>2015-04-19T09:38:27.309Z</time>
      </trkpt>
      <trkpt lat="47.26072" lon="4.95547">
        <ele>459</ele>
        <time>2015-04-19T09:38:28.306Z</time>
      </trkpt>
      <trkpt lat="47.26075" lon="4.95558">
        <ele>459</ele>
        <time>2015-04-19T09:38:32.326Z</time>
      </trkpt>
      <trkpt lat="47.26075" lon="4.95561">
        <ele>459</ele>
        <time>2015-04-19T09:38:33.323Z</time>
      </trkpt>
      <trkpt lat="47.2608" lon="4.95572">
        <ele>459</ele>
        <time>2015-04-19T09:38:38.323Z</time>
      </trkpt>
      <trkpt lat="47.2608" lon="4.95574">
        <ele>459</ele>
        <time>2015-04-19T09:38:39.323Z</time>
      </trkpt>
      <trkpt lat="47.26083" lon="4.95586">
        <ele>460</ele>
        <time>2015-04-19T09:38:44.322Z</time>
      </trkpt>
      <trkpt lat="47.26083" lon="4.95589">
        <ele>460</ele>
        <time>2015-04-19T09:38:45.342Z</time>
      </trkpt>
      <trkpt lat="47.26084" lon="4.956">
        <ele>461</ele>
        <time>2015-04-19T09:38:49.344Z</time>
      </trkpt>
      <trkpt lat="47.26084" lon="4.95603">
        <ele>461</ele>
        <time>2015-04-19T09:38:50.325Z</time>
      </trkpt>
      <trkpt lat="47.26085" lon="4.95615">
        <ele>461</ele>
        <time>2015-04-19T09:38:55.325Z</time>
      </trkpt>
      <trkpt lat="47.26085" lon="4.95618">
        <ele>461</ele>
        <time>2015-04-19T09:38:56.328Z</time>
      </trkpt>
      <trkpt lat="47.26082" lon="4.9563">
        <ele>459</ele>
        <time>2015-04-19T09:39:00.304Z</time>
      </trkpt>
      <trkpt lat="47.26082" lon="4.95632">
        <ele>459</ele>
        <time>2015-04-19T09:39:01.324Z</time>
      </trkpt>
      <trkpt lat="47.2608" lon="4.95644">
        <ele>459</ele>
        <time>2015-04-19T09:39:06.307Z</time>
      </trkpt>
      <trkpt lat="47.26081" lon="4.95647">
        <ele>459</ele>
        <time>2015-04-19T09:39:07.303Z</time>
      </trkpt>
      <trkpt lat="47.26082" lon="4.95658">
        <ele>459</ele>
        <time>2015-04-19T09:39:12.310Z</time>
      </trkpt>
      <trkpt lat="47.26082" lon="4.9566">
        <ele>459</ele>
        <time>2015-04-19T09:39:13.318Z</time>
      </trkpt>
      <trkpt lat="47.26081" lon="4.95671">
        <ele>459</ele>
        <time>2015-04-19T09:39:17.324Z</time>
      </trkpt>
      <trkpt lat="47.2608" lon="4.95674">
        <ele>459</ele>
        <time>2015-04-19T09:39:18.307Z</time>
      </trkpt>
      <trkpt lat="47.26081" lon="4.95687">
        <ele>458</ele>
        <time>2015-04-19T09:39:23.317Z</time>
      </trkpt>
      <trkpt lat="47.2608" lon="4.95689">
        <ele>458</ele>
        <time>2015-04-19T09:39:24.317Z</time>
      </trkpt>
      <trkpt lat="47.26079" lon="4.95701">
        <ele>458</ele>
        <time>2015-04-19T09:39:29.318Z</time>
      </trkpt>
      <trkpt lat="47.26079" lon="4.95703">
        <ele>458</ele>
        <time>2015-04-19T09:39:30.316Z</time>
      </trkpt>
      <trkpt lat="47.2608" lon="4.95715">
        <ele>458</ele>
        <time>2015-04-19T09:39:35.318Z</time>
      </trkpt>
      <trkpt lat="47.2608" lon="4.95717">
        <ele>458</ele>
        <time>2015-04-19T09:39:36.325Z</time>
      </trkpt>
      <trkpt lat="47.2608" lon="4.95729">
        <ele>458</ele>
        <time>2015-04-19T09:39:42.600Z</time>
      </trkpt>
      <trkpt lat="47.2608" lon="4.95731">
        <ele>458</ele>
        <time>2015-04-19T09:39:43.633Z</time>
      </trkpt>
      <trkpt lat="47.26079" lon="4.95744">
        <ele>458</ele>
        <time>2015-04-19T09:39:49.609Z</time>
      </trkpt>
      <trkpt lat="47.26078" lon="4.95745">
        <ele>458</ele>
        <time>2015-04-19T09:39:50.627Z</time>
      </trkpt>
      <trkpt lat="47.26075" lon="4.95756">
        <ele>457</ele>
        <time>2015-04-19T09:39:56.634Z</time>
      </trkpt>
      <trkpt lat="47.26075" lon="4.95759">
        <ele>457</ele>
        <time>2015-04-19T09:39:57.636Z</time>
      </trkpt>
      <trkpt lat="47.26072" lon="4.9577">
        <ele>457</ele>
        <time>2015-04-19T09:40:02.646Z</time>
      </trkpt>
      <trkpt lat="47.26072" lon="4.95772">
        <ele>457</ele>
        <time>2015-04-19T09:40:03.643Z</time>
      </trkpt>
      <trkpt lat="47.26068" lon="4.95783">
        <ele>456</ele>
        <time>2015-04-19T09:40:08.653Z</time>
      </trkpt>
      <trkpt lat="47.26068" lon="4.95785">
        <ele>456</ele>
        <time>2015-04-19T09:40:09.652Z</time>
      </trkpt>
      <trkpt lat="47.26066" lon="4.95796">
        <ele>456</ele>
        <time>2015-04-19T09:40:14.667Z</time>
      </trkpt>
      <trkpt lat="47.26066" lon="4.95799">
        <ele>456</ele>
        <time>2015-04-19T09:40:15.659Z</time>
      </trkpt>
      <trkpt lat="47.26065" lon="4.9581">
        <ele>456</ele>
        <time>2015-04-19T09:40:20.680Z</time>
      </trkpt>
      <trkpt lat="47.26065" lon="4.95812">
        <ele>456</ele>
        <time>2015-04-19T09:40:21.676Z</time>
      </trkpt>
      <trkpt lat="47.26065" lon="4.95825">
        <ele>456</ele>
        <time>2015-04-19T09:40:27.652Z</time>
      </trkpt>
      <trkpt lat="47.26064" lon="4.95827">
        <ele>456</ele>
        <time>2015-04-19T09:40:28.643Z</time>
      </trkpt>
      <trkpt lat="47.26065" lon="4.95839">
        <ele>455</ele>
        <time>2015-04-19T09:40:34.645Z</time>
      </trkpt>
      <trkpt lat="47.26066" lon="4.95841">
        <ele>455</ele>
        <time>2015-04-19T09:40:35.673Z</time>
      </trkpt>
      <trkpt lat="47.26069" lon="4.95851">
        <ele>455</ele>
        <time>2015-04-19T09:40:40.650Z</time>
      </trkpt>
      <trkpt lat="47.2607" lon="4.95853">
        <ele>455</ele>
        <time>2015-04-19T09:40:41.649Z</time>
      </trkpt>
      <trkpt lat="47.26077" lon="4.9586">
        <ele>454</ele>
        <time>2015-04-19T09:40:47.671Z</time>
      </trkpt>
      <trkpt lat="47.26078" lon="4.95862">
        <ele>454</ele>
        <time>2015-04-19T09:40:48.662Z</time>
      </trkpt>
      <trkpt lat="47.26084" lon="4.95869">
        <ele>455</ele>
        <time>2015-04-19T09:40:52.670Z</time>
      </trkpt>
      <trkpt lat="47.26085" lon="4.95871">
        <ele>455</ele>
        <time>2015-04-19T09:40:53.650Z</time>
      </trkpt>
      <trkpt lat="47.26092" lon="4.95877">
        <ele>454</ele>
        <time>2015-04-19T09:40:58.653Z</time>
      </trkpt>
      <trkpt lat="47.26093" lon="4.95879">
        <ele>454</ele>
        <time>2015-04-19T09:40:59.680Z</time>
      </trkpt>
      <trkpt lat="47.26099" lon="4.95887">
        <ele>454</ele>
        <time>2015-04-19T09:41:06.652Z</time>
      </trkpt>
      <trkpt lat="47.261" lon="4.95888">
        <ele>454</ele>
        <time>2015-04-19T09:41:07.653Z</time>
      </trkpt>
      <trkpt lat="47.26105" lon="4.95898">
        <ele>454</ele>
        <time>2015-04-19T09:41:13.665Z</time>
      </trkpt>
      <trkpt lat="47.26105" lon="4.959">
        <ele>454</ele>
        <time>2015-04-19T09:41:14.672Z</time>
      </trkpt>
      <trkpt lat="47.26105" lon="4.95912">
        <ele>454</ele>
        <time>2015-04-19T09:41:20.675Z</time>
      </trkpt>
      <trkpt lat="47.26105" lon="4.95914">
        <ele>454</ele>
        <time>2015-04-19T09:41:21.653Z</time>
      </trkpt>
      <trkpt lat="47.26102" lon="4.95926">
        <ele>453</ele>
        <time>2015-04-19T09:41:27.652Z</time>
      </trkpt>
      <trkpt lat="47.26102" lon="4.95927">
        <ele>453</ele>
        <time>2015-04-19T09:41:28.649Z</time>
      </trkpt>
      <trkpt lat="47.26099" lon="4.9594">
        <ele>453</ele>
        <time>2015-04-19T09:41:36.639Z</time>
      </trkpt>
      <trkpt lat="47.26099" lon="4.95941">
        <ele>453</ele>
        <time>2015-04-19T09:41:37.695Z</time>
      </trkpt>
      <trkpt lat="47.26096" lon="4.95953">
        <ele>452</ele>
        <time>2015-04-19T09:41:42.652Z</time>
      </trkpt>
      <trkpt lat="47.26096" lon="4.95956">
        <ele>452</ele>
        <time>2015-04-19T09:41:43.651Z</time>
      </trkpt>
      <trkpt lat="47.26094" lon="4.95967">
        <ele>452</ele>
        <time>2015-04-19T09:41:47.651Z</time>
      </trkpt>
      <trkpt lat="47.26094" lon="4.95969">
        <ele>452</ele>
        <time>2015-04-19T09:41:48.684Z</time>
      </trkpt>
      <trkpt lat="47.26094" lon="4.95979">
        <ele>452</ele>
        <time>2015-04-19T09:41:52.659Z</time>
      </trkpt>
      <trkpt lat="47.26095" lon="4.95983">
        <ele>452</ele>
        <time>2015-04-19T09:41:53.673Z</time>
      </trkpt>
      <trkpt lat="47.26097" lon="4.95994">
        <ele>452</ele>
        <time>2015-04-19T09:41:57.673Z</time>
      </trkpt>
      <trkpt lat="47.26098" lon="4.95997">
        <ele>452</ele>
        <time>2015-04-19T09:41:58.675Z</time>
      </trkpt>
      <trkpt lat="47.26101" lon="4.96009">
        <ele>450</ele>
        <time>2015-04-19T09:42:03.670Z</time>
      </trkpt>
      <trkpt lat="47.26101" lon="4.96011">
        <ele>450</ele>
        <time>2015-04-19T09:42:04.646Z</time>
      </trkpt>
      <trkpt lat="47.26103" lon="4.96022">
        <ele>449</ele>
        <time>2015-04-19T09:42:10.645Z</time>
      </trkpt>
      <trkpt lat="47.26104" lon="4.96024">
        <ele>449</ele>
        <time>2015-04-19T09:42:11.642Z</time>
      </trkpt>
      <trkpt lat="47.2611" lon="4.96032">
        <ele>449</ele>
        <time>2015-04-19T09:42:16.656Z</time>
      </trkpt>
      <trkpt lat="47.26112" lon="4.96034">
        <ele>449</ele>
        <time>2015-04-19T09:42:17.654Z</time>
      </trkpt>
      <trkpt lat="47.26116" lon="4.96043">
        <ele>449</ele>
        <time>2015-04-19T09:42:21.680Z</time>
      </trkpt>
      <trkpt lat="47.26117" lon="4.96045">
        <ele>449</ele>
        <time>2015-04-19T09:42:22.658Z</time>
      </trkpt>
      <trkpt lat="47.26122" lon="4.96056">
        <ele>448</ele>
        <time>2015-04-19T09:42:27.665Z</time>
      </trkpt>
      <trkpt lat="47.26123" lon="4.96059">
        <ele>448</ele>
        <time>2015-04-19T09:42:28.669Z</time>
      </trkpt>
      <trkpt lat="47.26127" lon="4.9607">
        <ele>448</ele>
        <time>2015-04-19T09:42:34.653Z</time>
      </trkpt>
      <trkpt lat="47.26127" lon="4.96072">
        <ele>448</ele>
        <time>2015-04-19T09:42:35.672Z</time>
      </trkpt>
      <trkpt lat="47.26126" lon="4.96084">
        <ele>445</ele>
        <time>2015-04-19T09:42:41.471Z</time>
      </trkpt>
      <trkpt lat="47.26126" lon="4.96086">
        <ele>445</ele>
        <time>2015-04-19T09:42:42.481Z</time>
      </trkpt>
      <trkpt lat="47.26125" lon="4.96098">
        <ele>445</ele>
        <time>2015-04-19T09:42:48.482Z</time>
      </trkpt>
      <trkpt lat="47.26125" lon="4.961">
        <ele>445</ele>
        <time>2015-04-19T09:42:49.553Z</time>
      </trkpt>
      <trkpt lat="47.26123" lon="4.96112">
        <ele>445</ele>
        <time>2015-04-19T09:42:55.489Z</time>
      </trkpt>
      <trkpt lat="47.26123" lon="4.96114">
        <ele>445</ele>
        <time>2015-04-19T09:42:56.502Z</time>
      </trkpt>
      <trkpt lat="47.26123" lon="4.96126">
        <ele>444</ele>
        <time>2015-04-19T09:43:01.539Z</time>
      </trkpt>
      <trkpt lat="47.26123" lon="4.96128">
        <ele>444</ele>
        <time>2015-04-19T09:43:02.514Z</time>
      </trkpt>
      <trkpt lat="47.26125" lon="4.9614">
        <ele>444</ele>
        <time>2015-04-19T09:43:08.522Z</time>
      </trkpt>
      <trkpt lat="47.26126" lon="4.96143">
        <ele>444</ele>
        <time>2015-04-19T09:43:09.513Z</time>
      </trkpt>
      <trkpt lat="47.2613" lon="4.96154">
        <ele>443</ele>
        <time>2015-04-19T09:43:13.567Z</time>
      </trkpt>
      <trkpt lat="47.2613" lon="4.96157">
        <ele>443</ele>
        <time>2015-04-19T09:43:14.529Z</time>
      </trkpt>
      <trkpt lat="47.26133" lon="4.96168">
        <ele>440</ele>
        <time>2015-04-19T09:43:18.531Z</time>
      </trkpt>
      <trkpt lat="47.26134" lon="4.9617">
        <ele>440</ele>
        <time>2015-04-19T09:43:19.512Z</time>
      </trkpt>
      <trkpt lat="47.26139" lon="4.96178">
        <ele>440</ele>
        <time>2015-04-19T09:43:23.512Z</time>
      </trkpt>
      <trkpt lat="47.2614" lon="4.96181">
        <ele>440</ele>
        <time>2015-04-19T09:43:24.532Z</time>
      </trkpt>
      <trkpt lat="47.26146" lon="4.9619">
        <ele>439</ele>
        <time>2015-04-19T09:43:30.498Z</time>
      </trkpt>
      <trkpt lat="47.26147" lon="4.96191">
        <ele>439</ele>
        <time>2015-04-19T09:43:31.509Z</time>
      </trkpt>
      <trkpt lat="47.26152" lon="4.96199">
        <ele>439</ele>
        <time>2015-04-19T09:43:35.505Z</time>
      </trkpt>
      <trkpt lat="47.26153" lon="4.96201">
        <ele>438</ele>
        <time>2015-04-19T09:43:36.509Z</time>
      </trkpt>
      <trkpt lat="47.2616" lon="4.96208">
        <ele>438</ele>
        <time>2015-04-19T09:43:41.508Z</time>
      </trkpt>
      <trkpt lat="47.26162" lon="4.9621">
        <ele>438</ele>
        <time>2015-04-19T09:43:42.504Z</time>
      </trkpt>
      <trkpt lat="47.26167" lon="4.96219">
        <ele>436</ele>
        <time>2015-04-19T09:43:47.509Z</time>
      </trkpt>
      <trkpt lat="47.26168" lon="4.96221">
        <ele>436</ele>
        <time>2015-04-19T09:43:48.501Z</time>
      </trkpt>
      <trkpt lat="47.2617" lon="4.96232">
        <ele>435</ele>
        <time>2015-04-19T09:43:53.511Z</time>
      </trkpt>
      <trkpt lat="47.26171" lon="4.96234">
        <ele>434</ele>
        <time>2015-04-19T09:43:54.514Z</time>
      </trkpt>
      <trkpt lat="47.26174" lon="4.96244">
        <ele>433</ele>
        <time>2015-04-19T09:43:58.511Z</time>
      </trkpt>
      <trkpt lat="47.26175" lon="4.96248">
        <ele>433</ele>
        <time>2015-04-19T09:43:59.512Z</time>
      </trkpt>
      <trkpt lat="47.2618" lon="4.96258">
        <ele>428</ele>
        <time>2015-04-19T09:44:03.499Z</time>
      </trkpt>
      <trkpt lat="47.26181" lon="4.9626">
        <ele>428</ele>
        <time>2015-04-19T09:44:04.511Z</time>
      </trkpt>
      <trkpt lat="47.26186" lon="4.9627">
        <ele>427</ele>
        <time>2015-04-19T09:44:07.479Z</time>
      </trkpt>
      <trkpt lat="47.26187" lon="4.96273">
        <ele>426</ele>
        <time>2015-04-19T09:44:08.514Z</time>
      </trkpt>
      <trkpt lat="47.2619" lon="4.96284">
        <ele>425</ele>
        <time>2015-04-19T09:44:16.510Z</time>
      </trkpt>
      <trkpt lat="47.2619" lon="4.96284">
        <ele>425</ele>
        <time>2015-04-19T09:44:17.530Z</time>
      </trkpt>
      <trkpt lat="47.2619" lon="4.96284">
        <ele>425</ele>
        <time>2015-04-19T09:44:19.518Z</time>
      </trkpt>
      <trkpt lat="47.26189" lon="4.96291">
        <ele>424</ele>
        <time>2015-04-19T09:44:20.523Z</time>
      </trkpt>
      <trkpt lat="47.26188" lon="4.96293">
        <ele>424</ele>
        <time>2015-04-19T09:44:21.511Z</time>
      </trkpt>
      <trkpt lat="47.26187" lon="4.96295">
        <ele>424</ele>
        <time>2015-04-19T09:44:28.528Z</time>
      </trkpt>
      <trkpt lat="47.26187" lon="4.96295">
        <ele>424</ele>
        <time>2015-04-19T09:44:29.514Z</time>
      </trkpt>
      <trkpt lat="47.26187" lon="4.96306">
        <ele>423</ele>
        <time>2015-04-19T09:44:36.493Z</time>
      </trkpt>
      <trkpt lat="47.26187" lon="4.96306">
        <ele>423</ele>
        <time>2015-04-19T09:44:37.509Z</time>
      </trkpt>
      <trkpt lat="47.26189" lon="4.96311">
        <ele>422</ele>
        <time>2015-04-19T09:44:42.507Z</time>
      </trkpt>
      <trkpt lat="47.2619" lon="4.96313">
        <ele>422</ele>
        <time>2015-04-19T09:44:43.505Z</time>
      </trkpt>
      <trkpt lat="47.2619" lon="4.96314">
        <ele>422</ele>
        <time>2015-04-19T09:44:44.507Z</time>
      </trkpt>
      <trkpt lat="47.2619" lon="4.96314">
        <ele>422</ele>
        <time>2015-04-19T09:44:45.511Z</time>
      </trkpt>
      <trkpt lat="47.2619" lon="4.96314">
        <ele>422</ele>
        <time>2015-04-19T09:44:46.540Z</time>
      </trkpt>
      <trkpt lat="47.2619" lon="4.96314">
        <ele>422</ele>
        <time>2015-04-19T09:44:47.512Z</time>
      </trkpt>
      <trkpt lat="47.2619" lon="4.96314">
        <ele>422</ele>
        <time>2015-04-19T09:44:48.502Z</time>
      </trkpt>
      <trkpt lat="47.26192" lon="4.96319">
        <ele>422</ele>
        <time>2015-04-19T09:44:49.514Z</time>
      </trkpt>
      <trkpt lat="47.26199" lon="4.96326">
        <ele>421</ele>
        <time>2015-04-19T09:44:59.498Z</time>
      </trkpt>
      <trkpt lat="47.262" lon="4.96328">
        <ele>421</ele>
        <time>2015-04-19T09:45:00.493Z</time>
      </trkpt>
      <trkpt lat="47.26204" lon="4.96339">
        <ele>409</ele>
        <time>2015-04-19T09:45:08.515Z</time>
      </trkpt>
      <trkpt lat="47.26204" lon="4.9634">
        <ele>409</ele>
        <time>2015-04-19T09:45:09.511Z</time>
      </trkpt>
      <trkpt lat="47.26208" lon="4.96351">
        <ele>408</ele>
        <time>2015-04-19T09:45:18.517Z</time>
      </trkpt>
      <trkpt lat="47.26209" lon="4.96353">
        <ele>408</ele>
        <time>2015-04-19T09:45:19.516Z</time>
      </trkpt>
      <trkpt lat="47.26212" lon="4.96365">
        <ele>406</ele>
        <time>2015-04-19T09:45:26.513Z</time>
      </trkpt>
      <trkpt lat="47.26212" lon="4.96366">
        <ele>406</ele>
        <time>2015-04-19T09:45:27.508Z</time>
      </trkpt>
      <trkpt lat="47.26213" lon="4.96374">
        <ele>405</ele>
        <time>2015-04-19T09:45:36.503Z</time>
      </trkpt>
      <trkpt lat="47.26212" lon="4.9638">
        <ele>404</ele>
        <time>2015-04-19T09:45:37.508Z</time>
      </trkpt>
      <trkpt lat="47.26212" lon="4.96392">
        <ele>403</ele>
        <time>2015-04-19T09:45:46.521Z</time>
      </trkpt>
      <trkpt lat="47.26212" lon="4.96393">
        <ele>403</ele>
        <time>2015-04-19T09:45:47.503Z</time>
      </trkpt>
      <trkpt lat="47.26215" lon="4.96406">
        <ele>401</ele>
        <time>2015-04-19T09:45:54.491Z</time>
      </trkpt>
      <trkpt lat="47.26216" lon="4.96408">
        <ele>401</ele>
        <time>2015-04-19T09:45:55.516Z</time>
      </trkpt>
      <trkpt lat="47.26219" lon="4.96418">
        <ele>391</ele>
        <time>2015-04-19T09:45:59.518Z</time>
      </trkpt>
      <trkpt lat="47.2622" lon="4.96421">
        <ele>391</ele>
        <time>2015-04-19T09:46:00.504Z</time>
      </trkpt>
      <trkpt lat="47.26223" lon="4.9643">
        <ele>390</ele>
        <time>2015-04-19T09:46:03.504Z</time>
      </trkpt>
      <trkpt lat="47.26224" lon="4.96432">
        <ele>390</ele>
        <time>2015-04-19T09:46:04.505Z</time>
      </trkpt>
      <trkpt lat="47.26228" lon="4.96442">
        <ele>390</ele>
        <time>2015-04-19T09:46:08.489Z</time>
      </trkpt>
      <trkpt lat="47.26229" lon="4.96445">
        <ele>390</ele>
        <time>2015-04-19T09:46:09.475Z</time>
      </trkpt>
      <trkpt lat="47.26232" lon="4.96454">
        <ele>389</ele>
        <time>2015-04-19T09:46:13.491Z</time>
      </trkpt>
      <trkpt lat="47.26233" lon="4.96457">
        <ele>389</ele>
        <time>2015-04-19T09:46:14.499Z</time>
      </trkpt>
      <trkpt lat="47.26237" lon="4.96466">
        <ele>388</ele>
        <time>2015-04-19T09:46:17.535Z</time>
      </trkpt>
      <trkpt lat="47.26238" lon="4.96469">
        <ele>387</ele>
        <time>2015-04-19T09:46:18.516Z</time>
      </trkpt>
      <trkpt lat="47.26242" lon="4.9648">
        <ele>385</ele>
        <time>2015-04-19T09:46:22.521Z</time>
      </trkpt>
      <trkpt lat="47.26244" lon="4.96483">
        <ele>384</ele>
        <time>2015-04-19T09:46:23.514Z</time>
      </trkpt>
      <trkpt lat="47.26249" lon="4.96492">
        <ele>381</ele>
        <time>2015-04-19T09:46:27.504Z</time>
      </trkpt>
      <trkpt lat="47.26249" lon="4.96494">
        <ele>380</ele>
        <time>2015-04-19T09:46:28.512Z</time>
      </trkpt>
      <trkpt lat="47.26253" lon="4.96503">
        <ele>379</ele>
        <time>2015-04-19T09:46:34.500Z</time>
      </trkpt>
      <trkpt lat="47.26254" lon="4.96503">
        <ele>379</ele>
        <time>2015-04-19T09:46:35.502Z</time>
      </trkpt>
      <trkpt lat="47.26253" lon="4.96503">
        <ele>378</ele>
        <time>2015-04-19T09:46:36.485Z</time>
      </trkpt>
      <trkpt lat="47.26253" lon="4.96503">
        <ele>378</ele>
        <time>2015-04-19T09:46:37.498Z</time>
      </trkpt>
      <trkpt lat="47.26253" lon="4.96503">
        <ele>378</ele>
        <time>2015-04-19T09:46:38.501Z</time>
      </trkpt>
      <trkpt lat="47.2626" lon="4.96495">
        <ele>381</ele>
        <time>2015-04-19T09:46:54.508Z</time>
      </trkpt>
      <trkpt lat="47.26261" lon="4.96493">
        <ele>381</ele>
        <time>2015-04-19T09:46:55.496Z</time>
      </trkpt>
      <trkpt lat="47.26267" lon="4.96485">
        <ele>384</ele>
        <time>2015-04-19T09:47:01.507Z</time>
      </trkpt>
      <trkpt lat="47.26268" lon="4.96483">
        <ele>384</ele>
        <time>2015-04-19T09:47:02.516Z</time>
      </trkpt>
      <trkpt lat="47.26275" lon="4.96475">
        <ele>385</ele>
        <time>2015-04-19T09:47:10.488Z</time>
      </trkpt>
      <trkpt lat="47.26276" lon="4.96474">
        <ele>386</ele>
        <time>2015-04-19T09:47:11.498Z</time>
      </trkpt>
      <trkpt lat="47.26282" lon="4.96466">
        <ele>387</ele>
        <time>2015-04-19T09:47:21.493Z</time>
      </trkpt>
      <trkpt lat="47.26282" lon="4.96465">
        <ele>387</ele>
        <time>2015-04-19T09:47:22.513Z</time>
      </trkpt>
      <trkpt lat="47.26287" lon="4.96454">
        <ele>387</ele>
        <time>2015-04-19T09:47:33.497Z</time>
      </trkpt>
      <trkpt lat="47.26288" lon="4.96453">
        <ele>387</ele>
        <time>2015-04-19T09:47:34.506Z</time>
      </trkpt>
      <trkpt lat="47.26291" lon="4.96446">
        <ele>388</ele>
        <time>2015-04-19T09:47:46.506Z</time>
      </trkpt>
      <trkpt lat="47.26293" lon="4.96441">
        <ele>388</ele>
        <time>2015-04-19T09:47:47.508Z</time>
      </trkpt>
      <trkpt lat="47.26299" lon="4.96432">
        <ele>388</ele>
        <time>2015-04-19T09:47:54.509Z</time>
      </trkpt>
      <trkpt lat="47.263" lon="4.96431">
        <ele>388</ele>
        <time>2015-04-19T09:47:55.507Z</time>
      </trkpt>
      <trkpt lat="47.26306" lon="4.96422">
        <ele>389</ele>
        <time>2015-04-19T09:48:03.496Z</time>
      </trkpt>
      <trkpt lat="47.26307" lon="4.96422">
        <ele>389</ele>
        <time>2015-04-19T09:48:04.502Z</time>
      </trkpt>
      <trkpt lat="47.26312" lon="4.96412">
        <ele>395</ele>
        <time>2015-04-19T09:48:15.510Z</time>
      </trkpt>
      <trkpt lat="47.26313" lon="4.96411">
        <ele>395</ele>
        <time>2015-04-19T09:48:16.507Z</time>
      </trkpt>
      <trkpt lat="47.26318" lon="4.96401">
        <ele>395</ele>
        <time>2015-04-19T09:48:26.507Z</time>
      </trkpt>
      <trkpt lat="47.26319" lon="4.96401">
        <ele>395</ele>
        <time>2015-04-19T09:48:27.507Z</time>
      </trkpt>
      <trkpt lat="47.26325" lon="4.96393">
        <ele>396</ele>
        <time>2015-04-19T09:48:36.507Z</time>
      </trkpt>
      <trkpt lat="47.26326" lon="4.96392">
        <ele>396</ele>
        <time>2015-04-19T09:48:37.507Z</time>
      </trkpt>
      <trkpt lat="47.26333" lon="4.96384">
        <ele>397</ele>
        <time>2015-04-19T09:48:45.510Z</time>
      </trkpt>
      <trkpt lat="47.26334" lon="4.96383">
        <ele>404</ele>
        <time>2015-04-19T09:48:46.514Z</time>
      </trkpt>
      <trkpt lat="47.26338" lon="4.96372">
        <ele>405</ele>
        <time>2015-04-19T09:48:53.542Z</time>
      </trkpt>
      <trkpt lat="47.26339" lon="4.9637">
        <ele>405</ele>
        <time>2015-04-19T09:48:54.500Z</time>
      </trkpt>
      <trkpt lat="47.26344" lon="4.96361">
        <ele>406</ele>
        <time>2015-04-19T09:48:57.411Z</time>
      </trkpt>
      <trkpt lat="47.26346" lon="4.96359">
        <ele>406</ele>
        <time>2015-04-19T09:48:58.426Z</time>
      </trkpt>
      <trkpt lat="47.26349" lon="4.9635">
        <ele>407</ele>
        <time>2015-04-19T09:49:01.428Z</time>
      </trkpt>
      <trkpt lat="47.2635" lon="4.96347">
        <ele>407</ele>
        <time>2015-04-19T09:49:02.424Z</time>
      </trkpt>
      <trkpt lat="47.26354" lon="4.96337">
        <ele>407</ele>
        <time>2015-04-19T09:49:07.433Z</time>
      </trkpt>
      <trkpt lat="47.26355" lon="4.96336">
        <ele>407</ele>
        <time>2015-04-19T09:49:08.433Z</time>
      </trkpt>
      <trkpt lat="47.26361" lon="4.96325">
        <ele>413</ele>
        <time>2015-04-19T09:49:15.406Z</time>
      </trkpt>
      <trkpt lat="47.26361" lon="4.96324">
        <ele>413</ele>
        <time>2015-04-19T09:49:16.424Z</time>
      </trkpt>
      <trkpt lat="47.26362" lon="4.96323">
        <ele>413</ele>
        <time>2015-04-19T09:49:19.423Z</time>
      </trkpt>
      <trkpt lat="47.26362" lon="4.96323">
        <ele>413</ele>
        <time>2015-04-19T09:49:20.439Z</time>
      </trkpt>
      <trkpt lat="47.26362" lon="4.96323">
        <ele>413</ele>
        <time>2015-04-19T09:49:21.446Z</time>
      </trkpt>
      <trkpt lat="47.26362" lon="4.96323">
        <ele>413</ele>
        <time>2015-04-19T09:49:22.423Z</time>
      </trkpt>
      <trkpt lat="47.26362" lon="4.96323">
        <ele>413</ele>
        <time>2015-04-19T09:49:23.438Z</time>
      </trkpt>
      <trkpt lat="47.26365" lon="4.96312">
        <ele>414</ele>
        <time>2015-04-19T09:49:26.446Z</time>
      </trkpt>
      <trkpt lat="47.26366" lon="4.9631">
        <ele>414</ele>
        <time>2015-04-19T09:49:27.435Z</time>
      </trkpt>
      <trkpt lat="47.26371" lon="4.963">
        <ele>416</ele>
        <time>2015-04-19T09:49:37.420Z</time>
      </trkpt>
      <trkpt lat="47.26371" lon="4.96299">
        <ele>416</ele>
        <time>2015-04-19T09:49:38.433Z</time>
      </trkpt>
      <trkpt lat="47.26376" lon="4.96288">
        <ele>417</ele>
        <time>2015-04-19T09:49:48.453Z</time>
      </trkpt>
      <trkpt lat="47.26376" lon="4.96287">
        <ele>417</ele>
        <time>2015-04-19T09:49:49.412Z</time>
      </trkpt>
      <trkpt lat="47.26376" lon="4.96286">
        <ele>417</ele>
        <time>2015-04-19T09:49:51.399Z</time>
      </trkpt>
      <trkpt lat="47.26376" lon="4.96286">
        <ele>417</ele>
        <time>2015-04-19T09:49:52.421Z</time>
      </trkpt>
      <trkpt lat="47.26376" lon="4.96286">
        <ele>417</ele>
        <time>2015-04-19T09:49:53.412Z</time>
      </trkpt>
      <trkpt lat="47.26376" lon="4.96286">
        <ele>417</ele>
        <time>2015-04-19T09:49:54.397Z</time>
      </trkpt>
      <trkpt lat="47.26376" lon="4.96286">
        <ele>417</ele>
        <time>2015-04-19T09:49:58.402Z</time>
      </trkpt>
      <trkpt lat="47.26376" lon="4.96286">
        <ele>417</ele>
        <time>2015-04-19T09:49:59.424Z</time>
      </trkpt>
      <trkpt lat="47.26376" lon="4.96286">
        <ele>417</ele>
        <time>2015-04-19T09:50:00.401Z</time>
      </trkpt>
      <trkpt lat="47.26381" lon="4.96285">
        <ele>417</ele>
        <time>2015-04-19T09:50:01.402Z</time>
      </trkpt>
      <trkpt lat="47.26381" lon="4.96285">
        <ele>417</ele>
        <time>2015-04-19T09:50:02.490Z</time>
      </trkpt>
      <trkpt lat="47.26383" lon="4.96284">
        <ele>417</ele>
        <time>2015-04-19T09:50:05.405Z</time>
      </trkpt>
      <trkpt lat="47.26383" lon="4.96284">
        <ele>417</ele>
        <time>2015-04-19T09:50:06.401Z</time>
      </trkpt>
      <trkpt lat="47.26383" lon="4.96284">
        <ele>417</ele>
        <time>2015-04-19T09:50:08.407Z</time>
      </trkpt>
      <trkpt lat="47.26383" lon="4.96284">
        <ele>417</ele>
        <time>2015-04-19T09:50:09.480Z</time>
      </trkpt>
      <trkpt lat="47.26383" lon="4.96284">
        <ele>417</ele>
        <time>2015-04-19T09:50:10.405Z</time>
      </trkpt>
      <trkpt lat="47.26383" lon="4.96284">
        <ele>417</ele>
        <time>2015-04-19T09:50:12.434Z</time>
      </trkpt>
      <trkpt lat="47.26387" lon="4.9628">
        <ele>417</ele>
        <time>2015-04-19T09:50:13.438Z</time>
      </trkpt>
      <trkpt lat="47.26393" lon="4.96276">
        <ele>418</ele>
        <time>2015-04-19T09:50:24.452Z</time>
      </trkpt>
      <trkpt lat="47.26393" lon="4.96276">
        <ele>418</ele>
        <time>2015-04-19T09:50:25.403Z</time>
      </trkpt>
      <trkpt lat="47.26393" lon="4.96276">
        <ele>418</ele>
        <time>2015-04-19T09:50:38.508Z</time>
      </trkpt>
      <trkpt lat="47.26397" lon="4.96273">
        <ele>418</ele>
        <time>2015-04-19T09:50:39.453Z</time>
      </trkpt>
      <trkpt lat="47.26397" lon="4.96273">
        <ele>418</ele>
        <time>2015-04-19T09:50:40.423Z</time>
      </trkpt>
      <trkpt lat="47.26398" lon="4.96273">
        <ele>418</ele>
        <time>2015-04-19T09:50:41.403Z</time>
      </trkpt>
      <trkpt lat="47.26398" lon="4.96273">
        <ele>418</ele>
        <time>2015-04-19T09:50:42.403Z</time>
      </trkpt>
      <trkpt lat="47.26398" lon="4.96273">
        <ele>418</ele>
        <time>2015-04-19T09:50:46.412Z</time>
      </trkpt>
      <trkpt lat="47.26398" lon="4.96273">
        <ele>418</ele>
        <time>2015-04-19T09:50:47.419Z</time>
      </trkpt>
      <trkpt lat="47.26398" lon="4.96273">
        <ele>418</ele>
        <time>2015-04-19T09:50:51.526Z</time>
      </trkpt>
      <trkpt lat="47.26403" lon="4.96272">
        <ele>418</ele>
        <time>2015-04-19T09:50:52.442Z</time>
      </trkpt>
      <trkpt lat="47.26404" lon="4.96271">
        <ele>418</ele>
        <time>2015-04-19T09:50:55.482Z</time>
      </trkpt>
      <trkpt lat="47.26404" lon="4.96271">
        <ele>418</ele>
        <time>2015-04-19T09:50:56.482Z</time>
      </trkpt>
      <trkpt lat="47.26404" lon="4.96271">
        <ele>418</ele>
        <time>2015-04-19T09:51:00.422Z</time>
      </trkpt>
      <trkpt lat="47.26404" lon="4.96271">
        <ele>418</ele>
        <time>2015-04-19T09:51:01.439Z</time>
      </trkpt>
      <trkpt lat="47.26404" lon="4.96271">
        <ele>418</ele>
        <time>2015-04-19T09:51:02.440Z</time>
      </trkpt>
      <trkpt lat="47.26404" lon="4.96271">
        <ele>418</ele>
        <time>2015-04-19T09:51:03.432Z</time>
      </trkpt>
      <trkpt lat="47.26406" lon="4.96265">
        <ele>418</ele>
        <time>2015-04-19T09:51:04.435Z</time>
      </trkpt>
      <trkpt lat="47.26406" lon="4.96264">
        <ele>418</ele>
        <time>2015-04-19T09:51:05.421Z</time>
      </trkpt>
      <trkpt lat="47.26407" lon="4.96264">
        <ele>419</ele>
        <time>2015-04-19T09:51:07.399Z</time>
      </trkpt>
      <trkpt lat="47.26407" lon="4.96264">
        <ele>419</ele>
        <time>2015-04-19T09:51:08.434Z</time>
      </trkpt>
      <trkpt lat="47.2641" lon="4.96257">
        <ele>419</ele>
        <time>2015-04-19T09:51:38.441Z</time>
      </trkpt>
      <trkpt lat="47.26413" lon="4.96253">
        <ele>420</ele>
        <time>2015-04-19T09:51:39.435Z</time>
      </trkpt>
      <trkpt lat="47.26414" lon="4.96254">
        <ele>420</ele>
        <time>2015-04-19T09:51:42.434Z</time>
      </trkpt>
      <trkpt lat="47.26414" lon="4.96254">
        <ele>420</ele>
        <time>2015-04-19T09:51:43.430Z</time>
      </trkpt>
      <trkpt lat="47.2642" lon="4.96251">
        <ele>421</ele>
        <time>2015-04-19T09:52:09.439Z</time>
      </trkpt>
      <trkpt lat="47.26424" lon="4.96249">
        <ele>424</ele>
        <time>2015-04-19T09:52:10.439Z</time>
      </trkpt>
      <trkpt lat="47.26425" lon="4.96249">
        <ele>424</ele>
        <time>2015-04-19T09:52:11.425Z</time>
      </trkpt>
      <trkpt lat="47.26425" lon="4.9625">
        <ele>424</ele>
        <time>2015-04-19T09:52:12.433Z</time>
      </trkpt>
      <trkpt lat="47.26425" lon="4.9625">
        <ele>424</ele>
        <time>2015-04-19T09:52:13.428Z</time>
      </trkpt>
      <trkpt lat="47.26425" lon="4.9625">
        <ele>424</ele>
        <time>2015-04-19T09:52:14.428Z</time>
      </trkpt>
      <trkpt lat="47.26425" lon="4.9625">
        <ele>424</ele>
        <time>2015-04-19T09:52:23.446Z</time>
      </trkpt>
      <trkpt lat="47.2643" lon="4.96252">
        <ele>424</ele>
        <time>2015-04-19T09:52:24.451Z</time>
      </trkpt>
      <trkpt lat="47.26431" lon="4.96252">
        <ele>424</ele>
        <time>2015-04-19T09:52:26.436Z</time>
      </trkpt>
      <trkpt lat="47.26431" lon="4.96252">
        <ele>424</ele>
        <time>2015-04-19T09:52:27.445Z</time>
      </trkpt>
      <trkpt lat="47.26431" lon="4.96252">
        <ele>424</ele>
        <time>2015-04-19T09:52:44.446Z</time>
      </trkpt>
      <trkpt lat="47.26436" lon="4.96255">
        <ele>425</ele>
        <time>2015-04-19T09:52:45.444Z</time>
      </trkpt>
      <trkpt lat="47.26436" lon="4.96255">
        <ele>425</ele>
        <time>2015-04-19T09:52:46.450Z</time>
      </trkpt>
      <trkpt lat="47.26436" lon="4.96255">
        <ele>425</ele>
        <time>2015-04-19T09:52:47.423Z</time>
      </trkpt>
      <trkpt lat="47.26437" lon="4.96255">
        <ele>425</ele>
        <time>2015-04-19T09:52:48.459Z</time>
      </trkpt>
      <trkpt lat="47.26437" lon="4.96255">
        <ele>425</ele>
        <time>2015-04-19T09:52:49.447Z</time>
      </trkpt>
      <trkpt lat="47.26437" lon="4.96255">
        <ele>425</ele>
        <time>2015-04-19T09:52:50.436Z</time>
      </trkpt>
      <trkpt lat="47.26437" lon="4.96255">
        <ele>425</ele>
        <time>2015-04-19T09:52:51.446Z</time>
      </trkpt>
      <trkpt lat="47.2644" lon="4.96263">
        <ele>426</ele>
        <time>2015-04-19T09:52:56.448Z</time>
      </trkpt>
      <trkpt lat="47.2644" lon="4.96264">
        <ele>426</ele>
        <time>2015-04-19T09:52:57.445Z</time>
      </trkpt>
      <trkpt lat="47.2644" lon="4.96264">
        <ele>426</ele>
        <time>2015-04-19T09:52:58.422Z</time>
      </trkpt>
      <trkpt lat="47.2644" lon="4.96264">
        <ele>426</ele>
        <time>2015-04-19T09:52:59.459Z</time>
      </trkpt>
      <trkpt lat="47.2644" lon="4.96264">
        <ele>426</ele>
        <time>2015-04-19T09:53:07.453Z</time>
      </trkpt>
      <trkpt lat="47.26444" lon="4.96268">
        <ele>427</ele>
        <time>2015-04-19T09:53:08.445Z</time>
      </trkpt>
      <trkpt lat="47.26446" lon="4.96281">
        <ele>428</ele>
        <time>2015-04-19T09:53:20.466Z</time>
      </trkpt>
      <trkpt lat="47.26446" lon="4.96282">
        <ele>428</ele>
        <time>2015-04-19T09:53:21.445Z</time>
      </trkpt>
      <trkpt lat="47.26448" lon="4.96292">
        <ele>428</ele>
        <time>2015-04-19T09:53:36.436Z</time>
      </trkpt>
      <trkpt lat="47.26453" lon="4.96292">
        <ele>428</ele>
        <time>2015-04-19T09:53:37.448Z</time>
      </trkpt>
      <trkpt lat="47.26461" lon="4.96289">
        <ele>429</ele>
        <time>2015-04-19T09:53:45.490Z</time>
      </trkpt>
      <trkpt lat="47.26462" lon="4.96289">
        <ele>429</ele>
        <time>2015-04-19T09:53:46.485Z</time>
      </trkpt>
      <trkpt lat="47.2647" lon="4.9629">
        <ele>430</ele>
        <time>2015-04-19T09:53:54.466Z</time>
      </trkpt>
      <trkpt lat="47.26471" lon="4.96291">
        <ele>430</ele>
        <time>2015-04-19T09:53:55.445Z</time>
      </trkpt>
      <trkpt lat="47.26478" lon="4.963">
        <ele>431</ele>
        <time>2015-04-19T09:54:01.435Z</time>
      </trkpt>
      <trkpt lat="47.26479" lon="4.96301">
        <ele>431</ele>
        <time>2015-04-19T09:54:02.466Z</time>
      </trkpt>
      <trkpt lat="47.26487" lon="4.96297">
        <ele>432</ele>
        <time>2015-04-19T09:54:10.446Z</time>
      </trkpt>
      <trkpt lat="47.26488" lon="4.96296">
        <ele>432</ele>
        <time>2015-04-19T09:54:11.452Z</time>
      </trkpt>
      <trkpt lat="47.26495" lon="4.96289">
        <ele>433</ele>
        <time>2015-04-19T09:54:18.427Z</time>
      </trkpt>
      <trkpt lat="47.26496" lon="4.96288">
        <ele>433</ele>
        <time>2015-04-19T09:54:19.449Z</time>
      </trkpt>
      <trkpt lat="47.265" lon="4.96278">
        <ele>434</ele>
        <time>2015-04-19T09:54:25.436Z</time>
      </trkpt>
      <trkpt lat="47.265" lon="4.96276">
        <ele>441</ele>
        <time>2015-04-19T09:54:26.460Z</time>
      </trkpt>
      <trkpt lat="47.26505" lon="4.96266">
        <ele>441</ele>
        <time>2015-04-19T09:54:32.471Z</time>
      </trkpt>
      <trkpt lat="47.26506" lon="4.96265">
        <ele>441</ele>
        <time>2015-04-19T09:54:33.444Z</time>
      </trkpt>
      <trkpt lat="47.26512" lon="4.96256">
        <ele>441</ele>
        <time>2015-04-19T09:54:41.448Z</time>
      </trkpt>
      <trkpt lat="47.26513" lon="4.96254">
        <ele>441</ele>
        <time>2015-04-19T09:54:42.458Z</time>
      </trkpt>
      <trkpt lat="47.26516" lon="4.96242">
        <ele>442</ele>
        <time>2015-04-19T09:54:49.480Z</time>
      </trkpt>
      <trkpt lat="47.26516" lon="4.96241">
        <ele>443</ele>
        <time>2015-04-19T09:54:50.473Z</time>
      </trkpt>
      <trkpt lat="47.26522" lon="4.96232">
        <ele>443</ele>
        <time>2015-04-19T09:54:57.468Z</time>
      </trkpt>
      <trkpt lat="47.26523" lon="4.9623">
        <ele>443</ele>
        <time>2015-04-19T09:54:58.433Z</time>
      </trkpt>
      <trkpt lat="47.2653" lon="4.96223">
        <ele>444</ele>
        <time>2015-04-19T09:55:04.455Z</time>
      </trkpt>
      <trkpt lat="47.26531" lon="4.96222">
        <ele>444</ele>
        <time>2015-04-19T09:55:05.445Z</time>
      </trkpt>
      <trkpt lat="47.26537" lon="4.96213">
        <ele>444</ele>
        <time>2015-04-19T09:55:11.446Z</time>
      </trkpt>
      <trkpt lat="47.26537" lon="4.96212">
        <ele>445</ele>
        <time>2015-04-19T09:55:12.453Z</time>
      </trkpt>
      <trkpt lat="47.26543" lon="4.96202">
        <ele>445</ele>
        <time>2015-04-19T09:55:19.445Z</time>
      </trkpt>
      <trkpt lat="47.26544" lon="4.96201">
        <ele>445</ele>
        <time>2015-04-19T09:55:20.449Z</time>
      </trkpt>
      <trkpt lat="47.2655" lon="4.96194">
        <ele>445</ele>
        <time>2015-04-19T09:55:25.452Z</time>
      </trkpt>
      <trkpt lat="47.26551" lon="4.96193">
        <ele>445</ele>
        <time>2015-04-19T09:55:26.464Z</time>
      </trkpt>
      <trkpt lat="47.26559" lon="4.96186">
        <ele>446</ele>
        <time>2015-04-19T09:55:32.446Z</time>
      </trkpt>
      <trkpt lat="47.2656" lon="4.96184">
        <ele>446</ele>
        <time>2015-04-19T09:55:33.468Z</time>
      </trkpt>
      <trkpt lat="47.26566" lon="4.96176">
        <ele>447</ele>
        <time>2015-04-19T09:55:39.445Z</time>
      </trkpt>
      <trkpt lat="47.26567" lon="4.96175">
        <ele>447</ele>
        <time>2015-04-19T09:55:40.449Z</time>
      </trkpt>
      <trkpt lat="47.26573" lon="4.96166">
        <ele>449</ele>
        <time>2015-04-19T09:55:46.454Z</time>
      </trkpt>
      <trkpt lat="47.26574" lon="4.96164">
        <ele>449</ele>
        <time>2015-04-19T09:55:47.453Z</time>
      </trkpt>
      <trkpt lat="47.26582" lon="4.96161">
        <ele>449</ele>
        <time>2015-04-19T09:55:53.444Z</time>
      </trkpt>
      <trkpt lat="47.26583" lon="4.96161">
        <ele>449</ele>
        <time>2015-04-19T09:55:54.450Z</time>
      </trkpt>
      <trkpt lat="47.26591" lon="4.96158">
        <ele>450</ele>
        <time>2015-04-19T09:56:00.423Z</time>
      </trkpt>
      <trkpt lat="47.26592" lon="4.96157">
        <ele>450</ele>
        <time>2015-04-19T09:56:01.460Z</time>
      </trkpt>
      <trkpt lat="47.266" lon="4.96154">
        <ele>451</ele>
        <time>2015-04-19T09:56:07.452Z</time>
      </trkpt>
      <trkpt lat="47.26601" lon="4.96152">
        <ele>451</ele>
        <time>2015-04-19T09:56:08.460Z</time>
      </trkpt>
      <trkpt lat="47.26609" lon="4.96147">
        <ele>451</ele>
        <time>2015-04-19T09:56:14.449Z</time>
      </trkpt>
      <trkpt lat="47.2661" lon="4.96146">
        <ele>451</ele>
        <time>2015-04-19T09:56:15.444Z</time>
      </trkpt>
      <trkpt lat="47.26616" lon="4.9614">
        <ele>452</ele>
        <time>2015-04-19T09:56:21.446Z</time>
      </trkpt>
      <trkpt lat="47.26617" lon="4.96138">
        <ele>452</ele>
        <time>2015-04-19T09:56:22.443Z</time>
      </trkpt>
      <trkpt lat="47.26624" lon="4.9613">
        <ele>452</ele>
        <time>2015-04-19T09:56:30.445Z</time>
      </trkpt>
      <trkpt lat="47.26625" lon="4.96129">
        <ele>452</ele>
        <time>2015-04-19T09:56:31.436Z</time>
      </trkpt>
      <trkpt lat="47.26632" lon="4.96122">
        <ele>452</ele>
        <time>2015-04-19T09:56:37.450Z</time>
      </trkpt>
      <trkpt lat="47.26633" lon="4.9612">
        <ele>452</ele>
        <time>2015-04-19T09:56:38.457Z</time>
      </trkpt>
      <trkpt lat="47.26637" lon="4.9611">
        <ele>453</ele>
        <time>2015-04-19T09:56:43.447Z</time>
      </trkpt>
      <trkpt lat="47.26638" lon="4.96108">
        <ele>453</ele>
        <time>2015-04-19T09:56:44.445Z</time>
      </trkpt>
      <trkpt lat="47.26643" lon="4.96099">
        <ele>453</ele>
        <time>2015-04-19T09:56:49.454Z</time>
      </trkpt>
      <trkpt lat="47.26644" lon="4.96097">
        <ele>453</ele>
        <time>2015-04-19T09:56:50.456Z</time>
      </trkpt>
      <trkpt lat="47.26649" lon="4.96087">
        <ele>453</ele>
        <time>2015-04-19T09:56:55.447Z</time>
      </trkpt>
      <trkpt lat="47.26649" lon="4.96085">
        <ele>453</ele>
        <time>2015-04-19T09:56:56.445Z</time>
      </trkpt>
      <trkpt lat="47.26653" lon="4.96075">
        <ele>455</ele>
        <time>2015-04-19T09:57:01.445Z</time>
      </trkpt>
      <trkpt lat="47.26654" lon="4.96074">
        <ele>455</ele>
        <time>2015-04-19T09:57:02.480Z</time>
      </trkpt>
      <trkpt lat="47.26661" lon="4.96064">
        <ele>455</ele>
        <time>2015-04-19T09:57:08.446Z</time>
      </trkpt>
      <trkpt lat="47.26661" lon="4.96062">
        <ele>455</ele>
        <time>2015-04-19T09:57:09.439Z</time>
      </trkpt>
      <trkpt lat="47.26666" lon="4.96053">
        <ele>456</ele>
        <time>2015-04-19T09:57:14.446Z</time>
      </trkpt>
      <trkpt lat="47.26666" lon="4.96051">
        <ele>456</ele>
        <time>2015-04-19T09:57:15.443Z</time>
      </trkpt>
      <trkpt lat="47.26671" lon="4.9604">
        <ele>456</ele>
        <time>2015-04-19T09:57:21.428Z</time>
      </trkpt>
      <trkpt lat="47.26672" lon="4.96038">
        <ele>456</ele>
        <time>2015-04-19T09:57:22.437Z</time>
      </trkpt>
      <trkpt lat="47.26675" lon="4.96028">
        <ele>456</ele>
        <time>2015-04-19T09:57:27.445Z</time>
      </trkpt>
      <trkpt lat="47.26676" lon="4.96026">
        <ele>456</ele>
        <time>2015-04-19T09:57:28.424Z</time>
      </trkpt>
      <trkpt lat="47.2668" lon="4.96017">
        <ele>457</ele>
        <time>2015-04-19T09:57:33.429Z</time>
      </trkpt>
      <trkpt lat="47.26681" lon="4.96015">
        <ele>457</ele>
        <time>2015-04-19T09:57:34.440Z</time>
      </trkpt>
      <trkpt lat="47.26685" lon="4.96004">
        <ele>457</ele>
        <time>2015-04-19T09:57:40.436Z</time>
      </trkpt>
      <trkpt lat="47.26685" lon="4.96002">
        <ele>457</ele>
        <time>2015-04-19T09:57:41.447Z</time>
      </trkpt>
      <trkpt lat="47.26686" lon="4.9599">
        <ele>458</ele>
        <time>2015-04-19T09:57:47.449Z</time>
      </trkpt>
      <trkpt lat="47.26686" lon="4.95987">
        <ele>458</ele>
        <time>2015-04-19T09:57:48.438Z</time>
      </trkpt>
      <trkpt lat="47.26687" lon="4.95974">
        <ele>458</ele>
        <time>2015-04-19T09:57:53.439Z</time>
      </trkpt>
      <trkpt lat="47.26687" lon="4.95972">
        <ele>458</ele>
        <time>2015-04-19T09:57:54.430Z</time>
      </trkpt>
      <trkpt lat="47.26689" lon="4.95961">
        <ele>459</ele>
        <time>2015-04-19T09:57:59.444Z</time>
      </trkpt>
      <trkpt lat="47.2669" lon="4.95958">
        <ele>459</ele>
        <time>2015-04-19T09:58:00.427Z</time>
      </trkpt>
      <trkpt lat="47.26692" lon="4.95949">
        <ele>459</ele>
        <time>2015-04-19T09:58:04.436Z</time>
      </trkpt>
      <trkpt lat="47.26693" lon="4.95946">
        <ele>459</ele>
        <time>2015-04-19T09:58:05.436Z</time>
      </trkpt>
      <trkpt lat="47.26697" lon="4.95935">
        <ele>459</ele>
        <time>2015-04-19T09:58:10.422Z</time>
      </trkpt>
      <trkpt lat="47.26697" lon="4.95933">
        <ele>459</ele>
        <time>2015-04-19T09:58:11.427Z</time>
      </trkpt>
      <trkpt lat="47.26701" lon="4.95921">
        <ele>459</ele>
        <time>2015-04-19T09:58:17.431Z</time>
      </trkpt>
      <trkpt lat="47.26701" lon="4.95919">
        <ele>459</ele>
        <time>2015-04-19T09:58:18.427Z</time>
      </trkpt>
      <trkpt lat="47.26704" lon="4.95907">
        <ele>461</ele>
        <time>2015-04-19T09:58:23.406Z</time>
      </trkpt>
      <trkpt lat="47.26704" lon="4.95905">
        <ele>461</ele>
        <time>2015-04-19T09:58:24.440Z</time>
      </trkpt>
      <trkpt lat="47.26708" lon="4.95893">
        <ele>461</ele>
        <time>2015-04-19T09:58:30.441Z</time>
      </trkpt>
      <trkpt lat="47.26709" lon="4.95891">
        <ele>461</ele>
        <time>2015-04-19T09:58:31.411Z</time>
      </trkpt>
      <trkpt lat="47.26713" lon="4.9588">
        <ele>461</ele>
        <time>2015-04-19T09:58:36.425Z</time>
      </trkpt>
      <trkpt lat="47.26714" lon="4.95877">
        <ele>461</ele>
        <time>2015-04-19T09:58:37.425Z</time>
      </trkpt>
      <trkpt lat="47.26718" lon="4.95866">
        <ele>461</ele>
        <time>2015-04-19T09:58:42.429Z</time>
      </trkpt>
      <trkpt lat="47.26719" lon="4.95863">
        <ele>461</ele>
        <time>2015-04-19T09:58:43.422Z</time>
      </trkpt>
      <trkpt lat="47.26723" lon="4.95854">
        <ele>462</ele>
        <time>2015-04-19T09:58:47.431Z</time>
      </trkpt>
      <trkpt lat="47.26723" lon="4.95851">
        <ele>462</ele>
        <time>2015-04-19T09:58:48.437Z</time>
      </trkpt>
      <trkpt lat="47.26727" lon="4.9584">
        <ele>462</ele>
        <time>2015-04-19T09:58:53.437Z</time>
      </trkpt>
      <trkpt lat="47.26728" lon="4.95838">
        <ele>462</ele>
        <time>2015-04-19T09:58:54.439Z</time>
      </trkpt>
      <trkpt lat="47.26732" lon="4.95827">
        <ele>463</ele>
        <time>2015-04-19T09:58:59.429Z</time>
      </trkpt>
      <trkpt lat="47.26733" lon="4.95825">
        <ele>463</ele>
        <time>2015-04-19T09:59:00.429Z</time>
      </trkpt>
      <trkpt lat="47.26738" lon="4.95815">
        <ele>463</ele>
        <time>2015-04-19T09:59:05.449Z</time>
      </trkpt>
      <trkpt lat="47.26739" lon="4.95813">
        <ele>463</ele>
        <time>2015-04-19T09:59:06.437Z</time>
      </trkpt>
      <trkpt lat="47.26745" lon="4.95809">
        <ele>463</ele>
        <time>2015-04-19T09:59:11.427Z</time>
      </trkpt>
      <trkpt lat="47.26747" lon="4.95809">
        <ele>463</ele>
        <time>2015-04-19T09:59:12.435Z</time>
      </trkpt>
      <trkpt lat="47.26755" lon="4.95806">
        <ele>463</ele>
        <time>2015-04-19T09:59:18.446Z</time>
      </trkpt>
      <trkpt lat="47.26757" lon="4.95806">
        <ele>463</ele>
        <time>2015-04-19T09:59:19.439Z</time>
      </trkpt>
      <trkpt lat="47.26764" lon="4.95802">
        <ele>463</ele>
        <time>2015-04-19T09:59:24.439Z</time>
      </trkpt>
      <trkpt lat="47.26765" lon="4.95801">
        <ele>463</ele>
        <time>2015-04-19T09:59:25.442Z</time>
      </trkpt>
      <trkpt lat="47.26773" lon="4.95796">
        <ele>463</ele>
        <time>2015-04-19T09:59:31.437Z</time>
      </trkpt>
      <trkpt lat="47.26775" lon="4.95795">
        <ele>463</ele>
        <time>2015-04-19T09:59:32.446Z</time>
      </trkpt>
      <trkpt lat="47.26781" lon="4.95788">
        <ele>463</ele>
        <time>2015-04-19T09:59:37.427Z</time>
      </trkpt>
      <trkpt lat="47.26783" lon="4.95786">
        <ele>463</ele>
        <time>2015-04-19T09:59:38.436Z</time>
      </trkpt>
      <trkpt lat="47.26788" lon="4.95776">
        <ele>463</ele>
        <time>2015-04-19T09:59:43.409Z</time>
      </trkpt>
      <trkpt lat="47.26788" lon="4.95774">
        <ele>463</ele>
        <time>2015-04-19T09:59:44.432Z</time>
      </trkpt>
      <trkpt lat="47.26792" lon="4.95764">
        <ele>463</ele>
        <time>2015-04-19T09:59:49.436Z</time>
      </trkpt>
      <trkpt lat="47.26793" lon="4.95762">
        <ele>463</ele>
        <time>2015-04-19T09:59:50.434Z</time>
      </trkpt>
      <trkpt lat="47.26798" lon="4.95753">
        <ele>463</ele>
        <time>2015-04-19T09:59:55.433Z</time>
      </trkpt>
      <trkpt lat="47.268" lon="4.95751">
        <ele>463</ele>
        <time>2015-04-19T09:59:56.432Z</time>
      </trkpt>
      <trkpt lat="47.26804" lon="4.9574">
        <ele>464</ele>
        <time>2015-04-19T10:00:01.436Z</time>
      </trkpt>
      <trkpt lat="47.26805" lon="4.95739">
        <ele>464</ele>
        <time>2015-04-19T10:00:02.437Z</time>
      </trkpt>
      <trkpt lat="47.26811" lon="4.95729">
        <ele>464</ele>
        <time>2015-04-19T10:00:07.428Z</time>
      </trkpt>
      <trkpt lat="47.26812" lon="4.95727">
        <ele>464</ele>
        <time>2015-04-19T10:00:08.440Z</time>
      </trkpt>
      <trkpt lat="47.26816" lon="4.95716">
        <ele>464</ele>
        <time>2015-04-19T10:00:13.439Z</time>
      </trkpt>
      <trkpt lat="47.26817" lon="4.95713">
        <ele>464</ele>
        <time>2015-04-19T10:00:14.450Z</time>
      </trkpt>
      <trkpt lat="47.26823" lon="4.95705">
        <ele>464</ele>
        <time>2015-04-19T10:00:19.450Z</time>
      </trkpt>
      <trkpt lat="47.26825" lon="4.95703">
        <ele>463</ele>
        <time>2015-04-19T10:00:20.443Z</time>
      </trkpt>
      <trkpt lat="47.26831" lon="4.95697">
        <ele>463</ele>
        <time>2015-04-19T10:00:24.442Z</time>
      </trkpt>
      <trkpt lat="47.26833" lon="4.95696">
        <ele>463</ele>
        <time>2015-04-19T10:00:25.442Z</time>
      </trkpt>
      <trkpt lat="47.26839" lon="4.95686">
        <ele>463</ele>
        <time>2015-04-19T10:00:30.430Z</time>
      </trkpt>
      <trkpt lat="47.2684" lon="4.95685">
        <ele>463</ele>
        <time>2015-04-19T10:00:31.418Z</time>
      </trkpt>
      <trkpt lat="47.26845" lon="4.95674">
        <ele>463</ele>
        <time>2015-04-19T10:00:36.452Z</time>
      </trkpt>
      <trkpt lat="47.26847" lon="4.95672">
        <ele>463</ele>
        <time>2015-04-19T10:00:37.408Z</time>
      </trkpt>
      <trkpt lat="47.26851" lon="4.95663">
        <ele>463</ele>
        <time>2015-04-19T10:00:41.451Z</time>
      </trkpt>
      <trkpt lat="47.26852" lon="4.9566">
        <ele>463</ele>
        <time>2015-04-19T10:00:42.418Z</time>
      </trkpt>
      <trkpt lat="47.26857" lon="4.95652">
        <ele>463</ele>
        <time>2015-04-19T10:00:46.432Z</time>
      </trkpt>
      <trkpt lat="47.26858" lon="4.9565">
        <ele>463</ele>
        <time>2015-04-19T10:00:47.432Z</time>
      </trkpt>
      <trkpt lat="47.26864" lon="4.95641">
        <ele>463</ele>
        <time>2015-04-19T10:00:52.439Z</time>
      </trkpt>
      <trkpt lat="47.26865" lon="4.95639">
        <ele>463</ele>
        <time>2015-04-19T10:00:53.411Z</time>
      </trkpt>
      <trkpt lat="47.26872" lon="4.95631">
        <ele>463</ele>
        <time>2015-04-19T10:00:58.427Z</time>
      </trkpt>
      <trkpt lat="47.26873" lon="4.95629">
        <ele>463</ele>
        <time>2015-04-19T10:00:59.453Z</time>
      </trkpt>
      <trkpt lat="47.2688" lon="4.95622">
        <ele>463</ele>
        <time>2015-04-19T10:01:03.427Z</time>
      </trkpt>
      <trkpt lat="47.26881" lon="4.95621">
        <ele>463</ele>
        <time>2015-04-19T10:01:04.430Z</time>
      </trkpt>
      <trkpt lat="47.26887" lon="4.95614">
        <ele>463</ele>
        <time>2015-04-19T10:01:08.445Z</time>
      </trkpt>
      <trkpt lat="47.26888" lon="4.95612">
        <ele>463</ele>
        <time>2015-04-19T10:01:09.431Z</time>
      </trkpt>
      <trkpt lat="47.26894" lon="4.95604">
        <ele>463</ele>
        <time>2015-04-19T10:01:14.449Z</time>
      </trkpt>
      <trkpt lat="47.26896" lon="4.95603">
        <ele>463</ele>
        <time>2015-04-19T10:01:15.439Z</time>
      </trkpt>
      <trkpt lat="47.26904" lon="4.95597">
        <ele>462</ele>
        <time>2015-04-19T10:01:20.450Z</time>
      </trkpt>
      <trkpt lat="47.26905" lon="4.95596">
        <ele>462</ele>
        <time>2015-04-19T10:01:21.443Z</time>
      </trkpt>
      <trkpt lat="47.26911" lon="4.95588">
        <ele>462</ele>
        <time>2015-04-19T10:01:26.442Z</time>
      </trkpt>
      <trkpt lat="47.26913" lon="4.95586">
        <ele>462</ele>
        <time>2015-04-19T10:01:27.429Z</time>
      </trkpt>
      <trkpt lat="47.2692" lon="4.9558">
        <ele>462</ele>
        <time>2015-04-19T10:01:31.419Z</time>
      </trkpt>
      <trkpt lat="47.26921" lon="4.95579">
        <ele>462</ele>
        <time>2015-04-19T10:01:32.496Z</time>
      </trkpt>
      <trkpt lat="47.26928" lon="4.95574">
        <ele>462</ele>
        <time>2015-04-19T10:01:36.441Z</time>
      </trkpt>
      <trkpt lat="47.2693" lon="4.95572">
        <ele>462</ele>
        <time>2015-04-19T10:01:37.432Z</time>
      </trkpt>
      <trkpt lat="47.26937" lon="4.95564">
        <ele>462</ele>
        <time>2015-04-19T10:01:42.417Z</time>
      </trkpt>
      <trkpt lat="47.26938" lon="4.95562">
        <ele>462</ele>
        <time>2015-04-19T10:01:43.432Z</time>
      </trkpt>
      <trkpt lat="47.26943" lon="4.95554">
        <ele>462</ele>
        <time>2015-04-19T10:01:47.471Z</time>
      </trkpt>
      <trkpt lat="47.26944" lon="4.95552">
        <ele>462</ele>
        <time>2015-04-19T10:01:48.415Z</time>
      </trkpt>
      <trkpt lat="47.2695" lon="4.95542">
        <ele>462</ele>
        <time>2015-04-19T10:01:53.445Z</time>
      </trkpt>
      <trkpt lat="47.26951" lon="4.9554">
        <ele>462</ele>
        <time>2015-04-19T10:01:54.435Z</time>
      </trkpt>
      <trkpt lat="47.26957" lon="4.95533">
        <ele>462</ele>
        <time>2015-04-19T10:01:58.441Z</time>
      </trkpt>
      <trkpt lat="47.26958" lon="4.95531">
        <ele>462</ele>
        <time>2015-04-19T10:01:59.451Z</time>
      </trkpt>
      <trkpt lat="47.26963" lon="4.95523">
        <ele>462</ele>
        <time>2015-04-19T10:02:03.437Z</time>
      </trkpt>
      <trkpt lat="47.26964" lon="4.95521">
        <ele>462</ele>
        <time>2015-04-19T10:02:04.440Z</time>
      </trkpt>
      <trkpt lat="47.26969" lon="4.95511">
        <ele>462</ele>
        <time>2015-04-19T10:02:09.455Z</time>
      </trkpt>
      <trkpt lat="47.2697" lon="4.95509">
        <ele>462</ele>
        <time>2015-04-19T10:02:10.432Z</time>
      </trkpt>
      <trkpt lat="47.26976" lon="4.955">
        <ele>462</ele>
        <time>2015-04-19T10:02:15.438Z</time>
      </trkpt>
      <trkpt lat="47.26978" lon="4.95499">
        <ele>462</ele>
        <time>2015-04-19T10:02:16.447Z</time>
      </trkpt>
      <trkpt lat="47.26983" lon="4.95492">
        <ele>462</ele>
        <time>2015-04-19T10:02:20.439Z</time>
      </trkpt>
      <trkpt lat="47.26985" lon="4.95489">
        <ele>462</ele>
        <time>2015-04-19T10:02:21.441Z</time>
      </trkpt>
      <trkpt lat="47.2699" lon="4.95481">
        <ele>462</ele>
        <time>2015-04-19T10:02:25.441Z</time>
      </trkpt>
      <trkpt lat="47.26991" lon="4.95479">
        <ele>462</ele>
        <time>2015-04-19T10:02:26.427Z</time>
      </trkpt>
      <trkpt lat="47.26996" lon="4.95469">
        <ele>462</ele>
        <time>2015-04-19T10:02:31.422Z</time>
      </trkpt>
      <trkpt lat="47.26997" lon="4.95467">
        <ele>462</ele>
        <time>2015-04-19T10:02:32.440Z</time>
      </trkpt>
      <trkpt lat="47.27002" lon="4.95458">
        <ele>462</ele>
        <time>2015-04-19T10:02:37.455Z</time>
      </trkpt>
      <trkpt lat="47.27003" lon="4.95456">
        <ele>462</ele>
        <time>2015-04-19T10:02:38.429Z</time>
      </trkpt>
      <trkpt lat="47.27009" lon="4.95447">
        <ele>462</ele>
        <time>2015-04-19T10:02:46.466Z</time>
      </trkpt>
      <trkpt lat="47.2701" lon="4.95446">
        <ele>462</ele>
        <time>2015-04-19T10:02:47.452Z</time>
      </trkpt>
      <trkpt lat="47.27017" lon="4.95438">
        <ele>462</ele>
        <time>2015-04-19T10:02:52.452Z</time>
      </trkpt>
      <trkpt lat="47.27018" lon="4.95436">
        <ele>462</ele>
        <time>2015-04-19T10:02:53.420Z</time>
      </trkpt>
      <trkpt lat="47.27023" lon="4.95428">
        <ele>462</ele>
        <time>2015-04-19T10:02:57.416Z</time>
      </trkpt>
      <trkpt lat="47.27024" lon="4.95426">
        <ele>462</ele>
        <time>2015-04-19T10:02:58.431Z</time>
      </trkpt>
      <trkpt lat="47.2703" lon="4.95419">
        <ele>462</ele>
        <time>2015-04-19T10:03:02.440Z</time>
      </trkpt>
      <trkpt lat="47.27032" lon="4.95418">
        <ele>462</ele>
        <time>2015-04-19T10:03:03.439Z</time>
      </trkpt>
      <trkpt lat="47.27037" lon="4.95409">
        <ele>463</ele>
        <time>2015-04-19T10:03:08.442Z</time>
      </trkpt>
      <trkpt lat="47.27038" lon="4.95407">
        <ele>463</ele>
        <time>2015-04-19T10:03:09.434Z</time>
      </trkpt>
      <trkpt lat="47.27044" lon="4.95399">
        <ele>463</ele>
        <time>2015-04-19T10:03:14.450Z</time>
      </trkpt>
      <trkpt lat="47.27045" lon="4.95397">
        <ele>463</ele>
        <time>2015-04-19T10:03:15.433Z</time>
      </trkpt>
      <trkpt lat="47.2705" lon="4.9539">
        <ele>463</ele>
        <time>2015-04-19T10:03:19.416Z</time>
      </trkpt>
      <trkpt lat="47.27051" lon="4.95388">
        <ele>463</ele>
        <time>2015-04-19T10:03:20.468Z</time>
      </trkpt>
      <trkpt lat="47.27058" lon="4.9538">
        <ele>463</ele>
        <time>2015-04-19T10:03:24.442Z</time>
      </trkpt>
      <trkpt lat="47.27059" lon="4.95378">
        <ele>463</ele>
        <time>2015-04-19T10:03:25.452Z</time>
      </trkpt>
      <trkpt lat="47.27065" lon="4.95371">
        <ele>463</ele>
        <time>2015-04-19T10:03:29.457Z</time>
      </trkpt>
      <trkpt lat="47.27067" lon="4.95369">
        <ele>463</ele>
        <time>2015-04-19T10:03:30.429Z</time>
      </trkpt>
      <trkpt lat="47.27073" lon="4.95361">
        <ele>463</ele>
        <time>2015-04-19T10:03:34.441Z</time>
      </trkpt>
      <trkpt lat="47.27074" lon="4.95359">
        <ele>463</ele>
        <time>2015-04-19T10:03:35.442Z</time>
      </trkpt>
      <trkpt lat="47.2708" lon="4.95352">
        <ele>463</ele>
        <time>2015-04-19T10:03:39.443Z</time>
      </trkpt>
      <trkpt lat="47.27081" lon="4.95351">
        <ele>464</ele>
        <time>2015-04-19T10:03:40.444Z</time>
      </trkpt>
      <trkpt lat="47.27088" lon="4.95344">
        <ele>464</ele>
        <time>2015-04-19T10:03:45.449Z</time>
      </trkpt>
      <trkpt lat="47.27089" lon="4.95342">
        <ele>464</ele>
        <time>2015-04-19T10:03:46.419Z</time>
      </trkpt>
      <trkpt lat="47.27094" lon="4.95332">
        <ele>464</ele>
        <time>2015-04-19T10:03:51.442Z</time>
      </trkpt>
      <trkpt lat="47.27095" lon="4.9533">
        <ele>465</ele>
        <time>2015-04-19T10:03:52.430Z</time>
      </trkpt>
      <trkpt lat="47.27101" lon="4.95323">
        <ele>465</ele>
        <time>2015-04-19T10:03:56.458Z</time>
      </trkpt>
      <trkpt lat="47.27102" lon="4.95321">
        <ele>465</ele>
        <time>2015-04-19T10:03:57.444Z</time>
      </trkpt>
      <trkpt lat="47.27109" lon="4.95316">
        <ele>465</ele>
        <time>2015-04-19T10:04:01.441Z</time>
      </trkpt>
      <trkpt lat="47.2711" lon="4.95314">
        <ele>465</ele>
        <time>2015-04-19T10:04:02.450Z</time>
      </trkpt>
      <trkpt lat="47.27118" lon="4.95309">
        <ele>465</ele>
        <time>2015-04-19T10:04:08.443Z</time>
      </trkpt>
      <trkpt lat="47.27119" lon="4.95308">
        <ele>465</ele>
        <time>2015-04-19T10:04:09.439Z</time>
      </trkpt>
      <trkpt lat="47.27126" lon="4.95301">
        <ele>465</ele>
        <time>2015-04-19T10:04:14.446Z</time>
      </trkpt>
      <trkpt lat="47.27127" lon="4.953">
        <ele>465</ele>
        <time>2015-04-19T10:04:15.448Z</time>
      </trkpt>
      <trkpt lat="47.27134" lon="4.95292">
        <ele>465</ele>
        <time>2015-04-19T10:04:21.419Z</time>
      </trkpt>
      <trkpt lat="47.27135" lon="4.95291">
        <ele>466</ele>
        <time>2015-04-19T10:04:22.431Z</time>
      </trkpt>
      <trkpt lat="47.27142" lon="4.95284">
        <ele>466</ele>
        <time>2015-04-19T10:04:28.444Z</time>
      </trkpt>
      <trkpt lat="47.27144" lon="4.95282">
        <ele>466</ele>
        <time>2015-04-19T10:04:29.445Z</time>
      </trkpt>
      <trkpt lat="47.27151" lon="4.95276">
        <ele>466</ele>
        <time>2015-04-19T10:04:36.452Z</time>
      </trkpt>
      <trkpt lat="47.27153" lon="4.95274">
        <ele>466</ele>
        <time>2015-04-19T10:04:37.443Z</time>
      </trkpt>
      <trkpt lat="47.27158" lon="4.95265">
        <ele>466</ele>
        <time>2015-04-19T10:04:42.423Z</time>
      </trkpt>
      <trkpt lat="47.2716" lon="4.95264">
        <ele>466</ele>
        <time>2015-04-19T10:04:43.434Z</time>
      </trkpt>
      <trkpt lat="47.27167" lon="4.95256">
        <ele>467</ele>
        <time>2015-04-19T10:04:48.418Z</time>
      </trkpt>
      <trkpt lat="47.27168" lon="4.95254">
        <ele>467</ele>
        <time>2015-04-19T10:04:49.441Z</time>
      </trkpt>
      <trkpt lat="47.27173" lon="4.95244">
        <ele>466</ele>
        <time>2015-04-19T10:04:56.449Z</time>
      </trkpt>
      <trkpt lat="47.27174" lon="4.95243">
        <ele>466</ele>
        <time>2015-04-19T10:04:57.449Z</time>
      </trkpt>
      <trkpt lat="47.27181" lon="4.95236">
        <ele>465</ele>
        <time>2015-04-19T10:05:03.439Z</time>
      </trkpt>
      <trkpt lat="47.27182" lon="4.95235">
        <ele>465</ele>
        <time>2015-04-19T10:05:04.442Z</time>
      </trkpt>
      <trkpt lat="47.27189" lon="4.95228">
        <ele>464</ele>
        <time>2015-04-19T10:05:10.441Z</time>
      </trkpt>
      <trkpt lat="47.2719" lon="4.95227">
        <ele>464</ele>
        <time>2015-04-19T10:05:11.435Z</time>
      </trkpt>
      <trkpt lat="47.27196" lon="4.95219">
        <ele>464</ele>
        <time>2015-04-19T10:05:17.433Z</time>
      </trkpt>
      <trkpt lat="47.27198" lon="4.95217">
        <ele>464</ele>
        <time>2015-04-19T10:05:18.444Z</time>
      </trkpt>
      <trkpt lat="47.27206" lon="4.95212">
        <ele>464</ele>
        <time>2015-04-19T10:05:22.442Z</time>
      </trkpt>
      <trkpt lat="47.27208" lon="4.95211">
        <ele>464</ele>
        <time>2015-04-19T10:05:23.460Z</time>
      </trkpt>
      <trkpt lat="47.27215" lon="4.95207">
        <ele>463</ele>
        <time>2015-04-19T10:05:28.455Z</time>
      </trkpt>
      <trkpt lat="47.27217" lon="4.95206">
        <ele>463</ele>
        <time>2015-04-19T10:05:29.449Z</time>
      </trkpt>
      <trkpt lat="47.27224" lon="4.95202">
        <ele>463</ele>
        <time>2015-04-19T10:05:35.435Z</time>
      </trkpt>
      <trkpt lat="47.27226" lon="4.95202">
        <ele>463</ele>
        <time>2015-04-19T10:05:36.449Z</time>
      </trkpt>
      <trkpt lat="47.27233" lon="4.95197">
        <ele>463</ele>
        <time>2015-04-19T10:05:40.421Z</time>
      </trkpt>
      <trkpt lat="47.27235" lon="4.95196">
        <ele>463</ele>
        <time>2015-04-19T10:05:41.421Z</time>
      </trkpt>
      <trkpt lat="47.27242" lon="4.9519">
        <ele>463</ele>
        <time>2015-04-19T10:05:45.443Z</time>
      </trkpt>
      <trkpt lat="47.27243" lon="4.95188">
        <ele>462</ele>
        <time>2015-04-19T10:05:46.450Z</time>
      </trkpt>
      <trkpt lat="47.2725" lon="4.95184">
        <ele>461</ele>
        <time>2015-04-19T10:05:50.446Z</time>
      </trkpt>
      <trkpt lat="47.27252" lon="4.95183">
        <ele>461</ele>
        <time>2015-04-19T10:05:51.441Z</time>
      </trkpt>
      <trkpt lat="47.27259" lon="4.95185">
        <ele>460</ele>
        <time>2015-04-19T10:05:56.423Z</time>
      </trkpt>
      <trkpt lat="47.27261" lon="4.95187">
        <ele>460</ele>
        <time>2015-04-19T10:05:57.430Z</time>
      </trkpt>
      <trkpt lat="47.27267" lon="4.95195">
        <ele>460</ele>
        <time>2015-04-19T10:06:01.432Z</time>
      </trkpt>
      <trkpt lat="47.27268" lon="4.95197">
        <ele>460</ele>
        <time>2015-04-19T10:06:02.437Z</time>
      </trkpt>
      <trkpt lat="47.27275" lon="4.95204">
        <ele>460</ele>
        <time>2015-04-19T10:06:07.436Z</time>
      </trkpt>
      <trkpt lat="47.27276" lon="4.95206">
        <ele>460</ele>
        <time>2015-04-19T10:06:08.449Z</time>
      </trkpt>
      <trkpt lat="47.27282" lon="4.95215">
        <ele>460</ele>
        <time>2015-04-19T10:06:13.427Z</time>
      </trkpt>
      <trkpt lat="47.27283" lon="4.95217">
        <ele>460</ele>
        <time>2015-04-19T10:06:14.444Z</time>
      </trkpt>
      <trkpt lat="47.27289" lon="4.95224">
        <ele>460</ele>
        <time>2015-04-19T10:06:18.442Z</time>
      </trkpt>
      <trkpt lat="47.27291" lon="4.95225">
        <ele>460</ele>
        <time>2015-04-19T10:06:19.448Z</time>
      </trkpt>
      <trkpt lat="47.27297" lon="4.95231">
        <ele>459</ele>
        <time>2015-04-19T10:06:23.432Z</time>
      </trkpt>
      <trkpt lat="47.27299" lon="4.95232">
        <ele>459</ele>
        <time>2015-04-19T10:06:24.434Z</time>
      </trkpt>
      <trkpt lat="47.27304" lon="4.95242">
        <ele>459</ele>
        <time>2015-04-19T10:06:29.436Z</time>
      </trkpt>
      <trkpt lat="47.27305" lon="4.95244">
        <ele>459</ele>
        <time>2015-04-19T10:06:30.440Z</time>
      </trkpt>
      <trkpt lat="47.27311" lon="4.95254">
        <ele>459</ele>
        <time>2015-04-19T10:06:35.441Z</time>
      </trkpt>
      <trkpt lat="47.27312" lon="4.95256">
        <ele>459</ele>
        <time>2015-04-19T10:06:36.438Z</time>
      </trkpt>
      <trkpt lat="47.27317" lon="4.95265">
        <ele>459</ele>
        <time>2015-04-19T10:06:41.457Z</time>
      </trkpt>
      <trkpt lat="47.27318" lon="4.95267">
        <ele>459</ele>
        <time>2015-04-19T10:06:42.433Z</time>
      </trkpt>
      <trkpt lat="47.27324" lon="4.95276">
        <ele>459</ele>
        <time>2015-04-19T10:06:47.444Z</time>
      </trkpt>
      <trkpt lat="47.27325" lon="4.95278">
        <ele>459</ele>
        <time>2015-04-19T10:06:48.451Z</time>
      </trkpt>
      <trkpt lat="47.27329" lon="4.95287">
        <ele>460</ele>
        <time>2015-04-19T10:06:52.433Z</time>
      </trkpt>
      <trkpt lat="47.2733" lon="4.95289">
        <ele>460</ele>
        <time>2015-04-19T10:06:53.443Z</time>
      </trkpt>
      <trkpt lat="47.27334" lon="4.95298">
        <ele>456</ele>
        <time>2015-04-19T10:06:57.443Z</time>
      </trkpt>
      <trkpt lat="47.27335" lon="4.953">
        <ele>456</ele>
        <time>2015-04-19T10:06:58.445Z</time>
      </trkpt>
      <trkpt lat="47.2734" lon="4.95311">
        <ele>456</ele>
        <time>2015-04-19T10:07:03.437Z</time>
      </trkpt>
      <trkpt lat="47.2734" lon="4.95314">
        <ele>456</ele>
        <time>2015-04-19T10:07:04.411Z</time>
      </trkpt>
      <trkpt lat="47.27345" lon="4.95325">
        <ele>457</ele>
        <time>2015-04-19T10:07:09.432Z</time>
      </trkpt>
      <trkpt lat="47.27346" lon="4.95327">
        <ele>457</ele>
        <time>2015-04-19T10:07:10.405Z</time>
      </trkpt>
      <trkpt lat="47.27352" lon="4.95335">
        <ele>458</ele>
        <time>2015-04-19T10:07:15.443Z</time>
      </trkpt>
      <trkpt lat="47.27353" lon="4.95337">
        <ele>458</ele>
        <time>2015-04-19T10:07:16.428Z</time>
      </trkpt>
      <trkpt lat="47.2736" lon="4.95328">
        <ele>456</ele>
        <time>2015-04-19T10:07:28.421Z</time>
      </trkpt>
      <trkpt lat="47.2736" lon="4.95328">
        <ele>456</ele>
        <time>2015-04-19T10:07:29.433Z</time>
      </trkpt>
      <trkpt lat="47.27367" lon="4.9532">
        <ele>455</ele>
        <time>2015-04-19T10:07:37.426Z</time>
      </trkpt>
      <trkpt lat="47.27368" lon="4.95319">
        <ele>455</ele>
        <time>2015-04-19T10:07:38.435Z</time>
      </trkpt>
      <trkpt lat="47.27375" lon="4.95312">
        <ele>454</ele>
        <time>2015-04-19T10:07:45.426Z</time>
      </trkpt>
      <trkpt lat="47.27375" lon="4.95311">
        <ele>454</ele>
        <time>2015-04-19T10:07:46.417Z</time>
      </trkpt>
      <trkpt lat="47.27383" lon="4.95305">
        <ele>454</ele>
        <time>2015-04-19T10:07:54.428Z</time>
      </trkpt>
      <trkpt lat="47.27384" lon="4.95305">
        <ele>454</ele>
        <time>2015-04-19T10:07:55.414Z</time>
      </trkpt>
      <trkpt lat="47.27392" lon="4.95308">
        <ele>454</ele>
        <time>2015-04-19T10:08:01.419Z</time>
      </trkpt>
      <trkpt lat="47.27393" lon="4.95309">
        <ele>453</ele>
        <time>2015-04-19T10:08:02.437Z</time>
      </trkpt>
      <trkpt lat="47.274" lon="4.95316">
        <ele>453</ele>
        <time>2015-04-19T10:08:07.444Z</time>
      </trkpt>
      <trkpt lat="47.27401" lon="4.95317">
        <ele>453</ele>
        <time>2015-04-19T10:08:08.471Z</time>
      </trkpt>
      <trkpt lat="47.2741" lon="4.9532">
        <ele>453</ele>
        <time>2015-04-19T10:08:14.448Z</time>
      </trkpt>
      <trkpt lat="47.27411" lon="4.9532">
        <ele>453</ele>
        <time>2015-04-19T10:08:15.433Z</time>
      </trkpt>
      <trkpt lat="47.27419" lon="4.95323">
        <ele>450</ele>
        <time>2015-04-19T10:08:21.444Z</time>
      </trkpt>
      <trkpt lat="47.2742" lon="4.95324">
        <ele>450</ele>
        <time>2015-04-19T10:08:22.436Z</time>
      </trkpt>
      <trkpt lat="47.27428" lon="4.95321">
        <ele>449</ele>
        <time>2015-04-19T10:08:29.425Z</time>
      </trkpt>
      <trkpt lat="47.2743" lon="4.95321">
        <ele>449</ele>
        <time>2015-04-19T10:08:30.430Z</time>
      </trkpt>
      <trkpt lat="47.27437" lon="4.95324">
        <ele>448</ele>
        <time>2015-04-19T10:08:37.439Z</time>
      </trkpt>
      <trkpt lat="47.27439" lon="4.95324">
        <ele>448</ele>
        <time>2015-04-19T10:08:38.433Z</time>
      </trkpt>
      <trkpt lat="47.27447" lon="4.95324">
        <ele>448</ele>
        <time>2015-04-19T10:08:45.407Z</time>
      </trkpt>
      <trkpt lat="47.27448" lon="4.95324">
        <ele>447</ele>
        <time>2015-04-19T10:08:46.428Z</time>
      </trkpt>
      <trkpt lat="47.27456" lon="4.95325">
        <ele>447</ele>
        <time>2015-04-19T10:08:52.449Z</time>
      </trkpt>
      <trkpt lat="47.27457" lon="4.95325">
        <ele>447</ele>
        <time>2015-04-19T10:08:53.445Z</time>
      </trkpt>
      <trkpt lat="47.27465" lon="4.95329">
        <ele>446</ele>
        <time>2015-04-19T10:08:59.444Z</time>
      </trkpt>
      <trkpt lat="47.27466" lon="4.9533">
        <ele>446</ele>
        <time>2015-04-19T10:09:00.431Z</time>
      </trkpt>
      <trkpt lat="47.27473" lon="4.95335">
        <ele>449</ele>
        <time>2015-04-19T10:09:05.424Z</time>
      </trkpt>
      <trkpt lat="47.27474" lon="4.95336">
        <ele>449</ele>
        <time>2015-04-19T10:09:06.424Z</time>
      </trkpt>
      <trkpt lat="47.27482" lon="4.95342">
        <ele>449</ele>
        <time>2015-04-19T10:09:10.450Z</time>
      </trkpt>
      <trkpt lat="47.27484" lon="4.95344">
        <ele>448</ele>
        <time>2015-04-19T10:09:11.434Z</time>
      </trkpt>
      <trkpt lat="47.2749" lon="4.9535">
        <ele>448</ele>
        <time>2015-04-19T10:09:15.422Z</time>
      </trkpt>
      <trkpt lat="47.27492" lon="4.95352">
        <ele>449</ele>
        <time>2015-04-19T10:09:16.411Z</time>
      </trkpt>
      <trkpt lat="47.27499" lon="4.95359">
        <ele>449</ele>
        <time>2015-04-19T10:09:20.421Z</time>
      </trkpt>
      <trkpt lat="47.27501" lon="4.9536">
        <ele>442</ele>
        <time>2015-04-19T10:09:21.432Z</time>
      </trkpt>
      <trkpt lat="47.27508" lon="4.95364">
        <ele>442</ele>
        <time>2015-04-19T10:09:25.431Z</time>
      </trkpt>
      <trkpt lat="47.27509" lon="4.95366">
        <ele>442</ele>
        <time>2015-04-19T10:09:26.445Z</time>
      </trkpt>
      <trkpt lat="47.27515" lon="4.95373">
        <ele>442</ele>
        <time>2015-04-19T10:09:30.439Z</time>
      </trkpt>
      <trkpt lat="47.27516" lon="4.95375">
        <ele>442</ele>
        <time>2015-04-19T10:09:31.431Z</time>
      </trkpt>
      <trkpt lat="47.2752" lon="4.95385">
        <ele>442</ele>
        <time>2015-04-19T10:09:38.448Z</time>
      </trkpt>
      <trkpt lat="47.2752" lon="4.95387">
        <ele>443</ele>
        <time>2015-04-19T10:09:39.425Z</time>
      </trkpt>
      <trkpt lat="47.27525" lon="4.95396">
        <ele>443</ele>
        <time>2015-04-19T10:09:44.462Z</time>
      </trkpt>
      <trkpt lat="47.27526" lon="4.95398">
        <ele>443</ele>
        <time>2015-04-19T10:09:45.455Z</time>
      </trkpt>
      <trkpt lat="47.2753" lon="4.95408">
        <ele>443</ele>
        <time>2015-04-19T10:09:53.450Z</time>
      </trkpt>
      <trkpt lat="47.27531" lon="4.95409">
        <ele>443</ele>
        <time>2015-04-19T10:09:54.439Z</time>
      </trkpt>
      <trkpt lat="47.27537" lon="4.95416">
        <ele>442</ele>
        <time>2015-04-19T10:09:59.437Z</time>
      </trkpt>
      <trkpt lat="47.27539" lon="4.95417">
        <ele>447</ele>
        <time>2015-04-19T10:10:00.436Z</time>
      </trkpt>
      <trkpt lat="47.27544" lon="4.95426">
        <ele>446</ele>
        <time>2015-04-19T10:10:05.435Z</time>
      </trkpt>
      <trkpt lat="47.27545" lon="4.95428">
        <ele>446</ele>
        <time>2015-04-19T10:10:06.445Z</time>
      </trkpt>
      <trkpt lat="47.27551" lon="4.95436">
        <ele>446</ele>
        <time>2015-04-19T10:10:09.648Z</time>
      </trkpt>
      <trkpt lat="47.27553" lon="4.95439">
        <ele>446</ele>
        <time>2015-04-19T10:10:10.439Z</time>
      </trkpt>
      <trkpt lat="47.27558" lon="4.9545">
        <ele>446</ele>
        <time>2015-04-19T10:10:13.422Z</time>
      </trkpt>
      <trkpt lat="47.27559" lon="4.95453">
        <ele>446</ele>
        <time>2015-04-19T10:10:14.447Z</time>
      </trkpt>
      <trkpt lat="47.27564" lon="4.95462">
        <ele>447</ele>
        <time>2015-04-19T10:10:18.447Z</time>
      </trkpt>
      <trkpt lat="47.27565" lon="4.95463">
        <ele>447</ele>
        <time>2015-04-19T10:10:19.434Z</time>
      </trkpt>
      <trkpt lat="47.27571" lon="4.95471">
        <ele>447</ele>
        <time>2015-04-19T10:10:24.417Z</time>
      </trkpt>
      <trkpt lat="47.27572" lon="4.95473">
        <ele>447</ele>
        <time>2015-04-19T10:10:25.435Z</time>
      </trkpt>
      <trkpt lat="47.27579" lon="4.95478">
        <ele>448</ele>
        <time>2015-04-19T10:10:30.456Z</time>
      </trkpt>
      <trkpt lat="47.27581" lon="4.95479">
        <ele>448</ele>
        <time>2015-04-19T10:10:31.441Z</time>
      </trkpt>
      <trkpt lat="47.27587" lon="4.95488">
        <ele>441</ele>
        <time>2015-04-19T10:10:37.435Z</time>
      </trkpt>
      <trkpt lat="47.27588" lon="4.9549">
        <ele>442</ele>
        <time>2015-04-19T10:10:38.449Z</time>
      </trkpt>
      <trkpt lat="47.27596" lon="4.95497">
        <ele>441</ele>
        <time>2015-04-19T10:10:44.447Z</time>
      </trkpt>
      <trkpt lat="47.27597" lon="4.95498">
        <ele>441</ele>
        <time>2015-04-19T10:10:45.435Z</time>
      </trkpt>
      <trkpt lat="47.27604" lon="4.95506">
        <ele>443</ele>
        <time>2015-04-19T10:10:51.456Z</time>
      </trkpt>
      <trkpt lat="47.27605" lon="4.95507">
        <ele>443</ele>
        <time>2015-04-19T10:10:52.455Z</time>
      </trkpt>
      <trkpt lat="47.27612" lon="4.95516">
        <ele>442</ele>
        <time>2015-04-19T10:10:57.416Z</time>
      </trkpt>
      <trkpt lat="47.27613" lon="4.95519">
        <ele>441</ele>
        <time>2015-04-19T10:10:58.450Z</time>
      </trkpt>
      <trkpt lat="47.27618" lon="4.95528">
        <ele>441</ele>
        <time>2015-04-19T10:11:01.437Z</time>
      </trkpt>
      <trkpt lat="47.27619" lon="4.9553">
        <ele>441</ele>
        <time>2015-04-19T10:11:02.444Z</time>
      </trkpt>
      <trkpt lat="47.27622" lon="4.9554">
        <ele>441</ele>
        <time>2015-04-19T10:11:06.442Z</time>
      </trkpt>
      <trkpt lat="47.27623" lon="4.95542">
        <ele>441</ele>
        <time>2015-04-19T10:11:07.447Z</time>
      </trkpt>
      <trkpt lat="47.27626" lon="4.95552">
        <ele>441</ele>
        <time>2015-04-19T10:11:12.424Z</time>
      </trkpt>
      <trkpt lat="47.27627" lon="4.95555">
        <ele>441</ele>
        <time>2015-04-19T10:11:13.446Z</time>
      </trkpt>
      <trkpt lat="47.27634" lon="4.95563">
        <ele>441</ele>
        <time>2015-04-19T10:11:18.447Z</time>
      </trkpt>
      <trkpt lat="47.27636" lon="4.95565">
        <ele>441</ele>
        <time>2015-04-19T10:11:19.420Z</time>
      </trkpt>
      <trkpt lat="47.27642" lon="4.95574">
        <ele>441</ele>
        <time>2015-04-19T10:11:24.458Z</time>
      </trkpt>
      <trkpt lat="47.27643" lon="4.95575">
        <ele>441</ele>
        <time>2015-04-19T10:11:25.437Z</time>
      </trkpt>
      <trkpt lat="47.27649" lon="4.95582">
        <ele>441</ele>
        <time>2015-04-19T10:11:29.456Z</time>
      </trkpt>
      <trkpt lat="47.27651" lon="4.95583">
        <ele>441</ele>
        <time>2015-04-19T10:11:30.428Z</time>
      </trkpt>
      <trkpt lat="47.27657" lon="4.95593">
        <ele>444</ele>
        <time>2015-04-19T10:11:35.437Z</time>
      </trkpt>
      <trkpt lat="47.27658" lon="4.95595">
        <ele>444</ele>
        <time>2015-04-19T10:11:36.462Z</time>
      </trkpt>
      <trkpt lat="47.27663" lon="4.95601">
        <ele>445</ele>
        <time>2015-04-19T10:11:40.454Z</time>
      </trkpt>
      <trkpt lat="47.27665" lon="4.95602">
        <ele>445</ele>
        <time>2015-04-19T10:11:41.466Z</time>
      </trkpt>
      <trkpt lat="47.2767" lon="4.95611">
        <ele>435</ele>
        <time>2015-04-19T10:11:46.447Z</time>
      </trkpt>
      <trkpt lat="47.27671" lon="4.95613">
        <ele>434</ele>
        <time>2015-04-19T10:11:47.446Z</time>
      </trkpt>
      <trkpt lat="47.27672" lon="4.95624">
        <ele>435</ele>
        <time>2015-04-19T10:11:53.439Z</time>
      </trkpt>
      <trkpt lat="47.27673" lon="4.95626">
        <ele>435</ele>
        <time>2015-04-19T10:11:54.452Z</time>
      </trkpt>
      <trkpt lat="47.27679" lon="4.95634">
        <ele>435</ele>
        <time>2015-04-19T10:11:58.447Z</time>
      </trkpt>
      <trkpt lat="47.27681" lon="4.95636">
        <ele>435</ele>
        <time>2015-04-19T10:11:59.452Z</time>
      </trkpt>
      <trkpt lat="47.27687" lon="4.95642">
        <ele>435</ele>
        <time>2015-04-19T10:12:02.442Z</time>
      </trkpt>
      <trkpt lat="47.27689" lon="4.95644">
        <ele>435</ele>
        <time>2015-04-19T10:12:03.447Z</time>
      </trkpt>
      <trkpt lat="47.27693" lon="4.95655">
        <ele>436</ele>
        <time>2015-04-19T10:12:07.445Z</time>
      </trkpt>
      <trkpt lat="47.27693" lon="4.95658">
        <ele>436</ele>
        <time>2015-04-19T10:12:08.449Z</time>
      </trkpt>
      <trkpt lat="47.27698" lon="4.95667">
        <ele>444</ele>
        <time>2015-04-19T10:12:12.461Z</time>
      </trkpt>
      <trkpt lat="47.27699" lon="4.95669">
        <ele>444</ele>
        <time>2015-04-19T10:12:13.415Z</time>
      </trkpt>
      <trkpt lat="47.27703" lon="4.95678">
        <ele>443</ele>
        <time>2015-04-19T10:12:17.430Z</time>
      </trkpt>
      <trkpt lat="47.27703" lon="4.95681">
        <ele>443</ele>
        <time>2015-04-19T10:12:18.436Z</time>
      </trkpt>
      <trkpt lat="47.27707" lon="4.95691">
        <ele>443</ele>
        <time>2015-04-19T10:12:24.479Z</time>
      </trkpt>
      <trkpt lat="47.27709" lon="4.95692">
        <ele>443</ele>
        <time>2015-04-19T10:12:25.452Z</time>
      </trkpt>
      <trkpt lat="47.27715" lon="4.95698">
        <ele>443</ele>
        <time>2015-04-19T10:12:29.441Z</time>
      </trkpt>
      <trkpt lat="47.27716" lon="4.957">
        <ele>443</ele>
        <time>2015-04-19T10:12:30.440Z</time>
      </trkpt>
      <trkpt lat="47.27722" lon="4.9571">
        <ele>443</ele>
        <time>2015-04-19T10:12:35.415Z</time>
      </trkpt>
      <trkpt lat="47.27724" lon="4.95712">
        <ele>443</ele>
        <time>2015-04-19T10:12:36.467Z</time>
      </trkpt>
      <trkpt lat="47.27729" lon="4.95722">
        <ele>444</ele>
        <time>2015-04-19T10:12:41.444Z</time>
      </trkpt>
      <trkpt lat="47.2773" lon="4.95723">
        <ele>444</ele>
        <time>2015-04-19T10:12:42.437Z</time>
      </trkpt>
      <trkpt lat="47.27736" lon="4.9573">
        <ele>444</ele>
        <time>2015-04-19T10:12:46.431Z</time>
      </trkpt>
      <trkpt lat="47.27737" lon="4.95732">
        <ele>444</ele>
        <time>2015-04-19T10:12:47.452Z</time>
      </trkpt>
      <trkpt lat="47.27746" lon="4.95729">
        <ele>444</ele>
        <time>2015-04-19T10:12:57.430Z</time>
      </trkpt>
      <trkpt lat="47.27746" lon="4.95728">
        <ele>444</ele>
        <time>2015-04-19T10:12:58.449Z</time>
      </trkpt>
      <trkpt lat="47.27747" lon="4.95716">
        <ele>442</ele>
        <time>2015-04-19T10:13:08.462Z</time>
      </trkpt>
      <trkpt lat="47.27747" lon="4.95714">
        <ele>442</ele>
        <time>2015-04-19T10:13:09.450Z</time>
      </trkpt>
      <trkpt lat="47.27752" lon="4.95705">
        <ele>428</ele>
        <time>2015-04-19T10:13:16.438Z</time>
      </trkpt>
      <trkpt lat="47.27753" lon="4.95703">
        <ele>427</ele>
        <time>2015-04-19T10:13:17.447Z</time>
      </trkpt>
      <trkpt lat="47.27761" lon="4.95705">
        <ele>427</ele>
        <time>2015-04-19T10:13:26.441Z</time>
      </trkpt>
      <trkpt lat="47.27761" lon="4.95707">
        <ele>427</ele>
        <time>2015-04-19T10:13:27.443Z</time>
      </trkpt>
      <trkpt lat="47.27768" lon="4.95714">
        <ele>428</ele>
        <time>2015-04-19T10:13:35.465Z</time>
      </trkpt>
      <trkpt lat="47.27769" lon="4.95716">
        <ele>428</ele>
        <time>2015-04-19T10:13:36.435Z</time>
      </trkpt>
      <trkpt lat="47.27775" lon="4.95723">
        <ele>428</ele>
        <time>2015-04-19T10:13:42.441Z</time>
      </trkpt>
      <trkpt lat="47.27776" lon="4.95724">
        <ele>428</ele>
        <time>2015-04-19T10:13:43.449Z</time>
      </trkpt>
      <trkpt lat="47.27782" lon="4.95731">
        <ele>428</ele>
        <time>2015-04-19T10:13:48.437Z</time>
      </trkpt>
      <trkpt lat="47.27783" lon="4.95732">
        <ele>427</ele>
        <time>2015-04-19T10:13:49.456Z</time>
      </trkpt>
      <trkpt lat="47.27788" lon="4.95742">
        <ele>427</ele>
        <time>2015-04-19T10:13:55.450Z</time>
      </trkpt>
      <trkpt lat="47.27789" lon="4.95743">
        <ele>427</ele>
        <time>2015-04-19T10:13:56.452Z</time>
      </trkpt>
      <trkpt lat="47.27795" lon="4.95751">
        <ele>436</ele>
        <time>2015-04-19T10:14:03.424Z</time>
      </trkpt>
      <trkpt lat="47.27797" lon="4.95751">
        <ele>436</ele>
        <time>2015-04-19T10:14:04.448Z</time>
      </trkpt>
      <trkpt lat="47.27804" lon="4.95757">
        <ele>434</ele>
        <time>2015-04-19T10:14:11.445Z</time>
      </trkpt>
      <trkpt lat="47.27805" lon="4.95758">
        <ele>434</ele>
        <time>2015-04-19T10:14:12.445Z</time>
      </trkpt>
      <trkpt lat="47.27813" lon="4.95765">
        <ele>433</ele>
        <time>2015-04-19T10:14:18.300Z</time>
      </trkpt>
      <trkpt lat="47.27813" lon="4.95767">
        <ele>433</ele>
        <time>2015-04-19T10:14:19.230Z</time>
      </trkpt>
      <trkpt lat="47.27817" lon="4.95776">
        <ele>434</ele>
        <time>2015-04-19T10:14:23.273Z</time>
      </trkpt>
      <trkpt lat="47.27819" lon="4.95778">
        <ele>434</ele>
        <time>2015-04-19T10:14:24.277Z</time>
      </trkpt>
      <trkpt lat="47.27825" lon="4.95786">
        <ele>435</ele>
        <time>2015-04-19T10:14:30.277Z</time>
      </trkpt>
      <trkpt lat="47.27826" lon="4.95786">
        <ele>435</ele>
        <time>2015-04-19T10:14:31.248Z</time>
      </trkpt>
      <trkpt lat="47.27834" lon="4.95793">
        <ele>421</ele>
        <time>2015-04-19T10:14:36.266Z</time>
      </trkpt>
      <trkpt lat="47.27835" lon="4.95795">
        <ele>421</ele>
        <time>2015-04-19T10:14:37.271Z</time>
      </trkpt>
      <trkpt lat="47.27841" lon="4.95805">
        <ele>422</ele>
        <time>2015-04-19T10:14:42.250Z</time>
      </trkpt>
      <trkpt lat="47.27841" lon="4.95806">
        <ele>423</ele>
        <time>2015-04-19T10:14:43.262Z</time>
      </trkpt>
      <trkpt lat="47.27844" lon="4.95818">
        <ele>426</ele>
        <time>2015-04-19T10:14:52.258Z</time>
      </trkpt>
      <trkpt lat="47.27845" lon="4.9582">
        <ele>426</ele>
        <time>2015-04-19T10:14:53.251Z</time>
      </trkpt>
      <trkpt lat="47.27848" lon="4.95831">
        <ele>427</ele>
        <time>2015-04-19T10:14:59.272Z</time>
      </trkpt>
      <trkpt lat="47.27849" lon="4.95834">
        <ele>433</ele>
        <time>2015-04-19T10:15:00.282Z</time>
      </trkpt>
      <trkpt lat="47.27852" lon="4.95844">
        <ele>432</ele>
        <time>2015-04-19T10:15:04.299Z</time>
      </trkpt>
      <trkpt lat="47.27853" lon="4.95846">
        <ele>431</ele>
        <time>2015-04-19T10:15:05.287Z</time>
      </trkpt>
      <trkpt lat="47.27858" lon="4.95855">
        <ele>430</ele>
        <time>2015-04-19T10:15:10.297Z</time>
      </trkpt>
      <trkpt lat="47.27859" lon="4.95857">
        <ele>430</ele>
        <time>2015-04-19T10:15:11.306Z</time>
      </trkpt>
      <trkpt lat="47.27864" lon="4.95868">
        <ele>429</ele>
        <time>2015-04-19T10:15:16.267Z</time>
      </trkpt>
      <trkpt lat="47.27865" lon="4.9587">
        <ele>429</ele>
        <time>2015-04-19T10:15:17.308Z</time>
      </trkpt>
      <trkpt lat="47.27871" lon="4.95879">
        <ele>429</ele>
        <time>2015-04-19T10:15:23.290Z</time>
      </trkpt>
      <trkpt lat="47.27871" lon="4.9588">
        <ele>429</ele>
        <time>2015-04-19T10:15:24.310Z</time>
      </trkpt>
      <trkpt lat="47.27875" lon="4.95891">
        <ele>429</ele>
        <time>2015-04-19T10:15:32.304Z</time>
      </trkpt>
      <trkpt lat="47.27876" lon="4.95893">
        <ele>429</ele>
        <time>2015-04-19T10:15:33.297Z</time>
      </trkpt>
      <trkpt lat="47.27881" lon="4.95904">
        <ele>429</ele>
        <time>2015-04-19T10:15:41.283Z</time>
      </trkpt>
      <trkpt lat="47.27881" lon="4.95905">
        <ele>429</ele>
        <time>2015-04-19T10:15:42.289Z</time>
      </trkpt>
      <trkpt lat="47.27887" lon="4.95913">
        <ele>428</ele>
        <time>2015-04-19T10:15:49.277Z</time>
      </trkpt>
      <trkpt lat="47.27889" lon="4.95914">
        <ele>428</ele>
        <time>2015-04-19T10:15:50.307Z</time>
      </trkpt>
      <trkpt lat="47.27895" lon="4.95921">
        <ele>432</ele>
        <time>2015-04-19T10:15:55.297Z</time>
      </trkpt>
      <trkpt lat="47.27896" lon="4.95923">
        <ele>432</ele>
        <time>2015-04-19T10:15:56.310Z</time>
      </trkpt>
      <trkpt lat="47.27903" lon="4.95932">
        <ele>432</ele>
        <time>2015-04-19T10:16:02.304Z</time>
      </trkpt>
      <trkpt lat="47.27904" lon="4.95933">
        <ele>432</ele>
        <time>2015-04-19T10:16:03.382Z</time>
      </trkpt>
      <trkpt lat="47.27911" lon="4.95937">
        <ele>432</ele>
        <time>2015-04-19T10:16:09.286Z</time>
      </trkpt>
      <trkpt lat="47.27912" lon="4.95938">
        <ele>432</ele>
        <time>2015-04-19T10:16:10.291Z</time>
      </trkpt>
      <trkpt lat="47.27918" lon="4.95947">
        <ele>419</ele>
        <time>2015-04-19T10:16:15.290Z</time>
      </trkpt>
      <trkpt lat="47.27919" lon="4.9595">
        <ele>419</ele>
        <time>2015-04-19T10:16:16.290Z</time>
      </trkpt>
      <trkpt lat="47.27922" lon="4.95961">
        <ele>419</ele>
        <time>2015-04-19T10:16:21.288Z</time>
      </trkpt>
      <trkpt lat="47.27923" lon="4.95964">
        <ele>419</ele>
        <time>2015-04-19T10:16:22.302Z</time>
      </trkpt>
      <trkpt lat="47.27929" lon="4.95974">
        <ele>420</ele>
        <time>2015-04-19T10:16:28.287Z</time>
      </trkpt>
      <trkpt lat="47.27929" lon="4.95976">
        <ele>420</ele>
        <time>2015-04-19T10:16:29.275Z</time>
      </trkpt>
      <trkpt lat="47.27932" lon="4.95986">
        <ele>422</ele>
        <time>2015-04-19T10:16:35.291Z</time>
      </trkpt>
      <trkpt lat="47.27933" lon="4.95988">
        <ele>422</ele>
        <time>2015-04-19T10:16:36.298Z</time>
      </trkpt>
      <trkpt lat="47.27936" lon="4.95998">
        <ele>422</ele>
        <time>2015-04-19T10:16:41.282Z</time>
      </trkpt>
      <trkpt lat="47.27937" lon="4.96">
        <ele>422</ele>
        <time>2015-04-19T10:16:42.290Z</time>
      </trkpt>
      <trkpt lat="47.2794" lon="4.96012">
        <ele>425</ele>
        <time>2015-04-19T10:16:47.290Z</time>
      </trkpt>
      <trkpt lat="47.27941" lon="4.96015">
        <ele>424</ele>
        <time>2015-04-19T10:16:48.295Z</time>
      </trkpt>
      <trkpt lat="47.27945" lon="4.96025">
        <ele>423</ele>
        <time>2015-04-19T10:16:53.289Z</time>
      </trkpt>
      <trkpt lat="47.27946" lon="4.96027">
        <ele>423</ele>
        <time>2015-04-19T10:16:54.337Z</time>
      </trkpt>
      <trkpt lat="47.2795" lon="4.96037">
        <ele>422</ele>
        <time>2015-04-19T10:17:00.267Z</time>
      </trkpt>
      <trkpt lat="47.27951" lon="4.96038">
        <ele>422</ele>
        <time>2015-04-19T10:17:01.284Z</time>
      </trkpt>
      <trkpt lat="47.27956" lon="4.96048">
        <ele>422</ele>
        <time>2015-04-19T10:17:08.298Z</time>
      </trkpt>
      <trkpt lat="47.27957" lon="4.9605">
        <ele>422</ele>
        <time>2015-04-19T10:17:09.292Z</time>
      </trkpt>
      <trkpt lat="47.27964" lon="4.96058">
        <ele>421</ele>
        <time>2015-04-19T10:17:16.294Z</time>
      </trkpt>
      <trkpt lat="47.27965" lon="4.96059">
        <ele>420</ele>
        <time>2015-04-19T10:17:17.309Z</time>
      </trkpt>
      <trkpt lat="47.27972" lon="4.96064">
        <ele>419</ele>
        <time>2015-04-19T10:17:23.291Z</time>
      </trkpt>
      <trkpt lat="47.27973" lon="4.96065">
        <ele>419</ele>
        <time>2015-04-19T10:17:24.302Z</time>
      </trkpt>
      <trkpt lat="47.27981" lon="4.96071">
        <ele>418</ele>
        <time>2015-04-19T10:17:29.292Z</time>
      </trkpt>
      <trkpt lat="47.27982" lon="4.96072">
        <ele>417</ele>
        <time>2015-04-19T10:17:30.291Z</time>
      </trkpt>
      <trkpt lat="47.27988" lon="4.96082">
        <ele>416</ele>
        <time>2015-04-19T10:17:37.294Z</time>
      </trkpt>
      <trkpt lat="47.27988" lon="4.96084">
        <ele>418</ele>
        <time>2015-04-19T10:17:38.289Z</time>
      </trkpt>
      <trkpt lat="47.27987" lon="4.96097">
        <ele>420</ele>
        <time>2015-04-19T10:17:46.305Z</time>
      </trkpt>
      <trkpt lat="47.27987" lon="4.96099">
        <ele>420</ele>
        <time>2015-04-19T10:17:47.291Z</time>
      </trkpt>
      <trkpt lat="47.27989" lon="4.9611">
        <ele>422</ele>
        <time>2015-04-19T10:17:55.289Z</time>
      </trkpt>
      <trkpt lat="47.2799" lon="4.96112">
        <ele>422</ele>
        <time>2015-04-19T10:17:56.308Z</time>
      </trkpt>
      <trkpt lat="47.27993" lon="4.96124">
        <ele>423</ele>
        <time>2015-04-19T10:18:03.291Z</time>
      </trkpt>
      <trkpt lat="47.27994" lon="4.96125">
        <ele>423</ele>
        <time>2015-04-19T10:18:04.276Z</time>
      </trkpt>
      <trkpt lat="47.27994" lon="4.96136">
        <ele>423</ele>
        <time>2015-04-19T10:18:11.299Z</time>
      </trkpt>
      <trkpt lat="47.27994" lon="4.96138">
        <ele>423</ele>
        <time>2015-04-19T10:18:12.283Z</time>
      </trkpt>
      <trkpt lat="47.27998" lon="4.96149">
        <ele>423</ele>
        <time>2015-04-19T10:18:20.316Z</time>
      </trkpt>
      <trkpt lat="47.27999" lon="4.9615">
        <ele>422</ele>
        <time>2015-04-19T10:18:21.291Z</time>
      </trkpt>
      <trkpt lat="47.27999" lon="4.96163">
        <ele>421</ele>
        <time>2015-04-19T10:18:30.285Z</time>
      </trkpt>
      <trkpt lat="47.27998" lon="4.96164">
        <ele>421</ele>
        <time>2015-04-19T10:18:31.291Z</time>
      </trkpt>
      <trkpt lat="47.27998" lon="4.96164">
        <ele>421</ele>
        <time>2015-04-19T10:18:34.290Z</time>
      </trkpt>
      <trkpt lat="47.27998" lon="4.96164">
        <ele>421</ele>
        <time>2015-04-19T10:18:35.284Z</time>
      </trkpt>
      <trkpt lat="47.27998" lon="4.96169">
        <ele>421</ele>
        <time>2015-04-19T10:18:36.269Z</time>
      </trkpt>
      <trkpt lat="47.27996" lon="4.9618">
        <ele>424</ele>
        <time>2015-04-19T10:18:44.302Z</time>
      </trkpt>
      <trkpt lat="47.27995" lon="4.96182">
        <ele>425</ele>
        <time>2015-04-19T10:18:45.285Z</time>
      </trkpt>
      <trkpt lat="47.27993" lon="4.96194">
        <ele>426</ele>
        <time>2015-04-19T10:18:54.286Z</time>
      </trkpt>
      <trkpt lat="47.27992" lon="4.96195">
        <ele>427</ele>
        <time>2015-04-19T10:18:55.289Z</time>
      </trkpt>
      <trkpt lat="47.2799" lon="4.96207">
        <ele>427</ele>
        <time>2015-04-19T10:19:02.292Z</time>
      </trkpt>
      <trkpt lat="47.27989" lon="4.96209">
        <ele>427</ele>
        <time>2015-04-19T10:19:03.280Z</time>
      </trkpt>
      <trkpt lat="47.27988" lon="4.96215">
        <ele>428</ele>
        <time>2015-04-19T10:19:06.289Z</time>
      </trkpt>
      <trkpt lat="47.27988" lon="4.96217">
        <ele>428</ele>
        <time>2015-04-19T10:19:07.272Z</time>
      </trkpt>
      <trkpt lat="47.27988" lon="4.96219">
        <ele>428</ele>
        <time>2015-04-19T10:19:08.311Z</time>
      </trkpt>
      <trkpt lat="47.27988" lon="4.96219">
        <ele>428</ele>
        <time>2015-04-19T10:19:09.285Z</time>
      </trkpt>
      <trkpt lat="47.27988" lon="4.96219">
        <ele>428</ele>
        <time>2015-04-19T10:19:10.354Z</time>
      </trkpt>
      <trkpt lat="47.27988" lon="4.96219">
        <ele>428</ele>
        <time>2015-04-19T10:19:12.286Z</time>
      </trkpt>
      <trkpt lat="47.27988" lon="4.96225">
        <ele>428</ele>
        <time>2015-04-19T10:19:13.281Z</time>
      </trkpt>
      <trkpt lat="47.27984" lon="4.96237">
        <ele>427</ele>
        <time>2015-04-19T10:19:17.298Z</time>
      </trkpt>
      <trkpt lat="47.27984" lon="4.9624">
        <ele>427</ele>
        <time>2015-04-19T10:19:18.281Z</time>
      </trkpt>
      <trkpt lat="47.27981" lon="4.96251">
        <ele>429</ele>
        <time>2015-04-19T10:19:23.292Z</time>
      </trkpt>
      <trkpt lat="47.27981" lon="4.96252">
        <ele>429</ele>
        <time>2015-04-19T10:19:24.293Z</time>
      </trkpt>
      <trkpt lat="47.27977" lon="4.96264">
        <ele>430</ele>
        <time>2015-04-19T10:19:29.267Z</time>
      </trkpt>
      <trkpt lat="47.27976" lon="4.96266">
        <ele>430</ele>
        <time>2015-04-19T10:19:30.292Z</time>
      </trkpt>
      <trkpt lat="47.27972" lon="4.96277">
        <ele>431</ele>
        <time>2015-04-19T10:19:35.277Z</time>
      </trkpt>
      <trkpt lat="47.27971" lon="4.96279">
        <ele>431</ele>
        <time>2015-04-19T10:19:36.273Z</time>
      </trkpt>
      <trkpt lat="47.27967" lon="4.96291">
        <ele>432</ele>
        <time>2015-04-19T10:19:41.346Z</time>
      </trkpt>
      <trkpt lat="47.27967" lon="4.96293">
        <ele>432</ele>
        <time>2015-04-19T10:19:42.295Z</time>
      </trkpt>
      <trkpt lat="47.27963" lon="4.96304">
        <ele>432</ele>
        <time>2015-04-19T10:19:47.288Z</time>
      </trkpt>
      <trkpt lat="47.27962" lon="4.96306">
        <ele>432</ele>
        <time>2015-04-19T10:19:48.269Z</time>
      </trkpt>
      <trkpt lat="47.27958" lon="4.96315">
        <ele>433</ele>
        <time>2015-04-19T10:19:52.267Z</time>
      </trkpt>
      <trkpt lat="47.27957" lon="4.96318">
        <ele>433</ele>
        <time>2015-04-19T10:19:53.288Z</time>
      </trkpt>
      <trkpt lat="47.27952" lon="4.96327">
        <ele>433</ele>
        <time>2015-04-19T10:19:58.270Z</time>
      </trkpt>
      <trkpt lat="47.27952" lon="4.96329">
        <ele>434</ele>
        <time>2015-04-19T10:19:59.286Z</time>
      </trkpt>
      <trkpt lat="47.27948" lon="4.96339">
        <ele>435</ele>
        <time>2015-04-19T10:20:07.262Z</time>
      </trkpt>
      <trkpt lat="47.27947" lon="4.96341">
        <ele>435</ele>
        <time>2015-04-19T10:20:08.278Z</time>
      </trkpt>
      <trkpt lat="47.27944" lon="4.96352">
        <ele>435</ele>
        <time>2015-04-19T10:20:15.280Z</time>
      </trkpt>
      <trkpt lat="47.27944" lon="4.96355">
        <ele>435</ele>
        <time>2015-04-19T10:20:16.354Z</time>
      </trkpt>
      <trkpt lat="47.27943" lon="4.96366">
        <ele>435</ele>
        <time>2015-04-19T10:20:20.280Z</time>
      </trkpt>
      <trkpt lat="47.27942" lon="4.96368">
        <ele>435</ele>
        <time>2015-04-19T10:20:21.300Z</time>
      </trkpt>
      <trkpt lat="47.27941" lon="4.9638">
        <ele>435</ele>
        <time>2015-04-19T10:20:28.269Z</time>
      </trkpt>
      <trkpt lat="47.27941" lon="4.9638">
        <ele>435</ele>
        <time>2015-04-19T10:20:29.271Z</time>
      </trkpt>
      <trkpt lat="47.2794" lon="4.96384">
        <ele>435</ele>
        <time>2015-04-19T10:20:30.272Z</time>
      </trkpt>
      <trkpt lat="47.2794" lon="4.96397">
        <ele>436</ele>
        <time>2015-04-19T10:20:35.260Z</time>
      </trkpt>
      <trkpt lat="47.27941" lon="4.96399">
        <ele>436</ele>
        <time>2015-04-19T10:20:36.260Z</time>
      </trkpt>
      <trkpt lat="47.27946" lon="4.96406">
        <ele>435</ele>
        <time>2015-04-19T10:20:40.262Z</time>
      </trkpt>
      <trkpt lat="47.27947" lon="4.96409">
        <ele>435</ele>
        <time>2015-04-19T10:20:41.298Z</time>
      </trkpt>
      <trkpt lat="47.27952" lon="4.96417">
        <ele>435</ele>
        <time>2015-04-19T10:20:46.260Z</time>
      </trkpt>
      <trkpt lat="47.27953" lon="4.96419">
        <ele>435</ele>
        <time>2015-04-19T10:20:47.321Z</time>
      </trkpt>
      <trkpt lat="47.27959" lon="4.96429">
        <ele>434</ele>
        <time>2015-04-19T10:20:52.268Z</time>
      </trkpt>
      <trkpt lat="47.2796" lon="4.9643">
        <ele>434</ele>
        <time>2015-04-19T10:20:53.295Z</time>
      </trkpt>
      <trkpt lat="47.27968" lon="4.96436">
        <ele>434</ele>
        <time>2015-04-19T10:20:59.272Z</time>
      </trkpt>
      <trkpt lat="47.27969" lon="4.96437">
        <ele>434</ele>
        <time>2015-04-19T10:21:00.275Z</time>
      </trkpt>
      <trkpt lat="47.27976" lon="4.96444">
        <ele>433</ele>
        <time>2015-04-19T10:21:05.260Z</time>
      </trkpt>
      <trkpt lat="47.27978" lon="4.96446">
        <ele>433</ele>
        <time>2015-04-19T10:21:06.286Z</time>
      </trkpt>
      <trkpt lat="47.27985" lon="4.96452">
        <ele>433</ele>
        <time>2015-04-19T10:21:11.262Z</time>
      </trkpt>
      <trkpt lat="47.27985" lon="4.96454">
        <ele>433</ele>
        <time>2015-04-19T10:21:12.279Z</time>
      </trkpt>
      <trkpt lat="47.27988" lon="4.96466">
        <ele>433</ele>
        <time>2015-04-19T10:21:18.265Z</time>
      </trkpt>
      <trkpt lat="47.27988" lon="4.96467">
        <ele>433</ele>
        <time>2015-04-19T10:21:19.295Z</time>
      </trkpt>
      <trkpt lat="47.27989" lon="4.96479">
        <ele>433</ele>
        <time>2015-04-19T10:21:23.285Z</time>
      </trkpt>
      <trkpt lat="47.27989" lon="4.96482">
        <ele>432</ele>
        <time>2015-04-19T10:21:24.291Z</time>
      </trkpt>
      <trkpt lat="47.2799" lon="4.96493">
        <ele>432</ele>
        <time>2015-04-19T10:21:28.291Z</time>
      </trkpt>
      <trkpt lat="47.2799" lon="4.96496">
        <ele>432</ele>
        <time>2015-04-19T10:21:29.289Z</time>
      </trkpt>
      <trkpt lat="47.27992" lon="4.96508">
        <ele>431</ele>
        <time>2015-04-19T10:21:34.283Z</time>
      </trkpt>
      <trkpt lat="47.27993" lon="4.9651">
        <ele>431</ele>
        <time>2015-04-19T10:21:35.281Z</time>
      </trkpt>
      <trkpt lat="47.27993" lon="4.96521">
        <ele>432</ele>
        <time>2015-04-19T10:21:39.280Z</time>
      </trkpt>
      <trkpt lat="47.27993" lon="4.96524">
        <ele>432</ele>
        <time>2015-04-19T10:21:40.283Z</time>
      </trkpt>
      <trkpt lat="47.27993" lon="4.96537">
        <ele>432</ele>
        <time>2015-04-19T10:21:45.259Z</time>
      </trkpt>
      <trkpt lat="47.27993" lon="4.96539">
        <ele>432</ele>
        <time>2015-04-19T10:21:46.256Z</time>
      </trkpt>
      <trkpt lat="47.27992" lon="4.9655">
        <ele>432</ele>
        <time>2015-04-19T10:21:50.294Z</time>
      </trkpt>
      <trkpt lat="47.27992" lon="4.96554">
        <ele>432</ele>
        <time>2015-04-19T10:21:51.275Z</time>
      </trkpt>
      <trkpt lat="47.27991" lon="4.96567">
        <ele>431</ele>
        <time>2015-04-19T10:21:55.288Z</time>
      </trkpt>
      <trkpt lat="47.2799" lon="4.9657">
        <ele>431</ele>
        <time>2015-04-19T10:21:56.292Z</time>
      </trkpt>
      <trkpt lat="47.2799" lon="4.9658">
        <ele>430</ele>
        <time>2015-04-19T10:21:59.292Z</time>
      </trkpt>
      <trkpt lat="47.2799" lon="4.96584">
        <ele>430</ele>
        <time>2015-04-19T10:22:00.251Z</time>
      </trkpt>
      <trkpt lat="47.27988" lon="4.96597">
        <ele>430</ele>
        <time>2015-04-19T10:22:03.282Z</time>
      </trkpt>
      <trkpt lat="47.27987" lon="4.96601">
        <ele>430</ele>
        <time>2015-04-19T10:22:04.274Z</time>
      </trkpt>
      <trkpt lat="47.27986" lon="4.96611">
        <ele>431</ele>
        <time>2015-04-19T10:22:07.282Z</time>
      </trkpt>
      <trkpt lat="47.27985" lon="4.96614">
        <ele>431</ele>
        <time>2015-04-19T10:22:08.291Z</time>
      </trkpt>
      <trkpt lat="47.27984" lon="4.96626">
        <ele>431</ele>
        <time>2015-04-19T10:22:13.270Z</time>
      </trkpt>
      <trkpt lat="47.27984" lon="4.96629">
        <ele>431</ele>
        <time>2015-04-19T10:22:14.292Z</time>
      </trkpt>
      <trkpt lat="47.27983" lon="4.96642">
        <ele>431</ele>
        <time>2015-04-19T10:22:19.292Z</time>
      </trkpt>
      <trkpt lat="47.27983" lon="4.96644">
        <ele>430</ele>
        <time>2015-04-19T10:22:20.309Z</time>
      </trkpt>
      <trkpt lat="47.27985" lon="4.96656">
        <ele>430</ele>
        <time>2015-04-19T10:22:24.267Z</time>
      </trkpt>
      <trkpt lat="47.27985" lon="4.9666">
        <ele>430</ele>
        <time>2015-04-19T10:22:25.311Z</time>
      </trkpt>
      <trkpt lat="47.27984" lon="4.96671">
        <ele>428</ele>
        <time>2015-04-19T10:22:29.293Z</time>
      </trkpt>
      <trkpt lat="47.27984" lon="4.96674">
        <ele>428</ele>
        <time>2015-04-19T10:22:30.284Z</time>
      </trkpt>
      <trkpt lat="47.27983" lon="4.96687">
        <ele>428</ele>
        <time>2015-04-19T10:22:34.286Z</time>
      </trkpt>
      <trkpt lat="47.27982" lon="4.96689">
        <ele>428</ele>
        <time>2015-04-19T10:22:35.279Z</time>
      </trkpt>
      <trkpt lat="47.2798" lon="4.96701">
        <ele>428</ele>
        <time>2015-04-19T10:22:39.284Z</time>
      </trkpt>
      <trkpt lat="47.2798" lon="4.96704">
        <ele>428</ele>
        <time>2015-04-19T10:22:40.288Z</time>
      </trkpt>
      <trkpt lat="47.2798" lon="4.96716">
        <ele>428</ele>
        <time>2015-04-19T10:22:45.296Z</time>
      </trkpt>
      <trkpt lat="47.27979" lon="4.96718">
        <ele>428</ele>
        <time>2015-04-19T10:22:46.265Z</time>
      </trkpt>
      <trkpt lat="47.27976" lon="4.96728">
        <ele>427</ele>
        <time>2015-04-19T10:22:50.308Z</time>
      </trkpt>
      <trkpt lat="47.27975" lon="4.9673">
        <ele>427</ele>
        <time>2015-04-19T10:22:51.293Z</time>
      </trkpt>
      <trkpt lat="47.27971" lon="4.96741">
        <ele>427</ele>
        <time>2015-04-19T10:22:55.292Z</time>
      </trkpt>
      <trkpt lat="47.2797" lon="4.96743">
        <ele>427</ele>
        <time>2015-04-19T10:22:56.295Z</time>
      </trkpt>
      <trkpt lat="47.27965" lon="4.96754">
        <ele>424</ele>
        <time>2015-04-19T10:23:00.258Z</time>
      </trkpt>
      <trkpt lat="47.27964" lon="4.96756">
        <ele>424</ele>
        <time>2015-04-19T10:23:01.284Z</time>
      </trkpt>
      <trkpt lat="47.27961" lon="4.96766">
        <ele>425</ele>
        <time>2015-04-19T10:23:05.283Z</time>
      </trkpt>
      <trkpt lat="47.27961" lon="4.96769">
        <ele>425</ele>
        <time>2015-04-19T10:23:06.284Z</time>
      </trkpt>
      <trkpt lat="47.27958" lon="4.9678">
        <ele>424</ele>
        <time>2015-04-19T10:23:10.284Z</time>
      </trkpt>
      <trkpt lat="47.27957" lon="4.96783">
        <ele>424</ele>
        <time>2015-04-19T10:23:11.285Z</time>
      </trkpt>
      <trkpt lat="47.27954" lon="4.96795">
        <ele>424</ele>
        <time>2015-04-19T10:23:15.306Z</time>
      </trkpt>
      <trkpt lat="47.27953" lon="4.96798">
        <ele>424</ele>
        <time>2015-04-19T10:23:16.294Z</time>
      </trkpt>
      <trkpt lat="47.27951" lon="4.96807">
        <ele>424</ele>
        <time>2015-04-19T10:23:19.299Z</time>
      </trkpt>
      <trkpt lat="47.2795" lon="4.96811">
        <ele>424</ele>
        <time>2015-04-19T10:23:20.294Z</time>
      </trkpt>
      <trkpt lat="47.27949" lon="4.96823">
        <ele>424</ele>
        <time>2015-04-19T10:23:24.312Z</time>
      </trkpt>
      <trkpt lat="47.27947" lon="4.96825">
        <ele>424</ele>
        <time>2015-04-19T10:23:25.289Z</time>
      </trkpt>
      <trkpt lat="47.27944" lon="4.96835">
        <ele>420</ele>
        <time>2015-04-19T10:23:30.275Z</time>
      </trkpt>
      <trkpt lat="47.27944" lon="4.96837">
        <ele>420</ele>
        <time>2015-04-19T10:23:31.287Z</time>
      </trkpt>
      <trkpt lat="47.27941" lon="4.96849">
        <ele>420</ele>
        <time>2015-04-19T10:23:35.278Z</time>
      </trkpt>
      <trkpt lat="47.27941" lon="4.96852">
        <ele>420</ele>
        <time>2015-04-19T10:23:36.284Z</time>
      </trkpt>
      <trkpt lat="47.27938" lon="4.96863">
        <ele>419</ele>
        <time>2015-04-19T10:23:40.285Z</time>
      </trkpt>
      <trkpt lat="47.27937" lon="4.96866">
        <ele>419</ele>
        <time>2015-04-19T10:23:41.313Z</time>
      </trkpt>
      <trkpt lat="47.27934" lon="4.96875">
        <ele>418</ele>
        <time>2015-04-19T10:23:44.307Z</time>
      </trkpt>
      <trkpt lat="47.27934" lon="4.96879">
        <ele>418</ele>
        <time>2015-04-19T10:23:45.293Z</time>
      </trkpt>
      <trkpt lat="47.27931" lon="4.9689">
        <ele>418</ele>
        <time>2015-04-19T10:23:48.329Z</time>
      </trkpt>
      <trkpt lat="47.2793" lon="4.96893">
        <ele>418</ele>
        <time>2015-04-19T10:23:49.297Z</time>
      </trkpt>
      <trkpt lat="47.27927" lon="4.96904">
        <ele>419</ele>
        <time>2015-04-19T10:23:53.294Z</time>
      </trkpt>
      <trkpt lat="47.27926" lon="4.96906">
        <ele>419</ele>
        <time>2015-04-19T10:23:54.295Z</time>
      </trkpt>
      <trkpt lat="47.27923" lon="4.96917">
        <ele>418</ele>
        <time>2015-04-19T10:23:58.290Z</time>
      </trkpt>
      <trkpt lat="47.27923" lon="4.9692">
        <ele>418</ele>
        <time>2015-04-19T10:23:59.312Z</time>
      </trkpt>
      <trkpt lat="47.27921" lon="4.96932">
        <ele>415</ele>
        <time>2015-04-19T10:24:03.281Z</time>
      </trkpt>
      <trkpt lat="47.2792" lon="4.96935">
        <ele>415</ele>
        <time>2015-04-19T10:24:04.292Z</time>
      </trkpt>
      <trkpt lat="47.27917" lon="4.96946">
        <ele>413</ele>
        <time>2015-04-19T10:24:08.289Z</time>
      </trkpt>
      <trkpt lat="47.27917" lon="4.9695">
        <ele>421</ele>
        <time>2015-04-19T10:24:09.292Z</time>
      </trkpt>
      <trkpt lat="47.27914" lon="4.96961">
        <ele>420</ele>
        <time>2015-04-19T10:24:13.285Z</time>
      </trkpt>
      <trkpt lat="47.27913" lon="4.96964">
        <ele>420</ele>
        <time>2015-04-19T10:24:14.303Z</time>
      </trkpt>
      <trkpt lat="47.27911" lon="4.96975">
        <ele>420</ele>
        <time>2015-04-19T10:24:18.286Z</time>
      </trkpt>
      <trkpt lat="47.2791" lon="4.96977">
        <ele>419</ele>
        <time>2015-04-19T10:24:19.291Z</time>
      </trkpt>
      <trkpt lat="47.27906" lon="4.96988">
        <ele>419</ele>
        <time>2015-04-19T10:24:23.283Z</time>
      </trkpt>
      <trkpt lat="47.27905" lon="4.9699">
        <ele>419</ele>
        <time>2015-04-19T10:24:24.302Z</time>
      </trkpt>
      <trkpt lat="47.27902" lon="4.97002">
        <ele>417</ele>
        <time>2015-04-19T10:24:28.282Z</time>
      </trkpt>
      <trkpt lat="47.27901" lon="4.97006">
        <ele>417</ele>
        <time>2015-04-19T10:24:29.294Z</time>
      </trkpt>
      <trkpt lat="47.27897" lon="4.97017">
        <ele>417</ele>
        <time>2015-04-19T10:24:33.284Z</time>
      </trkpt>
      <trkpt lat="47.27896" lon="4.9702">
        <ele>417</ele>
        <time>2015-04-19T10:24:34.286Z</time>
      </trkpt>
      <trkpt lat="47.27893" lon="4.97029">
        <ele>417</ele>
        <time>2015-04-19T10:24:38.297Z</time>
      </trkpt>
      <trkpt lat="47.27892" lon="4.97031">
        <ele>417</ele>
        <time>2015-04-19T10:24:39.290Z</time>
      </trkpt>
      <trkpt lat="47.27889" lon="4.97042">
        <ele>417</ele>
        <time>2015-04-19T10:24:44.301Z</time>
      </trkpt>
      <trkpt lat="47.27888" lon="4.97044">
        <ele>416</ele>
        <time>2015-04-19T10:24:45.294Z</time>
      </trkpt>
      <trkpt lat="47.27884" lon="4.97054">
        <ele>416</ele>
        <time>2015-04-19T10:24:49.296Z</time>
      </trkpt>
      <trkpt lat="47.27883" lon="4.97056">
        <ele>416</ele>
        <time>2015-04-19T10:24:50.333Z</time>
      </trkpt>
      <trkpt lat="47.2788" lon="4.97066">
        <ele>416</ele>
        <time>2015-04-19T10:24:54.312Z</time>
      </trkpt>
      <trkpt lat="47.27879" lon="4.97069">
        <ele>416</ele>
        <time>2015-04-19T10:24:55.291Z</time>
      </trkpt>
      <trkpt lat="47.27875" lon="4.9708">
        <ele>416</ele>
        <time>2015-04-19T10:24:59.294Z</time>
      </trkpt>
      <trkpt lat="47.27874" lon="4.97082">
        <ele>416</ele>
        <time>2015-04-19T10:25:00.264Z</time>
      </trkpt>
      <trkpt lat="47.27871" lon="4.97093">
        <ele>413</ele>
        <time>2015-04-19T10:25:05.283Z</time>
      </trkpt>
      <trkpt lat="47.27871" lon="4.97096">
        <ele>413</ele>
        <time>2015-04-19T10:25:06.286Z</time>
      </trkpt>
      <trkpt lat="47.27868" lon="4.97108">
        <ele>413</ele>
        <time>2015-04-19T10:25:11.286Z</time>
      </trkpt>
      <trkpt lat="47.27867" lon="4.9711">
        <ele>413</ele>
        <time>2015-04-19T10:25:12.285Z</time>
      </trkpt>
      <trkpt lat="47.27863" lon="4.97122">
        <ele>413</ele>
        <time>2015-04-19T10:25:16.280Z</time>
      </trkpt>
      <trkpt lat="47.27862" lon="4.97125">
        <ele>413</ele>
        <time>2015-04-19T10:25:17.262Z</time>
      </trkpt>
      <trkpt lat="47.27858" lon="4.97134">
        <ele>412</ele>
        <time>2015-04-19T10:25:20.293Z</time>
      </trkpt>
      <trkpt lat="47.27856" lon="4.97137">
        <ele>412</ele>
        <time>2015-04-19T10:25:21.296Z</time>
      </trkpt>
      <trkpt lat="47.27854" lon="4.97147">
        <ele>412</ele>
        <time>2015-04-19T10:25:24.296Z</time>
      </trkpt>
      <trkpt lat="47.27853" lon="4.97151">
        <ele>412</ele>
        <time>2015-04-19T10:25:25.286Z</time>
      </trkpt>
      <trkpt lat="47.2785" lon="4.97162">
        <ele>412</ele>
        <time>2015-04-19T10:25:28.314Z</time>
      </trkpt>
      <trkpt lat="47.27849" lon="4.97165">
        <ele>412</ele>
        <time>2015-04-19T10:25:29.280Z</time>
      </trkpt>
      <trkpt lat="47.27846" lon="4.97175">
        <ele>410</ele>
        <time>2015-04-19T10:25:32.306Z</time>
      </trkpt>
      <trkpt lat="47.27845" lon="4.97177">
        <ele>409</ele>
        <time>2015-04-19T10:25:33.276Z</time>
      </trkpt>
      <trkpt lat="47.27842" lon="4.97189">
        <ele>408</ele>
        <time>2015-04-19T10:25:37.281Z</time>
      </trkpt>
      <trkpt lat="47.27841" lon="4.97192">
        <ele>408</ele>
        <time>2015-04-19T10:25:38.271Z</time>
      </trkpt>
      <trkpt lat="47.27837" lon="4.97203">
        <ele>407</ele>
        <time>2015-04-19T10:25:42.279Z</time>
      </trkpt>
      <trkpt lat="47.27836" lon="4.97206">
        <ele>407</ele>
        <time>2015-04-19T10:25:43.292Z</time>
      </trkpt>
      <trkpt lat="47.27833" lon="4.97218">
        <ele>411</ele>
        <time>2015-04-19T10:25:47.291Z</time>
      </trkpt>
      <trkpt lat="47.27832" lon="4.97221">
        <ele>410</ele>
        <time>2015-04-19T10:25:48.292Z</time>
      </trkpt>
      <trkpt lat="47.2783" lon="4.97232">
        <ele>409</ele>
        <time>2015-04-19T10:25:52.295Z</time>
      </trkpt>
      <trkpt lat="47.2783" lon="4.97235">
        <ele>409</ele>
        <time>2015-04-19T10:25:53.263Z</time>
      </trkpt>
      <trkpt lat="47.27828" lon="4.97248">
        <ele>408</ele>
        <time>2015-04-19T10:25:58.296Z</time>
      </trkpt>
      <trkpt lat="47.27827" lon="4.9725">
        <ele>407</ele>
        <time>2015-04-19T10:25:59.291Z</time>
      </trkpt>
      <trkpt lat="47.27823" lon="4.97259">
        <ele>406</ele>
        <time>2015-04-19T10:26:03.290Z</time>
      </trkpt>
      <trkpt lat="47.27822" lon="4.97261">
        <ele>406</ele>
        <time>2015-04-19T10:26:04.292Z</time>
      </trkpt>
      <trkpt lat="47.27817" lon="4.97271">
        <ele>406</ele>
        <time>2015-04-19T10:26:08.282Z</time>
      </trkpt>
      <trkpt lat="47.27816" lon="4.97274">
        <ele>406</ele>
        <time>2015-04-19T10:26:09.290Z</time>
      </trkpt>
      <trkpt lat="47.27813" lon="4.97283">
        <ele>406</ele>
        <time>2015-04-19T10:26:12.295Z</time>
      </trkpt>
      <trkpt lat="47.27811" lon="4.97286">
        <ele>405</ele>
        <time>2015-04-19T10:26:13.288Z</time>
      </trkpt>
      <trkpt lat="47.27809" lon="4.97295">
        <ele>405</ele>
        <time>2015-04-19T10:26:16.293Z</time>
      </trkpt>
      <trkpt lat="47.27808" lon="4.97298">
        <ele>405</ele>
        <time>2015-04-19T10:26:17.288Z</time>
      </trkpt>
      <trkpt lat="47.27803" lon="4.97308">
        <ele>405</ele>
        <time>2015-04-19T10:26:21.292Z</time>
      </trkpt>
      <trkpt lat="47.27802" lon="4.9731">
        <ele>405</ele>
        <time>2015-04-19T10:26:22.294Z</time>
      </trkpt>
      <trkpt lat="47.27801" lon="4.97323">
        <ele>404</ele>
        <time>2015-04-19T10:26:27.291Z</time>
      </trkpt>
      <trkpt lat="47.278" lon="4.97325">
        <ele>404</ele>
        <time>2015-04-19T10:26:28.296Z</time>
      </trkpt>
      <trkpt lat="47.27798" lon="4.97335">
        <ele>400</ele>
        <time>2015-04-19T10:26:32.301Z</time>
      </trkpt>
      <trkpt lat="47.27797" lon="4.97338">
        <ele>400</ele>
        <time>2015-04-19T10:26:33.288Z</time>
      </trkpt>
      <trkpt lat="47.27794" lon="4.97348">
        <ele>400</ele>
        <time>2015-04-19T10:26:37.293Z</time>
      </trkpt>
      <trkpt lat="47.27793" lon="4.97351">
        <ele>400</ele>
        <time>2015-04-19T10:26:38.328Z</time>
      </trkpt>
      <trkpt lat="47.2779" lon="4.97361">
        <ele>399</ele>
        <time>2015-04-19T10:26:42.294Z</time>
      </trkpt>
      <trkpt lat="47.27789" lon="4.97364">
        <ele>399</ele>
        <time>2015-04-19T10:26:43.294Z</time>
      </trkpt>
      <trkpt lat="47.27786" lon="4.97374">
        <ele>399</ele>
        <time>2015-04-19T10:26:47.294Z</time>
      </trkpt>
      <trkpt lat="47.27785" lon="4.97376">
        <ele>399</ele>
        <time>2015-04-19T10:26:48.277Z</time>
      </trkpt>
      <trkpt lat="47.27781" lon="4.97387">
        <ele>398</ele>
        <time>2015-04-19T10:26:52.277Z</time>
      </trkpt>
      <trkpt lat="47.27781" lon="4.97389">
        <ele>398</ele>
        <time>2015-04-19T10:26:53.292Z</time>
      </trkpt>
      <trkpt lat="47.27777" lon="4.97401">
        <ele>398</ele>
        <time>2015-04-19T10:26:58.292Z</time>
      </trkpt>
      <trkpt lat="47.27776" lon="4.97403">
        <ele>398</ele>
        <time>2015-04-19T10:26:59.291Z</time>
      </trkpt>
      <trkpt lat="47.27773" lon="4.97413">
        <ele>397</ele>
        <time>2015-04-19T10:27:03.289Z</time>
      </trkpt>
      <trkpt lat="47.27772" lon="4.97416">
        <ele>397</ele>
        <time>2015-04-19T10:27:04.296Z</time>
      </trkpt>
      <trkpt lat="47.27768" lon="4.97427">
        <ele>393</ele>
        <time>2015-04-19T10:27:08.295Z</time>
      </trkpt>
      <trkpt lat="47.27767" lon="4.97429">
        <ele>393</ele>
        <time>2015-04-19T10:27:09.287Z</time>
      </trkpt>
      <trkpt lat="47.27763" lon="4.9744">
        <ele>392</ele>
        <time>2015-04-19T10:27:13.298Z</time>
      </trkpt>
      <trkpt lat="47.27762" lon="4.97443">
        <ele>392</ele>
        <time>2015-04-19T10:27:14.287Z</time>
      </trkpt>
      <trkpt lat="47.27759" lon="4.97454">
        <ele>391</ele>
        <time>2015-04-19T10:27:18.274Z</time>
      </trkpt>
      <trkpt lat="47.27759" lon="4.97456">
        <ele>391</ele>
        <time>2015-04-19T10:27:19.287Z</time>
      </trkpt>
      <trkpt lat="47.27755" lon="4.97467">
        <ele>391</ele>
        <time>2015-04-19T10:27:23.272Z</time>
      </trkpt>
      <trkpt lat="47.27754" lon="4.97469">
        <ele>390</ele>
        <time>2015-04-19T10:27:24.259Z</time>
      </trkpt>
      <trkpt lat="47.2775" lon="4.97479">
        <ele>390</ele>
        <time>2015-04-19T10:27:28.282Z</time>
      </trkpt>
      <trkpt lat="47.2775" lon="4.97481">
        <ele>390</ele>
        <time>2015-04-19T10:27:29.296Z</time>
      </trkpt>
      <trkpt lat="47.27746" lon="4.97492">
        <ele>389</ele>
        <time>2015-04-19T10:27:33.287Z</time>
      </trkpt>
      <trkpt lat="47.27745" lon="4.97495">
        <ele>389</ele>
        <time>2015-04-19T10:27:34.274Z</time>
      </trkpt>
      <trkpt lat="47.27742" lon="4.97508">
        <ele>386</ele>
        <time>2015-04-19T10:27:38.296Z</time>
      </trkpt>
      <trkpt lat="47.27742" lon="4.97511">
        <ele>386</ele>
        <time>2015-04-19T10:27:39.262Z</time>
      </trkpt>
      <trkpt lat="47.27739" lon="4.97521">
        <ele>385</ele>
        <time>2015-04-19T10:27:42.297Z</time>
      </trkpt>
      <trkpt lat="47.27739" lon="4.97524">
        <ele>385</ele>
        <time>2015-04-19T10:27:43.274Z</time>
      </trkpt>
      <trkpt lat="47.27736" lon="4.97535">
        <ele>384</ele>
        <time>2015-04-19T10:27:47.290Z</time>
      </trkpt>
      <trkpt lat="47.27735" lon="4.97538">
        <ele>384</ele>
        <time>2015-04-19T10:27:48.291Z</time>
      </trkpt>
      <trkpt lat="47.27732" lon="4.9755">
        <ele>383</ele>
        <time>2015-04-19T10:27:52.294Z</time>
      </trkpt>
      <trkpt lat="47.27732" lon="4.97553">
        <ele>383</ele>
        <time>2015-04-19T10:27:53.292Z</time>
      </trkpt>
      <trkpt lat="47.2773" lon="4.97562">
        <ele>382</ele>
        <time>2015-04-19T10:27:56.295Z</time>
      </trkpt>
      <trkpt lat="47.27728" lon="4.97566">
        <ele>382</ele>
        <time>2015-04-19T10:27:57.285Z</time>
      </trkpt>
      <trkpt lat="47.27725" lon="4.97575">
        <ele>382</ele>
        <time>2015-04-19T10:28:00.257Z</time>
      </trkpt>
      <trkpt lat="47.27724" lon="4.97579">
        <ele>381</ele>
        <time>2015-04-19T10:28:01.289Z</time>
      </trkpt>
      <trkpt lat="47.2772" lon="4.9759">
        <ele>376</ele>
        <time>2015-04-19T10:28:05.257Z</time>
      </trkpt>
      <trkpt lat="47.27719" lon="4.97592">
        <ele>376</ele>
        <time>2015-04-19T10:28:06.277Z</time>
      </trkpt>
      <trkpt lat="47.27715" lon="4.97603">
        <ele>376</ele>
        <time>2015-04-19T10:28:10.286Z</time>
      </trkpt>
      <trkpt lat="47.27715" lon="4.97605">
        <ele>376</ele>
        <time>2015-04-19T10:28:11.280Z</time>
      </trkpt>
      <trkpt lat="47.27711" lon="4.97615">
        <ele>375</ele>
        <time>2015-04-19T10:28:15.289Z</time>
      </trkpt>
      <trkpt lat="47.2771" lon="4.97618">
        <ele>375</ele>
        <time>2015-04-19T10:28:16.276Z</time>
      </trkpt>
      <trkpt lat="47.27706" lon="4.97628">
        <ele>375</ele>
        <time>2015-04-19T10:28:20.296Z</time>
      </trkpt>
      <trkpt lat="47.27705" lon="4.9763">
        <ele>375</ele>
        <time>2015-04-19T10:28:21.288Z</time>
      </trkpt>
      <trkpt lat="47.27703" lon="4.97642">
        <ele>374</ele>
        <time>2015-04-19T10:28:26.282Z</time>
      </trkpt>
      <trkpt lat="47.27703" lon="4.97644">
        <ele>374</ele>
        <time>2015-04-19T10:28:27.287Z</time>
      </trkpt>
      <trkpt lat="47.27701" lon="4.97654">
        <ele>373</ele>
        <time>2015-04-19T10:28:31.304Z</time>
      </trkpt>
      <trkpt lat="47.277" lon="4.97657">
        <ele>373</ele>
        <time>2015-04-19T10:28:32.296Z</time>
      </trkpt>
      <trkpt lat="47.27696" lon="4.97666">
        <ele>373</ele>
        <time>2015-04-19T10:28:35.287Z</time>
      </trkpt>
      <trkpt lat="47.27695" lon="4.97669">
        <ele>368</ele>
        <time>2015-04-19T10:28:36.264Z</time>
      </trkpt>
      <trkpt lat="47.27692" lon="4.9768">
        <ele>367</ele>
        <time>2015-04-19T10:28:40.289Z</time>
      </trkpt>
      <trkpt lat="47.27692" lon="4.97684">
        <ele>367</ele>
        <time>2015-04-19T10:28:41.257Z</time>
      </trkpt>
      <trkpt lat="47.27689" lon="4.97693">
        <ele>367</ele>
        <time>2015-04-19T10:28:44.297Z</time>
      </trkpt>
      <trkpt lat="47.27688" lon="4.97696">
        <ele>366</ele>
        <time>2015-04-19T10:28:45.278Z</time>
      </trkpt>
      <trkpt lat="47.27685" lon="4.97707">
        <ele>365</ele>
        <time>2015-04-19T10:28:49.281Z</time>
      </trkpt>
      <trkpt lat="47.27684" lon="4.9771">
        <ele>365</ele>
        <time>2015-04-19T10:28:50.296Z</time>
      </trkpt>
      <trkpt lat="47.27681" lon="4.9772">
        <ele>364</ele>
        <time>2015-04-19T10:28:53.298Z</time>
      </trkpt>
      <trkpt lat="47.2768" lon="4.97723">
        <ele>364</ele>
        <time>2015-04-19T10:28:54.293Z</time>
      </trkpt>
      <trkpt lat="47.27676" lon="4.97731">
        <ele>363</ele>
        <time>2015-04-19T10:28:57.290Z</time>
      </trkpt>
      <trkpt lat="47.27675" lon="4.97734">
        <ele>363</ele>
        <time>2015-04-19T10:28:58.260Z</time>
      </trkpt>
      <trkpt lat="47.27672" lon="4.97744">
        <ele>362</ele>
        <time>2015-04-19T10:29:01.287Z</time>
      </trkpt>
      <trkpt lat="47.27671" lon="4.97747">
        <ele>361</ele>
        <time>2015-04-19T10:29:02.293Z</time>
      </trkpt>
      <trkpt lat="47.27668" lon="4.97756">
        <ele>359</ele>
        <time>2015-04-19T10:29:05.289Z</time>
      </trkpt>
      <trkpt lat="47.27667" lon="4.97759">
        <ele>358</ele>
        <time>2015-04-19T10:29:06.298Z</time>
      </trkpt>
      <trkpt lat="47.27663" lon="4.97771">
        <ele>356</ele>
        <time>2015-04-19T10:29:10.299Z</time>
      </trkpt>
      <trkpt lat="47.27662" lon="4.97774">
        <ele>356</ele>
        <time>2015-04-19T10:29:11.289Z</time>
      </trkpt>
      <trkpt lat="47.27659" lon="4.97783">
        <ele>354</ele>
        <time>2015-04-19T10:29:14.287Z</time>
      </trkpt>
      <trkpt lat="47.27658" lon="4.97787">
        <ele>354</ele>
        <time>2015-04-19T10:29:15.291Z</time>
      </trkpt>
      <trkpt lat="47.27654" lon="4.97798">
        <ele>353</ele>
        <time>2015-04-19T10:29:19.291Z</time>
      </trkpt>
      <trkpt lat="47.27654" lon="4.978">
        <ele>353</ele>
        <time>2015-04-19T10:29:20.300Z</time>
      </trkpt>
      <trkpt lat="47.27651" lon="4.97811">
        <ele>352</ele>
        <time>2015-04-19T10:29:25.267Z</time>
      </trkpt>
      <trkpt lat="47.2765" lon="4.97813">
        <ele>352</ele>
        <time>2015-04-19T10:29:26.282Z</time>
      </trkpt>
      <trkpt lat="47.27647" lon="4.97823">
        <ele>352</ele>
        <time>2015-04-19T10:29:30.288Z</time>
      </trkpt>
      <trkpt lat="47.27646" lon="4.97825">
        <ele>352</ele>
        <time>2015-04-19T10:29:31.289Z</time>
      </trkpt>
      <trkpt lat="47.27643" lon="4.97835">
        <ele>346</ele>
        <time>2015-04-19T10:29:34.293Z</time>
      </trkpt>
      <trkpt lat="47.27641" lon="4.97837">
        <ele>346</ele>
        <time>2015-04-19T10:29:35.286Z</time>
      </trkpt>
      <trkpt lat="47.27638" lon="4.97848">
        <ele>345</ele>
        <time>2015-04-19T10:29:39.299Z</time>
      </trkpt>
      <trkpt lat="47.27637" lon="4.9785">
        <ele>345</ele>
        <time>2015-04-19T10:29:40.277Z</time>
      </trkpt>
      <trkpt lat="47.27634" lon="4.97861">
        <ele>344</ele>
        <time>2015-04-19T10:29:45.288Z</time>
      </trkpt>
      <trkpt lat="47.27635" lon="4.97863">
        <ele>344</ele>
        <time>2015-04-19T10:29:46.296Z</time>
      </trkpt>
      <trkpt lat="47.27641" lon="4.97869">
        <ele>344</ele>
        <time>2015-04-19T10:29:52.290Z</time>
      </trkpt>
      <trkpt lat="47.27643" lon="4.9787">
        <ele>344</ele>
        <time>2015-04-19T10:29:53.288Z</time>
      </trkpt>
      <trkpt lat="47.2765" lon="4.97873">
        <ele>344</ele>
        <time>2015-04-19T10:29:58.287Z</time>
      </trkpt>
      <trkpt lat="47.27652" lon="4.97874">
        <ele>344</ele>
        <time>2015-04-19T10:29:59.289Z</time>
      </trkpt>
      <trkpt lat="47.2766" lon="4.97877">
        <ele>344</ele>
        <time>2015-04-19T10:30:05.294Z</time>
      </trkpt>
      <trkpt lat="47.27661" lon="4.97879">
        <ele>344</ele>
        <time>2015-04-19T10:30:06.289Z</time>
      </trkpt>
      <trkpt lat="47.27669" lon="4.97883">
        <ele>345</ele>
        <time>2015-04-19T10:30:11.297Z</time>
      </trkpt>
      <trkpt lat="47.27671" lon="4.97883">
        <ele>345</ele>
        <time>2015-04-19T10:30:12.293Z</time>
      </trkpt>
      <trkpt lat="47.27679" lon="4.97884">
        <ele>345</ele>
        <time>2015-04-19T10:30:16.305Z</time>
      </trkpt>
      <trkpt lat="47.2768" lon="4.97884">
        <ele>345</ele>
        <time>2015-04-19T10:30:17.288Z</time>
      </trkpt>
      <trkpt lat="47.27687" lon="4.97882">
        <ele>345</ele>
        <time>2015-04-19T10:30:22.299Z</time>
      </trkpt>
      <trkpt lat="47.27689" lon="4.97881">
        <ele>345</ele>
        <time>2015-04-19T10:30:23.287Z</time>
      </trkpt>
      <trkpt lat="47.27697" lon="4.97877">
        <ele>345</ele>
        <time>2015-04-19T10:30:28.294Z</time>
      </trkpt>
      <trkpt lat="47.27699" lon="4.97877">
        <ele>345</ele>
        <time>2015-04-19T10:30:29.293Z</time>
      </trkpt>
      <trkpt lat="47.27708" lon="4.97878">
        <ele>345</ele>
        <time>2015-04-19T10:30:34.286Z</time>
      </trkpt>
      <trkpt lat="47.27709" lon="4.97878">
        <ele>345</ele>
        <time>2015-04-19T10:30:35.265Z</time>
      </trkpt>
      <trkpt lat="47.27717" lon="4.97877">
        <ele>345</ele>
        <time>2015-04-19T10:30:41.288Z</time>
      </trkpt>
      <trkpt lat="47.27719" lon="4.97877">
        <ele>345</ele>
        <time>2015-04-19T10:30:42.297Z</time>
      </trkpt>
      <trkpt lat="47.27727" lon="4.97878">
        <ele>345</ele>
        <time>2015-04-19T10:30:45.292Z</time>
      </trkpt>
      <trkpt lat="47.27729" lon="4.97879">
        <ele>345</ele>
        <time>2015-04-19T10:30:46.266Z</time>
      </trkpt>
      <trkpt lat="47.27737" lon="4.9788">
        <ele>345</ele>
        <time>2015-04-19T10:30:49.296Z</time>
      </trkpt>
      <trkpt lat="47.27739" lon="4.97881">
        <ele>345</ele>
        <time>2015-04-19T10:30:50.303Z</time>
      </trkpt>
      <trkpt lat="47.27746" lon="4.97886">
        <ele>345</ele>
        <time>2015-04-19T10:30:55.295Z</time>
      </trkpt>
      <trkpt lat="47.27748" lon="4.97887">
        <ele>345</ele>
        <time>2015-04-19T10:30:56.297Z</time>
      </trkpt>
      <trkpt lat="47.27755" lon="4.97891">
        <ele>341</ele>
        <time>2015-04-19T10:31:00.266Z</time>
      </trkpt>
      <trkpt lat="47.27756" lon="4.97892">
        <ele>341</ele>
        <time>2015-04-19T10:31:01.296Z</time>
      </trkpt>
      <trkpt lat="47.27765" lon="4.97893">
        <ele>341</ele>
        <time>2015-04-19T10:31:07.283Z</time>
      </trkpt>
      <trkpt lat="47.27767" lon="4.97894">
        <ele>341</ele>
        <time>2015-04-19T10:31:08.284Z</time>
      </trkpt>
      <trkpt lat="47.27775" lon="4.979">
        <ele>340</ele>
        <time>2015-04-19T10:31:13.291Z</time>
      </trkpt>
      <trkpt lat="47.27776" lon="4.97902">
        <ele>340</ele>
        <time>2015-04-19T10:31:14.304Z</time>
      </trkpt>
      <trkpt lat="47.27784" lon="4.97907">
        <ele>340</ele>
        <time>2015-04-19T10:31:18.291Z</time>
      </trkpt>
      <trkpt lat="47.27787" lon="4.9791">
        <ele>339</ele>
        <time>2015-04-19T10:31:19.260Z</time>
      </trkpt>
      <trkpt lat="47.27793" lon="4.97918">
        <ele>331</ele>
        <time>2015-04-19T10:31:22.298Z</time>
      </trkpt>
      <trkpt lat="47.27795" lon="4.9792">
        <ele>331</ele>
        <time>2015-04-19T10:31:23.290Z</time>
      </trkpt>
      <trkpt lat="47.278" lon="4.97927">
        <ele>331</ele>
        <time>2015-04-19T10:31:26.289Z</time>
      </trkpt>
      <trkpt lat="47.27803" lon="4.97929">
        <ele>330</ele>
        <time>2015-04-19T10:31:27.294Z</time>
      </trkpt>
      <trkpt lat="47.2781" lon="4.97937">
        <ele>330</ele>
        <time>2015-04-19T10:31:31.288Z</time>
      </trkpt>
      <trkpt lat="47.27811" lon="4.97939">
        <ele>329</ele>
        <time>2015-04-19T10:31:32.307Z</time>
      </trkpt>
      <trkpt lat="47.27817" lon="4.97945">
        <ele>329</ele>
        <time>2015-04-19T10:31:36.290Z</time>
      </trkpt>
      <trkpt lat="47.27819" lon="4.97947">
        <ele>329</ele>
        <time>2015-04-19T10:31:37.270Z</time>
      </trkpt>
      <trkpt lat="47.27825" lon="4.97955">
        <ele>328</ele>
        <time>2015-04-19T10:31:41.291Z</time>
      </trkpt>
      <trkpt lat="47.27827" lon="4.97958">
        <ele>327</ele>
        <time>2015-04-19T10:31:42.289Z</time>
      </trkpt>
      <trkpt lat="47.27829" lon="4.97969">
        <ele>326</ele>
        <time>2015-04-19T10:31:46.296Z</time>
      </trkpt>
      <trkpt lat="47.2783" lon="4.97971">
        <ele>325</ele>
        <time>2015-04-19T10:31:47.298Z</time>
      </trkpt>
      <trkpt lat="47.27835" lon="4.97979">
        <ele>317</ele>
        <time>2015-04-19T10:31:50.298Z</time>
      </trkpt>
      <trkpt lat="47.27836" lon="4.97982">
        <ele>316</ele>
        <time>2015-04-19T10:31:51.296Z</time>
      </trkpt>
      <trkpt lat="47.27839" lon="4.97988">
        <ele>316</ele>
        <time>2015-04-19T10:31:53.294Z</time>
      </trkpt>
      <trkpt lat="47.27842" lon="4.97992">
        <ele>316</ele>
        <time>2015-04-19T10:31:54.297Z</time>
      </trkpt>
      <trkpt lat="47.27849" lon="4.97998">
        <ele>316</ele>
        <time>2015-04-19T10:31:57.290Z</time>
      </trkpt>
      <trkpt lat="47.27851" lon="4.98">
        <ele>311</ele>
        <time>2015-04-19T10:31:58.291Z</time>
      </trkpt>
      <trkpt lat="47.27859" lon="4.98002">
        <ele>309</ele>
        <time>2015-04-19T10:32:03.289Z</time>
      </trkpt>
      <trkpt lat="47.27861" lon="4.98003">
        <ele>308</ele>
        <time>2015-04-19T10:32:04.290Z</time>
      </trkpt>
      <trkpt lat="47.27868" lon="4.98007">
        <ele>307</ele>
        <time>2015-04-19T10:32:08.300Z</time>
      </trkpt>
      <trkpt lat="47.2787" lon="4.98009">
        <ele>307</ele>
        <time>2015-04-19T10:32:09.287Z</time>
      </trkpt>
      <trkpt lat="47.27877" lon="4.98013">
        <ele>306</ele>
        <time>2015-04-19T10:32:12.292Z</time>
      </trkpt>
      <trkpt lat="47.27879" lon="4.98016">
        <ele>305</ele>
        <time>2015-04-19T10:32:13.312Z</time>
      </trkpt>
      <trkpt lat="47.27885" lon="4.98025">
        <ele>304</ele>
        <time>2015-04-19T10:32:16.298Z</time>
      </trkpt>
      <trkpt lat="47.27885" lon="4.98026">
        <ele>304</ele>
        <time>2015-04-19T10:32:17.306Z</time>
      </trkpt>
      <trkpt lat="47.27885" lon="4.98031">
        <ele>304</ele>
        <time>2015-04-19T10:32:21.295Z</time>
      </trkpt>
      <trkpt lat="47.27885" lon="4.98031">
        <ele>304</ele>
        <time>2015-04-19T10:32:22.301Z</time>
      </trkpt>
      <trkpt lat="47.27885" lon="4.98031">
        <ele>304</ele>
        <time>2015-04-19T10:32:23.297Z</time>
      </trkpt>
      <trkpt lat="47.27885" lon="4.98031">
        <ele>304</ele>
        <time>2015-04-19T10:32:24.298Z</time>
      </trkpt>
      <trkpt lat="47.27885" lon="4.98031">
        <ele>304</ele>
        <time>2015-04-19T10:32:25.280Z</time>
      </trkpt>
      <trkpt lat="47.27885" lon="4.98031">
        <ele>304</ele>
        <time>2015-04-19T10:32:29.294Z</time>
      </trkpt>
      <trkpt lat="47.27885" lon="4.98031">
        <ele>304</ele>
        <time>2015-04-19T10:32:30.301Z</time>
      </trkpt>
      <trkpt lat="47.27883" lon="4.98034">
        <ele>304</ele>
        <time>2015-04-19T10:32:34.291Z</time>
      </trkpt>
      <trkpt lat="47.27883" lon="4.98034">
        <ele>304</ele>
        <time>2015-04-19T10:32:35.291Z</time>
      </trkpt>
      <trkpt lat="47.27883" lon="4.98034">
        <ele>304</ele>
        <time>2015-04-19T10:32:44.331Z</time>
      </trkpt>
      <trkpt lat="47.2788" lon="4.9803">
        <ele>305</ele>
        <time>2015-04-19T10:32:45.268Z</time>
      </trkpt>
      <trkpt lat="47.27879" lon="4.98029">
        <ele>305</ele>
        <time>2015-04-19T10:32:46.295Z</time>
      </trkpt>
      <trkpt lat="47.2788" lon="4.98027">
        <ele>305</ele>
        <time>2015-04-19T10:33:32.319Z</time>
      </trkpt>
      <trkpt lat="47.27882" lon="4.98022">
        <ele>305</ele>
        <time>2015-04-19T10:33:33.289Z</time>
      </trkpt>
      <trkpt lat="47.27882" lon="4.98022">
        <ele>305</ele>
        <time>2015-04-19T10:33:34.297Z</time>
      </trkpt>
      <trkpt lat="47.27879" lon="4.9802">
        <ele>305</ele>
        <time>2015-04-19T10:34:45.302Z</time>
      </trkpt>
      <trkpt lat="47.27879" lon="4.9802">
        <ele>305</ele>
        <time>2015-04-19T10:34:46.269Z</time>
      </trkpt>
      <trkpt lat="47.27879" lon="4.9802">
        <ele>305</ele>
        <time>2015-04-19T10:34:47.282Z</time>
      </trkpt>
      <trkpt lat="47.27879" lon="4.9802">
        <ele>305</ele>
        <time>2015-04-19T10:34:48.306Z</time>
      </trkpt>
      <trkpt lat="47.27881" lon="4.98017">
        <ele>305</ele>
        <time>2015-04-19T10:36:30.316Z</time>
      </trkpt>
      <trkpt lat="47.27881" lon="4.98017">
        <ele>305</ele>
        <time>2015-04-19T10:36:31.305Z</time>
      </trkpt>
      <trkpt lat="47.27881" lon="4.98017">
        <ele>305</ele>
        <time>2015-04-19T10:36:32.307Z</time>
      </trkpt>
      <trkpt lat="47.27881" lon="4.98017">
        <ele>305</ele>
        <time>2015-04-19T10:36:33.288Z</time>
      </trkpt>
      <trkpt lat="47.27881" lon="4.98017">
        <ele>305</ele>
        <time>2015-04-19T10:36:52.312Z</time>
      </trkpt>
      <trkpt lat="47.27885" lon="4.98014">
        <ele>305</ele>
        <time>2015-04-19T10:36:53.312Z</time>
      </trkpt>
      <trkpt lat="47.27885" lon="4.98014">
        <ele>305</ele>
        <time>2015-04-19T10:36:55.330Z</time>
      </trkpt>
      <trkpt lat="47.27885" lon="4.98013">
        <ele>305</ele>
        <time>2015-04-19T10:36:56.322Z</time>
      </trkpt>
      <trkpt lat="47.27885" lon="4.98013">
        <ele>305</ele>
        <time>2015-04-19T10:37:02.309Z</time>
      </trkpt>
      <trkpt lat="47.27885" lon="4.98013">
        <ele>305</ele>
        <time>2015-04-19T10:37:03.295Z</time>
      </trkpt>
      <trkpt lat="47.27893" lon="4.98018">
        <ele>304</ele>
        <time>2015-04-19T10:37:11.306Z</time>
      </trkpt>
      <trkpt lat="47.27893" lon="4.98019">
        <ele>304</ele>
        <time>2015-04-19T10:37:12.292Z</time>
      </trkpt>
      <trkpt lat="47.279" lon="4.98026">
        <ele>303</ele>
        <time>2015-04-19T10:37:20.288Z</time>
      </trkpt>
      <trkpt lat="47.27901" lon="4.98027">
        <ele>303</ele>
        <time>2015-04-19T10:37:21.298Z</time>
      </trkpt>
      <trkpt lat="47.27907" lon="4.98034">
        <ele>303</ele>
        <time>2015-04-19T10:37:27.324Z</time>
      </trkpt>
      <trkpt lat="47.27908" lon="4.98035">
        <ele>303</ele>
        <time>2015-04-19T10:37:28.309Z</time>
      </trkpt>
      <trkpt lat="47.27915" lon="4.98043">
        <ele>302</ele>
        <time>2015-04-19T10:37:34.288Z</time>
      </trkpt>
      <trkpt lat="47.27916" lon="4.98044">
        <ele>302</ele>
        <time>2015-04-19T10:37:35.298Z</time>
      </trkpt>
      <trkpt lat="47.27922" lon="4.98051">
        <ele>297</ele>
        <time>2015-04-19T10:37:40.283Z</time>
      </trkpt>
      <trkpt lat="47.27924" lon="4.98053">
        <ele>296</ele>
        <time>2015-04-19T10:37:41.289Z</time>
      </trkpt>
      <trkpt lat="47.2793" lon="4.9806">
        <ele>296</ele>
        <time>2015-04-19T10:37:45.297Z</time>
      </trkpt>
      <trkpt lat="47.27931" lon="4.98061">
        <ele>296</ele>
        <time>2015-04-19T10:37:46.291Z</time>
      </trkpt>
      <trkpt lat="47.27937" lon="4.98068">
        <ele>296</ele>
        <time>2015-04-19T10:37:50.303Z</time>
      </trkpt>
      <trkpt lat="47.27938" lon="4.9807">
        <ele>296</ele>
        <time>2015-04-19T10:37:51.292Z</time>
      </trkpt>
      <trkpt lat="47.27944" lon="4.98077">
        <ele>296</ele>
        <time>2015-04-19T10:37:55.292Z</time>
      </trkpt>
      <trkpt lat="47.27945" lon="4.98079">
        <ele>296</ele>
        <time>2015-04-19T10:37:56.298Z</time>
      </trkpt>
      <trkpt lat="47.27951" lon="4.98086">
        <ele>294</ele>
        <time>2015-04-19T10:38:00.286Z</time>
      </trkpt>
      <trkpt lat="47.27953" lon="4.98087">
        <ele>293</ele>
        <time>2015-04-19T10:38:01.303Z</time>
      </trkpt>
      <trkpt lat="47.27958" lon="4.98094">
        <ele>293</ele>
        <time>2015-04-19T10:38:05.304Z</time>
      </trkpt>
      <trkpt lat="47.2796" lon="4.98095">
        <ele>293</ele>
        <time>2015-04-19T10:38:06.294Z</time>
      </trkpt>
      <trkpt lat="47.27966" lon="4.98102">
        <ele>293</ele>
        <time>2015-04-19T10:38:10.291Z</time>
      </trkpt>
      <trkpt lat="47.27968" lon="4.98104">
        <ele>293</ele>
        <time>2015-04-19T10:38:11.312Z</time>
      </trkpt>
      <trkpt lat="47.27974" lon="4.98111">
        <ele>293</ele>
        <time>2015-04-19T10:38:15.293Z</time>
      </trkpt>
      <trkpt lat="47.27975" lon="4.98114">
        <ele>293</ele>
        <time>2015-04-19T10:38:16.309Z</time>
      </trkpt>
      <trkpt lat="47.2798" lon="4.98121">
        <ele>293</ele>
        <time>2015-04-19T10:38:20.313Z</time>
      </trkpt>
      <trkpt lat="47.27982" lon="4.98123">
        <ele>293</ele>
        <time>2015-04-19T10:38:21.305Z</time>
      </trkpt>
      <trkpt lat="47.27988" lon="4.98129">
        <ele>293</ele>
        <time>2015-04-19T10:38:25.303Z</time>
      </trkpt>
      <trkpt lat="47.2799" lon="4.98131">
        <ele>293</ele>
        <time>2015-04-19T10:38:26.321Z</time>
      </trkpt>
      <trkpt lat="47.27996" lon="4.98137">
        <ele>293</ele>
        <time>2015-04-19T10:38:30.294Z</time>
      </trkpt>
      <trkpt lat="47.27997" lon="4.98139">
        <ele>293</ele>
        <time>2015-04-19T10:38:31.284Z</time>
      </trkpt>
      <trkpt lat="47.28004" lon="4.98144">
        <ele>292</ele>
        <time>2015-04-19T10:38:34.303Z</time>
      </trkpt>
      <trkpt lat="47.28006" lon="4.98145">
        <ele>292</ele>
        <time>2015-04-19T10:38:35.291Z</time>
      </trkpt>
      <trkpt lat="47.28013" lon="4.98139">
        <ele>293</ele>
        <time>2015-04-19T10:38:41.303Z</time>
      </trkpt>
      <trkpt lat="47.28014" lon="4.98137">
        <ele>293</ele>
        <time>2015-04-19T10:38:42.298Z</time>
      </trkpt>
      <trkpt lat="47.2802" lon="4.98129">
        <ele>293</ele>
        <time>2015-04-19T10:38:47.297Z</time>
      </trkpt>
      <trkpt lat="47.28021" lon="4.98128">
        <ele>293</ele>
        <time>2015-04-19T10:38:48.285Z</time>
      </trkpt>
      <trkpt lat="47.28024" lon="4.98119">
        <ele>293</ele>
        <time>2015-04-19T10:38:53.297Z</time>
      </trkpt>
      <trkpt lat="47.28025" lon="4.98115">
        <ele>293</ele>
        <time>2015-04-19T10:38:54.308Z</time>
      </trkpt>
      <trkpt lat="47.28028" lon="4.98106">
        <ele>293</ele>
        <time>2015-04-19T10:38:57.315Z</time>
      </trkpt>
      <trkpt lat="47.2803" lon="4.98104">
        <ele>293</ele>
        <time>2015-04-19T10:38:58.308Z</time>
      </trkpt>
      <trkpt lat="47.28035" lon="4.98096">
        <ele>293</ele>
        <time>2015-04-19T10:39:02.387Z</time>
      </trkpt>
      <trkpt lat="47.28036" lon="4.98094">
        <ele>293</ele>
        <time>2015-04-19T10:39:03.298Z</time>
      </trkpt>
      <trkpt lat="47.2804" lon="4.98085">
        <ele>293</ele>
        <time>2015-04-19T10:39:07.294Z</time>
      </trkpt>
      <trkpt lat="47.28041" lon="4.98082">
        <ele>294</ele>
        <time>2015-04-19T10:39:08.311Z</time>
      </trkpt>
      <trkpt lat="47.28046" lon="4.98072">
        <ele>294</ele>
        <time>2015-04-19T10:39:12.302Z</time>
      </trkpt>
      <trkpt lat="47.28047" lon="4.9807">
        <ele>294</ele>
        <time>2015-04-19T10:39:13.284Z</time>
      </trkpt>
      <trkpt lat="47.28051" lon="4.98061">
        <ele>294</ele>
        <time>2015-04-19T10:39:17.292Z</time>
      </trkpt>
      <trkpt lat="47.28053" lon="4.98059">
        <ele>294</ele>
        <time>2015-04-19T10:39:18.283Z</time>
      </trkpt>
      <trkpt lat="47.2806" lon="4.98053">
        <ele>294</ele>
        <time>2015-04-19T10:39:22.302Z</time>
      </trkpt>
      <trkpt lat="47.28061" lon="4.98053">
        <ele>294</ele>
        <time>2015-04-19T10:39:23.308Z</time>
      </trkpt>
      <trkpt lat="47.28069" lon="4.98056">
        <ele>294</ele>
        <time>2015-04-19T10:39:28.296Z</time>
      </trkpt>
      <trkpt lat="47.28071" lon="4.98057">
        <ele>294</ele>
        <time>2015-04-19T10:39:29.329Z</time>
      </trkpt>
      <trkpt lat="47.28079" lon="4.98062">
        <ele>294</ele>
        <time>2015-04-19T10:39:34.304Z</time>
      </trkpt>
      <trkpt lat="47.2808" lon="4.98063">
        <ele>294</ele>
        <time>2015-04-19T10:39:35.296Z</time>
      </trkpt>
      <trkpt lat="47.28087" lon="4.9807">
        <ele>295</ele>
        <time>2015-04-19T10:39:40.301Z</time>
      </trkpt>
      <trkpt lat="47.28088" lon="4.98072">
        <ele>295</ele>
        <time>2015-04-19T10:39:41.302Z</time>
      </trkpt>
      <trkpt lat="47.28094" lon="4.9808">
        <ele>295</ele>
        <time>2015-04-19T10:39:46.286Z</time>
      </trkpt>
      <trkpt lat="47.28096" lon="4.98081">
        <ele>295</ele>
        <time>2015-04-19T10:39:47.299Z</time>
      </trkpt>
      <trkpt lat="47.28103" lon="4.98089">
        <ele>294</ele>
        <time>2015-04-19T10:39:52.270Z</time>
      </trkpt>
      <trkpt lat="47.28104" lon="4.98091">
        <ele>294</ele>
        <time>2015-04-19T10:39:53.273Z</time>
      </trkpt>
      <trkpt lat="47.2811" lon="4.98099">
        <ele>294</ele>
        <time>2015-04-19T10:39:58.286Z</time>
      </trkpt>
      <trkpt lat="47.28111" lon="4.98101">
        <ele>294</ele>
        <time>2015-04-19T10:39:59.322Z</time>
      </trkpt>
      <trkpt lat="47.28118" lon="4.98105">
        <ele>294</ele>
        <time>2015-04-19T10:40:03.305Z</time>
      </trkpt>
      <trkpt lat="47.2812" lon="4.98106">
        <ele>294</ele>
        <time>2015-04-19T10:40:04.291Z</time>
      </trkpt>
      <trkpt lat="47.28127" lon="4.9811">
        <ele>294</ele>
        <time>2015-04-19T10:40:08.303Z</time>
      </trkpt>
      <trkpt lat="47.28129" lon="4.9811">
        <ele>294</ele>
        <time>2015-04-19T10:40:09.281Z</time>
      </trkpt>
      <trkpt lat="47.28136" lon="4.98111">
        <ele>294</ele>
        <time>2015-04-19T10:40:13.286Z</time>
      </trkpt>
      <trkpt lat="47.28138" lon="4.98112">
        <ele>294</ele>
        <time>2015-04-19T10:40:14.311Z</time>
      </trkpt>
      <trkpt lat="47.28146" lon="4.98116">
        <ele>294</ele>
        <time>2015-04-19T10:40:18.299Z</time>
      </trkpt>
      <trkpt lat="47.28147" lon="4.98117">
        <ele>294</ele>
        <time>2015-04-19T10:40:19.293Z</time>
      </trkpt>
      <trkpt lat="47.28154" lon="4.98121">
        <ele>294</ele>
        <time>2015-04-19T10:40:23.293Z</time>
      </trkpt>
      <trkpt lat="47.28156" lon="4.98122">
        <ele>294</ele>
        <time>2015-04-19T10:40:24.295Z</time>
      </trkpt>
      <trkpt lat="47.28164" lon="4.98128">
        <ele>294</ele>
        <time>2015-04-19T10:40:29.279Z</time>
      </trkpt>
      <trkpt lat="47.28165" lon="4.98129">
        <ele>294</ele>
        <time>2015-04-19T10:40:30.292Z</time>
      </trkpt>
      <trkpt lat="47.28172" lon="4.98134">
        <ele>295</ele>
        <time>2015-04-19T10:40:34.316Z</time>
      </trkpt>
      <trkpt lat="47.28173" lon="4.98135">
        <ele>295</ele>
        <time>2015-04-19T10:40:35.289Z</time>
      </trkpt>
      <trkpt lat="47.28181" lon="4.98141">
        <ele>295</ele>
        <time>2015-04-19T10:40:40.462Z</time>
      </trkpt>
      <trkpt lat="47.28182" lon="4.98142">
        <ele>295</ele>
        <time>2015-04-19T10:40:41.321Z</time>
      </trkpt>
      <trkpt lat="47.2819" lon="4.98147">
        <ele>295</ele>
        <time>2015-04-19T10:40:46.312Z</time>
      </trkpt>
      <trkpt lat="47.28192" lon="4.98149">
        <ele>295</ele>
        <time>2015-04-19T10:40:47.307Z</time>
      </trkpt>
      <trkpt lat="47.28199" lon="4.98156">
        <ele>295</ele>
        <time>2015-04-19T10:40:52.303Z</time>
      </trkpt>
      <trkpt lat="47.28201" lon="4.98157">
        <ele>296</ele>
        <time>2015-04-19T10:40:53.303Z</time>
      </trkpt>
      <trkpt lat="47.28208" lon="4.98165">
        <ele>296</ele>
        <time>2015-04-19T10:40:58.294Z</time>
      </trkpt>
      <trkpt lat="47.28209" lon="4.98167">
        <ele>294</ele>
        <time>2015-04-19T10:40:59.296Z</time>
      </trkpt>
      <trkpt lat="47.28216" lon="4.98172">
        <ele>294</ele>
        <time>2015-04-19T10:41:03.290Z</time>
      </trkpt>
      <trkpt lat="47.28217" lon="4.98173">
        <ele>294</ele>
        <time>2015-04-19T10:41:04.294Z</time>
      </trkpt>
      <trkpt lat="47.28224" lon="4.98181">
        <ele>294</ele>
        <time>2015-04-19T10:41:09.294Z</time>
      </trkpt>
      <trkpt lat="47.28226" lon="4.98182">
        <ele>295</ele>
        <time>2015-04-19T10:41:10.290Z</time>
      </trkpt>
      <trkpt lat="47.28233" lon="4.98189">
        <ele>295</ele>
        <time>2015-04-19T10:41:15.279Z</time>
      </trkpt>
      <trkpt lat="47.28234" lon="4.9819">
        <ele>295</ele>
        <time>2015-04-19T10:41:16.307Z</time>
      </trkpt>
      <trkpt lat="47.28242" lon="4.98197">
        <ele>294</ele>
        <time>2015-04-19T10:41:21.301Z</time>
      </trkpt>
      <trkpt lat="47.28243" lon="4.98199">
        <ele>294</ele>
        <time>2015-04-19T10:41:22.308Z</time>
      </trkpt>
      <trkpt lat="47.2825" lon="4.98206">
        <ele>296</ele>
        <time>2015-04-19T10:41:27.295Z</time>
      </trkpt>
      <trkpt lat="47.28252" lon="4.98207">
        <ele>296</ele>
        <time>2015-04-19T10:41:28.296Z</time>
      </trkpt>
      <trkpt lat="47.28252" lon="4.98207">
        <ele>296</ele>
        <time>2015-04-19T10:41:41.296Z</time>
      </trkpt>
      <trkpt lat="47.28252" lon="4.98207">
        <ele>296</ele>
        <time>2015-04-19T10:41:42.276Z</time>
      </trkpt>
      <trkpt lat="47.28252" lon="4.98207">
        <ele>296</ele>
        <time>2015-04-19T10:42:05.314Z</time>
      </trkpt>
      <trkpt lat="47.28253" lon="4.98209">
        <ele>296</ele>
        <time>2015-04-19T10:42:06.294Z</time>
      </trkpt>
      <trkpt lat="47.28258" lon="4.98218">
        <ele>296</ele>
        <time>2015-04-19T10:42:12.295Z</time>
      </trkpt>
      <trkpt lat="47.28259" lon="4.9822">
        <ele>296</ele>
        <time>2015-04-19T10:42:13.292Z</time>
      </trkpt>
      <trkpt lat="47.28265" lon="4.98228">
        <ele>296</ele>
        <time>2015-04-19T10:42:18.286Z</time>
      </trkpt>
      <trkpt lat="47.28267" lon="4.9823">
        <ele>296</ele>
        <time>2015-04-19T10:42:19.292Z</time>
      </trkpt>
      <trkpt lat="47.28273" lon="4.98238">
        <ele>296</ele>
        <time>2015-04-19T10:42:24.282Z</time>
      </trkpt>
      <trkpt lat="47.28275" lon="4.9824">
        <ele>296</ele>
        <time>2015-04-19T10:42:25.291Z</time>
      </trkpt>
      <trkpt lat="47.2828" lon="4.98248">
        <ele>296</ele>
        <time>2015-04-19T10:42:29.300Z</time>
      </trkpt>
      <trkpt lat="47.28282" lon="4.98249">
        <ele>296</ele>
        <time>2015-04-19T10:42:30.286Z</time>
      </trkpt>
      <trkpt lat="47.28289" lon="4.98254">
        <ele>295</ele>
        <time>2015-04-19T10:42:34.302Z</time>
      </trkpt>
      <trkpt lat="47.28291" lon="4.98255">
        <ele>295</ele>
        <time>2015-04-19T10:42:35.275Z</time>
      </trkpt>
      <trkpt lat="47.28298" lon="4.98259">
        <ele>295</ele>
        <time>2015-04-19T10:42:39.276Z</time>
      </trkpt>
      <trkpt lat="47.28299" lon="4.9826">
        <ele>295</ele>
        <time>2015-04-19T10:42:40.282Z</time>
      </trkpt>
      <trkpt lat="47.28306" lon="4.98265">
        <ele>295</ele>
        <time>2015-04-19T10:42:44.297Z</time>
      </trkpt>
      <trkpt lat="47.28308" lon="4.98266">
        <ele>295</ele>
        <time>2015-04-19T10:42:45.300Z</time>
      </trkpt>
      <trkpt lat="47.28315" lon="4.9827">
        <ele>296</ele>
        <time>2015-04-19T10:42:49.309Z</time>
      </trkpt>
      <trkpt lat="47.28316" lon="4.98271">
        <ele>296</ele>
        <time>2015-04-19T10:42:50.291Z</time>
      </trkpt>
      <trkpt lat="47.28323" lon="4.98277">
        <ele>296</ele>
        <time>2015-04-19T10:42:55.302Z</time>
      </trkpt>
      <trkpt lat="47.28325" lon="4.98279">
        <ele>296</ele>
        <time>2015-04-19T10:42:56.295Z</time>
      </trkpt>
      <trkpt lat="47.28333" lon="4.98284">
        <ele>296</ele>
        <time>2015-04-19T10:43:01.290Z</time>
      </trkpt>
      <trkpt lat="47.28334" lon="4.98285">
        <ele>298</ele>
        <time>2015-04-19T10:43:02.305Z</time>
      </trkpt>
      <trkpt lat="47.28341" lon="4.98291">
        <ele>298</ele>
        <time>2015-04-19T10:43:06.284Z</time>
      </trkpt>
      <trkpt lat="47.28343" lon="4.98292">
        <ele>298</ele>
        <time>2015-04-19T10:43:07.301Z</time>
      </trkpt>
      <trkpt lat="47.2835" lon="4.98296">
        <ele>298</ele>
        <time>2015-04-19T10:43:11.278Z</time>
      </trkpt>
      <trkpt lat="47.28352" lon="4.98297">
        <ele>299</ele>
        <time>2015-04-19T10:43:12.287Z</time>
      </trkpt>
      <trkpt lat="47.28355" lon="4.98309">
        <ele>299</ele>
        <time>2015-04-19T10:43:18.298Z</time>
      </trkpt>
      <trkpt lat="47.28354" lon="4.98311">
        <ele>299</ele>
        <time>2015-04-19T10:43:19.297Z</time>
      </trkpt>
      <trkpt lat="47.28351" lon="4.98323">
        <ele>298</ele>
        <time>2015-04-19T10:43:24.295Z</time>
      </trkpt>
      <trkpt lat="47.2835" lon="4.98325">
        <ele>298</ele>
        <time>2015-04-19T10:43:25.285Z</time>
      </trkpt>
      <trkpt lat="47.28345" lon="4.98335">
        <ele>299</ele>
        <time>2015-04-19T10:43:30.290Z</time>
      </trkpt>
      <trkpt lat="47.28344" lon="4.98337">
        <ele>299</ele>
        <time>2015-04-19T10:43:31.281Z</time>
      </trkpt>
      <trkpt lat="47.28341" lon="4.98348">
        <ele>300</ele>
        <time>2015-04-19T10:43:36.307Z</time>
      </trkpt>
      <trkpt lat="47.28341" lon="4.9835">
        <ele>300</ele>
        <time>2015-04-19T10:43:37.276Z</time>
      </trkpt>
      <trkpt lat="47.28344" lon="4.98361">
        <ele>301</ele>
        <time>2015-04-19T10:43:42.289Z</time>
      </trkpt>
      <trkpt lat="47.28345" lon="4.98363">
        <ele>301</ele>
        <time>2015-04-19T10:43:43.285Z</time>
      </trkpt>
      <trkpt lat="47.28342" lon="4.98375">
        <ele>302</ele>
        <time>2015-04-19T10:43:49.303Z</time>
      </trkpt>
      <trkpt lat="47.2834" lon="4.98377">
        <ele>302</ele>
        <time>2015-04-19T10:43:50.275Z</time>
      </trkpt>
      <trkpt lat="47.28333" lon="4.98382">
        <ele>297</ele>
        <time>2015-04-19T10:43:55.289Z</time>
      </trkpt>
      <trkpt lat="47.28332" lon="4.98383">
        <ele>297</ele>
        <time>2015-04-19T10:43:56.295Z</time>
      </trkpt>
      <trkpt lat="47.28325" lon="4.98389">
        <ele>297</ele>
        <time>2015-04-19T10:44:01.285Z</time>
      </trkpt>
      <trkpt lat="47.28323" lon="4.9839">
        <ele>297</ele>
        <time>2015-04-19T10:44:02.288Z</time>
      </trkpt>
      <trkpt lat="47.28316" lon="4.98394">
        <ele>297</ele>
        <time>2015-04-19T10:44:06.283Z</time>
      </trkpt>
      <trkpt lat="47.28314" lon="4.98395">
        <ele>296</ele>
        <time>2015-04-19T10:44:07.277Z</time>
      </trkpt>
      <trkpt lat="47.28308" lon="4.984">
        <ele>296</ele>
        <time>2015-04-19T10:44:11.285Z</time>
      </trkpt>
      <trkpt lat="47.28306" lon="4.98401">
        <ele>296</ele>
        <time>2015-04-19T10:44:12.290Z</time>
      </trkpt>
      <trkpt lat="47.283" lon="4.98407">
        <ele>296</ele>
        <time>2015-04-19T10:44:16.297Z</time>
      </trkpt>
      <trkpt lat="47.28298" lon="4.98408">
        <ele>296</ele>
        <time>2015-04-19T10:44:17.292Z</time>
      </trkpt>
      <trkpt lat="47.28292" lon="4.98417">
        <ele>296</ele>
        <time>2015-04-19T10:44:22.295Z</time>
      </trkpt>
      <trkpt lat="47.28291" lon="4.98419">
        <ele>296</ele>
        <time>2015-04-19T10:44:23.292Z</time>
      </trkpt>
      <trkpt lat="47.28286" lon="4.98429">
        <ele>296</ele>
        <time>2015-04-19T10:44:28.287Z</time>
      </trkpt>
      <trkpt lat="47.28286" lon="4.98432">
        <ele>296</ele>
        <time>2015-04-19T10:44:29.302Z</time>
      </trkpt>
      <trkpt lat="47.28282" lon="4.98441">
        <ele>296</ele>
        <time>2015-04-19T10:44:33.285Z</time>
      </trkpt>
      <trkpt lat="47.28282" lon="4.98444">
        <ele>296</ele>
        <time>2015-04-19T10:44:34.297Z</time>
      </trkpt>
      <trkpt lat="47.28279" lon="4.98456">
        <ele>296</ele>
        <time>2015-04-19T10:44:39.292Z</time>
      </trkpt>
      <trkpt lat="47.28279" lon="4.98458">
        <ele>296</ele>
        <time>2015-04-19T10:44:40.300Z</time>
      </trkpt>
      <trkpt lat="47.28278" lon="4.98469">
        <ele>296</ele>
        <time>2015-04-19T10:44:44.297Z</time>
      </trkpt>
      <trkpt lat="47.28278" lon="4.98472">
        <ele>296</ele>
        <time>2015-04-19T10:44:45.290Z</time>
      </trkpt>
      <trkpt lat="47.28277" lon="4.98485">
        <ele>296</ele>
        <time>2015-04-19T10:44:50.304Z</time>
      </trkpt>
      <trkpt lat="47.28276" lon="4.98487">
        <ele>296</ele>
        <time>2015-04-19T10:44:51.288Z</time>
      </trkpt>
      <trkpt lat="47.28273" lon="4.98496">
        <ele>296</ele>
        <time>2015-04-19T10:44:55.301Z</time>
      </trkpt>
      <trkpt lat="47.28272" lon="4.98499">
        <ele>295</ele>
        <time>2015-04-19T10:44:56.287Z</time>
      </trkpt>
      <trkpt lat="47.28266" lon="4.98509">
        <ele>296</ele>
        <time>2015-04-19T10:45:01.288Z</time>
      </trkpt>
      <trkpt lat="47.28265" lon="4.98511">
        <ele>296</ele>
        <time>2015-04-19T10:45:02.296Z</time>
      </trkpt>
      <trkpt lat="47.28259" lon="4.9852">
        <ele>296</ele>
        <time>2015-04-19T10:45:07.285Z</time>
      </trkpt>
      <trkpt lat="47.28258" lon="4.98522">
        <ele>296</ele>
        <time>2015-04-19T10:45:08.293Z</time>
      </trkpt>
      <trkpt lat="47.28253" lon="4.98531">
        <ele>297</ele>
        <time>2015-04-19T10:45:12.286Z</time>
      </trkpt>
      <trkpt lat="47.28252" lon="4.98533">
        <ele>297</ele>
        <time>2015-04-19T10:45:13.299Z</time>
      </trkpt>
      <trkpt lat="47.28246" lon="4.98541">
        <ele>293</ele>
        <time>2015-04-19T10:45:17.296Z</time>
      </trkpt>
      <trkpt lat="47.28245" lon="4.98543">
        <ele>293</ele>
        <time>2015-04-19T10:45:18.292Z</time>
      </trkpt>
      <trkpt lat="47.28239" lon="4.98549">
        <ele>293</ele>
        <time>2015-04-19T10:45:22.290Z</time>
      </trkpt>
      <trkpt lat="47.28238" lon="4.98551">
        <ele>293</ele>
        <time>2015-04-19T10:45:23.296Z</time>
      </trkpt>
      <trkpt lat="47.28232" lon="4.98558">
        <ele>293</ele>
        <time>2015-04-19T10:45:27.302Z</time>
      </trkpt>
      <trkpt lat="47.28231" lon="4.9856">
        <ele>293</ele>
        <time>2015-04-19T10:45:28.298Z</time>
      </trkpt>
      <trkpt lat="47.28224" lon="4.98568">
        <ele>293</ele>
        <time>2015-04-19T10:45:33.288Z</time>
      </trkpt>
      <trkpt lat="47.28223" lon="4.9857">
        <ele>293</ele>
        <time>2015-04-19T10:45:34.294Z</time>
      </trkpt>
      <trkpt lat="47.28217" lon="4.98577">
        <ele>293</ele>
        <time>2015-04-19T10:45:38.304Z</time>
      </trkpt>
      <trkpt lat="47.28216" lon="4.98579">
        <ele>293</ele>
        <time>2015-04-19T10:45:39.296Z</time>
      </trkpt>
      <trkpt lat="47.28209" lon="4.98588">
        <ele>292</ele>
        <time>2015-04-19T10:45:44.283Z</time>
      </trkpt>
      <trkpt lat="47.28208" lon="4.9859">
        <ele>292</ele>
        <time>2015-04-19T10:45:45.297Z</time>
      </trkpt>
      <trkpt lat="47.28203" lon="4.98598">
        <ele>292</ele>
        <time>2015-04-19T10:45:49.304Z</time>
      </trkpt>
      <trkpt lat="47.28201" lon="4.986">
        <ele>292</ele>
        <time>2015-04-19T10:45:50.312Z</time>
      </trkpt>
      <trkpt lat="47.28196" lon="4.98607">
        <ele>292</ele>
        <time>2015-04-19T10:45:54.302Z</time>
      </trkpt>
      <trkpt lat="47.28195" lon="4.98609">
        <ele>292</ele>
        <time>2015-04-19T10:45:55.296Z</time>
      </trkpt>
      <trkpt lat="47.28189" lon="4.98617">
        <ele>292</ele>
        <time>2015-04-19T10:45:59.306Z</time>
      </trkpt>
      <trkpt lat="47.28188" lon="4.98619">
        <ele>292</ele>
        <time>2015-04-19T10:46:00.294Z</time>
      </trkpt>
      <trkpt lat="47.28183" lon="4.9863">
        <ele>292</ele>
        <time>2015-04-19T10:46:05.293Z</time>
      </trkpt>
      <trkpt lat="47.28184" lon="4.98633">
        <ele>292</ele>
        <time>2015-04-19T10:46:06.298Z</time>
      </trkpt>
      <trkpt lat="47.28189" lon="4.98641">
        <ele>292</ele>
        <time>2015-04-19T10:46:10.302Z</time>
      </trkpt>
      <trkpt lat="47.2819" lon="4.98643">
        <ele>292</ele>
        <time>2015-04-19T10:46:11.297Z</time>
      </trkpt>
      <trkpt lat="47.28197" lon="4.98652">
        <ele>292</ele>
        <time>2015-04-19T10:46:16.297Z</time>
      </trkpt>
      <trkpt lat="47.28198" lon="4.98653">
        <ele>292</ele>
        <time>2015-04-19T10:46:17.310Z</time>
      </trkpt>
      <trkpt lat="47.28205" lon="4.98659">
        <ele>292</ele>
        <time>2015-04-19T10:46:21.299Z</time>
      </trkpt>
      <trkpt lat="47.28206" lon="4.9866">
        <ele>292</ele>
        <time>2015-04-19T10:46:22.287Z</time>
      </trkpt>
      <trkpt lat="47.28214" lon="4.98666">
        <ele>292</ele>
        <time>2015-04-19T10:46:27.298Z</time>
      </trkpt>
      <trkpt lat="47.28216" lon="4.98667">
        <ele>292</ele>
        <time>2015-04-19T10:46:28.297Z</time>
      </trkpt>
      <trkpt lat="47.28224" lon="4.98672">
        <ele>292</ele>
        <time>2015-04-19T10:46:33.296Z</time>
      </trkpt>
      <trkpt lat="47.28225" lon="4.98673">
        <ele>292</ele>
        <time>2015-04-19T10:46:34.297Z</time>
      </trkpt>
      <trkpt lat="47.28233" lon="4.98673">
        <ele>293</ele>
        <time>2015-04-19T10:46:38.321Z</time>
      </trkpt>
      <trkpt lat="47.28234" lon="4.98673">
        <ele>293</ele>
        <time>2015-04-19T10:46:39.305Z</time>
      </trkpt>
      <trkpt lat="47.28243" lon="4.98671">
        <ele>293</ele>
        <time>2015-04-19T10:46:44.311Z</time>
      </trkpt>
      <trkpt lat="47.28245" lon="4.98671">
        <ele>293</ele>
        <time>2015-04-19T10:46:45.299Z</time>
      </trkpt>
      <trkpt lat="47.28252" lon="4.98669">
        <ele>294</ele>
        <time>2015-04-19T10:46:49.286Z</time>
      </trkpt>
      <trkpt lat="47.28254" lon="4.98668">
        <ele>295</ele>
        <time>2015-04-19T10:46:50.309Z</time>
      </trkpt>
      <trkpt lat="47.28263" lon="4.98666">
        <ele>296</ele>
        <time>2015-04-19T10:46:55.304Z</time>
      </trkpt>
      <trkpt lat="47.28264" lon="4.98666">
        <ele>296</ele>
        <time>2015-04-19T10:46:56.309Z</time>
      </trkpt>
      <trkpt lat="47.28271" lon="4.98664">
        <ele>297</ele>
        <time>2015-04-19T10:47:00.293Z</time>
      </trkpt>
      <trkpt lat="47.28273" lon="4.98664">
        <ele>297</ele>
        <time>2015-04-19T10:47:01.291Z</time>
      </trkpt>
      <trkpt lat="47.28282" lon="4.98662">
        <ele>298</ele>
        <time>2015-04-19T10:47:06.290Z</time>
      </trkpt>
      <trkpt lat="47.28284" lon="4.98662">
        <ele>298</ele>
        <time>2015-04-19T10:47:07.287Z</time>
      </trkpt>
      <trkpt lat="47.28293" lon="4.98662">
        <ele>299</ele>
        <time>2015-04-19T10:47:12.286Z</time>
      </trkpt>
      <trkpt lat="47.28294" lon="4.98661">
        <ele>299</ele>
        <time>2015-04-19T10:47:13.288Z</time>
      </trkpt>
      <trkpt lat="47.28301" lon="4.9866">
        <ele>300</ele>
        <time>2015-04-19T10:47:17.286Z</time>
      </trkpt>
      <trkpt lat="47.28303" lon="4.98659">
        <ele>300</ele>
        <time>2015-04-19T10:47:18.297Z</time>
      </trkpt>
      <trkpt lat="47.28311" lon="4.98658">
        <ele>301</ele>
        <time>2015-04-19T10:47:22.288Z</time>
      </trkpt>
      <trkpt lat="47.28313" lon="4.98658">
        <ele>301</ele>
        <time>2015-04-19T10:47:23.303Z</time>
      </trkpt>
      <trkpt lat="47.28321" lon="4.98656">
        <ele>302</ele>
        <time>2015-04-19T10:47:27.299Z</time>
      </trkpt>
      <trkpt lat="47.28322" lon="4.98656">
        <ele>302</ele>
        <time>2015-04-19T10:47:28.296Z</time>
      </trkpt>
      <trkpt lat="47.28331" lon="4.98656">
        <ele>302</ele>
        <time>2015-04-19T10:47:33.290Z</time>
      </trkpt>
      <trkpt lat="47.28333" lon="4.98656">
        <ele>302</ele>
        <time>2015-04-19T10:47:34.292Z</time>
      </trkpt>
      <trkpt lat="47.2834" lon="4.98655">
        <ele>307</ele>
        <time>2015-04-19T10:47:39.292Z</time>
      </trkpt>
      <trkpt lat="47.28342" lon="4.98654">
        <ele>307</ele>
        <time>2015-04-19T10:47:40.288Z</time>
      </trkpt>
      <trkpt lat="47.28347" lon="4.98663">
        <ele>307</ele>
        <time>2015-04-19T10:47:46.288Z</time>
      </trkpt>
      <trkpt lat="47.28347" lon="4.98665">
        <ele>307</ele>
        <time>2015-04-19T10:47:47.296Z</time>
      </trkpt>
      <trkpt lat="47.2835" lon="4.98677">
        <ele>307</ele>
        <time>2015-04-19T10:47:53.296Z</time>
      </trkpt>
      <trkpt lat="47.2835" lon="4.9868">
        <ele>308</ele>
        <time>2015-04-19T10:47:54.329Z</time>
      </trkpt>
      <trkpt lat="47.28355" lon="4.98688">
        <ele>308</ele>
        <time>2015-04-19T10:47:59.306Z</time>
      </trkpt>
      <trkpt lat="47.28356" lon="4.98691">
        <ele>309</ele>
        <time>2015-04-19T10:48:00.289Z</time>
      </trkpt>
      <trkpt lat="47.28357" lon="4.98704">
        <ele>309</ele>
        <time>2015-04-19T10:48:06.290Z</time>
      </trkpt>
      <trkpt lat="47.28356" lon="4.98705">
        <ele>309</ele>
        <time>2015-04-19T10:48:07.311Z</time>
      </trkpt>
      <trkpt lat="47.28354" lon="4.98716">
        <ele>309</ele>
        <time>2015-04-19T10:48:14.305Z</time>
      </trkpt>
      <trkpt lat="47.28353" lon="4.98718">
        <ele>308</ele>
        <time>2015-04-19T10:48:15.299Z</time>
      </trkpt>
      <trkpt lat="47.28349" lon="4.98728">
        <ele>308</ele>
        <time>2015-04-19T10:48:22.289Z</time>
      </trkpt>
      <trkpt lat="47.28348" lon="4.9873">
        <ele>307</ele>
        <time>2015-04-19T10:48:23.304Z</time>
      </trkpt>
      <trkpt lat="47.28346" lon="4.98742">
        <ele>306</ele>
        <time>2015-04-19T10:48:29.306Z</time>
      </trkpt>
      <trkpt lat="47.28346" lon="4.98744">
        <ele>306</ele>
        <time>2015-04-19T10:48:30.289Z</time>
      </trkpt>
      <trkpt lat="47.28345" lon="4.98757">
        <ele>306</ele>
        <time>2015-04-19T10:48:36.289Z</time>
      </trkpt>
      <trkpt lat="47.28345" lon="4.98759">
        <ele>306</ele>
        <time>2015-04-19T10:48:37.307Z</time>
      </trkpt>
      <trkpt lat="47.28345" lon="4.9877">
        <ele>307</ele>
        <time>2015-04-19T10:48:42.268Z</time>
      </trkpt>
      <trkpt lat="47.28345" lon="4.98772">
        <ele>308</ele>
        <time>2015-04-19T10:48:43.286Z</time>
      </trkpt>
      <trkpt lat="47.28344" lon="4.98784">
        <ele>308</ele>
        <time>2015-04-19T10:48:49.352Z</time>
      </trkpt>
      <trkpt lat="47.28343" lon="4.98786">
        <ele>308</ele>
        <time>2015-04-19T10:48:50.297Z</time>
      </trkpt>
      <trkpt lat="47.28341" lon="4.98797">
        <ele>308</ele>
        <time>2015-04-19T10:48:55.294Z</time>
      </trkpt>
      <trkpt lat="47.28341" lon="4.98799">
        <ele>308</ele>
        <time>2015-04-19T10:48:56.309Z</time>
      </trkpt>
      <trkpt lat="47.28341" lon="4.98812">
        <ele>308</ele>
        <time>2015-04-19T10:49:01.288Z</time>
      </trkpt>
      <trkpt lat="47.28341" lon="4.98815">
        <ele>307</ele>
        <time>2015-04-19T10:49:02.308Z</time>
      </trkpt>
      <trkpt lat="47.28344" lon="4.98824">
        <ele>307</ele>
        <time>2015-04-19T10:49:06.290Z</time>
      </trkpt>
      <trkpt lat="47.28344" lon="4.98827">
        <ele>307</ele>
        <time>2015-04-19T10:49:07.290Z</time>
      </trkpt>
      <trkpt lat="47.28348" lon="4.98837">
        <ele>307</ele>
        <time>2015-04-19T10:49:10.285Z</time>
      </trkpt>
      <trkpt lat="47.28348" lon="4.9884">
        <ele>307</ele>
        <time>2015-04-19T10:49:11.263Z</time>
      </trkpt>
      <trkpt lat="47.28353" lon="4.98851">
        <ele>308</ele>
        <time>2015-04-19T10:49:17.286Z</time>
      </trkpt>
      <trkpt lat="47.28354" lon="4.98852">
        <ele>309</ele>
        <time>2015-04-19T10:49:18.314Z</time>
      </trkpt>
      <trkpt lat="47.28356" lon="4.98864">
        <ele>309</ele>
        <time>2015-04-19T10:49:23.307Z</time>
      </trkpt>
      <trkpt lat="47.28356" lon="4.98867">
        <ele>309</ele>
        <time>2015-04-19T10:49:24.288Z</time>
      </trkpt>
      <trkpt lat="47.28359" lon="4.9888">
        <ele>309</ele>
        <time>2015-04-19T10:49:29.290Z</time>
      </trkpt>
      <trkpt lat="47.28359" lon="4.98882">
        <ele>309</ele>
        <time>2015-04-19T10:49:30.282Z</time>
      </trkpt>
      <trkpt lat="47.28364" lon="4.98891">
        <ele>310</ele>
        <time>2015-04-19T10:49:35.285Z</time>
      </trkpt>
      <trkpt lat="47.28365" lon="4.98894">
        <ele>310</ele>
        <time>2015-04-19T10:49:36.287Z</time>
      </trkpt>
      <trkpt lat="47.28368" lon="4.98905">
        <ele>310</ele>
        <time>2015-04-19T10:49:41.261Z</time>
      </trkpt>
      <trkpt lat="47.28369" lon="4.98908">
        <ele>310</ele>
        <time>2015-04-19T10:49:42.265Z</time>
      </trkpt>
      <trkpt lat="47.28375" lon="4.98917">
        <ele>310</ele>
        <time>2015-04-19T10:49:47.263Z</time>
      </trkpt>
      <trkpt lat="47.28376" lon="4.98918">
        <ele>310</ele>
        <time>2015-04-19T10:49:48.281Z</time>
      </trkpt>
      <trkpt lat="47.28382" lon="4.98927">
        <ele>311</ele>
        <time>2015-04-19T10:49:55.304Z</time>
      </trkpt>
      <trkpt lat="47.28383" lon="4.98928">
        <ele>311</ele>
        <time>2015-04-19T10:49:56.259Z</time>
      </trkpt>
      <trkpt lat="47.28391" lon="4.98934">
        <ele>312</ele>
        <time>2015-04-19T10:50:03.298Z</time>
      </trkpt>
      <trkpt lat="47.28392" lon="4.98935">
        <ele>312</ele>
        <time>2015-04-19T10:50:04.265Z</time>
      </trkpt>
      <trkpt lat="47.28396" lon="4.98944">
        <ele>312</ele>
        <time>2015-04-19T10:50:09.267Z</time>
      </trkpt>
      <trkpt lat="47.28397" lon="4.98946">
        <ele>312</ele>
        <time>2015-04-19T10:50:10.255Z</time>
      </trkpt>
      <trkpt lat="47.28402" lon="4.98957">
        <ele>312</ele>
        <time>2015-04-19T10:50:18.270Z</time>
      </trkpt>
      <trkpt lat="47.28403" lon="4.98958">
        <ele>312</ele>
        <time>2015-04-19T10:50:19.276Z</time>
      </trkpt>
      <trkpt lat="47.2841" lon="4.98964">
        <ele>312</ele>
        <time>2015-04-19T10:50:26.274Z</time>
      </trkpt>
      <trkpt lat="47.28411" lon="4.98964">
        <ele>312</ele>
        <time>2015-04-19T10:50:27.332Z</time>
      </trkpt>
      <trkpt lat="47.28419" lon="4.98971">
        <ele>321</ele>
        <time>2015-04-19T10:50:34.281Z</time>
      </trkpt>
      <trkpt lat="47.2842" lon="4.98972">
        <ele>320</ele>
        <time>2015-04-19T10:50:35.269Z</time>
      </trkpt>
      <trkpt lat="47.28426" lon="4.98978">
        <ele>320</ele>
        <time>2015-04-19T10:50:40.267Z</time>
      </trkpt>
      <trkpt lat="47.28427" lon="4.98979">
        <ele>320</ele>
        <time>2015-04-19T10:50:41.290Z</time>
      </trkpt>
      <trkpt lat="47.28433" lon="4.98987">
        <ele>320</ele>
        <time>2015-04-19T10:50:50.327Z</time>
      </trkpt>
      <trkpt lat="47.28435" lon="4.98988">
        <ele>321</ele>
        <time>2015-04-19T10:50:51.280Z</time>
      </trkpt>
      <trkpt lat="47.28441" lon="4.98994">
        <ele>321</ele>
        <time>2015-04-19T10:50:56.278Z</time>
      </trkpt>
      <trkpt lat="47.28442" lon="4.98995">
        <ele>321</ele>
        <time>2015-04-19T10:50:57.267Z</time>
      </trkpt>
      <trkpt lat="47.2845" lon="4.99">
        <ele>323</ele>
        <time>2015-04-19T10:51:03.268Z</time>
      </trkpt>
      <trkpt lat="47.28451" lon="4.99001">
        <ele>323</ele>
        <time>2015-04-19T10:51:04.271Z</time>
      </trkpt>
      <trkpt lat="47.28458" lon="4.99005">
        <ele>324</ele>
        <time>2015-04-19T10:51:11.335Z</time>
      </trkpt>
      <trkpt lat="47.28459" lon="4.99005">
        <ele>324</ele>
        <time>2015-04-19T10:51:12.282Z</time>
      </trkpt>
      <trkpt lat="47.28468" lon="4.99007">
        <ele>325</ele>
        <time>2015-04-19T10:51:19.316Z</time>
      </trkpt>
      <trkpt lat="47.28469" lon="4.99008">
        <ele>325</ele>
        <time>2015-04-19T10:51:20.285Z</time>
      </trkpt>
      <trkpt lat="47.28475" lon="4.99014">
        <ele>326</ele>
        <time>2015-04-19T10:51:25.276Z</time>
      </trkpt>
      <trkpt lat="47.28476" lon="4.99015">
        <ele>326</ele>
        <time>2015-04-19T10:51:26.283Z</time>
      </trkpt>
      <trkpt lat="47.28481" lon="4.99023">
        <ele>326</ele>
        <time>2015-04-19T10:51:31.308Z</time>
      </trkpt>
      <trkpt lat="47.28482" lon="4.99025">
        <ele>326</ele>
        <time>2015-04-19T10:51:32.420Z</time>
      </trkpt>
      <trkpt lat="47.28487" lon="4.99035">
        <ele>326</ele>
        <time>2015-04-19T10:51:37.284Z</time>
      </trkpt>
      <trkpt lat="47.28488" lon="4.99036">
        <ele>326</ele>
        <time>2015-04-19T10:51:38.281Z</time>
      </trkpt>
      <trkpt lat="47.28494" lon="4.99044">
        <ele>327</ele>
        <time>2015-04-19T10:51:43.285Z</time>
      </trkpt>
      <trkpt lat="47.28495" lon="4.99046">
        <ele>327</ele>
        <time>2015-04-19T10:51:44.300Z</time>
      </trkpt>
      <trkpt lat="47.28502" lon="4.99054">
        <ele>334</ele>
        <time>2015-04-19T10:51:50.300Z</time>
      </trkpt>
      <trkpt lat="47.28503" lon="4.99055">
        <ele>334</ele>
        <time>2015-04-19T10:51:51.297Z</time>
      </trkpt>
      <trkpt lat="47.2851" lon="4.99064">
        <ele>334</ele>
        <time>2015-04-19T10:51:56.311Z</time>
      </trkpt>
      <trkpt lat="47.28511" lon="4.99066">
        <ele>334</ele>
        <time>2015-04-19T10:51:57.300Z</time>
      </trkpt>
      <trkpt lat="47.28518" lon="4.99074">
        <ele>334</ele>
        <time>2015-04-19T10:52:02.299Z</time>
      </trkpt>
      <trkpt lat="47.2852" lon="4.99075">
        <ele>334</ele>
        <time>2015-04-19T10:52:03.292Z</time>
      </trkpt>
      <trkpt lat="47.28526" lon="4.99083">
        <ele>334</ele>
        <time>2015-04-19T10:52:08.292Z</time>
      </trkpt>
      <trkpt lat="47.28527" lon="4.99084">
        <ele>334</ele>
        <time>2015-04-19T10:52:09.293Z</time>
      </trkpt>
      <trkpt lat="47.28535" lon="4.99091">
        <ele>334</ele>
        <time>2015-04-19T10:52:17.305Z</time>
      </trkpt>
      <trkpt lat="47.28536" lon="4.99092">
        <ele>334</ele>
        <time>2015-04-19T10:52:18.279Z</time>
      </trkpt>
      <trkpt lat="47.28543" lon="4.99098">
        <ele>334</ele>
        <time>2015-04-19T10:52:25.278Z</time>
      </trkpt>
      <trkpt lat="47.28543" lon="4.99099">
        <ele>334</ele>
        <time>2015-04-19T10:52:26.300Z</time>
      </trkpt>
      <trkpt lat="47.28549" lon="4.99108">
        <ele>334</ele>
        <time>2015-04-19T10:52:33.291Z</time>
      </trkpt>
      <trkpt lat="47.2855" lon="4.99109">
        <ele>334</ele>
        <time>2015-04-19T10:52:34.293Z</time>
      </trkpt>
      <trkpt lat="47.28555" lon="4.99118">
        <ele>334</ele>
        <time>2015-04-19T10:52:40.296Z</time>
      </trkpt>
      <trkpt lat="47.28556" lon="4.9912">
        <ele>334</ele>
        <time>2015-04-19T10:52:41.285Z</time>
      </trkpt>
      <trkpt lat="47.28559" lon="4.99131">
        <ele>334</ele>
        <time>2015-04-19T10:52:46.300Z</time>
      </trkpt>
      <trkpt lat="47.2856" lon="4.99133">
        <ele>334</ele>
        <time>2015-04-19T10:52:47.276Z</time>
      </trkpt>
      <trkpt lat="47.28566" lon="4.99142">
        <ele>334</ele>
        <time>2015-04-19T10:52:53.300Z</time>
      </trkpt>
      <trkpt lat="47.28567" lon="4.99144">
        <ele>334</ele>
        <time>2015-04-19T10:52:54.281Z</time>
      </trkpt>
      <trkpt lat="47.28574" lon="4.99152">
        <ele>334</ele>
        <time>2015-04-19T10:53:00.287Z</time>
      </trkpt>
      <trkpt lat="47.28575" lon="4.99154">
        <ele>334</ele>
        <time>2015-04-19T10:53:01.289Z</time>
      </trkpt>
      <trkpt lat="47.28582" lon="4.99162">
        <ele>334</ele>
        <time>2015-04-19T10:53:07.287Z</time>
      </trkpt>
      <trkpt lat="47.28583" lon="4.99163">
        <ele>334</ele>
        <time>2015-04-19T10:53:08.302Z</time>
      </trkpt>
      <trkpt lat="47.28591" lon="4.9917">
        <ele>334</ele>
        <time>2015-04-19T10:53:14.297Z</time>
      </trkpt>
      <trkpt lat="47.28592" lon="4.99171">
        <ele>334</ele>
        <time>2015-04-19T10:53:15.294Z</time>
      </trkpt>
      <trkpt lat="47.28598" lon="4.99179">
        <ele>334</ele>
        <time>2015-04-19T10:53:20.301Z</time>
      </trkpt>
      <trkpt lat="47.28599" lon="4.9918">
        <ele>334</ele>
        <time>2015-04-19T10:53:21.289Z</time>
      </trkpt>
      <trkpt lat="47.28604" lon="4.99189">
        <ele>333</ele>
        <time>2015-04-19T10:53:27.297Z</time>
      </trkpt>
      <trkpt lat="47.28605" lon="4.99191">
        <ele>333</ele>
        <time>2015-04-19T10:53:28.302Z</time>
      </trkpt>
      <trkpt lat="47.28612" lon="4.99198">
        <ele>333</ele>
        <time>2015-04-19T10:53:34.271Z</time>
      </trkpt>
      <trkpt lat="47.28613" lon="4.99198">
        <ele>333</ele>
        <time>2015-04-19T10:53:35.284Z</time>
      </trkpt>
      <trkpt lat="47.2862" lon="4.99204">
        <ele>333</ele>
        <time>2015-04-19T10:53:41.290Z</time>
      </trkpt>
      <trkpt lat="47.28621" lon="4.99205">
        <ele>333</ele>
        <time>2015-04-19T10:53:42.299Z</time>
      </trkpt>
      <trkpt lat="47.28628" lon="4.99212">
        <ele>333</ele>
        <time>2015-04-19T10:53:47.300Z</time>
      </trkpt>
      <trkpt lat="47.28629" lon="4.99214">
        <ele>333</ele>
        <time>2015-04-19T10:53:48.330Z</time>
      </trkpt>
      <trkpt lat="47.28637" lon="4.9922">
        <ele>333</ele>
        <time>2015-04-19T10:53:53.302Z</time>
      </trkpt>
      <trkpt lat="47.28639" lon="4.9922">
        <ele>333</ele>
        <time>2015-04-19T10:53:54.312Z</time>
      </trkpt>
      <trkpt lat="47.28646" lon="4.99227">
        <ele>333</ele>
        <time>2015-04-19T10:53:59.304Z</time>
      </trkpt>
      <trkpt lat="47.28647" lon="4.99228">
        <ele>333</ele>
        <time>2015-04-19T10:54:00.282Z</time>
      </trkpt>
      <trkpt lat="47.28652" lon="4.99238">
        <ele>333</ele>
        <time>2015-04-19T10:54:05.293Z</time>
      </trkpt>
      <trkpt lat="47.28653" lon="4.9924">
        <ele>333</ele>
        <time>2015-04-19T10:54:06.293Z</time>
      </trkpt>
      <trkpt lat="47.28658" lon="4.9925">
        <ele>332</ele>
        <time>2015-04-19T10:54:11.286Z</time>
      </trkpt>
      <trkpt lat="47.28659" lon="4.99251">
        <ele>331</ele>
        <time>2015-04-19T10:54:12.293Z</time>
      </trkpt>
      <trkpt lat="47.28666" lon="4.99258">
        <ele>331</ele>
        <time>2015-04-19T10:54:17.300Z</time>
      </trkpt>
      <trkpt lat="47.28667" lon="4.99259">
        <ele>331</ele>
        <time>2015-04-19T10:54:18.293Z</time>
      </trkpt>
      <trkpt lat="47.28674" lon="4.99264">
        <ele>330</ele>
        <time>2015-04-19T10:54:23.299Z</time>
      </trkpt>
      <trkpt lat="47.28675" lon="4.99265">
        <ele>330</ele>
        <time>2015-04-19T10:54:24.302Z</time>
      </trkpt>
      <trkpt lat="47.28682" lon="4.99272">
        <ele>330</ele>
        <time>2015-04-19T10:54:29.300Z</time>
      </trkpt>
      <trkpt lat="47.28683" lon="4.99273">
        <ele>330</ele>
        <time>2015-04-19T10:54:30.292Z</time>
      </trkpt>
      <trkpt lat="47.2869" lon="4.99278">
        <ele>329</ele>
        <time>2015-04-19T10:54:35.293Z</time>
      </trkpt>
      <trkpt lat="47.28692" lon="4.99279">
        <ele>329</ele>
        <time>2015-04-19T10:54:36.297Z</time>
      </trkpt>
      <trkpt lat="47.28699" lon="4.99284">
        <ele>329</ele>
        <time>2015-04-19T10:54:41.286Z</time>
      </trkpt>
      <trkpt lat="47.287" lon="4.99286">
        <ele>329</ele>
        <time>2015-04-19T10:54:42.273Z</time>
      </trkpt>
      <trkpt lat="47.28705" lon="4.99296">
        <ele>329</ele>
        <time>2015-04-19T10:54:47.278Z</time>
      </trkpt>
      <trkpt lat="47.28706" lon="4.99298">
        <ele>328</ele>
        <time>2015-04-19T10:54:48.278Z</time>
      </trkpt>
      <trkpt lat="47.28712" lon="4.99307">
        <ele>328</ele>
        <time>2015-04-19T10:54:53.298Z</time>
      </trkpt>
      <trkpt lat="47.28713" lon="4.99308">
        <ele>328</ele>
        <time>2015-04-19T10:54:54.306Z</time>
      </trkpt>
      <trkpt lat="47.28719" lon="4.99318">
        <ele>328</ele>
        <time>2015-04-19T10:55:00.292Z</time>
      </trkpt>
      <trkpt lat="47.2872" lon="4.99319">
        <ele>328</ele>
        <time>2015-04-19T10:55:01.300Z</time>
      </trkpt>
      <trkpt lat="47.28727" lon="4.99326">
        <ele>328</ele>
        <time>2015-04-19T10:55:07.296Z</time>
      </trkpt>
      <trkpt lat="47.28729" lon="4.99327">
        <ele>328</ele>
        <time>2015-04-19T10:55:08.321Z</time>
      </trkpt>
      <trkpt lat="47.28737" lon="4.9933">
        <ele>328</ele>
        <time>2015-04-19T10:55:14.324Z</time>
      </trkpt>
      <trkpt lat="47.28739" lon="4.99331">
        <ele>328</ele>
        <time>2015-04-19T10:55:15.300Z</time>
      </trkpt>
      <trkpt lat="47.28747" lon="4.99334">
        <ele>326</ele>
        <time>2015-04-19T10:55:21.300Z</time>
      </trkpt>
      <trkpt lat="47.28748" lon="4.99334">
        <ele>327</ele>
        <time>2015-04-19T10:55:22.313Z</time>
      </trkpt>
      <trkpt lat="47.28756" lon="4.99337">
        <ele>326</ele>
        <time>2015-04-19T10:55:28.306Z</time>
      </trkpt>
      <trkpt lat="47.28758" lon="4.99338">
        <ele>326</ele>
        <time>2015-04-19T10:55:29.320Z</time>
      </trkpt>
      <trkpt lat="47.28764" lon="4.99346">
        <ele>325</ele>
        <time>2015-04-19T10:55:34.303Z</time>
      </trkpt>
      <trkpt lat="47.28766" lon="4.99347">
        <ele>325</ele>
        <time>2015-04-19T10:55:35.300Z</time>
      </trkpt>
      <trkpt lat="47.28773" lon="4.99352">
        <ele>325</ele>
        <time>2015-04-19T10:55:40.305Z</time>
      </trkpt>
      <trkpt lat="47.28775" lon="4.99353">
        <ele>325</ele>
        <time>2015-04-19T10:55:41.279Z</time>
      </trkpt>
      <trkpt lat="47.28782" lon="4.99358">
        <ele>324</ele>
        <time>2015-04-19T10:55:46.308Z</time>
      </trkpt>
      <trkpt lat="47.28784" lon="4.99359">
        <ele>324</ele>
        <time>2015-04-19T10:55:47.303Z</time>
      </trkpt>
      <trkpt lat="47.28791" lon="4.99364">
        <ele>324</ele>
        <time>2015-04-19T10:55:52.294Z</time>
      </trkpt>
      <trkpt lat="47.28792" lon="4.99365">
        <ele>324</ele>
        <time>2015-04-19T10:55:53.314Z</time>
      </trkpt>
      <trkpt lat="47.28799" lon="4.9937">
        <ele>324</ele>
        <time>2015-04-19T10:55:58.303Z</time>
      </trkpt>
      <trkpt lat="47.28801" lon="4.99371">
        <ele>324</ele>
        <time>2015-04-19T10:55:59.330Z</time>
      </trkpt>
      <trkpt lat="47.28808" lon="4.99378">
        <ele>324</ele>
        <time>2015-04-19T10:56:03.320Z</time>
      </trkpt>
      <trkpt lat="47.28809" lon="4.9938">
        <ele>324</ele>
        <time>2015-04-19T10:56:04.299Z</time>
      </trkpt>
      <trkpt lat="47.28815" lon="4.99389">
        <ele>323</ele>
        <time>2015-04-19T10:56:08.301Z</time>
      </trkpt>
      <trkpt lat="47.28816" lon="4.99391">
        <ele>323</ele>
        <time>2015-04-19T10:56:09.297Z</time>
      </trkpt>
      <trkpt lat="47.28823" lon="4.99398">
        <ele>323</ele>
        <time>2015-04-19T10:56:14.284Z</time>
      </trkpt>
      <trkpt lat="47.28825" lon="4.99399">
        <ele>323</ele>
        <time>2015-04-19T10:56:15.304Z</time>
      </trkpt>
      <trkpt lat="47.28832" lon="4.99401">
        <ele>322</ele>
        <time>2015-04-19T10:56:19.309Z</time>
      </trkpt>
      <trkpt lat="47.28834" lon="4.99402">
        <ele>323</ele>
        <time>2015-04-19T10:56:20.309Z</time>
      </trkpt>
      <trkpt lat="47.28842" lon="4.99404">
        <ele>323</ele>
        <time>2015-04-19T10:56:25.285Z</time>
      </trkpt>
      <trkpt lat="47.28844" lon="4.99406">
        <ele>323</ele>
        <time>2015-04-19T10:56:26.306Z</time>
      </trkpt>
      <trkpt lat="47.28852" lon="4.99408">
        <ele>324</ele>
        <time>2015-04-19T10:56:31.309Z</time>
      </trkpt>
      <trkpt lat="47.28854" lon="4.99408">
        <ele>324</ele>
        <time>2015-04-19T10:56:32.347Z</time>
      </trkpt>
      <trkpt lat="47.28861" lon="4.99413">
        <ele>324</ele>
        <time>2015-04-19T10:56:37.309Z</time>
      </trkpt>
      <trkpt lat="47.28862" lon="4.99415">
        <ele>324</ele>
        <time>2015-04-19T10:56:38.314Z</time>
      </trkpt>
      <trkpt lat="47.28869" lon="4.9942">
        <ele>320</ele>
        <time>2015-04-19T10:56:44.308Z</time>
      </trkpt>
      <trkpt lat="47.2887" lon="4.99421">
        <ele>320</ele>
        <time>2015-04-19T10:56:45.301Z</time>
      </trkpt>
      <trkpt lat="47.28878" lon="4.99426">
        <ele>320</ele>
        <time>2015-04-19T10:56:51.296Z</time>
      </trkpt>
      <trkpt lat="47.28879" lon="4.99428">
        <ele>320</ele>
        <time>2015-04-19T10:56:52.299Z</time>
      </trkpt>
      <trkpt lat="47.28886" lon="4.99432">
        <ele>320</ele>
        <time>2015-04-19T10:56:57.303Z</time>
      </trkpt>
      <trkpt lat="47.28888" lon="4.99433">
        <ele>320</ele>
        <time>2015-04-19T10:56:58.306Z</time>
      </trkpt>
      <trkpt lat="47.28897" lon="4.99435">
        <ele>321</ele>
        <time>2015-04-19T10:57:03.296Z</time>
      </trkpt>
      <trkpt lat="47.28898" lon="4.99436">
        <ele>321</ele>
        <time>2015-04-19T10:57:04.299Z</time>
      </trkpt>
      <trkpt lat="47.28906" lon="4.99437">
        <ele>321</ele>
        <time>2015-04-19T10:57:09.300Z</time>
      </trkpt>
      <trkpt lat="47.28907" lon="4.99437">
        <ele>321</ele>
        <time>2015-04-19T10:57:10.294Z</time>
      </trkpt>
      <trkpt lat="47.28916" lon="4.9944">
        <ele>321</ele>
        <time>2015-04-19T10:57:16.313Z</time>
      </trkpt>
      <trkpt lat="47.28917" lon="4.99441">
        <ele>322</ele>
        <time>2015-04-19T10:57:17.293Z</time>
      </trkpt>
      <trkpt lat="47.28926" lon="4.99443">
        <ele>322</ele>
        <time>2015-04-19T10:57:23.290Z</time>
      </trkpt>
      <trkpt lat="47.28927" lon="4.99444">
        <ele>322</ele>
        <time>2015-04-19T10:57:24.298Z</time>
      </trkpt>
      <trkpt lat="47.28935" lon="4.99446">
        <ele>322</ele>
        <time>2015-04-19T10:57:29.305Z</time>
      </trkpt>
      <trkpt lat="47.28936" lon="4.99447">
        <ele>322</ele>
        <time>2015-04-19T10:57:30.268Z</time>
      </trkpt>
      <trkpt lat="47.28944" lon="4.99452">
        <ele>322</ele>
        <time>2015-04-19T10:57:35.287Z</time>
      </trkpt>
      <trkpt lat="47.28945" lon="4.99452">
        <ele>322</ele>
        <time>2015-04-19T10:57:36.287Z</time>
      </trkpt>
      <trkpt lat="47.28954" lon="4.99449">
        <ele>322</ele>
        <time>2015-04-19T10:57:42.301Z</time>
      </trkpt>
      <trkpt lat="47.28955" lon="4.99448">
        <ele>322</ele>
        <time>2015-04-19T10:57:43.315Z</time>
      </trkpt>
      <trkpt lat="47.28962" lon="4.99441">
        <ele>322</ele>
        <time>2015-04-19T10:57:49.318Z</time>
      </trkpt>
      <trkpt lat="47.28964" lon="4.9944">
        <ele>322</ele>
        <time>2015-04-19T10:57:50.320Z</time>
      </trkpt>
      <trkpt lat="47.28972" lon="4.99437">
        <ele>323</ele>
        <time>2015-04-19T10:57:55.292Z</time>
      </trkpt>
      <trkpt lat="47.28974" lon="4.99436">
        <ele>323</ele>
        <time>2015-04-19T10:57:56.317Z</time>
      </trkpt>
      <trkpt lat="47.28982" lon="4.99432">
        <ele>324</ele>
        <time>2015-04-19T10:58:02.319Z</time>
      </trkpt>
      <trkpt lat="47.28983" lon="4.99431">
        <ele>324</ele>
        <time>2015-04-19T10:58:03.295Z</time>
      </trkpt>
      <trkpt lat="47.28987" lon="4.99422">
        <ele>325</ele>
        <time>2015-04-19T10:58:08.312Z</time>
      </trkpt>
      <trkpt lat="47.28988" lon="4.9942">
        <ele>325</ele>
        <time>2015-04-19T10:58:09.303Z</time>
      </trkpt>
      <trkpt lat="47.28994" lon="4.99411">
        <ele>327</ele>
        <time>2015-04-19T10:58:14.315Z</time>
      </trkpt>
      <trkpt lat="47.28996" lon="4.99411">
        <ele>327</ele>
        <time>2015-04-19T10:58:15.310Z</time>
      </trkpt>
      <trkpt lat="47.29005" lon="4.9941">
        <ele>328</ele>
        <time>2015-04-19T10:58:22.307Z</time>
      </trkpt>
      <trkpt lat="47.29006" lon="4.99409">
        <ele>328</ele>
        <time>2015-04-19T10:58:23.318Z</time>
      </trkpt>
      <trkpt lat="47.29013" lon="4.99401">
        <ele>328</ele>
        <time>2015-04-19T10:58:29.320Z</time>
      </trkpt>
      <trkpt lat="47.29014" lon="4.994">
        <ele>328</ele>
        <time>2015-04-19T10:58:30.300Z</time>
      </trkpt>
      <trkpt lat="47.2902" lon="4.99393">
        <ele>328</ele>
        <time>2015-04-19T10:58:35.301Z</time>
      </trkpt>
      <trkpt lat="47.29022" lon="4.99392">
        <ele>328</ele>
        <time>2015-04-19T10:58:36.293Z</time>
      </trkpt>
      <trkpt lat="47.29027" lon="4.99384">
        <ele>329</ele>
        <time>2015-04-19T10:58:41.295Z</time>
      </trkpt>
      <trkpt lat="47.29028" lon="4.99381">
        <ele>329</ele>
        <time>2015-04-19T10:58:42.304Z</time>
      </trkpt>
      <trkpt lat="47.29034" lon="4.99372">
        <ele>329</ele>
        <time>2015-04-19T10:58:47.283Z</time>
      </trkpt>
      <trkpt lat="47.29035" lon="4.99371">
        <ele>329</ele>
        <time>2015-04-19T10:58:48.300Z</time>
      </trkpt>
      <trkpt lat="47.29043" lon="4.99376">
        <ele>329</ele>
        <time>2015-04-19T10:58:54.313Z</time>
      </trkpt>
      <trkpt lat="47.29044" lon="4.99376">
        <ele>329</ele>
        <time>2015-04-19T10:58:55.302Z</time>
      </trkpt>
      <trkpt lat="47.29052" lon="4.9938">
        <ele>329</ele>
        <time>2015-04-19T10:59:01.285Z</time>
      </trkpt>
      <trkpt lat="47.29053" lon="4.99381">
        <ele>329</ele>
        <time>2015-04-19T10:59:02.302Z</time>
      </trkpt>
      <trkpt lat="47.29061" lon="4.99387">
        <ele>329</ele>
        <time>2015-04-19T10:59:07.297Z</time>
      </trkpt>
      <trkpt lat="47.29063" lon="4.99388">
        <ele>329</ele>
        <time>2015-04-19T10:59:08.338Z</time>
      </trkpt>
      <trkpt lat="47.29071" lon="4.99391">
        <ele>329</ele>
        <time>2015-04-19T10:59:13.286Z</time>
      </trkpt>
      <trkpt lat="47.29073" lon="4.99391">
        <ele>329</ele>
        <time>2015-04-19T10:59:14.287Z</time>
      </trkpt>
      <trkpt lat="47.2908" lon="4.99393">
        <ele>329</ele>
        <time>2015-04-19T10:59:18.303Z</time>
      </trkpt>
      <trkpt lat="47.29082" lon="4.99393">
        <ele>329</ele>
        <time>2015-04-19T10:59:19.328Z</time>
      </trkpt>
      <trkpt lat="47.2909" lon="4.99399">
        <ele>328</ele>
        <time>2015-04-19T10:59:24.321Z</time>
      </trkpt>
      <trkpt lat="47.29092" lon="4.99401">
        <ele>328</ele>
        <time>2015-04-19T10:59:25.282Z</time>
      </trkpt>
      <trkpt lat="47.29098" lon="4.99406">
        <ele>328</ele>
        <time>2015-04-19T10:59:29.314Z</time>
      </trkpt>
      <trkpt lat="47.291" lon="4.99407">
        <ele>327</ele>
        <time>2015-04-19T10:59:30.305Z</time>
      </trkpt>
      <trkpt lat="47.29107" lon="4.99413">
        <ele>327</ele>
        <time>2015-04-19T10:59:35.298Z</time>
      </trkpt>
      <trkpt lat="47.29109" lon="4.99414">
        <ele>327</ele>
        <time>2015-04-19T10:59:36.312Z</time>
      </trkpt>
      <trkpt lat="47.29115" lon="4.99418">
        <ele>324</ele>
        <time>2015-04-19T10:59:40.308Z</time>
      </trkpt>
      <trkpt lat="47.29117" lon="4.99419">
        <ele>324</ele>
        <time>2015-04-19T10:59:41.307Z</time>
      </trkpt>
      <trkpt lat="47.29123" lon="4.99425">
        <ele>324</ele>
        <time>2015-04-19T10:59:45.296Z</time>
      </trkpt>
      <trkpt lat="47.29124" lon="4.99427">
        <ele>324</ele>
        <time>2015-04-19T10:59:46.314Z</time>
      </trkpt>
      <trkpt lat="47.29132" lon="4.99432">
        <ele>323</ele>
        <time>2015-04-19T10:59:52.291Z</time>
      </trkpt>
      <trkpt lat="47.29133" lon="4.99431">
        <ele>323</ele>
        <time>2015-04-19T10:59:53.301Z</time>
      </trkpt>
      <trkpt lat="47.29138" lon="4.99432">
        <ele>323</ele>
        <time>2015-04-19T11:00:01.285Z</time>
      </trkpt>
      <trkpt lat="47.29138" lon="4.99432">
        <ele>323</ele>
        <time>2015-04-19T11:00:02.299Z</time>
      </trkpt>
      <trkpt lat="47.29138" lon="4.99432">
        <ele>323</ele>
        <time>2015-04-19T11:00:13.298Z</time>
      </trkpt>
      <trkpt lat="47.29138" lon="4.99432">
        <ele>323</ele>
        <time>2015-04-19T11:00:14.303Z</time>
      </trkpt>
      <trkpt lat="47.29138" lon="4.99432">
        <ele>323</ele>
        <time>2015-04-19T11:00:15.294Z</time>
      </trkpt>
      <trkpt lat="47.29138" lon="4.99432">
        <ele>323</ele>
        <time>2015-04-19T11:00:16.307Z</time>
      </trkpt>
      <trkpt lat="47.29142" lon="4.99431">
        <ele>323</ele>
        <time>2015-04-19T11:00:17.301Z</time>
      </trkpt>
      <trkpt lat="47.29146" lon="4.99432">
        <ele>323</ele>
        <time>2015-04-19T11:00:25.306Z</time>
      </trkpt>
      <trkpt lat="47.29146" lon="4.99432">
        <ele>323</ele>
        <time>2015-04-19T11:00:26.301Z</time>
      </trkpt>
      <trkpt lat="47.29146" lon="4.99432">
        <ele>323</ele>
        <time>2015-04-19T11:00:27.328Z</time>
      </trkpt>
      <trkpt lat="47.2915" lon="4.9943">
        <ele>323</ele>
        <time>2015-04-19T11:00:28.304Z</time>
      </trkpt>
      <trkpt lat="47.29157" lon="4.99423">
        <ele>322</ele>
        <time>2015-04-19T11:00:36.294Z</time>
      </trkpt>
      <trkpt lat="47.29157" lon="4.99422">
        <ele>322</ele>
        <time>2015-04-19T11:00:37.296Z</time>
      </trkpt>
      <trkpt lat="47.29162" lon="4.99418">
        <ele>322</ele>
        <time>2015-04-19T11:00:45.283Z</time>
      </trkpt>
      <trkpt lat="47.29162" lon="4.99418">
        <ele>322</ele>
        <time>2015-04-19T11:00:46.303Z</time>
      </trkpt>
      <trkpt lat="47.29162" lon="4.99418">
        <ele>322</ele>
        <time>2015-04-19T11:00:49.292Z</time>
      </trkpt>
      <trkpt lat="47.29166" lon="4.99415">
        <ele>322</ele>
        <time>2015-04-19T11:00:50.317Z</time>
      </trkpt>
      <trkpt lat="47.29174" lon="4.99419">
        <ele>321</ele>
        <time>2015-04-19T11:00:59.312Z</time>
      </trkpt>
      <trkpt lat="47.29175" lon="4.99419">
        <ele>321</ele>
        <time>2015-04-19T11:01:00.284Z</time>
      </trkpt>
      <trkpt lat="47.29183" lon="4.99424">
        <ele>320</ele>
        <time>2015-04-19T11:01:07.293Z</time>
      </trkpt>
      <trkpt lat="47.29184" lon="4.99426">
        <ele>320</ele>
        <time>2015-04-19T11:01:08.294Z</time>
      </trkpt>
      <trkpt lat="47.29189" lon="4.99436">
        <ele>320</ele>
        <time>2015-04-19T11:01:16.306Z</time>
      </trkpt>
      <trkpt lat="47.2919" lon="4.99437">
        <ele>319</ele>
        <time>2015-04-19T11:01:17.305Z</time>
      </trkpt>
      <trkpt lat="47.29198" lon="4.9944">
        <ele>319</ele>
        <time>2015-04-19T11:01:23.302Z</time>
      </trkpt>
      <trkpt lat="47.292" lon="4.99439">
        <ele>319</ele>
        <time>2015-04-19T11:01:24.307Z</time>
      </trkpt>
      <trkpt lat="47.29208" lon="4.99437">
        <ele>319</ele>
        <time>2015-04-19T11:01:29.312Z</time>
      </trkpt>
      <trkpt lat="47.2921" lon="4.99437">
        <ele>319</ele>
        <time>2015-04-19T11:01:30.297Z</time>
      </trkpt>
      <trkpt lat="47.29218" lon="4.99438">
        <ele>319</ele>
        <time>2015-04-19T11:01:35.292Z</time>
      </trkpt>
      <trkpt lat="47.2922" lon="4.99437">
        <ele>319</ele>
        <time>2015-04-19T11:01:36.275Z</time>
      </trkpt>
      <trkpt lat="47.29228" lon="4.99438">
        <ele>319</ele>
        <time>2015-04-19T11:01:40.284Z</time>
      </trkpt>
      <trkpt lat="47.29229" lon="4.99438">
        <ele>319</ele>
        <time>2015-04-19T11:01:41.298Z</time>
      </trkpt>
      <trkpt lat="47.29237" lon="4.99441">
        <ele>318</ele>
        <time>2015-04-19T11:01:46.298Z</time>
      </trkpt>
      <trkpt lat="47.29239" lon="4.99442">
        <ele>318</ele>
        <time>2015-04-19T11:01:47.294Z</time>
      </trkpt>
      <trkpt lat="47.29247" lon="4.99444">
        <ele>318</ele>
        <time>2015-04-19T11:01:52.313Z</time>
      </trkpt>
      <trkpt lat="47.29249" lon="4.99444">
        <ele>318</ele>
        <time>2015-04-19T11:01:53.309Z</time>
      </trkpt>
      <trkpt lat="47.29258" lon="4.99445">
        <ele>319</ele>
        <time>2015-04-19T11:01:58.308Z</time>
      </trkpt>
      <trkpt lat="47.29259" lon="4.99446">
        <ele>319</ele>
        <time>2015-04-19T11:01:59.316Z</time>
      </trkpt>
      <trkpt lat="47.29268" lon="4.99447">
        <ele>319</ele>
        <time>2015-04-19T11:02:04.292Z</time>
      </trkpt>
      <trkpt lat="47.29269" lon="4.99447">
        <ele>319</ele>
        <time>2015-04-19T11:02:05.294Z</time>
      </trkpt>
      <trkpt lat="47.29276" lon="4.99451">
        <ele>319</ele>
        <time>2015-04-19T11:02:10.298Z</time>
      </trkpt>
      <trkpt lat="47.29278" lon="4.99452">
        <ele>319</ele>
        <time>2015-04-19T11:02:11.293Z</time>
      </trkpt>
      <trkpt lat="47.29285" lon="4.99457">
        <ele>320</ele>
        <time>2015-04-19T11:02:16.314Z</time>
      </trkpt>
      <trkpt lat="47.29286" lon="4.99457">
        <ele>320</ele>
        <time>2015-04-19T11:02:17.308Z</time>
      </trkpt>
      <trkpt lat="47.29294" lon="4.9946">
        <ele>320</ele>
        <time>2015-04-19T11:02:23.299Z</time>
      </trkpt>
      <trkpt lat="47.29295" lon="4.99461">
        <ele>320</ele>
        <time>2015-04-19T11:02:24.309Z</time>
      </trkpt>
      <trkpt lat="47.29304" lon="4.99461">
        <ele>320</ele>
        <time>2015-04-19T11:02:30.308Z</time>
      </trkpt>
      <trkpt lat="47.29305" lon="4.99462">
        <ele>320</ele>
        <time>2015-04-19T11:02:31.306Z</time>
      </trkpt>
      <trkpt lat="47.29314" lon="4.99464">
        <ele>321</ele>
        <time>2015-04-19T11:02:37.299Z</time>
      </trkpt>
      <trkpt lat="47.29315" lon="4.99464">
        <ele>321</ele>
        <time>2015-04-19T11:02:38.305Z</time>
      </trkpt>
      <trkpt lat="47.29324" lon="4.99467">
        <ele>321</ele>
        <time>2015-04-19T11:02:44.293Z</time>
      </trkpt>
      <trkpt lat="47.29325" lon="4.99467">
        <ele>321</ele>
        <time>2015-04-19T11:02:45.309Z</time>
      </trkpt>
      <trkpt lat="47.29334" lon="4.99469">
        <ele>327</ele>
        <time>2015-04-19T11:02:51.317Z</time>
      </trkpt>
      <trkpt lat="47.29335" lon="4.99469">
        <ele>327</ele>
        <time>2015-04-19T11:02:52.278Z</time>
      </trkpt>
      <trkpt lat="47.29343" lon="4.99473">
        <ele>327</ele>
        <time>2015-04-19T11:02:58.307Z</time>
      </trkpt>
      <trkpt lat="47.29344" lon="4.99473">
        <ele>328</ele>
        <time>2015-04-19T11:02:59.288Z</time>
      </trkpt>
      <trkpt lat="47.29352" lon="4.99471">
        <ele>328</ele>
        <time>2015-04-19T11:03:07.308Z</time>
      </trkpt>
      <trkpt lat="47.29353" lon="4.9947">
        <ele>328</ele>
        <time>2015-04-19T11:03:08.305Z</time>
      </trkpt>
      <trkpt lat="47.29362" lon="4.99468">
        <ele>329</ele>
        <time>2015-04-19T11:03:18.307Z</time>
      </trkpt>
      <trkpt lat="47.29363" lon="4.99469">
        <ele>329</ele>
        <time>2015-04-19T11:03:19.297Z</time>
      </trkpt>
      <trkpt lat="47.29371" lon="4.99471">
        <ele>330</ele>
        <time>2015-04-19T11:03:26.325Z</time>
      </trkpt>
      <trkpt lat="47.29373" lon="4.99471">
        <ele>330</ele>
        <time>2015-04-19T11:03:27.309Z</time>
      </trkpt>
      <trkpt lat="47.29381" lon="4.99473">
        <ele>331</ele>
        <time>2015-04-19T11:03:34.303Z</time>
      </trkpt>
      <trkpt lat="47.29382" lon="4.99474">
        <ele>331</ele>
        <time>2015-04-19T11:03:35.298Z</time>
      </trkpt>
      <trkpt lat="47.29389" lon="4.99481">
        <ele>332</ele>
        <time>2015-04-19T11:03:45.308Z</time>
      </trkpt>
      <trkpt lat="47.29391" lon="4.99481">
        <ele>332</ele>
        <time>2015-04-19T11:03:46.300Z</time>
      </trkpt>
      <trkpt lat="47.29399" lon="4.99481">
        <ele>332</ele>
        <time>2015-04-19T11:03:53.306Z</time>
      </trkpt>
      <trkpt lat="47.29401" lon="4.99481">
        <ele>333</ele>
        <time>2015-04-19T11:03:54.318Z</time>
      </trkpt>
      <trkpt lat="47.29409" lon="4.99479">
        <ele>333</ele>
        <time>2015-04-19T11:03:59.318Z</time>
      </trkpt>
      <trkpt lat="47.2941" lon="4.99478">
        <ele>333</ele>
        <time>2015-04-19T11:04:00.290Z</time>
      </trkpt>
      <trkpt lat="47.29418" lon="4.99476">
        <ele>339</ele>
        <time>2015-04-19T11:04:05.300Z</time>
      </trkpt>
      <trkpt lat="47.29419" lon="4.99476">
        <ele>339</ele>
        <time>2015-04-19T11:04:06.299Z</time>
      </trkpt>
      <trkpt lat="47.29428" lon="4.99475">
        <ele>340</ele>
        <time>2015-04-19T11:04:12.293Z</time>
      </trkpt>
      <trkpt lat="47.29429" lon="4.99475">
        <ele>340</ele>
        <time>2015-04-19T11:04:13.301Z</time>
      </trkpt>
      <trkpt lat="47.29437" lon="4.99475">
        <ele>340</ele>
        <time>2015-04-19T11:04:18.301Z</time>
      </trkpt>
      <trkpt lat="47.29438" lon="4.99475">
        <ele>340</ele>
        <time>2015-04-19T11:04:19.322Z</time>
      </trkpt>
      <trkpt lat="47.29447" lon="4.99478">
        <ele>340</ele>
        <time>2015-04-19T11:04:25.312Z</time>
      </trkpt>
      <trkpt lat="47.29448" lon="4.99478">
        <ele>341</ele>
        <time>2015-04-19T11:04:26.361Z</time>
      </trkpt>
      <trkpt lat="47.29457" lon="4.99479">
        <ele>341</ele>
        <time>2015-04-19T11:04:33.297Z</time>
      </trkpt>
      <trkpt lat="47.29458" lon="4.99479">
        <ele>341</ele>
        <time>2015-04-19T11:04:34.295Z</time>
      </trkpt>
      <trkpt lat="47.29465" lon="4.99482">
        <ele>342</ele>
        <time>2015-04-19T11:04:39.306Z</time>
      </trkpt>
      <trkpt lat="47.29467" lon="4.99483">
        <ele>342</ele>
        <time>2015-04-19T11:04:40.329Z</time>
      </trkpt>
      <trkpt lat="47.29474" lon="4.99488">
        <ele>342</ele>
        <time>2015-04-19T11:04:45.314Z</time>
      </trkpt>
      <trkpt lat="47.29476" lon="4.99489">
        <ele>342</ele>
        <time>2015-04-19T11:04:46.312Z</time>
      </trkpt>
      <trkpt lat="47.29484" lon="4.99493">
        <ele>343</ele>
        <time>2015-04-19T11:04:51.307Z</time>
      </trkpt>
      <trkpt lat="47.29485" lon="4.99494">
        <ele>343</ele>
        <time>2015-04-19T11:04:52.280Z</time>
      </trkpt>
      <trkpt lat="47.29493" lon="4.99495">
        <ele>343</ele>
        <time>2015-04-19T11:04:57.310Z</time>
      </trkpt>
      <trkpt lat="47.29495" lon="4.99495">
        <ele>343</ele>
        <time>2015-04-19T11:04:58.309Z</time>
      </trkpt>
      <trkpt lat="47.29503" lon="4.99494">
        <ele>345</ele>
        <time>2015-04-19T11:05:03.294Z</time>
      </trkpt>
      <trkpt lat="47.29505" lon="4.99494">
        <ele>345</ele>
        <time>2015-04-19T11:05:04.294Z</time>
      </trkpt>
      <trkpt lat="47.29513" lon="4.99493">
        <ele>346</ele>
        <time>2015-04-19T11:05:10.345Z</time>
      </trkpt>
      <trkpt lat="47.29514" lon="4.99493">
        <ele>346</ele>
        <time>2015-04-19T11:05:11.301Z</time>
      </trkpt>
      <trkpt lat="47.29523" lon="4.99491">
        <ele>347</ele>
        <time>2015-04-19T11:05:17.333Z</time>
      </trkpt>
      <trkpt lat="47.29525" lon="4.99491">
        <ele>347</ele>
        <time>2015-04-19T11:05:18.310Z</time>
      </trkpt>
      <trkpt lat="47.29532" lon="4.99491">
        <ele>347</ele>
        <time>2015-04-19T11:05:23.316Z</time>
      </trkpt>
      <trkpt lat="47.29534" lon="4.99491">
        <ele>347</ele>
        <time>2015-04-19T11:05:24.310Z</time>
      </trkpt>
      <trkpt lat="47.29543" lon="4.99492">
        <ele>348</ele>
        <time>2015-04-19T11:05:31.295Z</time>
      </trkpt>
      <trkpt lat="47.29544" lon="4.99492">
        <ele>348</ele>
        <time>2015-04-19T11:05:32.302Z</time>
      </trkpt>
      <trkpt lat="47.29552" lon="4.99493">
        <ele>348</ele>
        <time>2015-04-19T11:05:38.300Z</time>
      </trkpt>
      <trkpt lat="47.29554" lon="4.99493">
        <ele>348</ele>
        <time>2015-04-19T11:05:39.273Z</time>
      </trkpt>
      <trkpt lat="47.2956" lon="4.99499">
        <ele>348</ele>
        <time>2015-04-19T11:05:43.297Z</time>
      </trkpt>
      <trkpt lat="47.29561" lon="4.995">
        <ele>347</ele>
        <time>2015-04-19T11:05:44.302Z</time>
      </trkpt>
      <trkpt lat="47.29568" lon="4.99505">
        <ele>346</ele>
        <time>2015-04-19T11:05:48.306Z</time>
      </trkpt>
      <trkpt lat="47.2957" lon="4.99506">
        <ele>346</ele>
        <time>2015-04-19T11:05:49.314Z</time>
      </trkpt>
      <trkpt lat="47.29577" lon="4.99511">
        <ele>346</ele>
        <time>2015-04-19T11:05:54.315Z</time>
      </trkpt>
      <trkpt lat="47.29578" lon="4.99512">
        <ele>346</ele>
        <time>2015-04-19T11:05:55.309Z</time>
      </trkpt>
      <trkpt lat="47.29585" lon="4.99517">
        <ele>347</ele>
        <time>2015-04-19T11:06:00.290Z</time>
      </trkpt>
      <trkpt lat="47.29586" lon="4.99518">
        <ele>347</ele>
        <time>2015-04-19T11:06:01.311Z</time>
      </trkpt>
      <trkpt lat="47.29594" lon="4.99523">
        <ele>346</ele>
        <time>2015-04-19T11:06:05.300Z</time>
      </trkpt>
      <trkpt lat="47.29596" lon="4.99524">
        <ele>346</ele>
        <time>2015-04-19T11:06:06.299Z</time>
      </trkpt>
      <trkpt lat="47.29603" lon="4.99529">
        <ele>346</ele>
        <time>2015-04-19T11:06:11.303Z</time>
      </trkpt>
      <trkpt lat="47.29605" lon="4.9953">
        <ele>346</ele>
        <time>2015-04-19T11:06:12.307Z</time>
      </trkpt>
      <trkpt lat="47.29611" lon="4.99536">
        <ele>346</ele>
        <time>2015-04-19T11:06:16.316Z</time>
      </trkpt>
      <trkpt lat="47.29613" lon="4.99538">
        <ele>346</ele>
        <time>2015-04-19T11:06:17.320Z</time>
      </trkpt>
      <trkpt lat="47.2962" lon="4.99541">
        <ele>346</ele>
        <time>2015-04-19T11:06:21.314Z</time>
      </trkpt>
      <trkpt lat="47.29622" lon="4.99542">
        <ele>346</ele>
        <time>2015-04-19T11:06:22.319Z</time>
      </trkpt>
      <trkpt lat="47.29629" lon="4.99548">
        <ele>346</ele>
        <time>2015-04-19T11:06:27.302Z</time>
      </trkpt>
      <trkpt lat="47.2963" lon="4.99549">
        <ele>346</ele>
        <time>2015-04-19T11:06:28.309Z</time>
      </trkpt>
      <trkpt lat="47.29638" lon="4.99551">
        <ele>346</ele>
        <time>2015-04-19T11:06:33.288Z</time>
      </trkpt>
      <trkpt lat="47.29639" lon="4.99552">
        <ele>346</ele>
        <time>2015-04-19T11:06:34.288Z</time>
      </trkpt>
      <trkpt lat="47.29646" lon="4.99555">
        <ele>346</ele>
        <time>2015-04-19T11:06:38.307Z</time>
      </trkpt>
      <trkpt lat="47.29648" lon="4.99556">
        <ele>345</ele>
        <time>2015-04-19T11:06:39.308Z</time>
      </trkpt>
      <trkpt lat="47.29655" lon="4.99562">
        <ele>345</ele>
        <time>2015-04-19T11:06:42.308Z</time>
      </trkpt>
      <trkpt lat="47.29657" lon="4.99563">
        <ele>345</ele>
        <time>2015-04-19T11:06:43.299Z</time>
      </trkpt>
      <trkpt lat="47.29664" lon="4.99568">
        <ele>345</ele>
        <time>2015-04-19T11:06:46.313Z</time>
      </trkpt>
      <trkpt lat="47.29666" lon="4.99569">
        <ele>345</ele>
        <time>2015-04-19T11:06:47.305Z</time>
      </trkpt>
      <trkpt lat="47.29673" lon="4.99574">
        <ele>346</ele>
        <time>2015-04-19T11:06:52.290Z</time>
      </trkpt>
      <trkpt lat="47.29674" lon="4.99575">
        <ele>346</ele>
        <time>2015-04-19T11:06:53.307Z</time>
      </trkpt>
      <trkpt lat="47.29682" lon="4.99577">
        <ele>347</ele>
        <time>2015-04-19T11:06:58.307Z</time>
      </trkpt>
      <trkpt lat="47.29684" lon="4.99578">
        <ele>347</ele>
        <time>2015-04-19T11:06:59.304Z</time>
      </trkpt>
      <trkpt lat="47.29691" lon="4.99581">
        <ele>348</ele>
        <time>2015-04-19T11:07:03.285Z</time>
      </trkpt>
      <trkpt lat="47.29693" lon="4.99582">
        <ele>348</ele>
        <time>2015-04-19T11:07:04.296Z</time>
      </trkpt>
      <trkpt lat="47.29701" lon="4.99584">
        <ele>345</ele>
        <time>2015-04-19T11:07:08.311Z</time>
      </trkpt>
      <trkpt lat="47.29702" lon="4.99585">
        <ele>345</ele>
        <time>2015-04-19T11:07:09.301Z</time>
      </trkpt>
      <trkpt lat="47.29709" lon="4.99591">
        <ele>345</ele>
        <time>2015-04-19T11:07:14.307Z</time>
      </trkpt>
      <trkpt lat="47.29711" lon="4.99592">
        <ele>346</ele>
        <time>2015-04-19T11:07:15.316Z</time>
      </trkpt>
      <trkpt lat="47.29719" lon="4.99595">
        <ele>346</ele>
        <time>2015-04-19T11:07:19.326Z</time>
      </trkpt>
      <trkpt lat="47.29721" lon="4.99596">
        <ele>346</ele>
        <time>2015-04-19T11:07:20.315Z</time>
      </trkpt>
      <trkpt lat="47.29729" lon="4.99599">
        <ele>347</ele>
        <time>2015-04-19T11:07:25.320Z</time>
      </trkpt>
      <trkpt lat="47.29731" lon="4.996">
        <ele>347</ele>
        <time>2015-04-19T11:07:26.321Z</time>
      </trkpt>
      <trkpt lat="47.29738" lon="4.99604">
        <ele>347</ele>
        <time>2015-04-19T11:07:30.302Z</time>
      </trkpt>
      <trkpt lat="47.2974" lon="4.99604">
        <ele>347</ele>
        <time>2015-04-19T11:07:31.330Z</time>
      </trkpt>
      <trkpt lat="47.29747" lon="4.99607">
        <ele>347</ele>
        <time>2015-04-19T11:07:36.312Z</time>
      </trkpt>
      <trkpt lat="47.29749" lon="4.99608">
        <ele>347</ele>
        <time>2015-04-19T11:07:37.301Z</time>
      </trkpt>
      <trkpt lat="47.29756" lon="4.99611">
        <ele>349</ele>
        <time>2015-04-19T11:07:42.302Z</time>
      </trkpt>
      <trkpt lat="47.29758" lon="4.99612">
        <ele>349</ele>
        <time>2015-04-19T11:07:43.307Z</time>
      </trkpt>
      <trkpt lat="47.29764" lon="4.99619">
        <ele>348</ele>
        <time>2015-04-19T11:07:48.314Z</time>
      </trkpt>
      <trkpt lat="47.29766" lon="4.99621">
        <ele>348</ele>
        <time>2015-04-19T11:07:49.313Z</time>
      </trkpt>
      <trkpt lat="47.29771" lon="4.9963">
        <ele>348</ele>
        <time>2015-04-19T11:07:54.332Z</time>
      </trkpt>
      <trkpt lat="47.29773" lon="4.99632">
        <ele>348</ele>
        <time>2015-04-19T11:07:55.318Z</time>
      </trkpt>
      <trkpt lat="47.29778" lon="4.9964">
        <ele>347</ele>
        <time>2015-04-19T11:07:59.329Z</time>
      </trkpt>
      <trkpt lat="47.2978" lon="4.99642">
        <ele>347</ele>
        <time>2015-04-19T11:08:00.300Z</time>
      </trkpt>
      <trkpt lat="47.29786" lon="4.99647">
        <ele>347</ele>
        <time>2015-04-19T11:08:04.312Z</time>
      </trkpt>
      <trkpt lat="47.29788" lon="4.99647">
        <ele>347</ele>
        <time>2015-04-19T11:08:05.299Z</time>
      </trkpt>
      <trkpt lat="47.29796" lon="4.99649">
        <ele>347</ele>
        <time>2015-04-19T11:08:10.312Z</time>
      </trkpt>
      <trkpt lat="47.29798" lon="4.99649">
        <ele>347</ele>
        <time>2015-04-19T11:08:11.301Z</time>
      </trkpt>
      <trkpt lat="47.29806" lon="4.99652">
        <ele>347</ele>
        <time>2015-04-19T11:08:17.316Z</time>
      </trkpt>
      <trkpt lat="47.29807" lon="4.99652">
        <ele>347</ele>
        <time>2015-04-19T11:08:18.315Z</time>
      </trkpt>
      <trkpt lat="47.29815" lon="4.99652">
        <ele>347</ele>
        <time>2015-04-19T11:08:24.288Z</time>
      </trkpt>
      <trkpt lat="47.29817" lon="4.99652">
        <ele>347</ele>
        <time>2015-04-19T11:08:25.320Z</time>
      </trkpt>
      <trkpt lat="47.29818" lon="4.99653">
        <ele>347</ele>
        <time>2015-04-19T11:08:26.311Z</time>
      </trkpt>
      <trkpt lat="47.29818" lon="4.99653">
        <ele>347</ele>
        <time>2015-04-19T11:08:27.329Z</time>
      </trkpt>
      <trkpt lat="47.29818" lon="4.99653">
        <ele>347</ele>
        <time>2015-04-19T11:08:28.319Z</time>
      </trkpt>
      <trkpt lat="47.29818" lon="4.99653">
        <ele>347</ele>
        <time>2015-04-19T11:08:29.331Z</time>
      </trkpt>
      <trkpt lat="47.2982" lon="4.99643">
        <ele>347</ele>
        <time>2015-04-19T11:08:40.297Z</time>
      </trkpt>
      <trkpt lat="47.2982" lon="4.99643">
        <ele>347</ele>
        <time>2015-04-19T11:08:41.297Z</time>
      </trkpt>
      <trkpt lat="47.2982" lon="4.99643">
        <ele>347</ele>
        <time>2015-04-19T11:08:48.349Z</time>
      </trkpt>
      <trkpt lat="47.2982" lon="4.99643">
        <ele>347</ele>
        <time>2015-04-19T11:08:49.329Z</time>
      </trkpt>
      <trkpt lat="47.2982" lon="4.99643">
        <ele>347</ele>
        <time>2015-04-19T11:08:50.334Z</time>
      </trkpt>
      <trkpt lat="47.2982" lon="4.99643">
        <ele>347</ele>
        <time>2015-04-19T11:08:54.326Z</time>
      </trkpt>
      <trkpt lat="47.2982" lon="4.99643">
        <ele>347</ele>
        <time>2015-04-19T11:08:55.320Z</time>
      </trkpt>
      <trkpt lat="47.2982" lon="4.99643">
        <ele>347</ele>
        <time>2015-04-19T11:08:56.327Z</time>
      </trkpt>
      <trkpt lat="47.2982" lon="4.99643">
        <ele>347</ele>
        <time>2015-04-19T11:08:57.320Z</time>
      </trkpt>
      <trkpt lat="47.2982" lon="4.99643">
        <ele>347</ele>
        <time>2015-04-19T11:09:01.297Z</time>
      </trkpt>
      <trkpt lat="47.29821" lon="4.99647">
        <ele>347</ele>
        <time>2015-04-19T11:09:02.309Z</time>
      </trkpt>
      <trkpt lat="47.29822" lon="4.9966">
        <ele>346</ele>
        <time>2015-04-19T11:09:14.328Z</time>
      </trkpt>
      <trkpt lat="47.29822" lon="4.99661">
        <ele>346</ele>
        <time>2015-04-19T11:09:15.363Z</time>
      </trkpt>
      <trkpt lat="47.29829" lon="4.99669">
        <ele>344</ele>
        <time>2015-04-19T11:09:24.332Z</time>
      </trkpt>
      <trkpt lat="47.2983" lon="4.99669">
        <ele>344</ele>
        <time>2015-04-19T11:09:25.328Z</time>
      </trkpt>
      <trkpt lat="47.29835" lon="4.99671">
        <ele>344</ele>
        <time>2015-04-19T11:09:32.313Z</time>
      </trkpt>
      <trkpt lat="47.29835" lon="4.99671">
        <ele>344</ele>
        <time>2015-04-19T11:09:33.302Z</time>
      </trkpt>
      <trkpt lat="47.29839" lon="4.9967">
        <ele>344</ele>
        <time>2015-04-19T11:09:49.316Z</time>
      </trkpt>
      <trkpt lat="47.2984" lon="4.9967">
        <ele>344</ele>
        <time>2015-04-19T11:09:50.352Z</time>
      </trkpt>
      <trkpt lat="47.29841" lon="4.99668">
        <ele>344</ele>
        <time>2015-04-19T11:09:53.314Z</time>
      </trkpt>
      <trkpt lat="47.29841" lon="4.99668">
        <ele>344</ele>
        <time>2015-04-19T11:09:54.313Z</time>
      </trkpt>
      <trkpt lat="47.29841" lon="4.99668">
        <ele>344</ele>
        <time>2015-04-19T11:09:55.313Z</time>
      </trkpt>
      <trkpt lat="47.29838" lon="4.99657">
        <ele>346</ele>
        <time>2015-04-19T11:10:05.278Z</time>
      </trkpt>
      <trkpt lat="47.29837" lon="4.99655">
        <ele>346</ele>
        <time>2015-04-19T11:10:06.304Z</time>
      </trkpt>
      <trkpt lat="47.29837" lon="4.99642">
        <ele>347</ele>
        <time>2015-04-19T11:10:14.314Z</time>
      </trkpt>
      <trkpt lat="47.29838" lon="4.99641">
        <ele>347</ele>
        <time>2015-04-19T11:10:15.310Z</time>
      </trkpt>
      <trkpt lat="47.29838" lon="4.9964">
        <ele>347</ele>
        <time>2015-04-19T11:10:16.328Z</time>
      </trkpt>
      <trkpt lat="47.29838" lon="4.9964">
        <ele>347</ele>
        <time>2015-04-19T11:10:35.273Z</time>
      </trkpt>
      <trkpt lat="47.29836" lon="4.99638">
        <ele>347</ele>
        <time>2015-04-19T11:10:36.272Z</time>
      </trkpt>
      <trkpt lat="47.29837" lon="4.99638">
        <ele>347</ele>
        <time>2015-04-19T11:10:37.280Z</time>
      </trkpt>
    </trkseg>
  </trk>
</gpx>